<?xml version="1.0" encoding="UTF-8" standalone="no" ?>
<gpx xmlns="http://www.topografix.com/GPX/1/1" xmlns:xsi="http://www.w3.org/2001/XMLSchema-instance" xsi:schemaLocation="http://www.topografix.com/GPX/1/1 http://www.topografix.com/GPX/1/1/gpx.xsd" version="1.1" creator="VisuGPX - https://www.visugpx.com">
  <metadata>
    <name>Pornichet 25/02/21</name>
    <desc><![CDATA[Sortie vtt du jeudi 25 février 2021]]></desc>
  </metadata>
  <trk>
    <name><![CDATA[Pornichet Cyclisme]]></name>
    <trkseg>
      <trkpt lat="47.26412" lon="-2.31569">
        <ele>9.8</ele>
        <time>2021-02-25T08:16:07.000Z</time>
      </trkpt>
      <trkpt lat="47.26412" lon="-2.31584">
        <ele>9.8</ele>
        <time>2021-02-25T08:16:10.000Z</time>
      </trkpt>
      <trkpt lat="47.26411" lon="-2.31589">
        <ele>3</ele>
        <time>2021-02-25T08:16:11.000Z</time>
      </trkpt>
      <trkpt lat="47.26411" lon="-2.31595">
        <ele>5.8000001907349</ele>
        <time>2021-02-25T08:16:12.000Z</time>
      </trkpt>
      <trkpt lat="47.2641" lon="-2.31601">
        <ele>8.8000001907349</ele>
        <time>2021-02-25T08:16:13.000Z</time>
      </trkpt>
      <trkpt lat="47.2641" lon="-2.31607">
        <ele>11.60000038147</ele>
        <time>2021-02-25T08:16:14.000Z</time>
      </trkpt>
      <trkpt lat="47.26409" lon="-2.31634">
        <ele>11.60000038147</ele>
        <time>2021-02-25T08:16:18.000Z</time>
      </trkpt>
      <trkpt lat="47.2641" lon="-2.31654">
        <ele>11.60000038147</ele>
        <time>2021-02-25T08:16:21.000Z</time>
      </trkpt>
      <trkpt lat="47.26409" lon="-2.31665">
        <ele>11.60000038147</ele>
        <time>2021-02-25T08:16:23.000Z</time>
      </trkpt>
      <trkpt lat="47.26397" lon="-2.31672">
        <ele>11.60000038147</ele>
        <time>2021-02-25T08:16:26.000Z</time>
      </trkpt>
      <trkpt lat="47.26392" lon="-2.31674">
        <ele>11.60000038147</ele>
        <time>2021-02-25T08:16:27.000Z</time>
      </trkpt>
      <trkpt lat="47.26371" lon="-2.31686">
        <ele>11.60000038147</ele>
        <time>2021-02-25T08:16:31.000Z</time>
      </trkpt>
      <trkpt lat="47.26355" lon="-2.31695">
        <ele>6.1999998092651</ele>
        <time>2021-02-25T08:16:34.000Z</time>
      </trkpt>
      <trkpt lat="47.26349" lon="-2.31698">
        <ele>3.5999999046326</ele>
        <time>2021-02-25T08:16:35.000Z</time>
      </trkpt>
      <trkpt lat="47.26344" lon="-2.31701">
        <ele>0.80000001192093</ele>
        <time>2021-02-25T08:16:36.000Z</time>
      </trkpt>
      <trkpt lat="47.26338" lon="-2.31703">
        <ele>-2</ele>
        <time>2021-02-25T08:16:37.000Z</time>
      </trkpt>
      <trkpt lat="47.26312" lon="-2.31716">
        <ele>-2.4000000953674</ele>
        <time>2021-02-25T08:16:42.000Z</time>
      </trkpt>
      <trkpt lat="47.26308" lon="-2.31718">
        <ele>-2.7999999523163</ele>
        <time>2021-02-25T08:16:43.000Z</time>
      </trkpt>
      <trkpt lat="47.26305" lon="-2.31722">
        <ele>-3.2000000476837</ele>
        <time>2021-02-25T08:16:44.000Z</time>
      </trkpt>
      <trkpt lat="47.26303" lon="-2.31727">
        <ele>-3.5999999046326</ele>
        <time>2021-02-25T08:16:45.000Z</time>
      </trkpt>
      <trkpt lat="47.26303" lon="-2.31733">
        <ele>-4</ele>
        <time>2021-02-25T08:16:46.000Z</time>
      </trkpt>
      <trkpt lat="47.26305" lon="-2.31752">
        <ele>-4</ele>
        <time>2021-02-25T08:16:49.000Z</time>
      </trkpt>
      <trkpt lat="47.26306" lon="-2.31766">
        <ele>-4</ele>
        <time>2021-02-25T08:16:51.000Z</time>
      </trkpt>
      <trkpt lat="47.26306" lon="-2.31773">
        <ele>-4</ele>
        <time>2021-02-25T08:16:52.000Z</time>
      </trkpt>
      <trkpt lat="47.26307" lon="-2.31794">
        <ele>-4</ele>
        <time>2021-02-25T08:16:55.000Z</time>
      </trkpt>
      <trkpt lat="47.26307" lon="-2.31801">
        <ele>-4</ele>
        <time>2021-02-25T08:16:56.000Z</time>
      </trkpt>
      <trkpt lat="47.26304" lon="-2.31838">
        <ele>-4</ele>
        <time>2021-02-25T08:17:01.000Z</time>
      </trkpt>
      <trkpt lat="47.26303" lon="-2.31845">
        <ele>-4.4000000953674</ele>
        <time>2021-02-25T08:17:02.000Z</time>
      </trkpt>
      <trkpt lat="47.26302" lon="-2.31851">
        <ele>-4.8000001907349</ele>
        <time>2021-02-25T08:17:03.000Z</time>
      </trkpt>
      <trkpt lat="47.26302" lon="-2.31857">
        <ele>-5.1999998092651</ele>
        <time>2021-02-25T08:17:04.000Z</time>
      </trkpt>
      <trkpt lat="47.26302" lon="-2.31863">
        <ele>-5.5999999046326</ele>
        <time>2021-02-25T08:17:05.000Z</time>
      </trkpt>
      <trkpt lat="47.26302" lon="-2.31867">
        <ele>-6</ele>
        <time>2021-02-25T08:17:06.000Z</time>
      </trkpt>
      <trkpt lat="47.26297" lon="-2.31889">
        <ele>-6</ele>
        <time>2021-02-25T08:17:12.000Z</time>
      </trkpt>
      <trkpt lat="47.26284" lon="-2.31899">
        <ele>-6</ele>
        <time>2021-02-25T08:17:17.000Z</time>
      </trkpt>
      <trkpt lat="47.26273" lon="-2.31911">
        <ele>-6</ele>
        <time>2021-02-25T08:17:20.000Z</time>
      </trkpt>
      <trkpt lat="47.26271" lon="-2.31915">
        <ele>-6</ele>
        <time>2021-02-25T08:17:21.000Z</time>
      </trkpt>
      <trkpt lat="47.26263" lon="-2.31933">
        <ele>-6</ele>
        <time>2021-02-25T08:17:25.000Z</time>
      </trkpt>
      <trkpt lat="47.26256" lon="-2.31946">
        <ele>-6</ele>
        <time>2021-02-25T08:17:29.000Z</time>
      </trkpt>
      <trkpt lat="47.26247" lon="-2.31964">
        <ele>-6</ele>
        <time>2021-02-25T08:17:35.000Z</time>
      </trkpt>
      <trkpt lat="47.2624" lon="-2.31973">
        <ele>-6.4000000953674</ele>
        <time>2021-02-25T08:17:39.000Z</time>
      </trkpt>
      <trkpt lat="47.26237" lon="-2.31973">
        <ele>-6.8000001907349</ele>
        <time>2021-02-25T08:17:40.000Z</time>
      </trkpt>
      <trkpt lat="47.26235" lon="-2.31972">
        <ele>-7.1999998092651</ele>
        <time>2021-02-25T08:17:41.000Z</time>
      </trkpt>
      <trkpt lat="47.26233" lon="-2.31972">
        <ele>-7.5999999046326</ele>
        <time>2021-02-25T08:17:42.000Z</time>
      </trkpt>
      <trkpt lat="47.26231" lon="-2.31973">
        <ele>-8</ele>
        <time>2021-02-25T08:17:43.000Z</time>
      </trkpt>
      <trkpt lat="47.2623" lon="-2.31974">
        <ele>-8</ele>
        <time>2021-02-25T08:17:44.000Z</time>
      </trkpt>
      <trkpt lat="47.26224" lon="-2.31983">
        <ele>-8</ele>
        <time>2021-02-25T08:17:47.000Z</time>
      </trkpt>
      <trkpt lat="47.26217" lon="-2.31989">
        <ele>-8</ele>
        <time>2021-02-25T08:17:49.000Z</time>
      </trkpt>
      <trkpt lat="47.26203" lon="-2.31999">
        <ele>-8</ele>
        <time>2021-02-25T08:17:54.000Z</time>
      </trkpt>
      <trkpt lat="47.26202" lon="-2.3201">
        <ele>-8</ele>
        <time>2021-02-25T08:17:57.000Z</time>
      </trkpt>
      <trkpt lat="47.26198" lon="-2.3202">
        <ele>-8</ele>
        <time>2021-02-25T08:18:01.000Z</time>
      </trkpt>
      <trkpt lat="47.2619" lon="-2.32019">
        <ele>-8</ele>
        <time>2021-02-25T08:18:05.000Z</time>
      </trkpt>
      <trkpt lat="47.26186" lon="-2.3202">
        <ele>-8</ele>
        <time>2021-02-25T08:18:06.000Z</time>
      </trkpt>
      <trkpt lat="47.26166" lon="-2.3203">
        <ele>-8</ele>
        <time>2021-02-25T08:18:11.000Z</time>
      </trkpt>
      <trkpt lat="47.26156" lon="-2.32052">
        <ele>-8</ele>
        <time>2021-02-25T08:18:15.000Z</time>
      </trkpt>
      <trkpt lat="47.26154" lon="-2.32059">
        <ele>-8</ele>
        <time>2021-02-25T08:18:16.000Z</time>
      </trkpt>
      <trkpt lat="47.26149" lon="-2.32076">
        <ele>-8</ele>
        <time>2021-02-25T08:18:19.000Z</time>
      </trkpt>
      <trkpt lat="47.26145" lon="-2.32088">
        <ele>-8</ele>
        <time>2021-02-25T08:18:21.000Z</time>
      </trkpt>
      <trkpt lat="47.26143" lon="-2.32094">
        <ele>-8</ele>
        <time>2021-02-25T08:18:22.000Z</time>
      </trkpt>
      <trkpt lat="47.26137" lon="-2.32113">
        <ele>-8</ele>
        <time>2021-02-25T08:18:25.000Z</time>
      </trkpt>
      <trkpt lat="47.26131" lon="-2.32131">
        <ele>-8</ele>
        <time>2021-02-25T08:18:28.000Z</time>
      </trkpt>
      <trkpt lat="47.26126" lon="-2.32143">
        <ele>-8</ele>
        <time>2021-02-25T08:18:30.000Z</time>
      </trkpt>
      <trkpt lat="47.26116" lon="-2.32169">
        <ele>-8</ele>
        <time>2021-02-25T08:18:34.000Z</time>
      </trkpt>
      <trkpt lat="47.26106" lon="-2.32195">
        <ele>-8</ele>
        <time>2021-02-25T08:18:38.000Z</time>
      </trkpt>
      <trkpt lat="47.26103" lon="-2.32201">
        <ele>-8</ele>
        <time>2021-02-25T08:18:39.000Z</time>
      </trkpt>
      <trkpt lat="47.26093" lon="-2.32217">
        <ele>-8</ele>
        <time>2021-02-25T08:18:42.000Z</time>
      </trkpt>
      <trkpt lat="47.26082" lon="-2.32233">
        <ele>-8</ele>
        <time>2021-02-25T08:18:45.000Z</time>
      </trkpt>
      <trkpt lat="47.26066" lon="-2.32252">
        <ele>-8</ele>
        <time>2021-02-25T08:18:49.000Z</time>
      </trkpt>
      <trkpt lat="47.26058" lon="-2.32261">
        <ele>-8</ele>
        <time>2021-02-25T08:18:51.000Z</time>
      </trkpt>
      <trkpt lat="47.26033" lon="-2.32289">
        <ele>-8</ele>
        <time>2021-02-25T08:18:57.000Z</time>
      </trkpt>
      <trkpt lat="47.2601" lon="-2.32318">
        <ele>-8</ele>
        <time>2021-02-25T08:19:03.000Z</time>
      </trkpt>
      <trkpt lat="47.25984" lon="-2.32353">
        <ele>-8</ele>
        <time>2021-02-25T08:19:10.000Z</time>
      </trkpt>
      <trkpt lat="47.25961" lon="-2.32382">
        <ele>-8</ele>
        <time>2021-02-25T08:19:16.000Z</time>
      </trkpt>
      <trkpt lat="47.25935" lon="-2.32417">
        <ele>-8</ele>
        <time>2021-02-25T08:19:23.000Z</time>
      </trkpt>
      <trkpt lat="47.25913" lon="-2.32446">
        <ele>-8</ele>
        <time>2021-02-25T08:19:29.000Z</time>
      </trkpt>
      <trkpt lat="47.25909" lon="-2.32451">
        <ele>-8</ele>
        <time>2021-02-25T08:19:30.000Z</time>
      </trkpt>
      <trkpt lat="47.25902" lon="-2.3246">
        <ele>-8</ele>
        <time>2021-02-25T08:19:32.000Z</time>
      </trkpt>
      <trkpt lat="47.259" lon="-2.32468">
        <ele>-8</ele>
        <time>2021-02-25T08:19:34.000Z</time>
      </trkpt>
      <trkpt lat="47.25904" lon="-2.32473">
        <ele>-8</ele>
        <time>2021-02-25T08:19:37.000Z</time>
      </trkpt>
      <trkpt lat="47.25917" lon="-2.32488">
        <ele>-8</ele>
        <time>2021-02-25T08:19:41.000Z</time>
      </trkpt>
      <trkpt lat="47.2592" lon="-2.32494">
        <ele>-8</ele>
        <time>2021-02-25T08:19:42.000Z</time>
      </trkpt>
      <trkpt lat="47.2593" lon="-2.32521">
        <ele>-8</ele>
        <time>2021-02-25T08:19:46.000Z</time>
      </trkpt>
      <trkpt lat="47.25946" lon="-2.32569">
        <ele>-8</ele>
        <time>2021-02-25T08:19:53.000Z</time>
      </trkpt>
      <trkpt lat="47.25956" lon="-2.32613">
        <ele>-8</ele>
        <time>2021-02-25T08:19:59.000Z</time>
      </trkpt>
      <trkpt lat="47.25957" lon="-2.32621">
        <ele>-8</ele>
        <time>2021-02-25T08:20:00.000Z</time>
      </trkpt>
      <trkpt lat="47.25959" lon="-2.32644">
        <ele>-8</ele>
        <time>2021-02-25T08:20:03.000Z</time>
      </trkpt>
      <trkpt lat="47.2596" lon="-2.32658">
        <ele>-8</ele>
        <time>2021-02-25T08:20:05.000Z</time>
      </trkpt>
      <trkpt lat="47.25967" lon="-2.32662">
        <ele>-8</ele>
        <time>2021-02-25T08:20:07.000Z</time>
      </trkpt>
      <trkpt lat="47.25979" lon="-2.3266">
        <ele>-8</ele>
        <time>2021-02-25T08:20:10.000Z</time>
      </trkpt>
      <trkpt lat="47.25991" lon="-2.32665">
        <ele>-8</ele>
        <time>2021-02-25T08:20:13.000Z</time>
      </trkpt>
      <trkpt lat="47.25995" lon="-2.32667">
        <ele>-8</ele>
        <time>2021-02-25T08:20:14.000Z</time>
      </trkpt>
      <trkpt lat="47.26" lon="-2.32666">
        <ele>-8</ele>
        <time>2021-02-25T08:20:15.000Z</time>
      </trkpt>
      <trkpt lat="47.26023" lon="-2.32658">
        <ele>-8</ele>
        <time>2021-02-25T08:20:20.000Z</time>
      </trkpt>
      <trkpt lat="47.26033" lon="-2.32654">
        <ele>-8</ele>
        <time>2021-02-25T08:20:22.000Z</time>
      </trkpt>
      <trkpt lat="47.26047" lon="-2.32649">
        <ele>-8</ele>
        <time>2021-02-25T08:20:25.000Z</time>
      </trkpt>
      <trkpt lat="47.26051" lon="-2.32649">
        <ele>-8</ele>
        <time>2021-02-25T08:20:26.000Z</time>
      </trkpt>
      <trkpt lat="47.26083" lon="-2.32643">
        <ele>-8</ele>
        <time>2021-02-25T08:20:33.000Z</time>
      </trkpt>
      <trkpt lat="47.26125" lon="-2.32639">
        <ele>-8</ele>
        <time>2021-02-25T08:20:42.000Z</time>
      </trkpt>
      <trkpt lat="47.26129" lon="-2.32639">
        <ele>-8</ele>
        <time>2021-02-25T08:20:43.000Z</time>
      </trkpt>
      <trkpt lat="47.26147" lon="-2.32646">
        <ele>-8</ele>
        <time>2021-02-25T08:20:47.000Z</time>
      </trkpt>
      <trkpt lat="47.26176" lon="-2.32657">
        <ele>-8</ele>
        <time>2021-02-25T08:20:53.000Z</time>
      </trkpt>
      <trkpt lat="47.26185" lon="-2.32664">
        <ele>-8</ele>
        <time>2021-02-25T08:20:55.000Z</time>
      </trkpt>
      <trkpt lat="47.26201" lon="-2.3268">
        <ele>-8</ele>
        <time>2021-02-25T08:20:59.000Z</time>
      </trkpt>
      <trkpt lat="47.26229" lon="-2.32715">
        <ele>-8</ele>
        <time>2021-02-25T08:21:06.000Z</time>
      </trkpt>
      <trkpt lat="47.26266" lon="-2.32774">
        <ele>-8</ele>
        <time>2021-02-25T08:21:15.000Z</time>
      </trkpt>
      <trkpt lat="47.26276" lon="-2.32796">
        <ele>-8</ele>
        <time>2021-02-25T08:21:18.000Z</time>
      </trkpt>
      <trkpt lat="47.26284" lon="-2.32819">
        <ele>-8</ele>
        <time>2021-02-25T08:21:21.000Z</time>
      </trkpt>
      <trkpt lat="47.26286" lon="-2.32827">
        <ele>-8</ele>
        <time>2021-02-25T08:21:22.000Z</time>
      </trkpt>
      <trkpt lat="47.26288" lon="-2.32844">
        <ele>-8.3999996185303</ele>
        <time>2021-02-25T08:21:24.000Z</time>
      </trkpt>
      <trkpt lat="47.2629" lon="-2.32853">
        <ele>-8.8000001907349</ele>
        <time>2021-02-25T08:21:25.000Z</time>
      </trkpt>
      <trkpt lat="47.26293" lon="-2.32859">
        <ele>-9.1999998092651</ele>
        <time>2021-02-25T08:21:26.000Z</time>
      </trkpt>
      <trkpt lat="47.26298" lon="-2.32864">
        <ele>-9.6000003814697</ele>
        <time>2021-02-25T08:21:27.000Z</time>
      </trkpt>
      <trkpt lat="47.26303" lon="-2.32865">
        <ele>-10.199999809265</ele>
        <time>2021-02-25T08:21:28.000Z</time>
      </trkpt>
      <trkpt lat="47.2632" lon="-2.32881">
        <ele>-10.199999809265</ele>
        <time>2021-02-25T08:21:32.000Z</time>
      </trkpt>
      <trkpt lat="47.26324" lon="-2.32896">
        <ele>-10.199999809265</ele>
        <time>2021-02-25T08:21:34.000Z</time>
      </trkpt>
      <trkpt lat="47.26333" lon="-2.32924">
        <ele>-10.199999809265</ele>
        <time>2021-02-25T08:21:38.000Z</time>
      </trkpt>
      <trkpt lat="47.26355" lon="-2.32977">
        <ele>-10.199999809265</ele>
        <time>2021-02-25T08:21:46.000Z</time>
      </trkpt>
      <trkpt lat="47.26366" lon="-2.32992">
        <ele>-10.199999809265</ele>
        <time>2021-02-25T08:21:49.000Z</time>
      </trkpt>
      <trkpt lat="47.26367" lon="-2.32999">
        <ele>-10.199999809265</ele>
        <time>2021-02-25T08:21:50.000Z</time>
      </trkpt>
      <trkpt lat="47.26367" lon="-2.33037">
        <ele>-10.199999809265</ele>
        <time>2021-02-25T08:21:55.000Z</time>
      </trkpt>
      <trkpt lat="47.26368" lon="-2.33092">
        <ele>-10.199999809265</ele>
        <time>2021-02-25T08:22:02.000Z</time>
      </trkpt>
      <trkpt lat="47.2637" lon="-2.33115">
        <ele>-10.199999809265</ele>
        <time>2021-02-25T08:22:05.000Z</time>
      </trkpt>
      <trkpt lat="47.26374" lon="-2.33129">
        <ele>-10.199999809265</ele>
        <time>2021-02-25T08:22:07.000Z</time>
      </trkpt>
      <trkpt lat="47.26377" lon="-2.3316">
        <ele>-10.199999809265</ele>
        <time>2021-02-25T08:22:11.000Z</time>
      </trkpt>
      <trkpt lat="47.26377" lon="-2.33168">
        <ele>-10.199999809265</ele>
        <time>2021-02-25T08:22:12.000Z</time>
      </trkpt>
      <trkpt lat="47.2638" lon="-2.33239">
        <ele>-10.199999809265</ele>
        <time>2021-02-25T08:22:21.000Z</time>
      </trkpt>
      <trkpt lat="47.26382" lon="-2.33246">
        <ele>-10.199999809265</ele>
        <time>2021-02-25T08:22:22.000Z</time>
      </trkpt>
      <trkpt lat="47.26391" lon="-2.33264">
        <ele>-10.199999809265</ele>
        <time>2021-02-25T08:22:25.000Z</time>
      </trkpt>
      <trkpt lat="47.26407" lon="-2.33268">
        <ele>-10.199999809265</ele>
        <time>2021-02-25T08:22:28.000Z</time>
      </trkpt>
      <trkpt lat="47.26412" lon="-2.33269">
        <ele>-10.199999809265</ele>
        <time>2021-02-25T08:22:29.000Z</time>
      </trkpt>
      <trkpt lat="47.26454" lon="-2.33273">
        <ele>-10.199999809265</ele>
        <time>2021-02-25T08:22:37.000Z</time>
      </trkpt>
      <trkpt lat="47.26498" lon="-2.3328">
        <ele>-10.199999809265</ele>
        <time>2021-02-25T08:22:46.000Z</time>
      </trkpt>
      <trkpt lat="47.26503" lon="-2.33281">
        <ele>-10.199999809265</ele>
        <time>2021-02-25T08:22:47.000Z</time>
      </trkpt>
      <trkpt lat="47.26517" lon="-2.33288">
        <ele>-10.199999809265</ele>
        <time>2021-02-25T08:22:50.000Z</time>
      </trkpt>
      <trkpt lat="47.26536" lon="-2.33292">
        <ele>-10.199999809265</ele>
        <time>2021-02-25T08:22:54.000Z</time>
      </trkpt>
      <trkpt lat="47.26543" lon="-2.33299">
        <ele>-10.199999809265</ele>
        <time>2021-02-25T08:22:57.000Z</time>
      </trkpt>
      <trkpt lat="47.2655" lon="-2.33289">
        <ele>-10.199999809265</ele>
        <time>2021-02-25T08:23:00.000Z</time>
      </trkpt>
      <trkpt lat="47.2656" lon="-2.33278">
        <ele>-10.199999809265</ele>
        <time>2021-02-25T08:23:03.000Z</time>
      </trkpt>
      <trkpt lat="47.26563" lon="-2.33274">
        <ele>-10.199999809265</ele>
        <time>2021-02-25T08:23:04.000Z</time>
      </trkpt>
      <trkpt lat="47.26579" lon="-2.33258">
        <ele>-10.199999809265</ele>
        <time>2021-02-25T08:23:08.000Z</time>
      </trkpt>
      <trkpt lat="47.26588" lon="-2.3325">
        <ele>-10.199999809265</ele>
        <time>2021-02-25T08:23:10.000Z</time>
      </trkpt>
      <trkpt lat="47.26608" lon="-2.33229">
        <ele>-10.199999809265</ele>
        <time>2021-02-25T08:23:15.000Z</time>
      </trkpt>
      <trkpt lat="47.26621" lon="-2.33216">
        <ele>-10.199999809265</ele>
        <time>2021-02-25T08:23:18.000Z</time>
      </trkpt>
      <trkpt lat="47.26649" lon="-2.33187">
        <ele>-10.199999809265</ele>
        <time>2021-02-25T08:23:25.000Z</time>
      </trkpt>
      <trkpt lat="47.26676" lon="-2.3316">
        <ele>-10.199999809265</ele>
        <time>2021-02-25T08:23:32.000Z</time>
      </trkpt>
      <trkpt lat="47.2671" lon="-2.33128">
        <ele>-10.199999809265</ele>
        <time>2021-02-25T08:23:40.000Z</time>
      </trkpt>
      <trkpt lat="47.26742" lon="-2.33095">
        <ele>-10.199999809265</ele>
        <time>2021-02-25T08:23:48.000Z</time>
      </trkpt>
      <trkpt lat="47.26745" lon="-2.3309">
        <ele>-10.199999809265</ele>
        <time>2021-02-25T08:23:49.000Z</time>
      </trkpt>
      <trkpt lat="47.26757" lon="-2.33091">
        <ele>-10.199999809265</ele>
        <time>2021-02-25T08:23:52.000Z</time>
      </trkpt>
      <trkpt lat="47.26765" lon="-2.33109">
        <ele>-10.199999809265</ele>
        <time>2021-02-25T08:23:55.000Z</time>
      </trkpt>
      <trkpt lat="47.26763" lon="-2.33141">
        <ele>-10.199999809265</ele>
        <time>2021-02-25T08:23:59.000Z</time>
      </trkpt>
      <trkpt lat="47.26759" lon="-2.33157">
        <ele>-10.199999809265</ele>
        <time>2021-02-25T08:24:01.000Z</time>
      </trkpt>
      <trkpt lat="47.2675" lon="-2.33187">
        <ele>-10.199999809265</ele>
        <time>2021-02-25T08:24:05.000Z</time>
      </trkpt>
      <trkpt lat="47.26742" lon="-2.33215">
        <ele>-10.199999809265</ele>
        <time>2021-02-25T08:24:09.000Z</time>
      </trkpt>
      <trkpt lat="47.26729" lon="-2.33275">
        <ele>-10.199999809265</ele>
        <time>2021-02-25T08:24:17.000Z</time>
      </trkpt>
      <trkpt lat="47.26737" lon="-2.33307">
        <ele>-10.199999809265</ele>
        <time>2021-02-25T08:24:21.000Z</time>
      </trkpt>
      <trkpt lat="47.2674" lon="-2.33324">
        <ele>-10.199999809265</ele>
        <time>2021-02-25T08:24:23.000Z</time>
      </trkpt>
      <trkpt lat="47.26745" lon="-2.33339">
        <ele>-10.199999809265</ele>
        <time>2021-02-25T08:24:25.000Z</time>
      </trkpt>
      <trkpt lat="47.26747" lon="-2.33355">
        <ele>-10.199999809265</ele>
        <time>2021-02-25T08:24:27.000Z</time>
      </trkpt>
      <trkpt lat="47.2675" lon="-2.33381">
        <ele>-10.199999809265</ele>
        <time>2021-02-25T08:24:30.000Z</time>
      </trkpt>
      <trkpt lat="47.26757" lon="-2.33439">
        <ele>-10.199999809265</ele>
        <time>2021-02-25T08:24:37.000Z</time>
      </trkpt>
      <trkpt lat="47.26766" lon="-2.33509">
        <ele>-10.199999809265</ele>
        <time>2021-02-25T08:24:46.000Z</time>
      </trkpt>
      <trkpt lat="47.26775" lon="-2.33563">
        <ele>-10.199999809265</ele>
        <time>2021-02-25T08:24:53.000Z</time>
      </trkpt>
      <trkpt lat="47.26777" lon="-2.33569">
        <ele>-10.199999809265</ele>
        <time>2021-02-25T08:24:54.000Z</time>
      </trkpt>
      <trkpt lat="47.26786" lon="-2.33576">
        <ele>-10.199999809265</ele>
        <time>2021-02-25T08:24:56.000Z</time>
      </trkpt>
      <trkpt lat="47.26797" lon="-2.33573">
        <ele>-10.199999809265</ele>
        <time>2021-02-25T08:24:59.000Z</time>
      </trkpt>
      <trkpt lat="47.26822" lon="-2.33559">
        <ele>-10.199999809265</ele>
        <time>2021-02-25T08:25:04.000Z</time>
      </trkpt>
      <trkpt lat="47.26832" lon="-2.33555">
        <ele>-10.199999809265</ele>
        <time>2021-02-25T08:25:06.000Z</time>
      </trkpt>
      <trkpt lat="47.26846" lon="-2.33547">
        <ele>-10.199999809265</ele>
        <time>2021-02-25T08:25:09.000Z</time>
      </trkpt>
      <trkpt lat="47.26852" lon="-2.33544">
        <ele>-10.199999809265</ele>
        <time>2021-02-25T08:25:10.000Z</time>
      </trkpt>
      <trkpt lat="47.2688" lon="-2.33538">
        <ele>-10.199999809265</ele>
        <time>2021-02-25T08:25:15.000Z</time>
      </trkpt>
      <trkpt lat="47.26885" lon="-2.3354">
        <ele>-10.199999809265</ele>
        <time>2021-02-25T08:25:16.000Z</time>
      </trkpt>
      <trkpt lat="47.26896" lon="-2.33552">
        <ele>-10.199999809265</ele>
        <time>2021-02-25T08:25:19.000Z</time>
      </trkpt>
      <trkpt lat="47.26904" lon="-2.33568">
        <ele>-10.199999809265</ele>
        <time>2021-02-25T08:25:22.000Z</time>
      </trkpt>
      <trkpt lat="47.26909" lon="-2.3358">
        <ele>-9.8000001907349</ele>
        <time>2021-02-25T08:25:24.000Z</time>
      </trkpt>
      <trkpt lat="47.26911" lon="-2.33586">
        <ele>-9.1999998092651</ele>
        <time>2021-02-25T08:25:25.000Z</time>
      </trkpt>
      <trkpt lat="47.26914" lon="-2.33592">
        <ele>-8.8000001907349</ele>
        <time>2021-02-25T08:25:26.000Z</time>
      </trkpt>
      <trkpt lat="47.26916" lon="-2.33597">
        <ele>-8.3999996185303</ele>
        <time>2021-02-25T08:25:27.000Z</time>
      </trkpt>
      <trkpt lat="47.26917" lon="-2.33602">
        <ele>-8</ele>
        <time>2021-02-25T08:25:28.000Z</time>
      </trkpt>
      <trkpt lat="47.26921" lon="-2.33614">
        <ele>-8</ele>
        <time>2021-02-25T08:25:30.000Z</time>
      </trkpt>
      <trkpt lat="47.26927" lon="-2.33651">
        <ele>-8</ele>
        <time>2021-02-25T08:25:36.000Z</time>
      </trkpt>
      <trkpt lat="47.26937" lon="-2.33698">
        <ele>-7.5999999046326</ele>
        <time>2021-02-25T08:25:43.000Z</time>
      </trkpt>
      <trkpt lat="47.26937" lon="-2.33705">
        <ele>-7.1999998092651</ele>
        <time>2021-02-25T08:25:44.000Z</time>
      </trkpt>
      <trkpt lat="47.26938" lon="-2.33712">
        <ele>-6.8000001907349</ele>
        <time>2021-02-25T08:25:45.000Z</time>
      </trkpt>
      <trkpt lat="47.26939" lon="-2.33718">
        <ele>-6.4000000953674</ele>
        <time>2021-02-25T08:25:46.000Z</time>
      </trkpt>
      <trkpt lat="47.26939" lon="-2.33726">
        <ele>-5.8000001907349</ele>
        <time>2021-02-25T08:25:47.000Z</time>
      </trkpt>
      <trkpt lat="47.26937" lon="-2.33747">
        <ele>-5.8000001907349</ele>
        <time>2021-02-25T08:25:50.000Z</time>
      </trkpt>
      <trkpt lat="47.26933" lon="-2.33762">
        <ele>-5.8000001907349</ele>
        <time>2021-02-25T08:25:52.000Z</time>
      </trkpt>
      <trkpt lat="47.26929" lon="-2.33784">
        <ele>-5.8000001907349</ele>
        <time>2021-02-25T08:25:55.000Z</time>
      </trkpt>
      <trkpt lat="47.26929" lon="-2.33792">
        <ele>-5.8000001907349</ele>
        <time>2021-02-25T08:25:56.000Z</time>
      </trkpt>
      <trkpt lat="47.26938" lon="-2.33818">
        <ele>-5.8000001907349</ele>
        <time>2021-02-25T08:26:00.000Z</time>
      </trkpt>
      <trkpt lat="47.26951" lon="-2.33828">
        <ele>-5.8000001907349</ele>
        <time>2021-02-25T08:26:03.000Z</time>
      </trkpt>
      <trkpt lat="47.26959" lon="-2.33834">
        <ele>-5.8000001907349</ele>
        <time>2021-02-25T08:26:05.000Z</time>
      </trkpt>
      <trkpt lat="47.26987" lon="-2.33849">
        <ele>-5.8000001907349</ele>
        <time>2021-02-25T08:26:12.000Z</time>
      </trkpt>
      <trkpt lat="47.26991" lon="-2.3385">
        <ele>-5.4000000953674</ele>
        <time>2021-02-25T08:26:13.000Z</time>
      </trkpt>
      <trkpt lat="47.26994" lon="-2.33852">
        <ele>-5</ele>
        <time>2021-02-25T08:26:14.000Z</time>
      </trkpt>
      <trkpt lat="47.26997" lon="-2.33854">
        <ele>-4.5999999046326</ele>
        <time>2021-02-25T08:26:15.000Z</time>
      </trkpt>
      <trkpt lat="47.27" lon="-2.33855">
        <ele>-4.1999998092651</ele>
        <time>2021-02-25T08:26:16.000Z</time>
      </trkpt>
      <trkpt lat="47.27003" lon="-2.33857">
        <ele>-3.7999999523163</ele>
        <time>2021-02-25T08:26:17.000Z</time>
      </trkpt>
      <trkpt lat="47.27006" lon="-2.33859">
        <ele>-3.7999999523163</ele>
        <time>2021-02-25T08:26:18.000Z</time>
      </trkpt>
      <trkpt lat="47.2702" lon="-2.33867">
        <ele>-3.4000000953674</ele>
        <time>2021-02-25T08:26:22.000Z</time>
      </trkpt>
      <trkpt lat="47.27024" lon="-2.3387">
        <ele>-3</ele>
        <time>2021-02-25T08:26:23.000Z</time>
      </trkpt>
      <trkpt lat="47.27027" lon="-2.33872">
        <ele>-2.4000000953674</ele>
        <time>2021-02-25T08:26:24.000Z</time>
      </trkpt>
      <trkpt lat="47.27031" lon="-2.33875">
        <ele>-2</ele>
        <time>2021-02-25T08:26:25.000Z</time>
      </trkpt>
      <trkpt lat="47.27034" lon="-2.33878">
        <ele>-1.6000000238419</ele>
        <time>2021-02-25T08:26:26.000Z</time>
      </trkpt>
      <trkpt lat="47.27057" lon="-2.33898">
        <ele>-1.6000000238419</ele>
        <time>2021-02-25T08:26:32.000Z</time>
      </trkpt>
      <trkpt lat="47.2706" lon="-2.33902">
        <ele>-1.6000000238419</ele>
        <time>2021-02-25T08:26:33.000Z</time>
      </trkpt>
      <trkpt lat="47.27069" lon="-2.33913">
        <ele>-1.2000000476837</ele>
        <time>2021-02-25T08:26:36.000Z</time>
      </trkpt>
      <trkpt lat="47.27072" lon="-2.33916">
        <ele>-0.80000001192093</ele>
        <time>2021-02-25T08:26:37.000Z</time>
      </trkpt>
      <trkpt lat="47.27075" lon="-2.33919">
        <ele>-0.40000000596046</ele>
        <time>2021-02-25T08:26:38.000Z</time>
      </trkpt>
      <trkpt lat="47.27078" lon="-2.33922">
        <ele>18.1</ele>
        <time>2021-02-25T08:26:39.000Z</time>
      </trkpt>
      <trkpt lat="47.27081" lon="-2.33925">
        <ele>0.40000000596046</ele>
        <time>2021-02-25T08:26:40.000Z</time>
      </trkpt>
      <trkpt lat="47.2709" lon="-2.33932">
        <ele>0.80000001192093</ele>
        <time>2021-02-25T08:26:43.000Z</time>
      </trkpt>
      <trkpt lat="47.27093" lon="-2.33934">
        <ele>1.2000000476837</ele>
        <time>2021-02-25T08:26:44.000Z</time>
      </trkpt>
      <trkpt lat="47.27096" lon="-2.33936">
        <ele>1.6000000238419</ele>
        <time>2021-02-25T08:26:45.000Z</time>
      </trkpt>
      <trkpt lat="47.27099" lon="-2.33938">
        <ele>2</ele>
        <time>2021-02-25T08:26:46.000Z</time>
      </trkpt>
      <trkpt lat="47.27102" lon="-2.3394">
        <ele>2.4000000953674</ele>
        <time>2021-02-25T08:26:47.000Z</time>
      </trkpt>
      <trkpt lat="47.27111" lon="-2.33946">
        <ele>2.4000000953674</ele>
        <time>2021-02-25T08:26:50.000Z</time>
      </trkpt>
      <trkpt lat="47.27119" lon="-2.33956">
        <ele>2.7999999523163</ele>
        <time>2021-02-25T08:26:53.000Z</time>
      </trkpt>
      <trkpt lat="47.27122" lon="-2.33959">
        <ele>3.5999999046326</ele>
        <time>2021-02-25T08:26:54.000Z</time>
      </trkpt>
      <trkpt lat="47.27125" lon="-2.33962">
        <ele>4</ele>
        <time>2021-02-25T08:26:55.000Z</time>
      </trkpt>
      <trkpt lat="47.27128" lon="-2.33965">
        <ele>4.4000000953674</ele>
        <time>2021-02-25T08:26:56.000Z</time>
      </trkpt>
      <trkpt lat="47.27148" lon="-2.33985">
        <ele>4.4000000953674</ele>
        <time>2021-02-25T08:27:02.000Z</time>
      </trkpt>
      <trkpt lat="47.27169" lon="-2.34005">
        <ele>4.4000000953674</ele>
        <time>2021-02-25T08:27:08.000Z</time>
      </trkpt>
      <trkpt lat="47.27173" lon="-2.34008">
        <ele>4.4000000953674</ele>
        <time>2021-02-25T08:27:09.000Z</time>
      </trkpt>
      <trkpt lat="47.27189" lon="-2.34026">
        <ele>4.8000001907349</ele>
        <time>2021-02-25T08:27:14.000Z</time>
      </trkpt>
      <trkpt lat="47.27192" lon="-2.3403">
        <ele>5.1999998092651</ele>
        <time>2021-02-25T08:27:15.000Z</time>
      </trkpt>
      <trkpt lat="47.27196" lon="-2.34033">
        <ele>5.5999999046326</ele>
        <time>2021-02-25T08:27:16.000Z</time>
      </trkpt>
      <trkpt lat="47.27199" lon="-2.34036">
        <ele>6.5999999046326</ele>
        <time>2021-02-25T08:27:17.000Z</time>
      </trkpt>
      <trkpt lat="47.2722" lon="-2.34054">
        <ele>6.5999999046326</ele>
        <time>2021-02-25T08:27:23.000Z</time>
      </trkpt>
      <trkpt lat="47.27236" lon="-2.34056">
        <ele>6.5999999046326</ele>
        <time>2021-02-25T08:27:27.000Z</time>
      </trkpt>
      <trkpt lat="47.2724" lon="-2.34055">
        <ele>6.5999999046326</ele>
        <time>2021-02-25T08:27:28.000Z</time>
      </trkpt>
      <trkpt lat="47.27253" lon="-2.34053">
        <ele>6.5999999046326</ele>
        <time>2021-02-25T08:27:31.000Z</time>
      </trkpt>
      <trkpt lat="47.27265" lon="-2.34057">
        <ele>6.5999999046326</ele>
        <time>2021-02-25T08:27:34.000Z</time>
      </trkpt>
      <trkpt lat="47.27272" lon="-2.34063">
        <ele>6.5999999046326</ele>
        <time>2021-02-25T08:27:36.000Z</time>
      </trkpt>
      <trkpt lat="47.2728" lon="-2.34071">
        <ele>6.5999999046326</ele>
        <time>2021-02-25T08:27:38.000Z</time>
      </trkpt>
      <trkpt lat="47.27281" lon="-2.34078">
        <ele>6.5999999046326</ele>
        <time>2021-02-25T08:27:39.000Z</time>
      </trkpt>
      <trkpt lat="47.27288" lon="-2.34113">
        <ele>6.5999999046326</ele>
        <time>2021-02-25T08:27:44.000Z</time>
      </trkpt>
      <trkpt lat="47.27291" lon="-2.34119">
        <ele>6.5999999046326</ele>
        <time>2021-02-25T08:27:45.000Z</time>
      </trkpt>
      <trkpt lat="47.27302" lon="-2.34131">
        <ele>6.5999999046326</ele>
        <time>2021-02-25T08:27:48.000Z</time>
      </trkpt>
      <trkpt lat="47.27306" lon="-2.34135">
        <ele>6.5999999046326</ele>
        <time>2021-02-25T08:27:49.000Z</time>
      </trkpt>
      <trkpt lat="47.2733" lon="-2.34151">
        <ele>6.5999999046326</ele>
        <time>2021-02-25T08:27:54.000Z</time>
      </trkpt>
      <trkpt lat="47.27373" lon="-2.34176">
        <ele>6.5999999046326</ele>
        <time>2021-02-25T08:28:03.000Z</time>
      </trkpt>
      <trkpt lat="47.27394" lon="-2.34195">
        <ele>6.5999999046326</ele>
        <time>2021-02-25T08:28:08.000Z</time>
      </trkpt>
      <trkpt lat="47.27397" lon="-2.342">
        <ele>6.5999999046326</ele>
        <time>2021-02-25T08:28:09.000Z</time>
      </trkpt>
      <trkpt lat="47.27405" lon="-2.34224">
        <ele>6.5999999046326</ele>
        <time>2021-02-25T08:28:13.000Z</time>
      </trkpt>
      <trkpt lat="47.27406" lon="-2.3423">
        <ele>6.5999999046326</ele>
        <time>2021-02-25T08:28:14.000Z</time>
      </trkpt>
      <trkpt lat="47.27407" lon="-2.34236">
        <ele>6.5999999046326</ele>
        <time>2021-02-25T08:28:17.000Z</time>
      </trkpt>
      <trkpt lat="47.27407" lon="-2.34236">
        <ele>6.5999999046326</ele>
        <time>2021-02-25T08:28:19.000Z</time>
      </trkpt>
      <trkpt lat="47.27409" lon="-2.34239">
        <ele>6.5999999046326</ele>
        <time>2021-02-25T08:28:22.000Z</time>
      </trkpt>
      <trkpt lat="47.2741" lon="-2.34241">
        <ele>6.5999999046326</ele>
        <time>2021-02-25T08:28:23.000Z</time>
      </trkpt>
      <trkpt lat="47.27415" lon="-2.34256">
        <ele>6.5999999046326</ele>
        <time>2021-02-25T08:28:27.000Z</time>
      </trkpt>
      <trkpt lat="47.27415" lon="-2.34269">
        <ele>6.5999999046326</ele>
        <time>2021-02-25T08:28:29.000Z</time>
      </trkpt>
      <trkpt lat="47.27415" lon="-2.34281">
        <ele>6.5999999046326</ele>
        <time>2021-02-25T08:28:31.000Z</time>
      </trkpt>
      <trkpt lat="47.27416" lon="-2.34329">
        <ele>6.5999999046326</ele>
        <time>2021-02-25T08:28:38.000Z</time>
      </trkpt>
      <trkpt lat="47.27417" lon="-2.34376">
        <ele>6.5999999046326</ele>
        <time>2021-02-25T08:28:45.000Z</time>
      </trkpt>
      <trkpt lat="47.27419" lon="-2.34396">
        <ele>6.5999999046326</ele>
        <time>2021-02-25T08:28:48.000Z</time>
      </trkpt>
      <trkpt lat="47.27421" lon="-2.34417">
        <ele>6.5999999046326</ele>
        <time>2021-02-25T08:28:51.000Z</time>
      </trkpt>
      <trkpt lat="47.27424" lon="-2.34453">
        <ele>7.4000000953674</ele>
        <time>2021-02-25T08:28:56.000Z</time>
      </trkpt>
      <trkpt lat="47.27425" lon="-2.3446">
        <ele>7.8000001907349</ele>
        <time>2021-02-25T08:28:57.000Z</time>
      </trkpt>
      <trkpt lat="47.27425" lon="-2.34467">
        <ele>8.1999998092651</ele>
        <time>2021-02-25T08:28:58.000Z</time>
      </trkpt>
      <trkpt lat="47.27425" lon="-2.34474">
        <ele>8.6000003814697</ele>
        <time>2021-02-25T08:28:59.000Z</time>
      </trkpt>
      <trkpt lat="47.27433" lon="-2.34515">
        <ele>8.6000003814697</ele>
        <time>2021-02-25T08:29:05.000Z</time>
      </trkpt>
      <trkpt lat="47.27445" lon="-2.34561">
        <ele>8.6000003814697</ele>
        <time>2021-02-25T08:29:12.000Z</time>
      </trkpt>
      <trkpt lat="47.27454" lon="-2.34618">
        <ele>8.6000003814697</ele>
        <time>2021-02-25T08:29:19.000Z</time>
      </trkpt>
      <trkpt lat="47.27458" lon="-2.34678">
        <ele>8.6000003814697</ele>
        <time>2021-02-25T08:29:26.000Z</time>
      </trkpt>
      <trkpt lat="47.2746" lon="-2.34685">
        <ele>8.6000003814697</ele>
        <time>2021-02-25T08:29:27.000Z</time>
      </trkpt>
      <trkpt lat="47.27467" lon="-2.34691">
        <ele>8.6000003814697</ele>
        <time>2021-02-25T08:29:29.000Z</time>
      </trkpt>
      <trkpt lat="47.27481" lon="-2.34685">
        <ele>8.6000003814697</ele>
        <time>2021-02-25T08:29:32.000Z</time>
      </trkpt>
      <trkpt lat="47.27486" lon="-2.34682">
        <ele>8.6000003814697</ele>
        <time>2021-02-25T08:29:33.000Z</time>
      </trkpt>
      <trkpt lat="47.27491" lon="-2.34679">
        <ele>8.6000003814697</ele>
        <time>2021-02-25T08:29:34.000Z</time>
      </trkpt>
      <trkpt lat="47.27507" lon="-2.34677">
        <ele>8.6000003814697</ele>
        <time>2021-02-25T08:29:37.000Z</time>
      </trkpt>
      <trkpt lat="47.27538" lon="-2.34674">
        <ele>8.6000003814697</ele>
        <time>2021-02-25T08:29:43.000Z</time>
      </trkpt>
      <trkpt lat="47.27569" lon="-2.3466">
        <ele>8.6000003814697</ele>
        <time>2021-02-25T08:29:49.000Z</time>
      </trkpt>
      <trkpt lat="47.27597" lon="-2.34633">
        <ele>8.6000003814697</ele>
        <time>2021-02-25T08:29:55.000Z</time>
      </trkpt>
      <trkpt lat="47.2763" lon="-2.34601">
        <ele>8.6000003814697</ele>
        <time>2021-02-25T08:30:02.000Z</time>
      </trkpt>
      <trkpt lat="47.27671" lon="-2.34562">
        <ele>8.6000003814697</ele>
        <time>2021-02-25T08:30:11.000Z</time>
      </trkpt>
      <trkpt lat="47.27701" lon="-2.34532">
        <ele>8.6000003814697</ele>
        <time>2021-02-25T08:30:18.000Z</time>
      </trkpt>
      <trkpt lat="47.27745" lon="-2.34494">
        <ele>8.6000003814697</ele>
        <time>2021-02-25T08:30:27.000Z</time>
      </trkpt>
      <trkpt lat="47.27778" lon="-2.34468">
        <ele>8.6000003814697</ele>
        <time>2021-02-25T08:30:34.000Z</time>
      </trkpt>
      <trkpt lat="47.27786" lon="-2.34461">
        <ele>8.6000003814697</ele>
        <time>2021-02-25T08:30:36.000Z</time>
      </trkpt>
      <trkpt lat="47.27794" lon="-2.34464">
        <ele>8.6000003814697</ele>
        <time>2021-02-25T08:30:38.000Z</time>
      </trkpt>
      <trkpt lat="47.27806" lon="-2.34487">
        <ele>8.6000003814697</ele>
        <time>2021-02-25T08:30:42.000Z</time>
      </trkpt>
      <trkpt lat="47.27823" lon="-2.34538">
        <ele>8.6000003814697</ele>
        <time>2021-02-25T08:30:49.000Z</time>
      </trkpt>
      <trkpt lat="47.2783" lon="-2.3456">
        <ele>8.6000003814697</ele>
        <time>2021-02-25T08:30:52.000Z</time>
      </trkpt>
      <trkpt lat="47.27832" lon="-2.34572">
        <ele>8.6000003814697</ele>
        <time>2021-02-25T08:30:54.000Z</time>
      </trkpt>
      <trkpt lat="47.27832" lon="-2.34585">
        <ele>8.1999998092651</ele>
        <time>2021-02-25T08:30:57.000Z</time>
      </trkpt>
      <trkpt lat="47.27829" lon="-2.34587">
        <ele>7.8000001907349</ele>
        <time>2021-02-25T08:30:58.000Z</time>
      </trkpt>
      <trkpt lat="47.27827" lon="-2.3459">
        <ele>7.4000000953674</ele>
        <time>2021-02-25T08:30:59.000Z</time>
      </trkpt>
      <trkpt lat="47.27825" lon="-2.34593">
        <ele>6.8000001907349</ele>
        <time>2021-02-25T08:31:00.000Z</time>
      </trkpt>
      <trkpt lat="47.27823" lon="-2.34597">
        <ele>6.4000000953674</ele>
        <time>2021-02-25T08:31:01.000Z</time>
      </trkpt>
      <trkpt lat="47.27814" lon="-2.34607">
        <ele>6.4000000953674</ele>
        <time>2021-02-25T08:31:04.000Z</time>
      </trkpt>
      <trkpt lat="47.2781" lon="-2.3461">
        <ele>6.4000000953674</ele>
        <time>2021-02-25T08:31:05.000Z</time>
      </trkpt>
      <trkpt lat="47.27799" lon="-2.34617">
        <ele>6.4000000953674</ele>
        <time>2021-02-25T08:31:09.000Z</time>
      </trkpt>
      <trkpt lat="47.27796" lon="-2.34618">
        <ele>6.4000000953674</ele>
        <time>2021-02-25T08:31:11.000Z</time>
      </trkpt>
      <trkpt lat="47.27795" lon="-2.34617">
        <ele>6.4000000953674</ele>
        <time>2021-02-25T08:31:12.000Z</time>
      </trkpt>
      <trkpt lat="47.27792" lon="-2.34618">
        <ele>5</ele>
        <time>2021-02-25T08:31:17.000Z</time>
      </trkpt>
      <trkpt lat="47.27791" lon="-2.3462">
        <ele>5.5999999046326</ele>
        <time>2021-02-25T08:31:18.000Z</time>
      </trkpt>
      <trkpt lat="47.27789" lon="-2.34622">
        <ele>7</ele>
        <time>2021-02-25T08:31:19.000Z</time>
      </trkpt>
      <trkpt lat="47.27782" lon="-2.34627">
        <ele>7</ele>
        <time>2021-02-25T08:31:21.000Z</time>
      </trkpt>
      <trkpt lat="47.2776" lon="-2.34644">
        <ele>7</ele>
        <time>2021-02-25T08:31:26.000Z</time>
      </trkpt>
      <trkpt lat="47.27756" lon="-2.34657">
        <ele>7</ele>
        <time>2021-02-25T08:31:28.000Z</time>
      </trkpt>
      <trkpt lat="47.27757" lon="-2.34682">
        <ele>7</ele>
        <time>2021-02-25T08:31:32.000Z</time>
      </trkpt>
      <trkpt lat="47.27748" lon="-2.34697">
        <ele>7</ele>
        <time>2021-02-25T08:31:35.000Z</time>
      </trkpt>
      <trkpt lat="47.27744" lon="-2.347">
        <ele>7</ele>
        <time>2021-02-25T08:31:36.000Z</time>
      </trkpt>
      <trkpt lat="47.2772" lon="-2.34719">
        <ele>7</ele>
        <time>2021-02-25T08:31:41.000Z</time>
      </trkpt>
      <trkpt lat="47.27697" lon="-2.34739">
        <ele>7</ele>
        <time>2021-02-25T08:31:46.000Z</time>
      </trkpt>
      <trkpt lat="47.27692" lon="-2.34743">
        <ele>7</ele>
        <time>2021-02-25T08:31:47.000Z</time>
      </trkpt>
      <trkpt lat="47.27657" lon="-2.3477">
        <ele>7</ele>
        <time>2021-02-25T08:31:54.000Z</time>
      </trkpt>
      <trkpt lat="47.27653" lon="-2.34773">
        <ele>6.4000000953674</ele>
        <time>2021-02-25T08:31:55.000Z</time>
      </trkpt>
      <trkpt lat="47.2765" lon="-2.34776">
        <ele>6</ele>
        <time>2021-02-25T08:31:56.000Z</time>
      </trkpt>
      <trkpt lat="47.27648" lon="-2.34777">
        <ele>5.5999999046326</ele>
        <time>2021-02-25T08:31:57.000Z</time>
      </trkpt>
      <trkpt lat="47.27647" lon="-2.34777">
        <ele>5.1999998092651</ele>
        <time>2021-02-25T08:31:58.000Z</time>
      </trkpt>
      <trkpt lat="47.27646" lon="-2.34775">
        <ele>4.8000001907349</ele>
        <time>2021-02-25T08:31:59.000Z</time>
      </trkpt>
      <trkpt lat="47.27646" lon="-2.34774">
        <ele>4.8000001907349</ele>
        <time>2021-02-25T08:32:00.000Z</time>
      </trkpt>
      <trkpt lat="47.27654" lon="-2.34771">
        <ele>4.8000001907349</ele>
        <time>2021-02-25T08:32:04.000Z</time>
      </trkpt>
      <trkpt lat="47.27665" lon="-2.34764">
        <ele>4.8000001907349</ele>
        <time>2021-02-25T08:32:07.000Z</time>
      </trkpt>
      <trkpt lat="47.2767" lon="-2.3476">
        <ele>4.8000001907349</ele>
        <time>2021-02-25T08:32:08.000Z</time>
      </trkpt>
      <trkpt lat="47.27703" lon="-2.34733">
        <ele>4.8000001907349</ele>
        <time>2021-02-25T08:32:15.000Z</time>
      </trkpt>
      <trkpt lat="47.27706" lon="-2.34732">
        <ele>4.8000001907349</ele>
        <time>2021-02-25T08:32:16.000Z</time>
      </trkpt>
      <trkpt lat="47.27714" lon="-2.34735">
        <ele>4.8000001907349</ele>
        <time>2021-02-25T08:32:18.000Z</time>
      </trkpt>
      <trkpt lat="47.27723" lon="-2.34752">
        <ele>4.8000001907349</ele>
        <time>2021-02-25T08:32:21.000Z</time>
      </trkpt>
      <trkpt lat="47.27726" lon="-2.34758">
        <ele>4.8000001907349</ele>
        <time>2021-02-25T08:32:22.000Z</time>
      </trkpt>
      <trkpt lat="47.27743" lon="-2.34794">
        <ele>4.8000001907349</ele>
        <time>2021-02-25T08:32:27.000Z</time>
      </trkpt>
      <trkpt lat="47.27765" lon="-2.34836">
        <ele>4.8000001907349</ele>
        <time>2021-02-25T08:32:33.000Z</time>
      </trkpt>
      <trkpt lat="47.27787" lon="-2.34876">
        <ele>4.8000001907349</ele>
        <time>2021-02-25T08:32:39.000Z</time>
      </trkpt>
      <trkpt lat="47.27788" lon="-2.34882">
        <ele>4.1999998092651</ele>
        <time>2021-02-25T08:32:40.000Z</time>
      </trkpt>
      <trkpt lat="47.27789" lon="-2.34889">
        <ele>3.7999999523163</ele>
        <time>2021-02-25T08:32:41.000Z</time>
      </trkpt>
      <trkpt lat="47.27789" lon="-2.34898">
        <ele>3.2000000476837</ele>
        <time>2021-02-25T08:32:42.000Z</time>
      </trkpt>
      <trkpt lat="47.27788" lon="-2.34906">
        <ele>2.5999999046326</ele>
        <time>2021-02-25T08:32:43.000Z</time>
      </trkpt>
      <trkpt lat="47.27786" lon="-2.34915">
        <ele>2.2000000476837</ele>
        <time>2021-02-25T08:32:44.000Z</time>
      </trkpt>
      <trkpt lat="47.27784" lon="-2.34924">
        <ele>2.2000000476837</ele>
        <time>2021-02-25T08:32:45.000Z</time>
      </trkpt>
      <trkpt lat="47.27782" lon="-2.34933">
        <ele>2.2000000476837</ele>
        <time>2021-02-25T08:32:46.000Z</time>
      </trkpt>
      <trkpt lat="47.27773" lon="-2.34981">
        <ele>2.2000000476837</ele>
        <time>2021-02-25T08:32:51.000Z</time>
      </trkpt>
      <trkpt lat="47.2777" lon="-2.34991">
        <ele>2.2000000476837</ele>
        <time>2021-02-25T08:32:52.000Z</time>
      </trkpt>
      <trkpt lat="47.27764" lon="-2.35021">
        <ele>2.2000000476837</ele>
        <time>2021-02-25T08:32:55.000Z</time>
      </trkpt>
      <trkpt lat="47.27763" lon="-2.35043">
        <ele>1.7999999523163</ele>
        <time>2021-02-25T08:32:57.000Z</time>
      </trkpt>
      <trkpt lat="47.27763" lon="-2.35054">
        <ele>1.3999999761581</ele>
        <time>2021-02-25T08:32:58.000Z</time>
      </trkpt>
      <trkpt lat="47.27764" lon="-2.35066">
        <ele>1</ele>
        <time>2021-02-25T08:32:59.000Z</time>
      </trkpt>
      <trkpt lat="47.27764" lon="-2.35078">
        <ele>0.60000002384186</ele>
        <time>2021-02-25T08:33:00.000Z</time>
      </trkpt>
      <trkpt lat="47.27764" lon="-2.35089">
        <ele>18.8</ele>
        <time>2021-02-25T08:33:01.000Z</time>
      </trkpt>
      <trkpt lat="47.27766" lon="-2.35112">
        <ele>18</ele>
        <time>2021-02-25T08:33:03.000Z</time>
      </trkpt>
      <trkpt lat="47.27773" lon="-2.35201">
        <ele>16.1</ele>
        <time>2021-02-25T08:33:11.000Z</time>
      </trkpt>
      <trkpt lat="47.27774" lon="-2.35212">
        <ele>-0.40000000596046</ele>
        <time>2021-02-25T08:33:12.000Z</time>
      </trkpt>
      <trkpt lat="47.27775" lon="-2.35223">
        <ele>-0.80000001192093</ele>
        <time>2021-02-25T08:33:13.000Z</time>
      </trkpt>
      <trkpt lat="47.27777" lon="-2.35234">
        <ele>-1.2000000476837</ele>
        <time>2021-02-25T08:33:14.000Z</time>
      </trkpt>
      <trkpt lat="47.27778" lon="-2.35244">
        <ele>-1.6000000238419</ele>
        <time>2021-02-25T08:33:15.000Z</time>
      </trkpt>
      <trkpt lat="47.2778" lon="-2.35255">
        <ele>-2</ele>
        <time>2021-02-25T08:33:16.000Z</time>
      </trkpt>
      <trkpt lat="47.27791" lon="-2.35306">
        <ele>-2</ele>
        <time>2021-02-25T08:33:21.000Z</time>
      </trkpt>
      <trkpt lat="47.27803" lon="-2.35355">
        <ele>-2</ele>
        <time>2021-02-25T08:33:26.000Z</time>
      </trkpt>
      <trkpt lat="47.27819" lon="-2.35368">
        <ele>-2</ele>
        <time>2021-02-25T08:33:29.000Z</time>
      </trkpt>
      <trkpt lat="47.27838" lon="-2.35365">
        <ele>-2</ele>
        <time>2021-02-25T08:33:32.000Z</time>
      </trkpt>
      <trkpt lat="47.27844" lon="-2.35364">
        <ele>-2</ele>
        <time>2021-02-25T08:33:33.000Z</time>
      </trkpt>
      <trkpt lat="47.27872" lon="-2.35364">
        <ele>-2</ele>
        <time>2021-02-25T08:33:38.000Z</time>
      </trkpt>
      <trkpt lat="47.27877" lon="-2.35367">
        <ele>-2</ele>
        <time>2021-02-25T08:33:39.000Z</time>
      </trkpt>
      <trkpt lat="47.27889" lon="-2.35381">
        <ele>-2</ele>
        <time>2021-02-25T08:33:42.000Z</time>
      </trkpt>
      <trkpt lat="47.27894" lon="-2.35386">
        <ele>-2</ele>
        <time>2021-02-25T08:33:43.000Z</time>
      </trkpt>
      <trkpt lat="47.27923" lon="-2.35425">
        <ele>-2</ele>
        <time>2021-02-25T08:33:50.000Z</time>
      </trkpt>
      <trkpt lat="47.27946" lon="-2.35452">
        <ele>-2</ele>
        <time>2021-02-25T08:33:55.000Z</time>
      </trkpt>
      <trkpt lat="47.27952" lon="-2.35456">
        <ele>-2</ele>
        <time>2021-02-25T08:33:56.000Z</time>
      </trkpt>
      <trkpt lat="47.27968" lon="-2.35466">
        <ele>-2</ele>
        <time>2021-02-25T08:33:59.000Z</time>
      </trkpt>
      <trkpt lat="47.27977" lon="-2.35476">
        <ele>-2</ele>
        <time>2021-02-25T08:34:01.000Z</time>
      </trkpt>
      <trkpt lat="47.27985" lon="-2.3549">
        <ele>-2</ele>
        <time>2021-02-25T08:34:03.000Z</time>
      </trkpt>
      <trkpt lat="47.27995" lon="-2.35509">
        <ele>-2</ele>
        <time>2021-02-25T08:34:06.000Z</time>
      </trkpt>
      <trkpt lat="47.28" lon="-2.3552">
        <ele>-2</ele>
        <time>2021-02-25T08:34:08.000Z</time>
      </trkpt>
      <trkpt lat="47.28005" lon="-2.35538">
        <ele>-2</ele>
        <time>2021-02-25T08:34:11.000Z</time>
      </trkpt>
      <trkpt lat="47.2801" lon="-2.35556">
        <ele>-2</ele>
        <time>2021-02-25T08:34:15.000Z</time>
      </trkpt>
      <trkpt lat="47.28013" lon="-2.35563">
        <ele>-2</ele>
        <time>2021-02-25T08:34:17.000Z</time>
      </trkpt>
      <trkpt lat="47.28019" lon="-2.35565">
        <ele>-2</ele>
        <time>2021-02-25T08:34:19.000Z</time>
      </trkpt>
      <trkpt lat="47.28027" lon="-2.35565">
        <ele>-2</ele>
        <time>2021-02-25T08:34:21.000Z</time>
      </trkpt>
      <trkpt lat="47.28034" lon="-2.35569">
        <ele>-2</ele>
        <time>2021-02-25T08:34:23.000Z</time>
      </trkpt>
      <trkpt lat="47.2804" lon="-2.35574">
        <ele>-1.6000000238419</ele>
        <time>2021-02-25T08:34:25.000Z</time>
      </trkpt>
      <trkpt lat="47.28044" lon="-2.35576">
        <ele>-1.2000000476837</ele>
        <time>2021-02-25T08:34:26.000Z</time>
      </trkpt>
      <trkpt lat="47.28047" lon="-2.35577">
        <ele>-0.80000001192093</ele>
        <time>2021-02-25T08:34:27.000Z</time>
      </trkpt>
      <trkpt lat="47.2805" lon="-2.35578">
        <ele>-0.40000000596046</ele>
        <time>2021-02-25T08:34:28.000Z</time>
      </trkpt>
      <trkpt lat="47.28054" lon="-2.35579">
        <ele>21</ele>
        <time>2021-02-25T08:34:29.000Z</time>
      </trkpt>
      <trkpt lat="47.2807" lon="-2.35588">
        <ele>21.5</ele>
        <time>2021-02-25T08:34:35.000Z</time>
      </trkpt>
      <trkpt lat="47.28081" lon="-2.35611">
        <ele>21.9</ele>
        <time>2021-02-25T08:34:42.000Z</time>
      </trkpt>
      <trkpt lat="47.28085" lon="-2.35618">
        <ele>22.6</ele>
        <time>2021-02-25T08:34:47.000Z</time>
      </trkpt>
      <trkpt lat="47.28086" lon="-2.35623">
        <ele>22.9</ele>
        <time>2021-02-25T08:34:51.000Z</time>
      </trkpt>
      <trkpt lat="47.28086" lon="-2.35617">
        <ele>22.6</ele>
        <time>2021-02-25T08:40:24.000Z</time>
      </trkpt>
      <trkpt lat="47.28079" lon="-2.35609">
        <ele>21.8</ele>
        <time>2021-02-25T08:40:28.000Z</time>
      </trkpt>
      <trkpt lat="47.28077" lon="-2.35607">
        <ele>21.8</ele>
        <time>2021-02-25T08:40:29.000Z</time>
      </trkpt>
      <trkpt lat="47.28076" lon="-2.35605">
        <ele>21.7</ele>
        <time>2021-02-25T08:40:30.000Z</time>
      </trkpt>
      <trkpt lat="47.28069" lon="-2.35595">
        <ele>21.5</ele>
        <time>2021-02-25T08:40:34.000Z</time>
      </trkpt>
      <trkpt lat="47.28067" lon="-2.35593">
        <ele>21.4</ele>
        <time>2021-02-25T08:40:35.000Z</time>
      </trkpt>
      <trkpt lat="47.28059" lon="-2.35584">
        <ele>21.1</ele>
        <time>2021-02-25T08:40:40.000Z</time>
      </trkpt>
      <trkpt lat="47.28059" lon="-2.35583">
        <ele>-0.40000000596046</ele>
        <time>2021-02-25T08:40:41.000Z</time>
      </trkpt>
      <trkpt lat="47.28058" lon="-2.35583">
        <ele>-0.80000001192093</ele>
        <time>2021-02-25T08:40:42.000Z</time>
      </trkpt>
      <trkpt lat="47.28055" lon="-2.35583">
        <ele>-2</ele>
        <time>2021-02-25T08:41:10.000Z</time>
      </trkpt>
      <trkpt lat="47.28053" lon="-2.35581">
        <ele>-2</ele>
        <time>2021-02-25T08:41:11.000Z</time>
      </trkpt>
      <trkpt lat="47.28052" lon="-2.35579">
        <ele>-2</ele>
        <time>2021-02-25T08:41:12.000Z</time>
      </trkpt>
      <trkpt lat="47.28051" lon="-2.35567">
        <ele>-2</ele>
        <time>2021-02-25T08:41:16.000Z</time>
      </trkpt>
      <trkpt lat="47.28054" lon="-2.35554">
        <ele>-2</ele>
        <time>2021-02-25T08:41:20.000Z</time>
      </trkpt>
      <trkpt lat="47.28055" lon="-2.35552">
        <ele>-2</ele>
        <time>2021-02-25T08:41:21.000Z</time>
      </trkpt>
      <trkpt lat="47.28057" lon="-2.3555">
        <ele>-2</ele>
        <time>2021-02-25T08:41:22.000Z</time>
      </trkpt>
      <trkpt lat="47.28065" lon="-2.35551">
        <ele>-2</ele>
        <time>2021-02-25T08:41:25.000Z</time>
      </trkpt>
      <trkpt lat="47.28086" lon="-2.35552">
        <ele>-2</ele>
        <time>2021-02-25T08:41:31.000Z</time>
      </trkpt>
      <trkpt lat="47.28106" lon="-2.35554">
        <ele>-2</ele>
        <time>2021-02-25T08:41:37.000Z</time>
      </trkpt>
      <trkpt lat="47.28131" lon="-2.35555">
        <ele>-2</ele>
        <time>2021-02-25T08:41:44.000Z</time>
      </trkpt>
      <trkpt lat="47.28134" lon="-2.35554">
        <ele>-1.6000000238419</ele>
        <time>2021-02-25T08:41:45.000Z</time>
      </trkpt>
      <trkpt lat="47.28138" lon="-2.35552">
        <ele>-1.2000000476837</ele>
        <time>2021-02-25T08:41:46.000Z</time>
      </trkpt>
      <trkpt lat="47.28142" lon="-2.35549">
        <ele>-0.80000001192093</ele>
        <time>2021-02-25T08:41:47.000Z</time>
      </trkpt>
      <trkpt lat="47.28145" lon="-2.35545">
        <ele>-0.40000000596046</ele>
        <time>2021-02-25T08:41:48.000Z</time>
      </trkpt>
      <trkpt lat="47.28149" lon="-2.3554">
        <ele>0.20000000298023</ele>
        <time>2021-02-25T08:41:49.000Z</time>
      </trkpt>
      <trkpt lat="47.28163" lon="-2.35511">
        <ele>0.20000000298023</ele>
        <time>2021-02-25T08:41:54.000Z</time>
      </trkpt>
      <trkpt lat="47.28186" lon="-2.35471">
        <ele>0.20000000298023</ele>
        <time>2021-02-25T08:42:01.000Z</time>
      </trkpt>
      <trkpt lat="47.28216" lon="-2.3543">
        <ele>0.20000000298023</ele>
        <time>2021-02-25T08:42:08.000Z</time>
      </trkpt>
      <trkpt lat="47.28239" lon="-2.35405">
        <ele>0.20000000298023</ele>
        <time>2021-02-25T08:42:14.000Z</time>
      </trkpt>
      <trkpt lat="47.28246" lon="-2.35398">
        <ele>0.20000000298023</ele>
        <time>2021-02-25T08:42:18.000Z</time>
      </trkpt>
      <trkpt lat="47.28249" lon="-2.35399">
        <ele>0.20000000298023</ele>
        <time>2021-02-25T08:42:20.000Z</time>
      </trkpt>
      <trkpt lat="47.28253" lon="-2.35405">
        <ele>0.20000000298023</ele>
        <time>2021-02-25T08:42:23.000Z</time>
      </trkpt>
      <trkpt lat="47.28257" lon="-2.35408">
        <ele>0.20000000298023</ele>
        <time>2021-02-25T08:42:25.000Z</time>
      </trkpt>
      <trkpt lat="47.28264" lon="-2.35411">
        <ele>0.20000000298023</ele>
        <time>2021-02-25T08:42:28.000Z</time>
      </trkpt>
      <trkpt lat="47.28267" lon="-2.3541">
        <ele>0.20000000298023</ele>
        <time>2021-02-25T08:42:29.000Z</time>
      </trkpt>
      <trkpt lat="47.28275" lon="-2.35407">
        <ele>0.20000000298023</ele>
        <time>2021-02-25T08:42:32.000Z</time>
      </trkpt>
      <trkpt lat="47.28282" lon="-2.354">
        <ele>0.20000000298023</ele>
        <time>2021-02-25T08:42:35.000Z</time>
      </trkpt>
      <trkpt lat="47.28284" lon="-2.3539">
        <ele>0.20000000298023</ele>
        <time>2021-02-25T08:42:37.000Z</time>
      </trkpt>
      <trkpt lat="47.28293" lon="-2.35376">
        <ele>0.20000000298023</ele>
        <time>2021-02-25T08:42:41.000Z</time>
      </trkpt>
      <trkpt lat="47.28309" lon="-2.35365">
        <ele>0.20000000298023</ele>
        <time>2021-02-25T08:42:46.000Z</time>
      </trkpt>
      <trkpt lat="47.28324" lon="-2.35355">
        <ele>0.20000000298023</ele>
        <time>2021-02-25T08:42:52.000Z</time>
      </trkpt>
      <trkpt lat="47.28342" lon="-2.35345">
        <ele>0.20000000298023</ele>
        <time>2021-02-25T08:42:59.000Z</time>
      </trkpt>
      <trkpt lat="47.28354" lon="-2.35337">
        <ele>0.20000000298023</ele>
        <time>2021-02-25T08:43:05.000Z</time>
      </trkpt>
      <trkpt lat="47.28358" lon="-2.35339">
        <ele>0.20000000298023</ele>
        <time>2021-02-25T08:43:07.000Z</time>
      </trkpt>
      <trkpt lat="47.28366" lon="-2.35349">
        <ele>0.20000000298023</ele>
        <time>2021-02-25T08:43:12.000Z</time>
      </trkpt>
      <trkpt lat="47.28367" lon="-2.35351">
        <ele>0.20000000298023</ele>
        <time>2021-02-25T08:43:13.000Z</time>
      </trkpt>
      <trkpt lat="47.28371" lon="-2.35362">
        <ele>0.20000000298023</ele>
        <time>2021-02-25T08:43:18.000Z</time>
      </trkpt>
      <trkpt lat="47.28373" lon="-2.35368">
        <ele>0.60000002384186</ele>
        <time>2021-02-25T08:43:20.000Z</time>
      </trkpt>
      <trkpt lat="47.28374" lon="-2.3537">
        <ele>1</ele>
        <time>2021-02-25T08:43:21.000Z</time>
      </trkpt>
      <trkpt lat="47.28375" lon="-2.35372">
        <ele>1.3999999761581</ele>
        <time>2021-02-25T08:43:22.000Z</time>
      </trkpt>
      <trkpt lat="47.28375" lon="-2.35374">
        <ele>1.7999999523163</ele>
        <time>2021-02-25T08:43:23.000Z</time>
      </trkpt>
      <trkpt lat="47.28376" lon="-2.35377">
        <ele>2.2000000476837</ele>
        <time>2021-02-25T08:43:24.000Z</time>
      </trkpt>
      <trkpt lat="47.28377" lon="-2.35382">
        <ele>2.5999999046326</ele>
        <time>2021-02-25T08:43:27.000Z</time>
      </trkpt>
      <trkpt lat="47.28377" lon="-2.35385">
        <ele>3.2000000476837</ele>
        <time>2021-02-25T08:43:28.000Z</time>
      </trkpt>
      <trkpt lat="47.28378" lon="-2.35387">
        <ele>3.5999999046326</ele>
        <time>2021-02-25T08:43:29.000Z</time>
      </trkpt>
      <trkpt lat="47.28379" lon="-2.35389">
        <ele>4</ele>
        <time>2021-02-25T08:43:30.000Z</time>
      </trkpt>
      <trkpt lat="47.28379" lon="-2.35391">
        <ele>4.4000000953674</ele>
        <time>2021-02-25T08:43:31.000Z</time>
      </trkpt>
      <trkpt lat="47.28381" lon="-2.35394">
        <ele>4.8000001907349</ele>
        <time>2021-02-25T08:43:33.000Z</time>
      </trkpt>
      <trkpt lat="47.28382" lon="-2.35396">
        <ele>5.1999998092651</ele>
        <time>2021-02-25T08:43:34.000Z</time>
      </trkpt>
      <trkpt lat="47.28383" lon="-2.35398">
        <ele>5.8000001907349</ele>
        <time>2021-02-25T08:43:35.000Z</time>
      </trkpt>
      <trkpt lat="47.28385" lon="-2.35399">
        <ele>6.1999998092651</ele>
        <time>2021-02-25T08:43:36.000Z</time>
      </trkpt>
      <trkpt lat="47.28386" lon="-2.35401">
        <ele>6.5999999046326</ele>
        <time>2021-02-25T08:43:37.000Z</time>
      </trkpt>
      <trkpt lat="47.28388" lon="-2.35404">
        <ele>7.4000000953674</ele>
        <time>2021-02-25T08:43:39.000Z</time>
      </trkpt>
      <trkpt lat="47.28389" lon="-2.35407">
        <ele>7.8000001907349</ele>
        <time>2021-02-25T08:43:40.000Z</time>
      </trkpt>
      <trkpt lat="47.2839" lon="-2.35409">
        <ele>8.1999998092651</ele>
        <time>2021-02-25T08:43:41.000Z</time>
      </trkpt>
      <trkpt lat="47.28391" lon="-2.35411">
        <ele>8.6000003814697</ele>
        <time>2021-02-25T08:43:42.000Z</time>
      </trkpt>
      <trkpt lat="47.28397" lon="-2.35418">
        <ele>8.6000003814697</ele>
        <time>2021-02-25T08:43:46.000Z</time>
      </trkpt>
      <trkpt lat="47.28402" lon="-2.3543">
        <ele>8.6000003814697</ele>
        <time>2021-02-25T08:43:51.000Z</time>
      </trkpt>
      <trkpt lat="47.28405" lon="-2.35463">
        <ele>8.6000003814697</ele>
        <time>2021-02-25T08:43:56.000Z</time>
      </trkpt>
      <trkpt lat="47.28405" lon="-2.35471">
        <ele>8.6000003814697</ele>
        <time>2021-02-25T08:43:57.000Z</time>
      </trkpt>
      <trkpt lat="47.28399" lon="-2.3551">
        <ele>8.1999998092651</ele>
        <time>2021-02-25T08:44:01.000Z</time>
      </trkpt>
      <trkpt lat="47.284" lon="-2.35518">
        <ele>7.8000001907349</ele>
        <time>2021-02-25T08:44:02.000Z</time>
      </trkpt>
      <trkpt lat="47.28403" lon="-2.35526">
        <ele>7.1999998092651</ele>
        <time>2021-02-25T08:44:03.000Z</time>
      </trkpt>
      <trkpt lat="47.28407" lon="-2.35532">
        <ele>6.1999998092651</ele>
        <time>2021-02-25T08:44:04.000Z</time>
      </trkpt>
      <trkpt lat="47.28414" lon="-2.35544">
        <ele>6.1999998092651</ele>
        <time>2021-02-25T08:44:06.000Z</time>
      </trkpt>
      <trkpt lat="47.2842" lon="-2.35556">
        <ele>6.1999998092651</ele>
        <time>2021-02-25T08:44:08.000Z</time>
      </trkpt>
      <trkpt lat="47.28428" lon="-2.35577">
        <ele>6.1999998092651</ele>
        <time>2021-02-25T08:44:12.000Z</time>
      </trkpt>
      <trkpt lat="47.28444" lon="-2.35599">
        <ele>6.1999998092651</ele>
        <time>2021-02-25T08:44:18.000Z</time>
      </trkpt>
      <trkpt lat="47.28457" lon="-2.35614">
        <ele>6.1999998092651</ele>
        <time>2021-02-25T08:44:23.000Z</time>
      </trkpt>
      <trkpt lat="47.28472" lon="-2.35629">
        <ele>6.1999998092651</ele>
        <time>2021-02-25T08:44:28.000Z</time>
      </trkpt>
      <trkpt lat="47.28494" lon="-2.35655">
        <ele>6.1999998092651</ele>
        <time>2021-02-25T08:44:35.000Z</time>
      </trkpt>
      <trkpt lat="47.28508" lon="-2.35674">
        <ele>6.1999998092651</ele>
        <time>2021-02-25T08:44:40.000Z</time>
      </trkpt>
      <trkpt lat="47.28522" lon="-2.35695">
        <ele>6.1999998092651</ele>
        <time>2021-02-25T08:44:45.000Z</time>
      </trkpt>
      <trkpt lat="47.28533" lon="-2.35715">
        <ele>6.1999998092651</ele>
        <time>2021-02-25T08:44:50.000Z</time>
      </trkpt>
      <trkpt lat="47.28545" lon="-2.3574">
        <ele>6.1999998092651</ele>
        <time>2021-02-25T08:44:56.000Z</time>
      </trkpt>
      <trkpt lat="47.28549" lon="-2.35755">
        <ele>6.1999998092651</ele>
        <time>2021-02-25T08:45:00.000Z</time>
      </trkpt>
      <trkpt lat="47.28556" lon="-2.35756">
        <ele>6.1999998092651</ele>
        <time>2021-02-25T08:45:04.000Z</time>
      </trkpt>
      <trkpt lat="47.28557" lon="-2.35755">
        <ele>6.1999998092651</ele>
        <time>2021-02-25T08:45:05.000Z</time>
      </trkpt>
      <trkpt lat="47.28564" lon="-2.35755">
        <ele>6.1999998092651</ele>
        <time>2021-02-25T08:45:10.000Z</time>
      </trkpt>
      <trkpt lat="47.28569" lon="-2.35753">
        <ele>6.1999998092651</ele>
        <time>2021-02-25T08:45:15.000Z</time>
      </trkpt>
      <trkpt lat="47.28578" lon="-2.35744">
        <ele>8.3999996185303</ele>
        <time>2021-02-25T08:45:24.000Z</time>
      </trkpt>
      <trkpt lat="47.28584" lon="-2.35723">
        <ele>8.3999996185303</ele>
        <time>2021-02-25T08:45:30.000Z</time>
      </trkpt>
      <trkpt lat="47.28586" lon="-2.35693">
        <ele>8.3999996185303</ele>
        <time>2021-02-25T08:45:37.000Z</time>
      </trkpt>
      <trkpt lat="47.28584" lon="-2.3567">
        <ele>8.3999996185303</ele>
        <time>2021-02-25T08:45:42.000Z</time>
      </trkpt>
      <trkpt lat="47.28579" lon="-2.35645">
        <ele>8.3999996185303</ele>
        <time>2021-02-25T08:45:48.000Z</time>
      </trkpt>
      <trkpt lat="47.28579" lon="-2.35625">
        <ele>8.3999996185303</ele>
        <time>2021-02-25T08:45:52.000Z</time>
      </trkpt>
      <trkpt lat="47.28573" lon="-2.35603">
        <ele>8.3999996185303</ele>
        <time>2021-02-25T08:45:57.000Z</time>
      </trkpt>
      <trkpt lat="47.28569" lon="-2.35572">
        <ele>8</ele>
        <time>2021-02-25T08:46:03.000Z</time>
      </trkpt>
      <trkpt lat="47.28567" lon="-2.35567">
        <ele>7.5999999046326</ele>
        <time>2021-02-25T08:46:04.000Z</time>
      </trkpt>
      <trkpt lat="47.28566" lon="-2.35562">
        <ele>7</ele>
        <time>2021-02-25T08:46:05.000Z</time>
      </trkpt>
      <trkpt lat="47.28565" lon="-2.35556">
        <ele>6.1999998092651</ele>
        <time>2021-02-25T08:46:06.000Z</time>
      </trkpt>
      <trkpt lat="47.28563" lon="-2.3555">
        <ele>6.1999998092651</ele>
        <time>2021-02-25T08:46:08.000Z</time>
      </trkpt>
      <trkpt lat="47.28563" lon="-2.35547">
        <ele>5.8000001907349</ele>
        <time>2021-02-25T08:46:09.000Z</time>
      </trkpt>
      <trkpt lat="47.28563" lon="-2.35543">
        <ele>5.4000000953674</ele>
        <time>2021-02-25T08:46:10.000Z</time>
      </trkpt>
      <trkpt lat="47.28562" lon="-2.35538">
        <ele>5</ele>
        <time>2021-02-25T08:46:11.000Z</time>
      </trkpt>
      <trkpt lat="47.28562" lon="-2.35534">
        <ele>4.4000000953674</ele>
        <time>2021-02-25T08:46:12.000Z</time>
      </trkpt>
      <trkpt lat="47.28561" lon="-2.35529">
        <ele>4</ele>
        <time>2021-02-25T08:46:13.000Z</time>
      </trkpt>
      <trkpt lat="47.28562" lon="-2.355">
        <ele>4</ele>
        <time>2021-02-25T08:46:19.000Z</time>
      </trkpt>
      <trkpt lat="47.28565" lon="-2.35495">
        <ele>4</ele>
        <time>2021-02-25T08:46:21.000Z</time>
      </trkpt>
      <trkpt lat="47.2857" lon="-2.35489">
        <ele>4</ele>
        <time>2021-02-25T08:46:24.000Z</time>
      </trkpt>
      <trkpt lat="47.28575" lon="-2.35487">
        <ele>4</ele>
        <time>2021-02-25T08:46:27.000Z</time>
      </trkpt>
      <trkpt lat="47.28577" lon="-2.35491">
        <ele>4</ele>
        <time>2021-02-25T08:46:29.000Z</time>
      </trkpt>
      <trkpt lat="47.28579" lon="-2.35504">
        <ele>4</ele>
        <time>2021-02-25T08:46:32.000Z</time>
      </trkpt>
      <trkpt lat="47.28583" lon="-2.35518">
        <ele>4</ele>
        <time>2021-02-25T08:46:34.000Z</time>
      </trkpt>
      <trkpt lat="47.28592" lon="-2.35575">
        <ele>4</ele>
        <time>2021-02-25T08:46:41.000Z</time>
      </trkpt>
      <trkpt lat="47.28598" lon="-2.35626">
        <ele>4</ele>
        <time>2021-02-25T08:46:48.000Z</time>
      </trkpt>
      <trkpt lat="47.28603" lon="-2.35663">
        <ele>4</ele>
        <time>2021-02-25T08:46:54.000Z</time>
      </trkpt>
      <trkpt lat="47.2861" lon="-2.35708">
        <ele>4</ele>
        <time>2021-02-25T08:47:01.000Z</time>
      </trkpt>
      <trkpt lat="47.28612" lon="-2.35728">
        <ele>4</ele>
        <time>2021-02-25T08:47:04.000Z</time>
      </trkpt>
      <trkpt lat="47.2862" lon="-2.35743">
        <ele>4</ele>
        <time>2021-02-25T08:47:07.000Z</time>
      </trkpt>
      <trkpt lat="47.28623" lon="-2.35747">
        <ele>4</ele>
        <time>2021-02-25T08:47:08.000Z</time>
      </trkpt>
      <trkpt lat="47.28629" lon="-2.35757">
        <ele>4</ele>
        <time>2021-02-25T08:47:10.000Z</time>
      </trkpt>
      <trkpt lat="47.28631" lon="-2.35768">
        <ele>4</ele>
        <time>2021-02-25T08:47:12.000Z</time>
      </trkpt>
      <trkpt lat="47.2864" lon="-2.358">
        <ele>4</ele>
        <time>2021-02-25T08:47:19.000Z</time>
      </trkpt>
      <trkpt lat="47.28642" lon="-2.35811">
        <ele>4</ele>
        <time>2021-02-25T08:47:24.000Z</time>
      </trkpt>
      <trkpt lat="47.28644" lon="-2.35834">
        <ele>4</ele>
        <time>2021-02-25T08:47:30.000Z</time>
      </trkpt>
      <trkpt lat="47.28648" lon="-2.35846">
        <ele>4.4000000953674</ele>
        <time>2021-02-25T08:47:32.000Z</time>
      </trkpt>
      <trkpt lat="47.2865" lon="-2.35853">
        <ele>4.8000001907349</ele>
        <time>2021-02-25T08:47:33.000Z</time>
      </trkpt>
      <trkpt lat="47.28652" lon="-2.35858">
        <ele>5.4000000953674</ele>
        <time>2021-02-25T08:47:34.000Z</time>
      </trkpt>
      <trkpt lat="47.28654" lon="-2.35864">
        <ele>5.8000001907349</ele>
        <time>2021-02-25T08:47:35.000Z</time>
      </trkpt>
      <trkpt lat="47.28656" lon="-2.3587">
        <ele>6.1999998092651</ele>
        <time>2021-02-25T08:47:36.000Z</time>
      </trkpt>
      <trkpt lat="47.28658" lon="-2.35876">
        <ele>6.1999998092651</ele>
        <time>2021-02-25T08:47:37.000Z</time>
      </trkpt>
      <trkpt lat="47.28664" lon="-2.35898">
        <ele>6.1999998092651</ele>
        <time>2021-02-25T08:47:41.000Z</time>
      </trkpt>
      <trkpt lat="47.28676" lon="-2.35921">
        <ele>6.1999998092651</ele>
        <time>2021-02-25T08:47:46.000Z</time>
      </trkpt>
      <trkpt lat="47.28679" lon="-2.35918">
        <ele>6.1999998092651</ele>
        <time>2021-02-25T08:47:47.000Z</time>
      </trkpt>
      <trkpt lat="47.28688" lon="-2.35905">
        <ele>6.1999998092651</ele>
        <time>2021-02-25T08:47:50.000Z</time>
      </trkpt>
      <trkpt lat="47.28692" lon="-2.359">
        <ele>6.1999998092651</ele>
        <time>2021-02-25T08:47:51.000Z</time>
      </trkpt>
      <trkpt lat="47.28699" lon="-2.35891">
        <ele>6.5999999046326</ele>
        <time>2021-02-25T08:47:53.000Z</time>
      </trkpt>
      <trkpt lat="47.28703" lon="-2.35886">
        <ele>7</ele>
        <time>2021-02-25T08:47:54.000Z</time>
      </trkpt>
      <trkpt lat="47.28707" lon="-2.3588">
        <ele>7.4000000953674</ele>
        <time>2021-02-25T08:47:55.000Z</time>
      </trkpt>
      <trkpt lat="47.2871" lon="-2.35875">
        <ele>7.8000001907349</ele>
        <time>2021-02-25T08:47:56.000Z</time>
      </trkpt>
      <trkpt lat="47.28713" lon="-2.35869">
        <ele>8.1999998092651</ele>
        <time>2021-02-25T08:47:57.000Z</time>
      </trkpt>
      <trkpt lat="47.28738" lon="-2.35823">
        <ele>8.1999998092651</ele>
        <time>2021-02-25T08:48:05.000Z</time>
      </trkpt>
      <trkpt lat="47.28761" lon="-2.35778">
        <ele>8.1999998092651</ele>
        <time>2021-02-25T08:48:13.000Z</time>
      </trkpt>
      <trkpt lat="47.28785" lon="-2.35732">
        <ele>8.1999998092651</ele>
        <time>2021-02-25T08:48:21.000Z</time>
      </trkpt>
      <trkpt lat="47.28821" lon="-2.35669">
        <ele>8.1999998092651</ele>
        <time>2021-02-25T08:48:32.000Z</time>
      </trkpt>
      <trkpt lat="47.28852" lon="-2.35633">
        <ele>8.1999998092651</ele>
        <time>2021-02-25T08:48:40.000Z</time>
      </trkpt>
      <trkpt lat="47.2888" lon="-2.35603">
        <ele>8.1999998092651</ele>
        <time>2021-02-25T08:48:47.000Z</time>
      </trkpt>
      <trkpt lat="47.28912" lon="-2.35568">
        <ele>8.1999998092651</ele>
        <time>2021-02-25T08:48:56.000Z</time>
      </trkpt>
      <trkpt lat="47.28924" lon="-2.35557">
        <ele>8.1999998092651</ele>
        <time>2021-02-25T08:49:01.000Z</time>
      </trkpt>
      <trkpt lat="47.28926" lon="-2.35558">
        <ele>8.1999998092651</ele>
        <time>2021-02-25T08:49:02.000Z</time>
      </trkpt>
      <trkpt lat="47.28928" lon="-2.35563">
        <ele>8.1999998092651</ele>
        <time>2021-02-25T08:49:05.000Z</time>
      </trkpt>
      <trkpt lat="47.28931" lon="-2.35575">
        <ele>8.1999998092651</ele>
        <time>2021-02-25T08:49:08.000Z</time>
      </trkpt>
      <trkpt lat="47.28933" lon="-2.35579">
        <ele>8.1999998092651</ele>
        <time>2021-02-25T08:49:09.000Z</time>
      </trkpt>
      <trkpt lat="47.28948" lon="-2.35615">
        <ele>8.1999998092651</ele>
        <time>2021-02-25T08:49:16.000Z</time>
      </trkpt>
      <trkpt lat="47.2897" lon="-2.35666">
        <ele>8.1999998092651</ele>
        <time>2021-02-25T08:49:25.000Z</time>
      </trkpt>
      <trkpt lat="47.28984" lon="-2.35691">
        <ele>8.6000003814697</ele>
        <time>2021-02-25T08:49:30.000Z</time>
      </trkpt>
      <trkpt lat="47.28988" lon="-2.35695">
        <ele>9</ele>
        <time>2021-02-25T08:49:31.000Z</time>
      </trkpt>
      <trkpt lat="47.28992" lon="-2.35698">
        <ele>9.6000003814697</ele>
        <time>2021-02-25T08:49:32.000Z</time>
      </trkpt>
      <trkpt lat="47.28996" lon="-2.35701">
        <ele>10</ele>
        <time>2021-02-25T08:49:33.000Z</time>
      </trkpt>
      <trkpt lat="47.29" lon="-2.35703">
        <ele>10.39999961853</ele>
        <time>2021-02-25T08:49:34.000Z</time>
      </trkpt>
      <trkpt lat="47.29014" lon="-2.35704">
        <ele>10.39999961853</ele>
        <time>2021-02-25T08:49:37.000Z</time>
      </trkpt>
      <trkpt lat="47.29031" lon="-2.35694">
        <ele>10.39999961853</ele>
        <time>2021-02-25T08:49:41.000Z</time>
      </trkpt>
      <trkpt lat="47.29036" lon="-2.35691">
        <ele>10.39999961853</ele>
        <time>2021-02-25T08:49:42.000Z</time>
      </trkpt>
      <trkpt lat="47.29061" lon="-2.35665">
        <ele>10.39999961853</ele>
        <time>2021-02-25T08:49:49.000Z</time>
      </trkpt>
      <trkpt lat="47.29088" lon="-2.35639">
        <ele>10.39999961853</ele>
        <time>2021-02-25T08:49:57.000Z</time>
      </trkpt>
      <trkpt lat="47.29106" lon="-2.35623">
        <ele>10.39999961853</ele>
        <time>2021-02-25T08:50:02.000Z</time>
      </trkpt>
      <trkpt lat="47.29122" lon="-2.35605">
        <ele>10.39999961853</ele>
        <time>2021-02-25T08:50:06.000Z</time>
      </trkpt>
      <trkpt lat="47.29127" lon="-2.35592">
        <ele>10.39999961853</ele>
        <time>2021-02-25T08:50:08.000Z</time>
      </trkpt>
      <trkpt lat="47.29129" lon="-2.35562">
        <ele>10.39999961853</ele>
        <time>2021-02-25T08:50:12.000Z</time>
      </trkpt>
      <trkpt lat="47.29129" lon="-2.35554">
        <ele>10.39999961853</ele>
        <time>2021-02-25T08:50:13.000Z</time>
      </trkpt>
      <trkpt lat="47.29124" lon="-2.3553">
        <ele>10.39999961853</ele>
        <time>2021-02-25T08:50:16.000Z</time>
      </trkpt>
      <trkpt lat="47.29114" lon="-2.3548">
        <ele>10.39999961853</ele>
        <time>2021-02-25T08:50:23.000Z</time>
      </trkpt>
      <trkpt lat="47.29116" lon="-2.35474">
        <ele>10.39999961853</ele>
        <time>2021-02-25T08:50:24.000Z</time>
      </trkpt>
      <trkpt lat="47.29129" lon="-2.35461">
        <ele>10.39999961853</ele>
        <time>2021-02-25T08:50:27.000Z</time>
      </trkpt>
      <trkpt lat="47.29144" lon="-2.35456">
        <ele>10.39999961853</ele>
        <time>2021-02-25T08:50:30.000Z</time>
      </trkpt>
      <trkpt lat="47.29148" lon="-2.35454">
        <ele>10.39999961853</ele>
        <time>2021-02-25T08:50:31.000Z</time>
      </trkpt>
      <trkpt lat="47.29167" lon="-2.35447">
        <ele>10.39999961853</ele>
        <time>2021-02-25T08:50:35.000Z</time>
      </trkpt>
      <trkpt lat="47.29181" lon="-2.35441">
        <ele>10.39999961853</ele>
        <time>2021-02-25T08:50:38.000Z</time>
      </trkpt>
      <trkpt lat="47.29209" lon="-2.35431">
        <ele>10.39999961853</ele>
        <time>2021-02-25T08:50:44.000Z</time>
      </trkpt>
      <trkpt lat="47.29214" lon="-2.35429">
        <ele>10.39999961853</ele>
        <time>2021-02-25T08:50:45.000Z</time>
      </trkpt>
      <trkpt lat="47.29252" lon="-2.35414">
        <ele>10.39999961853</ele>
        <time>2021-02-25T08:50:53.000Z</time>
      </trkpt>
      <trkpt lat="47.29257" lon="-2.35411">
        <ele>10.39999961853</ele>
        <time>2021-02-25T08:50:54.000Z</time>
      </trkpt>
      <trkpt lat="47.29276" lon="-2.35399">
        <ele>10.39999961853</ele>
        <time>2021-02-25T08:50:58.000Z</time>
      </trkpt>
      <trkpt lat="47.29291" lon="-2.35386">
        <ele>10.39999961853</ele>
        <time>2021-02-25T08:51:01.000Z</time>
      </trkpt>
      <trkpt lat="47.29325" lon="-2.35352">
        <ele>10.39999961853</ele>
        <time>2021-02-25T08:51:08.000Z</time>
      </trkpt>
      <trkpt lat="47.29359" lon="-2.35313">
        <ele>10.39999961853</ele>
        <time>2021-02-25T08:51:15.000Z</time>
      </trkpt>
      <trkpt lat="47.29384" lon="-2.35283">
        <ele>10</ele>
        <time>2021-02-25T08:51:20.000Z</time>
      </trkpt>
      <trkpt lat="47.29389" lon="-2.35276">
        <ele>9.6000003814697</ele>
        <time>2021-02-25T08:51:21.000Z</time>
      </trkpt>
      <trkpt lat="47.29393" lon="-2.3527">
        <ele>9.1999998092651</ele>
        <time>2021-02-25T08:51:22.000Z</time>
      </trkpt>
      <trkpt lat="47.29397" lon="-2.35264">
        <ele>8.8000001907349</ele>
        <time>2021-02-25T08:51:23.000Z</time>
      </trkpt>
      <trkpt lat="47.29402" lon="-2.35258">
        <ele>8.3999996185303</ele>
        <time>2021-02-25T08:51:24.000Z</time>
      </trkpt>
      <trkpt lat="47.29415" lon="-2.35239">
        <ele>8.3999996185303</ele>
        <time>2021-02-25T08:51:27.000Z</time>
      </trkpt>
      <trkpt lat="47.29437" lon="-2.35195">
        <ele>8.3999996185303</ele>
        <time>2021-02-25T08:51:33.000Z</time>
      </trkpt>
      <trkpt lat="47.29461" lon="-2.35131">
        <ele>8</ele>
        <time>2021-02-25T08:51:41.000Z</time>
      </trkpt>
      <trkpt lat="47.29464" lon="-2.35122">
        <ele>7.5999999046326</ele>
        <time>2021-02-25T08:51:42.000Z</time>
      </trkpt>
      <trkpt lat="47.29466" lon="-2.35114">
        <ele>7.1999998092651</ele>
        <time>2021-02-25T08:51:43.000Z</time>
      </trkpt>
      <trkpt lat="47.29468" lon="-2.35105">
        <ele>6.8000001907349</ele>
        <time>2021-02-25T08:51:44.000Z</time>
      </trkpt>
      <trkpt lat="47.29471" lon="-2.35097">
        <ele>6.1999998092651</ele>
        <time>2021-02-25T08:51:45.000Z</time>
      </trkpt>
      <trkpt lat="47.29481" lon="-2.35064">
        <ele>6.1999998092651</ele>
        <time>2021-02-25T08:51:49.000Z</time>
      </trkpt>
      <trkpt lat="47.29492" lon="-2.35021">
        <ele>6.1999998092651</ele>
        <time>2021-02-25T08:51:54.000Z</time>
      </trkpt>
      <trkpt lat="47.29505" lon="-2.34991">
        <ele>5.8000001907349</ele>
        <time>2021-02-25T08:51:57.000Z</time>
      </trkpt>
      <trkpt lat="47.29511" lon="-2.34981">
        <ele>5.4000000953674</ele>
        <time>2021-02-25T08:51:58.000Z</time>
      </trkpt>
      <trkpt lat="47.29517" lon="-2.34972">
        <ele>5</ele>
        <time>2021-02-25T08:51:59.000Z</time>
      </trkpt>
      <trkpt lat="47.29523" lon="-2.34963">
        <ele>4.5999999046326</ele>
        <time>2021-02-25T08:52:00.000Z</time>
      </trkpt>
      <trkpt lat="47.29528" lon="-2.34954">
        <ele>4</ele>
        <time>2021-02-25T08:52:01.000Z</time>
      </trkpt>
      <trkpt lat="47.29544" lon="-2.34929">
        <ele>4</ele>
        <time>2021-02-25T08:52:04.000Z</time>
      </trkpt>
      <trkpt lat="47.29562" lon="-2.34905">
        <ele>4</ele>
        <time>2021-02-25T08:52:08.000Z</time>
      </trkpt>
      <trkpt lat="47.29582" lon="-2.34871">
        <ele>4</ele>
        <time>2021-02-25T08:52:14.000Z</time>
      </trkpt>
      <trkpt lat="47.29596" lon="-2.34848">
        <ele>4</ele>
        <time>2021-02-25T08:52:18.000Z</time>
      </trkpt>
      <trkpt lat="47.29604" lon="-2.34839">
        <ele>4</ele>
        <time>2021-02-25T08:52:20.000Z</time>
      </trkpt>
      <trkpt lat="47.29608" lon="-2.34837">
        <ele>4</ele>
        <time>2021-02-25T08:52:21.000Z</time>
      </trkpt>
      <trkpt lat="47.29627" lon="-2.3484">
        <ele>4</ele>
        <time>2021-02-25T08:52:24.000Z</time>
      </trkpt>
      <trkpt lat="47.29653" lon="-2.3486">
        <ele>4</ele>
        <time>2021-02-25T08:52:28.000Z</time>
      </trkpt>
      <trkpt lat="47.29666" lon="-2.34873">
        <ele>4</ele>
        <time>2021-02-25T08:52:30.000Z</time>
      </trkpt>
      <trkpt lat="47.29682" lon="-2.3489">
        <ele>4</ele>
        <time>2021-02-25T08:52:33.000Z</time>
      </trkpt>
      <trkpt lat="47.29688" lon="-2.34892">
        <ele>4</ele>
        <time>2021-02-25T08:52:34.000Z</time>
      </trkpt>
      <trkpt lat="47.29705" lon="-2.34889">
        <ele>4</ele>
        <time>2021-02-25T08:52:37.000Z</time>
      </trkpt>
      <trkpt lat="47.29717" lon="-2.34883">
        <ele>4</ele>
        <time>2021-02-25T08:52:39.000Z</time>
      </trkpt>
      <trkpt lat="47.29735" lon="-2.34874">
        <ele>4</ele>
        <time>2021-02-25T08:52:42.000Z</time>
      </trkpt>
      <trkpt lat="47.29749" lon="-2.3487">
        <ele>4</ele>
        <time>2021-02-25T08:52:44.000Z</time>
      </trkpt>
      <trkpt lat="47.29768" lon="-2.34867">
        <ele>4</ele>
        <time>2021-02-25T08:52:47.000Z</time>
      </trkpt>
      <trkpt lat="47.29805" lon="-2.34856">
        <ele>4</ele>
        <time>2021-02-25T08:52:53.000Z</time>
      </trkpt>
      <trkpt lat="47.29842" lon="-2.34847">
        <ele>4</ele>
        <time>2021-02-25T08:52:59.000Z</time>
      </trkpt>
      <trkpt lat="47.29884" lon="-2.34837">
        <ele>4</ele>
        <time>2021-02-25T08:53:07.000Z</time>
      </trkpt>
      <trkpt lat="47.29889" lon="-2.34837">
        <ele>4</ele>
        <time>2021-02-25T08:53:08.000Z</time>
      </trkpt>
      <trkpt lat="47.29909" lon="-2.34832">
        <ele>4</ele>
        <time>2021-02-25T08:53:12.000Z</time>
      </trkpt>
      <trkpt lat="47.29914" lon="-2.34831">
        <ele>4.4000000953674</ele>
        <time>2021-02-25T08:53:13.000Z</time>
      </trkpt>
      <trkpt lat="47.29919" lon="-2.3483">
        <ele>4.8000001907349</ele>
        <time>2021-02-25T08:53:14.000Z</time>
      </trkpt>
      <trkpt lat="47.29924" lon="-2.34829">
        <ele>5.1999998092651</ele>
        <time>2021-02-25T08:53:15.000Z</time>
      </trkpt>
      <trkpt lat="47.29929" lon="-2.34829">
        <ele>5.5999999046326</ele>
        <time>2021-02-25T08:53:16.000Z</time>
      </trkpt>
      <trkpt lat="47.29934" lon="-2.34827">
        <ele>6</ele>
        <time>2021-02-25T08:53:17.000Z</time>
      </trkpt>
      <trkpt lat="47.29944" lon="-2.34826">
        <ele>6</ele>
        <time>2021-02-25T08:53:19.000Z</time>
      </trkpt>
      <trkpt lat="47.29973" lon="-2.34821">
        <ele>6</ele>
        <time>2021-02-25T08:53:26.000Z</time>
      </trkpt>
      <trkpt lat="47.29986" lon="-2.34832">
        <ele>6</ele>
        <time>2021-02-25T08:53:30.000Z</time>
      </trkpt>
      <trkpt lat="47.2999" lon="-2.3486">
        <ele>6</ele>
        <time>2021-02-25T08:53:34.000Z</time>
      </trkpt>
      <trkpt lat="47.29997" lon="-2.34924">
        <ele>6.4000000953674</ele>
        <time>2021-02-25T08:53:43.000Z</time>
      </trkpt>
      <trkpt lat="47.29998" lon="-2.34931">
        <ele>7</ele>
        <time>2021-02-25T08:53:44.000Z</time>
      </trkpt>
      <trkpt lat="47.29997" lon="-2.34938">
        <ele>7.4000000953674</ele>
        <time>2021-02-25T08:53:45.000Z</time>
      </trkpt>
      <trkpt lat="47.29997" lon="-2.34945">
        <ele>7.8000001907349</ele>
        <time>2021-02-25T08:53:46.000Z</time>
      </trkpt>
      <trkpt lat="47.29997" lon="-2.34952">
        <ele>8.1999998092651</ele>
        <time>2021-02-25T08:53:47.000Z</time>
      </trkpt>
      <trkpt lat="47.29997" lon="-2.34967">
        <ele>8.1999998092651</ele>
        <time>2021-02-25T08:53:49.000Z</time>
      </trkpt>
      <trkpt lat="47.29991" lon="-2.35043">
        <ele>8.1999998092651</ele>
        <time>2021-02-25T08:53:59.000Z</time>
      </trkpt>
      <trkpt lat="47.29986" lon="-2.35111">
        <ele>8.1999998092651</ele>
        <time>2021-02-25T08:54:07.000Z</time>
      </trkpt>
      <trkpt lat="47.29986" lon="-2.35186">
        <ele>8.1999998092651</ele>
        <time>2021-02-25T08:54:15.000Z</time>
      </trkpt>
      <trkpt lat="47.29992" lon="-2.35213">
        <ele>8.1999998092651</ele>
        <time>2021-02-25T08:54:18.000Z</time>
      </trkpt>
      <trkpt lat="47.29995" lon="-2.35221">
        <ele>7.4000000953674</ele>
        <time>2021-02-25T08:54:19.000Z</time>
      </trkpt>
      <trkpt lat="47.29997" lon="-2.35227">
        <ele>7</ele>
        <time>2021-02-25T08:54:20.000Z</time>
      </trkpt>
      <trkpt lat="47.29999" lon="-2.35233">
        <ele>6.5999999046326</ele>
        <time>2021-02-25T08:54:21.000Z</time>
      </trkpt>
      <trkpt lat="47.3" lon="-2.35238">
        <ele>6</ele>
        <time>2021-02-25T08:54:22.000Z</time>
      </trkpt>
      <trkpt lat="47.30003" lon="-2.35246">
        <ele>6</ele>
        <time>2021-02-25T08:54:24.000Z</time>
      </trkpt>
      <trkpt lat="47.30007" lon="-2.35255">
        <ele>6</ele>
        <time>2021-02-25T08:54:28.000Z</time>
      </trkpt>
      <trkpt lat="47.30011" lon="-2.35256">
        <ele>6</ele>
        <time>2021-02-25T08:54:33.000Z</time>
      </trkpt>
      <trkpt lat="47.30012" lon="-2.35255">
        <ele>6</ele>
        <time>2021-02-25T08:54:34.000Z</time>
      </trkpt>
      <trkpt lat="47.30018" lon="-2.35251">
        <ele>6</ele>
        <time>2021-02-25T08:54:41.000Z</time>
      </trkpt>
      <trkpt lat="47.30025" lon="-2.35245">
        <ele>6</ele>
        <time>2021-02-25T08:54:49.000Z</time>
      </trkpt>
      <trkpt lat="47.30034" lon="-2.35237">
        <ele>6</ele>
        <time>2021-02-25T08:54:53.000Z</time>
      </trkpt>
      <trkpt lat="47.30042" lon="-2.35233">
        <ele>6</ele>
        <time>2021-02-25T08:54:55.000Z</time>
      </trkpt>
      <trkpt lat="47.30059" lon="-2.35225">
        <ele>6</ele>
        <time>2021-02-25T08:54:59.000Z</time>
      </trkpt>
      <trkpt lat="47.30079" lon="-2.35215">
        <ele>6</ele>
        <time>2021-02-25T08:55:04.000Z</time>
      </trkpt>
      <trkpt lat="47.30104" lon="-2.35206">
        <ele>6</ele>
        <time>2021-02-25T08:55:10.000Z</time>
      </trkpt>
      <trkpt lat="47.30115" lon="-2.35201">
        <ele>6</ele>
        <time>2021-02-25T08:55:14.000Z</time>
      </trkpt>
      <trkpt lat="47.30122" lon="-2.35197">
        <ele>6</ele>
        <time>2021-02-25T08:55:20.000Z</time>
      </trkpt>
      <trkpt lat="47.30132" lon="-2.35196">
        <ele>6</ele>
        <time>2021-02-25T08:55:28.000Z</time>
      </trkpt>
      <trkpt lat="47.3014" lon="-2.35196">
        <ele>6</ele>
        <time>2021-02-25T08:55:37.000Z</time>
      </trkpt>
      <trkpt lat="47.30141" lon="-2.35196">
        <ele>6</ele>
        <time>2021-02-25T08:55:39.000Z</time>
      </trkpt>
      <trkpt lat="47.30162" lon="-2.35187">
        <ele>6</ele>
        <time>2021-02-25T08:56:14.000Z</time>
      </trkpt>
      <trkpt lat="47.30163" lon="-2.35187">
        <ele>6</ele>
        <time>2021-02-25T08:56:16.000Z</time>
      </trkpt>
      <trkpt lat="47.30166" lon="-2.35182">
        <ele>6</ele>
        <time>2021-02-25T08:56:21.000Z</time>
      </trkpt>
      <trkpt lat="47.30172" lon="-2.35178">
        <ele>6</ele>
        <time>2021-02-25T08:56:24.000Z</time>
      </trkpt>
      <trkpt lat="47.30175" lon="-2.35177">
        <ele>6</ele>
        <time>2021-02-25T08:56:25.000Z</time>
      </trkpt>
      <trkpt lat="47.30184" lon="-2.35175">
        <ele>6</ele>
        <time>2021-02-25T08:56:28.000Z</time>
      </trkpt>
      <trkpt lat="47.30199" lon="-2.35167">
        <ele>6</ele>
        <time>2021-02-25T08:56:32.000Z</time>
      </trkpt>
      <trkpt lat="47.30203" lon="-2.35163">
        <ele>6</ele>
        <time>2021-02-25T08:56:33.000Z</time>
      </trkpt>
      <trkpt lat="47.30206" lon="-2.35151">
        <ele>6</ele>
        <time>2021-02-25T08:56:35.000Z</time>
      </trkpt>
      <trkpt lat="47.30207" lon="-2.35127">
        <ele>6</ele>
        <time>2021-02-25T08:56:39.000Z</time>
      </trkpt>
      <trkpt lat="47.30207" lon="-2.35121">
        <ele>6</ele>
        <time>2021-02-25T08:56:40.000Z</time>
      </trkpt>
      <trkpt lat="47.30208" lon="-2.3509">
        <ele>6</ele>
        <time>2021-02-25T08:56:45.000Z</time>
      </trkpt>
      <trkpt lat="47.30207" lon="-2.35078">
        <ele>6</ele>
        <time>2021-02-25T08:56:47.000Z</time>
      </trkpt>
      <trkpt lat="47.30208" lon="-2.35039">
        <ele>6</ele>
        <time>2021-02-25T08:56:54.000Z</time>
      </trkpt>
      <trkpt lat="47.30208" lon="-2.35034">
        <ele>6.5999999046326</ele>
        <time>2021-02-25T08:56:55.000Z</time>
      </trkpt>
      <trkpt lat="47.30208" lon="-2.35028">
        <ele>7</ele>
        <time>2021-02-25T08:56:56.000Z</time>
      </trkpt>
      <trkpt lat="47.30207" lon="-2.35023">
        <ele>7.4000000953674</ele>
        <time>2021-02-25T08:56:57.000Z</time>
      </trkpt>
      <trkpt lat="47.30207" lon="-2.35019">
        <ele>7.8000001907349</ele>
        <time>2021-02-25T08:56:58.000Z</time>
      </trkpt>
      <trkpt lat="47.30207" lon="-2.35014">
        <ele>8.1999998092651</ele>
        <time>2021-02-25T08:56:59.000Z</time>
      </trkpt>
      <trkpt lat="47.30206" lon="-2.35004">
        <ele>8.1999998092651</ele>
        <time>2021-02-25T08:57:01.000Z</time>
      </trkpt>
      <trkpt lat="47.30206" lon="-2.34969">
        <ele>8.1999998092651</ele>
        <time>2021-02-25T08:57:07.000Z</time>
      </trkpt>
      <trkpt lat="47.30206" lon="-2.34933">
        <ele>8.6000003814697</ele>
        <time>2021-02-25T08:57:13.000Z</time>
      </trkpt>
      <trkpt lat="47.30206" lon="-2.34927">
        <ele>9</ele>
        <time>2021-02-25T08:57:14.000Z</time>
      </trkpt>
      <trkpt lat="47.30207" lon="-2.34922">
        <ele>9.3999996185303</ele>
        <time>2021-02-25T08:57:15.000Z</time>
      </trkpt>
      <trkpt lat="47.30207" lon="-2.34917">
        <ele>9.8000001907349</ele>
        <time>2021-02-25T08:57:16.000Z</time>
      </trkpt>
      <trkpt lat="47.30208" lon="-2.34912">
        <ele>10.199999809265</ele>
        <time>2021-02-25T08:57:17.000Z</time>
      </trkpt>
      <trkpt lat="47.30213" lon="-2.34901">
        <ele>10.199999809265</ele>
        <time>2021-02-25T08:57:20.000Z</time>
      </trkpt>
      <trkpt lat="47.3023" lon="-2.34886">
        <ele>10.199999809265</ele>
        <time>2021-02-25T08:57:25.000Z</time>
      </trkpt>
      <trkpt lat="47.30247" lon="-2.34877">
        <ele>10.199999809265</ele>
        <time>2021-02-25T08:57:30.000Z</time>
      </trkpt>
      <trkpt lat="47.30271" lon="-2.34866">
        <ele>10.199999809265</ele>
        <time>2021-02-25T08:57:37.000Z</time>
      </trkpt>
      <trkpt lat="47.30288" lon="-2.34855">
        <ele>10.199999809265</ele>
        <time>2021-02-25T08:57:43.000Z</time>
      </trkpt>
      <trkpt lat="47.30301" lon="-2.34839">
        <ele>10.199999809265</ele>
        <time>2021-02-25T08:57:50.000Z</time>
      </trkpt>
      <trkpt lat="47.30312" lon="-2.34826">
        <ele>10.199999809265</ele>
        <time>2021-02-25T08:57:56.000Z</time>
      </trkpt>
      <trkpt lat="47.30322" lon="-2.3481">
        <ele>10.199999809265</ele>
        <time>2021-02-25T08:58:02.000Z</time>
      </trkpt>
      <trkpt lat="47.30336" lon="-2.3478">
        <ele>10.199999809265</ele>
        <time>2021-02-25T08:58:09.000Z</time>
      </trkpt>
      <trkpt lat="47.30352" lon="-2.34767">
        <ele>10.199999809265</ele>
        <time>2021-02-25T08:58:14.000Z</time>
      </trkpt>
      <trkpt lat="47.30376" lon="-2.3475">
        <ele>10.199999809265</ele>
        <time>2021-02-25T08:58:21.000Z</time>
      </trkpt>
      <trkpt lat="47.30387" lon="-2.34747">
        <ele>10.199999809265</ele>
        <time>2021-02-25T08:58:25.000Z</time>
      </trkpt>
      <trkpt lat="47.304" lon="-2.34736">
        <ele>10.199999809265</ele>
        <time>2021-02-25T08:58:30.000Z</time>
      </trkpt>
      <trkpt lat="47.30412" lon="-2.34728">
        <ele>10.199999809265</ele>
        <time>2021-02-25T08:58:34.000Z</time>
      </trkpt>
      <trkpt lat="47.30432" lon="-2.34712">
        <ele>10.199999809265</ele>
        <time>2021-02-25T08:58:39.000Z</time>
      </trkpt>
      <trkpt lat="47.30436" lon="-2.34707">
        <ele>10.199999809265</ele>
        <time>2021-02-25T08:58:40.000Z</time>
      </trkpt>
      <trkpt lat="47.30453" lon="-2.34695">
        <ele>10.199999809265</ele>
        <time>2021-02-25T08:58:44.000Z</time>
      </trkpt>
      <trkpt lat="47.30473" lon="-2.34674">
        <ele>10.199999809265</ele>
        <time>2021-02-25T08:58:49.000Z</time>
      </trkpt>
      <trkpt lat="47.30476" lon="-2.34669">
        <ele>10.199999809265</ele>
        <time>2021-02-25T08:58:50.000Z</time>
      </trkpt>
      <trkpt lat="47.30491" lon="-2.34656">
        <ele>10.199999809265</ele>
        <time>2021-02-25T08:58:55.000Z</time>
      </trkpt>
      <trkpt lat="47.30501" lon="-2.34638">
        <ele>10.199999809265</ele>
        <time>2021-02-25T08:59:00.000Z</time>
      </trkpt>
      <trkpt lat="47.30515" lon="-2.34614">
        <ele>10.199999809265</ele>
        <time>2021-02-25T08:59:06.000Z</time>
      </trkpt>
      <trkpt lat="47.30529" lon="-2.34592">
        <ele>10.199999809265</ele>
        <time>2021-02-25T08:59:12.000Z</time>
      </trkpt>
      <trkpt lat="47.30548" lon="-2.34563">
        <ele>10.199999809265</ele>
        <time>2021-02-25T08:59:20.000Z</time>
      </trkpt>
      <trkpt lat="47.30561" lon="-2.34542">
        <ele>10.199999809265</ele>
        <time>2021-02-25T08:59:26.000Z</time>
      </trkpt>
      <trkpt lat="47.30578" lon="-2.3451">
        <ele>10.199999809265</ele>
        <time>2021-02-25T08:59:33.000Z</time>
      </trkpt>
      <trkpt lat="47.30586" lon="-2.34494">
        <ele>10.60000038147</ele>
        <time>2021-02-25T08:59:37.000Z</time>
      </trkpt>
      <trkpt lat="47.30589" lon="-2.34489">
        <ele>11</ele>
        <time>2021-02-25T08:59:38.000Z</time>
      </trkpt>
      <trkpt lat="47.30592" lon="-2.34485">
        <ele>11.39999961853</ele>
        <time>2021-02-25T08:59:39.000Z</time>
      </trkpt>
      <trkpt lat="47.30594" lon="-2.3448">
        <ele>12.39999961853</ele>
        <time>2021-02-25T08:59:40.000Z</time>
      </trkpt>
      <trkpt lat="47.30607" lon="-2.34457">
        <ele>12.39999961853</ele>
        <time>2021-02-25T08:59:45.000Z</time>
      </trkpt>
      <trkpt lat="47.30627" lon="-2.34434">
        <ele>12.39999961853</ele>
        <time>2021-02-25T08:59:51.000Z</time>
      </trkpt>
      <trkpt lat="47.30643" lon="-2.34415">
        <ele>12.39999961853</ele>
        <time>2021-02-25T08:59:56.000Z</time>
      </trkpt>
      <trkpt lat="47.30664" lon="-2.34387">
        <ele>12.39999961853</ele>
        <time>2021-02-25T09:00:04.000Z</time>
      </trkpt>
      <trkpt lat="47.30683" lon="-2.34358">
        <ele>12.39999961853</ele>
        <time>2021-02-25T09:00:10.000Z</time>
      </trkpt>
      <trkpt lat="47.30701" lon="-2.34324">
        <ele>12.39999961853</ele>
        <time>2021-02-25T09:00:17.000Z</time>
      </trkpt>
      <trkpt lat="47.30716" lon="-2.34297">
        <ele>12.39999961853</ele>
        <time>2021-02-25T09:00:24.000Z</time>
      </trkpt>
      <trkpt lat="47.30723" lon="-2.34278">
        <ele>12.39999961853</ele>
        <time>2021-02-25T09:00:30.000Z</time>
      </trkpt>
      <trkpt lat="47.30728" lon="-2.34251">
        <ele>12.39999961853</ele>
        <time>2021-02-25T09:00:35.000Z</time>
      </trkpt>
      <trkpt lat="47.30731" lon="-2.34235">
        <ele>12.39999961853</ele>
        <time>2021-02-25T09:00:39.000Z</time>
      </trkpt>
      <trkpt lat="47.30739" lon="-2.34228">
        <ele>12.39999961853</ele>
        <time>2021-02-25T09:00:44.000Z</time>
      </trkpt>
      <trkpt lat="47.3074" lon="-2.34228">
        <ele>11.800000190735</ele>
        <time>2021-02-25T09:00:45.000Z</time>
      </trkpt>
      <trkpt lat="47.30741" lon="-2.34227">
        <ele>11.39999961853</ele>
        <time>2021-02-25T09:00:46.000Z</time>
      </trkpt>
      <trkpt lat="47.30743" lon="-2.34226">
        <ele>11</ele>
        <time>2021-02-25T09:00:47.000Z</time>
      </trkpt>
      <trkpt lat="47.30745" lon="-2.34225">
        <ele>10.60000038147</ele>
        <time>2021-02-25T09:00:48.000Z</time>
      </trkpt>
      <trkpt lat="47.30748" lon="-2.34224">
        <ele>10.199999809265</ele>
        <time>2021-02-25T09:00:49.000Z</time>
      </trkpt>
      <trkpt lat="47.30751" lon="-2.34224">
        <ele>10.199999809265</ele>
        <time>2021-02-25T09:00:50.000Z</time>
      </trkpt>
      <trkpt lat="47.30764" lon="-2.34218">
        <ele>10.199999809265</ele>
        <time>2021-02-25T09:00:55.000Z</time>
      </trkpt>
      <trkpt lat="47.30766" lon="-2.34214">
        <ele>10.199999809265</ele>
        <time>2021-02-25T09:00:56.000Z</time>
      </trkpt>
      <trkpt lat="47.30767" lon="-2.342">
        <ele>10.199999809265</ele>
        <time>2021-02-25T09:00:59.000Z</time>
      </trkpt>
      <trkpt lat="47.30767" lon="-2.34195">
        <ele>10.199999809265</ele>
        <time>2021-02-25T09:01:00.000Z</time>
      </trkpt>
      <trkpt lat="47.30767" lon="-2.34175">
        <ele>10.199999809265</ele>
        <time>2021-02-25T09:01:05.000Z</time>
      </trkpt>
      <trkpt lat="47.30769" lon="-2.34153">
        <ele>10.199999809265</ele>
        <time>2021-02-25T09:01:10.000Z</time>
      </trkpt>
      <trkpt lat="47.30771" lon="-2.34132">
        <ele>10.199999809265</ele>
        <time>2021-02-25T09:01:15.000Z</time>
      </trkpt>
      <trkpt lat="47.30771" lon="-2.34109">
        <ele>10.199999809265</ele>
        <time>2021-02-25T09:01:20.000Z</time>
      </trkpt>
      <trkpt lat="47.30772" lon="-2.34095">
        <ele>10.199999809265</ele>
        <time>2021-02-25T09:01:24.000Z</time>
      </trkpt>
      <trkpt lat="47.30776" lon="-2.34071">
        <ele>10.199999809265</ele>
        <time>2021-02-25T09:01:30.000Z</time>
      </trkpt>
      <trkpt lat="47.30776" lon="-2.34055">
        <ele>10.199999809265</ele>
        <time>2021-02-25T09:01:36.000Z</time>
      </trkpt>
      <trkpt lat="47.30777" lon="-2.34038">
        <ele>10.199999809265</ele>
        <time>2021-02-25T09:01:42.000Z</time>
      </trkpt>
      <trkpt lat="47.3078" lon="-2.34019">
        <ele>10.199999809265</ele>
        <time>2021-02-25T09:01:48.000Z</time>
      </trkpt>
      <trkpt lat="47.3078" lon="-2.34011">
        <ele>10.199999809265</ele>
        <time>2021-02-25T09:01:51.000Z</time>
      </trkpt>
      <trkpt lat="47.3078" lon="-2.34005">
        <ele>10.199999809265</ele>
        <time>2021-02-25T09:01:53.000Z</time>
      </trkpt>
      <trkpt lat="47.30782" lon="-2.33981">
        <ele>10.199999809265</ele>
        <time>2021-02-25T09:01:59.000Z</time>
      </trkpt>
      <trkpt lat="47.30783" lon="-2.33977">
        <ele>10.199999809265</ele>
        <time>2021-02-25T09:02:00.000Z</time>
      </trkpt>
      <trkpt lat="47.30792" lon="-2.3397">
        <ele>10.199999809265</ele>
        <time>2021-02-25T09:02:03.000Z</time>
      </trkpt>
      <trkpt lat="47.30816" lon="-2.33961">
        <ele>10.199999809265</ele>
        <time>2021-02-25T09:02:08.000Z</time>
      </trkpt>
      <trkpt lat="47.30827" lon="-2.33959">
        <ele>10.199999809265</ele>
        <time>2021-02-25T09:02:10.000Z</time>
      </trkpt>
      <trkpt lat="47.30837" lon="-2.33956">
        <ele>10.199999809265</ele>
        <time>2021-02-25T09:02:12.000Z</time>
      </trkpt>
      <trkpt lat="47.30848" lon="-2.33954">
        <ele>10.199999809265</ele>
        <time>2021-02-25T09:02:14.000Z</time>
      </trkpt>
      <trkpt lat="47.30888" lon="-2.33949">
        <ele>10.199999809265</ele>
        <time>2021-02-25T09:02:22.000Z</time>
      </trkpt>
      <trkpt lat="47.30909" lon="-2.33947">
        <ele>10.199999809265</ele>
        <time>2021-02-25T09:02:26.000Z</time>
      </trkpt>
      <trkpt lat="47.30919" lon="-2.33948">
        <ele>10.199999809265</ele>
        <time>2021-02-25T09:02:28.000Z</time>
      </trkpt>
      <trkpt lat="47.30955" lon="-2.33955">
        <ele>10.199999809265</ele>
        <time>2021-02-25T09:02:35.000Z</time>
      </trkpt>
      <trkpt lat="47.30973" lon="-2.33957">
        <ele>10.199999809265</ele>
        <time>2021-02-25T09:02:38.000Z</time>
      </trkpt>
      <trkpt lat="47.30996" lon="-2.33956">
        <ele>10.199999809265</ele>
        <time>2021-02-25T09:02:42.000Z</time>
      </trkpt>
      <trkpt lat="47.31037" lon="-2.33952">
        <ele>10.199999809265</ele>
        <time>2021-02-25T09:02:49.000Z</time>
      </trkpt>
      <trkpt lat="47.31053" lon="-2.33947">
        <ele>10.199999809265</ele>
        <time>2021-02-25T09:02:52.000Z</time>
      </trkpt>
      <trkpt lat="47.31057" lon="-2.33944">
        <ele>9.8000001907349</ele>
        <time>2021-02-25T09:02:53.000Z</time>
      </trkpt>
      <trkpt lat="47.31061" lon="-2.33939">
        <ele>9.3999996185303</ele>
        <time>2021-02-25T09:02:54.000Z</time>
      </trkpt>
      <trkpt lat="47.31063" lon="-2.33932">
        <ele>8.8000001907349</ele>
        <time>2021-02-25T09:02:55.000Z</time>
      </trkpt>
      <trkpt lat="47.31064" lon="-2.33925">
        <ele>8.3999996185303</ele>
        <time>2021-02-25T09:02:56.000Z</time>
      </trkpt>
      <trkpt lat="47.31064" lon="-2.33918">
        <ele>8</ele>
        <time>2021-02-25T09:02:57.000Z</time>
      </trkpt>
      <trkpt lat="47.31064" lon="-2.33909">
        <ele>8</ele>
        <time>2021-02-25T09:02:58.000Z</time>
      </trkpt>
      <trkpt lat="47.31065" lon="-2.33858">
        <ele>8</ele>
        <time>2021-02-25T09:03:05.000Z</time>
      </trkpt>
      <trkpt lat="47.31069" lon="-2.33809">
        <ele>8</ele>
        <time>2021-02-25T09:03:13.000Z</time>
      </trkpt>
      <trkpt lat="47.31072" lon="-2.33799">
        <ele>7.5999999046326</ele>
        <time>2021-02-25T09:03:16.000Z</time>
      </trkpt>
      <trkpt lat="47.31073" lon="-2.33796">
        <ele>7.1999998092651</ele>
        <time>2021-02-25T09:03:17.000Z</time>
      </trkpt>
      <trkpt lat="47.31074" lon="-2.33793">
        <ele>6.8000001907349</ele>
        <time>2021-02-25T09:03:18.000Z</time>
      </trkpt>
      <trkpt lat="47.31075" lon="-2.3379">
        <ele>6.4000000953674</ele>
        <time>2021-02-25T09:03:19.000Z</time>
      </trkpt>
      <trkpt lat="47.31076" lon="-2.33786">
        <ele>6</ele>
        <time>2021-02-25T09:03:20.000Z</time>
      </trkpt>
      <trkpt lat="47.31084" lon="-2.33769">
        <ele>6</ele>
        <time>2021-02-25T09:03:24.000Z</time>
      </trkpt>
      <trkpt lat="47.31091" lon="-2.33745">
        <ele>6</ele>
        <time>2021-02-25T09:03:28.000Z</time>
      </trkpt>
      <trkpt lat="47.31094" lon="-2.33732">
        <ele>6</ele>
        <time>2021-02-25T09:03:30.000Z</time>
      </trkpt>
      <trkpt lat="47.31099" lon="-2.3368">
        <ele>6</ele>
        <time>2021-02-25T09:03:37.000Z</time>
      </trkpt>
      <trkpt lat="47.31106" lon="-2.33628">
        <ele>6</ele>
        <time>2021-02-25T09:03:44.000Z</time>
      </trkpt>
      <trkpt lat="47.31108" lon="-2.33571">
        <ele>6</ele>
        <time>2021-02-25T09:03:52.000Z</time>
      </trkpt>
      <trkpt lat="47.31103" lon="-2.33522">
        <ele>6</ele>
        <time>2021-02-25T09:03:59.000Z</time>
      </trkpt>
      <trkpt lat="47.31097" lon="-2.33465">
        <ele>6</ele>
        <time>2021-02-25T09:04:06.000Z</time>
      </trkpt>
      <trkpt lat="47.31096" lon="-2.33406">
        <ele>6</ele>
        <time>2021-02-25T09:04:13.000Z</time>
      </trkpt>
      <trkpt lat="47.31097" lon="-2.33383">
        <ele>5.5999999046326</ele>
        <time>2021-02-25T09:04:16.000Z</time>
      </trkpt>
      <trkpt lat="47.31097" lon="-2.33375">
        <ele>5.1999998092651</ele>
        <time>2021-02-25T09:04:17.000Z</time>
      </trkpt>
      <trkpt lat="47.31097" lon="-2.33368">
        <ele>4.8000001907349</ele>
        <time>2021-02-25T09:04:18.000Z</time>
      </trkpt>
      <trkpt lat="47.31097" lon="-2.33361">
        <ele>4.4000000953674</ele>
        <time>2021-02-25T09:04:19.000Z</time>
      </trkpt>
      <trkpt lat="47.31097" lon="-2.33353">
        <ele>4</ele>
        <time>2021-02-25T09:04:20.000Z</time>
      </trkpt>
      <trkpt lat="47.31097" lon="-2.33345">
        <ele>4</ele>
        <time>2021-02-25T09:04:21.000Z</time>
      </trkpt>
      <trkpt lat="47.31099" lon="-2.33283">
        <ele>4</ele>
        <time>2021-02-25T09:04:29.000Z</time>
      </trkpt>
      <trkpt lat="47.31101" lon="-2.33241">
        <ele>4</ele>
        <time>2021-02-25T09:04:35.000Z</time>
      </trkpt>
      <trkpt lat="47.31101" lon="-2.3323">
        <ele>3</ele>
        <time>2021-02-25T09:04:37.000Z</time>
      </trkpt>
      <trkpt lat="47.31102" lon="-2.33225">
        <ele>2.5999999046326</ele>
        <time>2021-02-25T09:04:38.000Z</time>
      </trkpt>
      <trkpt lat="47.31103" lon="-2.33221">
        <ele>2.2000000476837</ele>
        <time>2021-02-25T09:04:39.000Z</time>
      </trkpt>
      <trkpt lat="47.31104" lon="-2.33217">
        <ele>1.7999999523163</ele>
        <time>2021-02-25T09:04:40.000Z</time>
      </trkpt>
      <trkpt lat="47.31105" lon="-2.33213">
        <ele>1.7999999523163</ele>
        <time>2021-02-25T09:04:41.000Z</time>
      </trkpt>
      <trkpt lat="47.3111" lon="-2.33206">
        <ele>1.7999999523163</ele>
        <time>2021-02-25T09:04:43.000Z</time>
      </trkpt>
      <trkpt lat="47.31114" lon="-2.33204">
        <ele>1.7999999523163</ele>
        <time>2021-02-25T09:04:44.000Z</time>
      </trkpt>
      <trkpt lat="47.31138" lon="-2.33193">
        <ele>1.7999999523163</ele>
        <time>2021-02-25T09:04:49.000Z</time>
      </trkpt>
      <trkpt lat="47.31171" lon="-2.33172">
        <ele>1.7999999523163</ele>
        <time>2021-02-25T09:04:56.000Z</time>
      </trkpt>
      <trkpt lat="47.31185" lon="-2.33161">
        <ele>1.7999999523163</ele>
        <time>2021-02-25T09:04:59.000Z</time>
      </trkpt>
      <trkpt lat="47.31202" lon="-2.33153">
        <ele>1.7999999523163</ele>
        <time>2021-02-25T09:05:02.000Z</time>
      </trkpt>
      <trkpt lat="47.31208" lon="-2.33151">
        <ele>1.7999999523163</ele>
        <time>2021-02-25T09:05:03.000Z</time>
      </trkpt>
      <trkpt lat="47.31218" lon="-2.33148">
        <ele>1.7999999523163</ele>
        <time>2021-02-25T09:05:05.000Z</time>
      </trkpt>
      <trkpt lat="47.31223" lon="-2.33144">
        <ele>1.7999999523163</ele>
        <time>2021-02-25T09:05:06.000Z</time>
      </trkpt>
      <trkpt lat="47.31234" lon="-2.33126">
        <ele>1.7999999523163</ele>
        <time>2021-02-25T09:05:09.000Z</time>
      </trkpt>
      <trkpt lat="47.3124" lon="-2.33112">
        <ele>1.7999999523163</ele>
        <time>2021-02-25T09:05:11.000Z</time>
      </trkpt>
      <trkpt lat="47.31256" lon="-2.33076">
        <ele>1.7999999523163</ele>
        <time>2021-02-25T09:05:16.000Z</time>
      </trkpt>
      <trkpt lat="47.31284" lon="-2.33029">
        <ele>1.7999999523163</ele>
        <time>2021-02-25T09:05:23.000Z</time>
      </trkpt>
      <trkpt lat="47.31308" lon="-2.32985">
        <ele>1.7999999523163</ele>
        <time>2021-02-25T09:05:29.000Z</time>
      </trkpt>
      <trkpt lat="47.31326" lon="-2.32952">
        <ele>1.3999999761581</ele>
        <time>2021-02-25T09:05:33.000Z</time>
      </trkpt>
      <trkpt lat="47.3133" lon="-2.32944">
        <ele>1</ele>
        <time>2021-02-25T09:05:34.000Z</time>
      </trkpt>
      <trkpt lat="47.31335" lon="-2.32936">
        <ele>0.60000002384186</ele>
        <time>2021-02-25T09:05:35.000Z</time>
      </trkpt>
      <trkpt lat="47.31339" lon="-2.32928">
        <ele>0.20000000298023</ele>
        <time>2021-02-25T09:05:36.000Z</time>
      </trkpt>
      <trkpt lat="47.31343" lon="-2.32921">
        <ele>-0.20000000298023</ele>
        <time>2021-02-25T09:05:37.000Z</time>
      </trkpt>
      <trkpt lat="47.3135" lon="-2.32908">
        <ele>-0.20000000298023</ele>
        <time>2021-02-25T09:05:39.000Z</time>
      </trkpt>
      <trkpt lat="47.31351" lon="-2.32893">
        <ele>-0.20000000298023</ele>
        <time>2021-02-25T09:05:41.000Z</time>
      </trkpt>
      <trkpt lat="47.31343" lon="-2.32879">
        <ele>-0.20000000298023</ele>
        <time>2021-02-25T09:05:44.000Z</time>
      </trkpt>
      <trkpt lat="47.31328" lon="-2.32858">
        <ele>-0.20000000298023</ele>
        <time>2021-02-25T09:05:48.000Z</time>
      </trkpt>
      <trkpt lat="47.31302" lon="-2.3282">
        <ele>-0.20000000298023</ele>
        <time>2021-02-25T09:05:54.000Z</time>
      </trkpt>
      <trkpt lat="47.3128" lon="-2.32785">
        <ele>-0.20000000298023</ele>
        <time>2021-02-25T09:05:59.000Z</time>
      </trkpt>
      <trkpt lat="47.31251" lon="-2.32763">
        <ele>-0.20000000298023</ele>
        <time>2021-02-25T09:06:04.000Z</time>
      </trkpt>
      <trkpt lat="47.31218" lon="-2.32739">
        <ele>-0.20000000298023</ele>
        <time>2021-02-25T09:06:10.000Z</time>
      </trkpt>
      <trkpt lat="47.31214" lon="-2.32734">
        <ele>-0.20000000298023</ele>
        <time>2021-02-25T09:06:11.000Z</time>
      </trkpt>
      <trkpt lat="47.31207" lon="-2.32721">
        <ele>-0.20000000298023</ele>
        <time>2021-02-25T09:06:13.000Z</time>
      </trkpt>
      <trkpt lat="47.31203" lon="-2.32703">
        <ele>-0.20000000298023</ele>
        <time>2021-02-25T09:06:15.000Z</time>
      </trkpt>
      <trkpt lat="47.31194" lon="-2.32675">
        <ele>-0.20000000298023</ele>
        <time>2021-02-25T09:06:18.000Z</time>
      </trkpt>
      <trkpt lat="47.3118" lon="-2.32629">
        <ele>-0.20000000298023</ele>
        <time>2021-02-25T09:06:23.000Z</time>
      </trkpt>
      <trkpt lat="47.31178" lon="-2.32619">
        <ele>-0.20000000298023</ele>
        <time>2021-02-25T09:06:24.000Z</time>
      </trkpt>
      <trkpt lat="47.31175" lon="-2.32561">
        <ele>-0.20000000298023</ele>
        <time>2021-02-25T09:06:30.000Z</time>
      </trkpt>
      <trkpt lat="47.31175" lon="-2.32509">
        <ele>-0.20000000298023</ele>
        <time>2021-02-25T09:06:36.000Z</time>
      </trkpt>
      <trkpt lat="47.31177" lon="-2.32452">
        <ele>-0.20000000298023</ele>
        <time>2021-02-25T09:06:42.000Z</time>
      </trkpt>
      <trkpt lat="47.31178" lon="-2.32444">
        <ele>-0.20000000298023</ele>
        <time>2021-02-25T09:06:43.000Z</time>
      </trkpt>
      <trkpt lat="47.31189" lon="-2.32428">
        <ele>-0.20000000298023</ele>
        <time>2021-02-25T09:06:46.000Z</time>
      </trkpt>
      <trkpt lat="47.31202" lon="-2.32421">
        <ele>-0.20000000298023</ele>
        <time>2021-02-25T09:06:48.000Z</time>
      </trkpt>
      <trkpt lat="47.31214" lon="-2.32415">
        <ele>-0.20000000298023</ele>
        <time>2021-02-25T09:06:50.000Z</time>
      </trkpt>
      <trkpt lat="47.31252" lon="-2.32389">
        <ele>-0.60000002384186</ele>
        <time>2021-02-25T09:06:56.000Z</time>
      </trkpt>
      <trkpt lat="47.31259" lon="-2.32384">
        <ele>-1</ele>
        <time>2021-02-25T09:06:57.000Z</time>
      </trkpt>
      <trkpt lat="47.31265" lon="-2.32379">
        <ele>-1.3999999761581</ele>
        <time>2021-02-25T09:06:58.000Z</time>
      </trkpt>
      <trkpt lat="47.31272" lon="-2.32374">
        <ele>-1.7999999523163</ele>
        <time>2021-02-25T09:06:59.000Z</time>
      </trkpt>
      <trkpt lat="47.31278" lon="-2.32368">
        <ele>-2.2000000476837</ele>
        <time>2021-02-25T09:07:00.000Z</time>
      </trkpt>
      <trkpt lat="47.3129" lon="-2.32356">
        <ele>-2.2000000476837</ele>
        <time>2021-02-25T09:07:02.000Z</time>
      </trkpt>
      <trkpt lat="47.31325" lon="-2.32319">
        <ele>-2.2000000476837</ele>
        <time>2021-02-25T09:07:08.000Z</time>
      </trkpt>
      <trkpt lat="47.31356" lon="-2.32295">
        <ele>-2.2000000476837</ele>
        <time>2021-02-25T09:07:13.000Z</time>
      </trkpt>
      <trkpt lat="47.31396" lon="-2.32279">
        <ele>-2.2000000476837</ele>
        <time>2021-02-25T09:07:20.000Z</time>
      </trkpt>
      <trkpt lat="47.31432" lon="-2.32269">
        <ele>-2.2000000476837</ele>
        <time>2021-02-25T09:07:26.000Z</time>
      </trkpt>
      <trkpt lat="47.31443" lon="-2.32265">
        <ele>-2.2000000476837</ele>
        <time>2021-02-25T09:07:28.000Z</time>
      </trkpt>
      <trkpt lat="47.31453" lon="-2.32255">
        <ele>-2.2000000476837</ele>
        <time>2021-02-25T09:07:30.000Z</time>
      </trkpt>
      <trkpt lat="47.3146" lon="-2.32241">
        <ele>-2.2000000476837</ele>
        <time>2021-02-25T09:07:32.000Z</time>
      </trkpt>
      <trkpt lat="47.31466" lon="-2.32225">
        <ele>-2.2000000476837</ele>
        <time>2021-02-25T09:07:34.000Z</time>
      </trkpt>
      <trkpt lat="47.31482" lon="-2.32179">
        <ele>-2.2000000476837</ele>
        <time>2021-02-25T09:07:40.000Z</time>
      </trkpt>
      <trkpt lat="47.31486" lon="-2.32174">
        <ele>-2.2000000476837</ele>
        <time>2021-02-25T09:07:41.000Z</time>
      </trkpt>
      <trkpt lat="47.31495" lon="-2.32174">
        <ele>-2.2000000476837</ele>
        <time>2021-02-25T09:07:43.000Z</time>
      </trkpt>
      <trkpt lat="47.31502" lon="-2.32181">
        <ele>-2.2000000476837</ele>
        <time>2021-02-25T09:07:45.000Z</time>
      </trkpt>
      <trkpt lat="47.31509" lon="-2.32184">
        <ele>-2.2000000476837</ele>
        <time>2021-02-25T09:07:47.000Z</time>
      </trkpt>
      <trkpt lat="47.31516" lon="-2.32177">
        <ele>-2.2000000476837</ele>
        <time>2021-02-25T09:07:50.000Z</time>
      </trkpt>
      <trkpt lat="47.31513" lon="-2.32164">
        <ele>-2.2000000476837</ele>
        <time>2021-02-25T09:07:53.000Z</time>
      </trkpt>
      <trkpt lat="47.31495" lon="-2.32125">
        <ele>-2.2000000476837</ele>
        <time>2021-02-25T09:08:01.000Z</time>
      </trkpt>
      <trkpt lat="47.3149" lon="-2.32113">
        <ele>-2.2000000476837</ele>
        <time>2021-02-25T09:08:05.000Z</time>
      </trkpt>
      <trkpt lat="47.31491" lon="-2.3211">
        <ele>-2.2000000476837</ele>
        <time>2021-02-25T09:08:07.000Z</time>
      </trkpt>
      <trkpt lat="47.31493" lon="-2.32109">
        <ele>-2.2000000476837</ele>
        <time>2021-02-25T09:08:09.000Z</time>
      </trkpt>
      <trkpt lat="47.315" lon="-2.32109">
        <ele>-2.2000000476837</ele>
        <time>2021-02-25T09:08:14.000Z</time>
      </trkpt>
      <trkpt lat="47.31502" lon="-2.32108">
        <ele>-2.2000000476837</ele>
        <time>2021-02-25T09:08:16.000Z</time>
      </trkpt>
      <trkpt lat="47.31508" lon="-2.32108">
        <ele>-2.2000000476837</ele>
        <time>2021-02-25T09:08:20.000Z</time>
      </trkpt>
      <trkpt lat="47.31517" lon="-2.32114">
        <ele>-2.2000000476837</ele>
        <time>2021-02-25T09:08:23.000Z</time>
      </trkpt>
      <trkpt lat="47.3152" lon="-2.32115">
        <ele>-2.2000000476837</ele>
        <time>2021-02-25T09:08:24.000Z</time>
      </trkpt>
      <trkpt lat="47.31539" lon="-2.32118">
        <ele>-2.2000000476837</ele>
        <time>2021-02-25T09:08:28.000Z</time>
      </trkpt>
      <trkpt lat="47.31544" lon="-2.3212">
        <ele>-2.2000000476837</ele>
        <time>2021-02-25T09:08:29.000Z</time>
      </trkpt>
      <trkpt lat="47.31554" lon="-2.32122">
        <ele>-1.7999999523163</ele>
        <time>2021-02-25T09:08:31.000Z</time>
      </trkpt>
      <trkpt lat="47.31559" lon="-2.32123">
        <ele>-1.3999999761581</ele>
        <time>2021-02-25T09:08:32.000Z</time>
      </trkpt>
      <trkpt lat="47.31565" lon="-2.32124">
        <ele>-1</ele>
        <time>2021-02-25T09:08:33.000Z</time>
      </trkpt>
      <trkpt lat="47.3157" lon="-2.32125">
        <ele>-0.60000002384186</ele>
        <time>2021-02-25T09:08:34.000Z</time>
      </trkpt>
      <trkpt lat="47.31576" lon="-2.32127">
        <ele>-0.20000000298023</ele>
        <time>2021-02-25T09:08:35.000Z</time>
      </trkpt>
      <trkpt lat="47.31581" lon="-2.32128">
        <ele>-0.20000000298023</ele>
        <time>2021-02-25T09:08:36.000Z</time>
      </trkpt>
      <trkpt lat="47.31606" lon="-2.32135">
        <ele>-0.20000000298023</ele>
        <time>2021-02-25T09:08:41.000Z</time>
      </trkpt>
      <trkpt lat="47.31621" lon="-2.32139">
        <ele>-0.20000000298023</ele>
        <time>2021-02-25T09:08:44.000Z</time>
      </trkpt>
      <trkpt lat="47.31636" lon="-2.32143">
        <ele>-0.20000000298023</ele>
        <time>2021-02-25T09:08:47.000Z</time>
      </trkpt>
      <trkpt lat="47.31651" lon="-2.32148">
        <ele>-0.20000000298023</ele>
        <time>2021-02-25T09:08:50.000Z</time>
      </trkpt>
      <trkpt lat="47.31665" lon="-2.32152">
        <ele>-0.20000000298023</ele>
        <time>2021-02-25T09:08:53.000Z</time>
      </trkpt>
      <trkpt lat="47.31669" lon="-2.32154">
        <ele>0.20000000298023</ele>
        <time>2021-02-25T09:08:54.000Z</time>
      </trkpt>
      <trkpt lat="47.31674" lon="-2.32155">
        <ele>0.60000002384186</ele>
        <time>2021-02-25T09:08:55.000Z</time>
      </trkpt>
      <trkpt lat="47.31679" lon="-2.32156">
        <ele>1</ele>
        <time>2021-02-25T09:08:56.000Z</time>
      </trkpt>
      <trkpt lat="47.31684" lon="-2.32157">
        <ele>1.3999999761581</ele>
        <time>2021-02-25T09:08:57.000Z</time>
      </trkpt>
      <trkpt lat="47.31689" lon="-2.32158">
        <ele>1.7999999523163</ele>
        <time>2021-02-25T09:08:58.000Z</time>
      </trkpt>
      <trkpt lat="47.31693" lon="-2.32158">
        <ele>1.7999999523163</ele>
        <time>2021-02-25T09:08:59.000Z</time>
      </trkpt>
      <trkpt lat="47.31728" lon="-2.32166">
        <ele>1.7999999523163</ele>
        <time>2021-02-25T09:09:06.000Z</time>
      </trkpt>
      <trkpt lat="47.3176" lon="-2.32173">
        <ele>1.7999999523163</ele>
        <time>2021-02-25T09:09:12.000Z</time>
      </trkpt>
      <trkpt lat="47.31801" lon="-2.32183">
        <ele>1.3999999761581</ele>
        <time>2021-02-25T09:09:19.000Z</time>
      </trkpt>
      <trkpt lat="47.31807" lon="-2.32184">
        <ele>1</ele>
        <time>2021-02-25T09:09:20.000Z</time>
      </trkpt>
      <trkpt lat="47.31813" lon="-2.32186">
        <ele>0.60000002384186</ele>
        <time>2021-02-25T09:09:21.000Z</time>
      </trkpt>
      <trkpt lat="47.31819" lon="-2.32187">
        <ele>0.20000000298023</ele>
        <time>2021-02-25T09:09:22.000Z</time>
      </trkpt>
      <trkpt lat="47.31825" lon="-2.32188">
        <ele>-0.20000000298023</ele>
        <time>2021-02-25T09:09:23.000Z</time>
      </trkpt>
      <trkpt lat="47.31843" lon="-2.32191">
        <ele>-0.20000000298023</ele>
        <time>2021-02-25T09:09:26.000Z</time>
      </trkpt>
      <trkpt lat="47.31856" lon="-2.32194">
        <ele>-0.60000002384186</ele>
        <time>2021-02-25T09:09:28.000Z</time>
      </trkpt>
      <trkpt lat="47.31862" lon="-2.32195">
        <ele>-1</ele>
        <time>2021-02-25T09:09:29.000Z</time>
      </trkpt>
      <trkpt lat="47.31868" lon="-2.32196">
        <ele>-1.3999999761581</ele>
        <time>2021-02-25T09:09:30.000Z</time>
      </trkpt>
      <trkpt lat="47.31875" lon="-2.32197">
        <ele>-2</ele>
        <time>2021-02-25T09:09:31.000Z</time>
      </trkpt>
      <trkpt lat="47.31882" lon="-2.32198">
        <ele>-2.4000000953674</ele>
        <time>2021-02-25T09:09:32.000Z</time>
      </trkpt>
      <trkpt lat="47.31889" lon="-2.322">
        <ele>-2.4000000953674</ele>
        <time>2021-02-25T09:09:33.000Z</time>
      </trkpt>
      <trkpt lat="47.31895" lon="-2.32203">
        <ele>-2.7999999523163</ele>
        <time>2021-02-25T09:09:34.000Z</time>
      </trkpt>
      <trkpt lat="47.31903" lon="-2.32205">
        <ele>-3.2000000476837</ele>
        <time>2021-02-25T09:09:35.000Z</time>
      </trkpt>
      <trkpt lat="47.3191" lon="-2.32207">
        <ele>-3.5999999046326</ele>
        <time>2021-02-25T09:09:36.000Z</time>
      </trkpt>
      <trkpt lat="47.31918" lon="-2.32208">
        <ele>-4.1999998092651</ele>
        <time>2021-02-25T09:09:37.000Z</time>
      </trkpt>
      <trkpt lat="47.31926" lon="-2.3221">
        <ele>-4.5999999046326</ele>
        <time>2021-02-25T09:09:38.000Z</time>
      </trkpt>
      <trkpt lat="47.31934" lon="-2.32211">
        <ele>-5.1999998092651</ele>
        <time>2021-02-25T09:09:39.000Z</time>
      </trkpt>
      <trkpt lat="47.31942" lon="-2.32213">
        <ele>-5.8000001907349</ele>
        <time>2021-02-25T09:09:40.000Z</time>
      </trkpt>
      <trkpt lat="47.31948" lon="-2.32215">
        <ele>-6.4000000953674</ele>
        <time>2021-02-25T09:09:41.000Z</time>
      </trkpt>
      <trkpt lat="47.31953" lon="-2.32217">
        <ele>-7</ele>
        <time>2021-02-25T09:09:42.000Z</time>
      </trkpt>
      <trkpt lat="47.31957" lon="-2.3222">
        <ele>-7.8000001907349</ele>
        <time>2021-02-25T09:09:43.000Z</time>
      </trkpt>
      <trkpt lat="47.31958" lon="-2.32224">
        <ele>-8.3999996185303</ele>
        <time>2021-02-25T09:09:44.000Z</time>
      </trkpt>
      <trkpt lat="47.31958" lon="-2.3223">
        <ele>-9.1999998092651</ele>
        <time>2021-02-25T09:09:45.000Z</time>
      </trkpt>
      <trkpt lat="47.31956" lon="-2.32235">
        <ele>-9.8000001907349</ele>
        <time>2021-02-25T09:09:46.000Z</time>
      </trkpt>
      <trkpt lat="47.31953" lon="-2.3224">
        <ele>-10.60000038147</ele>
        <time>2021-02-25T09:09:47.000Z</time>
      </trkpt>
      <trkpt lat="47.31951" lon="-2.32245">
        <ele>-11.199999809265</ele>
        <time>2021-02-25T09:09:48.000Z</time>
      </trkpt>
      <trkpt lat="47.3195" lon="-2.32251">
        <ele>-12</ele>
        <time>2021-02-25T09:09:49.000Z</time>
      </trkpt>
      <trkpt lat="47.31951" lon="-2.32263">
        <ele>-12</ele>
        <time>2021-02-25T09:09:51.000Z</time>
      </trkpt>
      <trkpt lat="47.31957" lon="-2.32264">
        <ele>-12</ele>
        <time>2021-02-25T09:09:53.000Z</time>
      </trkpt>
      <trkpt lat="47.3196" lon="-2.32258">
        <ele>-12.39999961853</ele>
        <time>2021-02-25T09:09:54.000Z</time>
      </trkpt>
      <trkpt lat="47.31964" lon="-2.32251">
        <ele>-12.800000190735</ele>
        <time>2021-02-25T09:09:55.000Z</time>
      </trkpt>
      <trkpt lat="47.31968" lon="-2.32244">
        <ele>-13.199999809265</ele>
        <time>2021-02-25T09:09:56.000Z</time>
      </trkpt>
      <trkpt lat="47.31972" lon="-2.32236">
        <ele>-13.60000038147</ele>
        <time>2021-02-25T09:09:57.000Z</time>
      </trkpt>
      <trkpt lat="47.31978" lon="-2.32228">
        <ele>-14</ele>
        <time>2021-02-25T09:09:58.000Z</time>
      </trkpt>
      <trkpt lat="47.31984" lon="-2.3222">
        <ele>-14.39999961853</ele>
        <time>2021-02-25T09:09:59.000Z</time>
      </trkpt>
      <trkpt lat="47.3199" lon="-2.32211">
        <ele>-14.800000190735</ele>
        <time>2021-02-25T09:10:00.000Z</time>
      </trkpt>
      <trkpt lat="47.31996" lon="-2.32203">
        <ele>-15.199999809265</ele>
        <time>2021-02-25T09:10:01.000Z</time>
      </trkpt>
      <trkpt lat="47.32002" lon="-2.32194">
        <ele>-15.60000038147</ele>
        <time>2021-02-25T09:10:02.000Z</time>
      </trkpt>
      <trkpt lat="47.32023" lon="-2.32179">
        <ele>-16</ele>
        <time>2021-02-25T09:10:05.000Z</time>
      </trkpt>
      <trkpt lat="47.32032" lon="-2.32179">
        <ele>-16</ele>
        <time>2021-02-25T09:10:06.000Z</time>
      </trkpt>
      <trkpt lat="47.32086" lon="-2.32181">
        <ele>-16</ele>
        <time>2021-02-25T09:10:12.000Z</time>
      </trkpt>
      <trkpt lat="47.32095" lon="-2.3218">
        <ele>-16.39999961853</ele>
        <time>2021-02-25T09:10:13.000Z</time>
      </trkpt>
      <trkpt lat="47.32104" lon="-2.32179">
        <ele>-16.799999237061</ele>
        <time>2021-02-25T09:10:14.000Z</time>
      </trkpt>
      <trkpt lat="47.32113" lon="-2.32177">
        <ele>-17.200000762939</ele>
        <time>2021-02-25T09:10:15.000Z</time>
      </trkpt>
      <trkpt lat="47.32122" lon="-2.32175">
        <ele>-17.60000038147</ele>
        <time>2021-02-25T09:10:16.000Z</time>
      </trkpt>
      <trkpt lat="47.3213" lon="-2.32171">
        <ele>-18</ele>
        <time>2021-02-25T09:10:17.000Z</time>
      </trkpt>
      <trkpt lat="47.32162" lon="-2.32145">
        <ele>-18</ele>
        <time>2021-02-25T09:10:21.000Z</time>
      </trkpt>
      <trkpt lat="47.32194" lon="-2.32121">
        <ele>-18.60000038147</ele>
        <time>2021-02-25T09:10:26.000Z</time>
      </trkpt>
      <trkpt lat="47.32198" lon="-2.32119">
        <ele>-19</ele>
        <time>2021-02-25T09:10:27.000Z</time>
      </trkpt>
      <trkpt lat="47.32201" lon="-2.32118">
        <ele>-19.39999961853</ele>
        <time>2021-02-25T09:10:28.000Z</time>
      </trkpt>
      <trkpt lat="47.32203" lon="-2.32118">
        <ele>-19.799999237061</ele>
        <time>2021-02-25T09:10:29.000Z</time>
      </trkpt>
      <trkpt lat="47.32205" lon="-2.32118">
        <ele>-20.200000762939</ele>
        <time>2021-02-25T09:10:30.000Z</time>
      </trkpt>
      <trkpt lat="47.32214" lon="-2.32113">
        <ele>-20.200000762939</ele>
        <time>2021-02-25T09:10:34.000Z</time>
      </trkpt>
      <trkpt lat="47.32235" lon="-2.32106">
        <ele>-20.200000762939</ele>
        <time>2021-02-25T09:10:39.000Z</time>
      </trkpt>
      <trkpt lat="47.32245" lon="-2.32103">
        <ele>-20.200000762939</ele>
        <time>2021-02-25T09:10:41.000Z</time>
      </trkpt>
      <trkpt lat="47.32262" lon="-2.321">
        <ele>-20.200000762939</ele>
        <time>2021-02-25T09:10:44.000Z</time>
      </trkpt>
      <trkpt lat="47.32303" lon="-2.32096">
        <ele>-20.200000762939</ele>
        <time>2021-02-25T09:10:51.000Z</time>
      </trkpt>
      <trkpt lat="47.3234" lon="-2.32102">
        <ele>-20.200000762939</ele>
        <time>2021-02-25T09:10:57.000Z</time>
      </trkpt>
      <trkpt lat="47.32357" lon="-2.32104">
        <ele>-20.200000762939</ele>
        <time>2021-02-25T09:11:00.000Z</time>
      </trkpt>
      <trkpt lat="47.32367" lon="-2.32106">
        <ele>-20.200000762939</ele>
        <time>2021-02-25T09:11:02.000Z</time>
      </trkpt>
      <trkpt lat="47.32387" lon="-2.32104">
        <ele>-20.200000762939</ele>
        <time>2021-02-25T09:11:06.000Z</time>
      </trkpt>
      <trkpt lat="47.32427" lon="-2.32101">
        <ele>-20.200000762939</ele>
        <time>2021-02-25T09:11:13.000Z</time>
      </trkpt>
      <trkpt lat="47.32472" lon="-2.32099">
        <ele>-20.200000762939</ele>
        <time>2021-02-25T09:11:21.000Z</time>
      </trkpt>
      <trkpt lat="47.32518" lon="-2.32097">
        <ele>-20.200000762939</ele>
        <time>2021-02-25T09:11:30.000Z</time>
      </trkpt>
      <trkpt lat="47.32559" lon="-2.32095">
        <ele>-20.200000762939</ele>
        <time>2021-02-25T09:11:38.000Z</time>
      </trkpt>
      <trkpt lat="47.32575" lon="-2.32094">
        <ele>-20.200000762939</ele>
        <time>2021-02-25T09:11:42.000Z</time>
      </trkpt>
      <trkpt lat="47.32589" lon="-2.32101">
        <ele>-20.200000762939</ele>
        <time>2021-02-25T09:11:47.000Z</time>
      </trkpt>
      <trkpt lat="47.32588" lon="-2.32123">
        <ele>-20.200000762939</ele>
        <time>2021-02-25T09:11:50.000Z</time>
      </trkpt>
      <trkpt lat="47.32586" lon="-2.32131">
        <ele>-20.60000038147</ele>
        <time>2021-02-25T09:11:51.000Z</time>
      </trkpt>
      <trkpt lat="47.32584" lon="-2.3214">
        <ele>-21</ele>
        <time>2021-02-25T09:11:52.000Z</time>
      </trkpt>
      <trkpt lat="47.32581" lon="-2.32149">
        <ele>-21.39999961853</ele>
        <time>2021-02-25T09:11:53.000Z</time>
      </trkpt>
      <trkpt lat="47.32578" lon="-2.32158">
        <ele>-21.799999237061</ele>
        <time>2021-02-25T09:11:54.000Z</time>
      </trkpt>
      <trkpt lat="47.32576" lon="-2.32168">
        <ele>-22.200000762939</ele>
        <time>2021-02-25T09:11:55.000Z</time>
      </trkpt>
      <trkpt lat="47.3257" lon="-2.32188">
        <ele>-22.60000038147</ele>
        <time>2021-02-25T09:11:57.000Z</time>
      </trkpt>
      <trkpt lat="47.32567" lon="-2.32198">
        <ele>-23.200000762939</ele>
        <time>2021-02-25T09:11:58.000Z</time>
      </trkpt>
      <trkpt lat="47.32564" lon="-2.32207">
        <ele>-23.60000038147</ele>
        <time>2021-02-25T09:11:59.000Z</time>
      </trkpt>
      <trkpt lat="47.32561" lon="-2.32217">
        <ele>-24</ele>
        <time>2021-02-25T09:12:00.000Z</time>
      </trkpt>
      <trkpt lat="47.32559" lon="-2.32227">
        <ele>-24.39999961853</ele>
        <time>2021-02-25T09:12:01.000Z</time>
      </trkpt>
      <trkpt lat="47.32546" lon="-2.32264">
        <ele>-24.39999961853</ele>
        <time>2021-02-25T09:12:06.000Z</time>
      </trkpt>
      <trkpt lat="47.32537" lon="-2.32297">
        <ele>-24.39999961853</ele>
        <time>2021-02-25T09:12:12.000Z</time>
      </trkpt>
      <trkpt lat="47.32536" lon="-2.32302">
        <ele>-23.799999237061</ele>
        <time>2021-02-25T09:12:13.000Z</time>
      </trkpt>
      <trkpt lat="47.32536" lon="-2.32307">
        <ele>-23.39999961853</ele>
        <time>2021-02-25T09:12:14.000Z</time>
      </trkpt>
      <trkpt lat="47.32538" lon="-2.32312">
        <ele>-22.799999237061</ele>
        <time>2021-02-25T09:12:15.000Z</time>
      </trkpt>
      <trkpt lat="47.32541" lon="-2.32315">
        <ele>-22.39999961853</ele>
        <time>2021-02-25T09:12:16.000Z</time>
      </trkpt>
      <trkpt lat="47.32544" lon="-2.32316">
        <ele>-22</ele>
        <time>2021-02-25T09:12:17.000Z</time>
      </trkpt>
      <trkpt lat="47.32553" lon="-2.32316">
        <ele>-22</ele>
        <time>2021-02-25T09:12:19.000Z</time>
      </trkpt>
      <trkpt lat="47.32585" lon="-2.32311">
        <ele>-22</ele>
        <time>2021-02-25T09:12:25.000Z</time>
      </trkpt>
      <trkpt lat="47.32625" lon="-2.32309">
        <ele>-22</ele>
        <time>2021-02-25T09:12:32.000Z</time>
      </trkpt>
      <trkpt lat="47.32662" lon="-2.32314">
        <ele>-22</ele>
        <time>2021-02-25T09:12:39.000Z</time>
      </trkpt>
      <trkpt lat="47.32703" lon="-2.32326">
        <ele>-22</ele>
        <time>2021-02-25T09:12:46.000Z</time>
      </trkpt>
      <trkpt lat="47.3275" lon="-2.32352">
        <ele>-22</ele>
        <time>2021-02-25T09:12:54.000Z</time>
      </trkpt>
      <trkpt lat="47.32763" lon="-2.32359">
        <ele>-22.39999961853</ele>
        <time>2021-02-25T09:12:56.000Z</time>
      </trkpt>
      <trkpt lat="47.32769" lon="-2.32363">
        <ele>-22.799999237061</ele>
        <time>2021-02-25T09:12:57.000Z</time>
      </trkpt>
      <trkpt lat="47.32775" lon="-2.32366">
        <ele>-23.200000762939</ele>
        <time>2021-02-25T09:12:58.000Z</time>
      </trkpt>
      <trkpt lat="47.32781" lon="-2.3237">
        <ele>-23.60000038147</ele>
        <time>2021-02-25T09:12:59.000Z</time>
      </trkpt>
      <trkpt lat="47.32787" lon="-2.32373">
        <ele>-24.200000762939</ele>
        <time>2021-02-25T09:13:00.000Z</time>
      </trkpt>
      <trkpt lat="47.32798" lon="-2.32382">
        <ele>-24.200000762939</ele>
        <time>2021-02-25T09:13:02.000Z</time>
      </trkpt>
      <trkpt lat="47.32821" lon="-2.32406">
        <ele>-24.200000762939</ele>
        <time>2021-02-25T09:13:07.000Z</time>
      </trkpt>
      <trkpt lat="47.32857" lon="-2.32434">
        <ele>-24.200000762939</ele>
        <time>2021-02-25T09:13:14.000Z</time>
      </trkpt>
      <trkpt lat="47.32888" lon="-2.32456">
        <ele>-24.200000762939</ele>
        <time>2021-02-25T09:13:20.000Z</time>
      </trkpt>
      <trkpt lat="47.32893" lon="-2.32461">
        <ele>-24.200000762939</ele>
        <time>2021-02-25T09:13:21.000Z</time>
      </trkpt>
      <trkpt lat="47.32903" lon="-2.32483">
        <ele>-24.200000762939</ele>
        <time>2021-02-25T09:13:24.000Z</time>
      </trkpt>
      <trkpt lat="47.32906" lon="-2.32492">
        <ele>-24.200000762939</ele>
        <time>2021-02-25T09:13:25.000Z</time>
      </trkpt>
      <trkpt lat="47.32916" lon="-2.32527">
        <ele>-24.200000762939</ele>
        <time>2021-02-25T09:13:29.000Z</time>
      </trkpt>
      <trkpt lat="47.32918" lon="-2.32536">
        <ele>-24.200000762939</ele>
        <time>2021-02-25T09:13:30.000Z</time>
      </trkpt>
      <trkpt lat="47.32919" lon="-2.32577">
        <ele>-24.200000762939</ele>
        <time>2021-02-25T09:13:34.000Z</time>
      </trkpt>
      <trkpt lat="47.32919" lon="-2.32629">
        <ele>-24.200000762939</ele>
        <time>2021-02-25T09:13:40.000Z</time>
      </trkpt>
      <trkpt lat="47.3293" lon="-2.32644">
        <ele>-24.200000762939</ele>
        <time>2021-02-25T09:13:43.000Z</time>
      </trkpt>
      <trkpt lat="47.32947" lon="-2.32646">
        <ele>-24.200000762939</ele>
        <time>2021-02-25T09:13:46.000Z</time>
      </trkpt>
      <trkpt lat="47.32952" lon="-2.32645">
        <ele>-24.200000762939</ele>
        <time>2021-02-25T09:13:47.000Z</time>
      </trkpt>
      <trkpt lat="47.3297" lon="-2.3264">
        <ele>-24.200000762939</ele>
        <time>2021-02-25T09:13:50.000Z</time>
      </trkpt>
      <trkpt lat="47.32975" lon="-2.32637">
        <ele>-24.200000762939</ele>
        <time>2021-02-25T09:13:51.000Z</time>
      </trkpt>
      <trkpt lat="47.32986" lon="-2.32629">
        <ele>-24.60000038147</ele>
        <time>2021-02-25T09:13:53.000Z</time>
      </trkpt>
      <trkpt lat="47.32991" lon="-2.32625">
        <ele>-25</ele>
        <time>2021-02-25T09:13:54.000Z</time>
      </trkpt>
      <trkpt lat="47.32997" lon="-2.32625">
        <ele>-25.39999961853</ele>
        <time>2021-02-25T09:13:55.000Z</time>
      </trkpt>
      <trkpt lat="47.33003" lon="-2.32627">
        <ele>-26</ele>
        <time>2021-02-25T09:13:56.000Z</time>
      </trkpt>
      <trkpt lat="47.33009" lon="-2.3263">
        <ele>-26.39999961853</ele>
        <time>2021-02-25T09:13:57.000Z</time>
      </trkpt>
      <trkpt lat="47.33015" lon="-2.32633">
        <ele>-26.39999961853</ele>
        <time>2021-02-25T09:13:58.000Z</time>
      </trkpt>
      <trkpt lat="47.3302" lon="-2.32635">
        <ele>-26.39999961853</ele>
        <time>2021-02-25T09:13:59.000Z</time>
      </trkpt>
      <trkpt lat="47.33032" lon="-2.32634">
        <ele>-26.39999961853</ele>
        <time>2021-02-25T09:14:01.000Z</time>
      </trkpt>
      <trkpt lat="47.33043" lon="-2.32626">
        <ele>-26.39999961853</ele>
        <time>2021-02-25T09:14:03.000Z</time>
      </trkpt>
      <trkpt lat="47.33054" lon="-2.32618">
        <ele>-26.39999961853</ele>
        <time>2021-02-25T09:14:05.000Z</time>
      </trkpt>
      <trkpt lat="47.33089" lon="-2.32588">
        <ele>-26.39999961853</ele>
        <time>2021-02-25T09:14:12.000Z</time>
      </trkpt>
      <trkpt lat="47.33122" lon="-2.32559">
        <ele>-26.39999961853</ele>
        <time>2021-02-25T09:14:18.000Z</time>
      </trkpt>
      <trkpt lat="47.33133" lon="-2.32551">
        <ele>-26</ele>
        <time>2021-02-25T09:14:20.000Z</time>
      </trkpt>
      <trkpt lat="47.33139" lon="-2.32547">
        <ele>-25.60000038147</ele>
        <time>2021-02-25T09:14:21.000Z</time>
      </trkpt>
      <trkpt lat="47.33144" lon="-2.32543">
        <ele>-25</ele>
        <time>2021-02-25T09:14:22.000Z</time>
      </trkpt>
      <trkpt lat="47.33149" lon="-2.32539">
        <ele>-24.60000038147</ele>
        <time>2021-02-25T09:14:23.000Z</time>
      </trkpt>
      <trkpt lat="47.33154" lon="-2.32534">
        <ele>-24.200000762939</ele>
        <time>2021-02-25T09:14:24.000Z</time>
      </trkpt>
      <trkpt lat="47.3318" lon="-2.32516">
        <ele>-24.200000762939</ele>
        <time>2021-02-25T09:14:29.000Z</time>
      </trkpt>
      <trkpt lat="47.33191" lon="-2.32512">
        <ele>-24.200000762939</ele>
        <time>2021-02-25T09:14:31.000Z</time>
      </trkpt>
      <trkpt lat="47.33198" lon="-2.3251">
        <ele>-23.799999237061</ele>
        <time>2021-02-25T09:14:32.000Z</time>
      </trkpt>
      <trkpt lat="47.33204" lon="-2.32508">
        <ele>-23.39999961853</ele>
        <time>2021-02-25T09:14:33.000Z</time>
      </trkpt>
      <trkpt lat="47.3321" lon="-2.32505">
        <ele>-23</ele>
        <time>2021-02-25T09:14:34.000Z</time>
      </trkpt>
      <trkpt lat="47.33216" lon="-2.32502">
        <ele>-22.60000038147</ele>
        <time>2021-02-25T09:14:35.000Z</time>
      </trkpt>
      <trkpt lat="47.33222" lon="-2.325">
        <ele>-22.200000762939</ele>
        <time>2021-02-25T09:14:36.000Z</time>
      </trkpt>
      <trkpt lat="47.33228" lon="-2.32497">
        <ele>-22.200000762939</ele>
        <time>2021-02-25T09:14:37.000Z</time>
      </trkpt>
      <trkpt lat="47.33281" lon="-2.32474">
        <ele>-22.200000762939</ele>
        <time>2021-02-25T09:14:46.000Z</time>
      </trkpt>
      <trkpt lat="47.33319" lon="-2.32457">
        <ele>-22.200000762939</ele>
        <time>2021-02-25T09:14:53.000Z</time>
      </trkpt>
      <trkpt lat="47.33331" lon="-2.32452">
        <ele>-22.200000762939</ele>
        <time>2021-02-25T09:14:55.000Z</time>
      </trkpt>
      <trkpt lat="47.33345" lon="-2.32438">
        <ele>-22.200000762939</ele>
        <time>2021-02-25T09:14:58.000Z</time>
      </trkpt>
      <trkpt lat="47.33353" lon="-2.32427">
        <ele>-22.200000762939</ele>
        <time>2021-02-25T09:15:00.000Z</time>
      </trkpt>
      <trkpt lat="47.33362" lon="-2.32416">
        <ele>-22.200000762939</ele>
        <time>2021-02-25T09:15:02.000Z</time>
      </trkpt>
      <trkpt lat="47.33367" lon="-2.3241">
        <ele>-22.200000762939</ele>
        <time>2021-02-25T09:15:03.000Z</time>
      </trkpt>
      <trkpt lat="47.33395" lon="-2.32386">
        <ele>-22.60000038147</ele>
        <time>2021-02-25T09:15:08.000Z</time>
      </trkpt>
      <trkpt lat="47.334" lon="-2.32381">
        <ele>-23</ele>
        <time>2021-02-25T09:15:09.000Z</time>
      </trkpt>
      <trkpt lat="47.33407" lon="-2.32375">
        <ele>-23.39999961853</ele>
        <time>2021-02-25T09:15:10.000Z</time>
      </trkpt>
      <trkpt lat="47.33412" lon="-2.32371">
        <ele>-23.799999237061</ele>
        <time>2021-02-25T09:15:11.000Z</time>
      </trkpt>
      <trkpt lat="47.33418" lon="-2.32366">
        <ele>-24.200000762939</ele>
        <time>2021-02-25T09:15:12.000Z</time>
      </trkpt>
      <trkpt lat="47.33437" lon="-2.32351">
        <ele>-24.200000762939</ele>
        <time>2021-02-25T09:15:15.000Z</time>
      </trkpt>
      <trkpt lat="47.33476" lon="-2.32324">
        <ele>-24.200000762939</ele>
        <time>2021-02-25T09:15:21.000Z</time>
      </trkpt>
      <trkpt lat="47.33511" lon="-2.32308">
        <ele>-24.200000762939</ele>
        <time>2021-02-25T09:15:26.000Z</time>
      </trkpt>
      <trkpt lat="47.33531" lon="-2.32303">
        <ele>-24.200000762939</ele>
        <time>2021-02-25T09:15:29.000Z</time>
      </trkpt>
      <trkpt lat="47.33544" lon="-2.32303">
        <ele>-24.200000762939</ele>
        <time>2021-02-25T09:15:31.000Z</time>
      </trkpt>
      <trkpt lat="47.33569" lon="-2.32297">
        <ele>-24.200000762939</ele>
        <time>2021-02-25T09:15:35.000Z</time>
      </trkpt>
      <trkpt lat="47.33587" lon="-2.32292">
        <ele>-24.200000762939</ele>
        <time>2021-02-25T09:15:38.000Z</time>
      </trkpt>
      <trkpt lat="47.336" lon="-2.3229">
        <ele>-24.200000762939</ele>
        <time>2021-02-25T09:15:40.000Z</time>
      </trkpt>
      <trkpt lat="47.33649" lon="-2.32279">
        <ele>-24.200000762939</ele>
        <time>2021-02-25T09:15:47.000Z</time>
      </trkpt>
      <trkpt lat="47.33656" lon="-2.32277">
        <ele>-24.200000762939</ele>
        <time>2021-02-25T09:15:48.000Z</time>
      </trkpt>
      <trkpt lat="47.33701" lon="-2.32254">
        <ele>-24.200000762939</ele>
        <time>2021-02-25T09:15:55.000Z</time>
      </trkpt>
      <trkpt lat="47.33735" lon="-2.32231">
        <ele>-24.200000762939</ele>
        <time>2021-02-25T09:16:01.000Z</time>
      </trkpt>
      <trkpt lat="47.33771" lon="-2.32211">
        <ele>-24.200000762939</ele>
        <time>2021-02-25T09:16:07.000Z</time>
      </trkpt>
      <trkpt lat="47.33777" lon="-2.3221">
        <ele>-24.200000762939</ele>
        <time>2021-02-25T09:16:08.000Z</time>
      </trkpt>
      <trkpt lat="47.33803" lon="-2.32202">
        <ele>-24.200000762939</ele>
        <time>2021-02-25T09:16:12.000Z</time>
      </trkpt>
      <trkpt lat="47.33841" lon="-2.32198">
        <ele>-24.200000762939</ele>
        <time>2021-02-25T09:16:18.000Z</time>
      </trkpt>
      <trkpt lat="47.33876" lon="-2.32195">
        <ele>-24.200000762939</ele>
        <time>2021-02-25T09:16:23.000Z</time>
      </trkpt>
      <trkpt lat="47.33889" lon="-2.32196">
        <ele>-24.200000762939</ele>
        <time>2021-02-25T09:16:25.000Z</time>
      </trkpt>
      <trkpt lat="47.33915" lon="-2.32196">
        <ele>-24.200000762939</ele>
        <time>2021-02-25T09:16:29.000Z</time>
      </trkpt>
      <trkpt lat="47.33922" lon="-2.32196">
        <ele>-24.200000762939</ele>
        <time>2021-02-25T09:16:30.000Z</time>
      </trkpt>
      <trkpt lat="47.33928" lon="-2.32197">
        <ele>-24.200000762939</ele>
        <time>2021-02-25T09:16:31.000Z</time>
      </trkpt>
      <trkpt lat="47.33947" lon="-2.32207">
        <ele>-24.200000762939</ele>
        <time>2021-02-25T09:16:34.000Z</time>
      </trkpt>
      <trkpt lat="47.33974" lon="-2.32216">
        <ele>-24.200000762939</ele>
        <time>2021-02-25T09:16:38.000Z</time>
      </trkpt>
      <trkpt lat="47.33987" lon="-2.32215">
        <ele>-24.200000762939</ele>
        <time>2021-02-25T09:16:40.000Z</time>
      </trkpt>
      <trkpt lat="47.34008" lon="-2.32216">
        <ele>-24.200000762939</ele>
        <time>2021-02-25T09:16:43.000Z</time>
      </trkpt>
      <trkpt lat="47.34062" lon="-2.3222">
        <ele>-24.200000762939</ele>
        <time>2021-02-25T09:16:51.000Z</time>
      </trkpt>
      <trkpt lat="47.34082" lon="-2.32238">
        <ele>-24.200000762939</ele>
        <time>2021-02-25T09:16:55.000Z</time>
      </trkpt>
      <trkpt lat="47.34094" lon="-2.32268">
        <ele>-24.200000762939</ele>
        <time>2021-02-25T09:16:59.000Z</time>
      </trkpt>
      <trkpt lat="47.34107" lon="-2.3232">
        <ele>-23.799999237061</ele>
        <time>2021-02-25T09:17:05.000Z</time>
      </trkpt>
      <trkpt lat="47.34109" lon="-2.32328">
        <ele>-23.39999961853</ele>
        <time>2021-02-25T09:17:06.000Z</time>
      </trkpt>
      <trkpt lat="47.34112" lon="-2.32337">
        <ele>-23</ele>
        <time>2021-02-25T09:17:07.000Z</time>
      </trkpt>
      <trkpt lat="47.34114" lon="-2.32345">
        <ele>-22.60000038147</ele>
        <time>2021-02-25T09:17:08.000Z</time>
      </trkpt>
      <trkpt lat="47.34117" lon="-2.32353">
        <ele>-22.200000762939</ele>
        <time>2021-02-25T09:17:09.000Z</time>
      </trkpt>
      <trkpt lat="47.34122" lon="-2.32369">
        <ele>-22.200000762939</ele>
        <time>2021-02-25T09:17:11.000Z</time>
      </trkpt>
      <trkpt lat="47.34136" lon="-2.3242">
        <ele>-22.200000762939</ele>
        <time>2021-02-25T09:17:17.000Z</time>
      </trkpt>
      <trkpt lat="47.34143" lon="-2.32446">
        <ele>-21.799999237061</ele>
        <time>2021-02-25T09:17:20.000Z</time>
      </trkpt>
      <trkpt lat="47.34145" lon="-2.32455">
        <ele>-21.39999961853</ele>
        <time>2021-02-25T09:17:21.000Z</time>
      </trkpt>
      <trkpt lat="47.34147" lon="-2.32465">
        <ele>-20.60000038147</ele>
        <time>2021-02-25T09:17:22.000Z</time>
      </trkpt>
      <trkpt lat="47.34149" lon="-2.32475">
        <ele>-20.200000762939</ele>
        <time>2021-02-25T09:17:23.000Z</time>
      </trkpt>
      <trkpt lat="47.34151" lon="-2.32484">
        <ele>-20.200000762939</ele>
        <time>2021-02-25T09:17:24.000Z</time>
      </trkpt>
      <trkpt lat="47.34155" lon="-2.3251">
        <ele>-20.200000762939</ele>
        <time>2021-02-25T09:17:27.000Z</time>
      </trkpt>
      <trkpt lat="47.34158" lon="-2.32536">
        <ele>-20.200000762939</ele>
        <time>2021-02-25T09:17:30.000Z</time>
      </trkpt>
      <trkpt lat="47.34159" lon="-2.32551">
        <ele>-20.200000762939</ele>
        <time>2021-02-25T09:17:32.000Z</time>
      </trkpt>
      <trkpt lat="47.3416" lon="-2.32571">
        <ele>-20.200000762939</ele>
        <time>2021-02-25T09:17:35.000Z</time>
      </trkpt>
      <trkpt lat="47.34171" lon="-2.32579">
        <ele>-20.200000762939</ele>
        <time>2021-02-25T09:17:38.000Z</time>
      </trkpt>
      <trkpt lat="47.34187" lon="-2.32577">
        <ele>-20.200000762939</ele>
        <time>2021-02-25T09:17:41.000Z</time>
      </trkpt>
      <trkpt lat="47.34193" lon="-2.32575">
        <ele>-20.200000762939</ele>
        <time>2021-02-25T09:17:42.000Z</time>
      </trkpt>
      <trkpt lat="47.3423" lon="-2.32569">
        <ele>-20.200000762939</ele>
        <time>2021-02-25T09:17:48.000Z</time>
      </trkpt>
      <trkpt lat="47.34255" lon="-2.32563">
        <ele>-20.200000762939</ele>
        <time>2021-02-25T09:17:52.000Z</time>
      </trkpt>
      <trkpt lat="47.34267" lon="-2.32559">
        <ele>-20.200000762939</ele>
        <time>2021-02-25T09:17:54.000Z</time>
      </trkpt>
      <trkpt lat="47.3429" lon="-2.32554">
        <ele>-20.200000762939</ele>
        <time>2021-02-25T09:17:58.000Z</time>
      </trkpt>
      <trkpt lat="47.34319" lon="-2.32541">
        <ele>-20.200000762939</ele>
        <time>2021-02-25T09:18:03.000Z</time>
      </trkpt>
      <trkpt lat="47.34346" lon="-2.32516">
        <ele>-20.200000762939</ele>
        <time>2021-02-25T09:18:08.000Z</time>
      </trkpt>
      <trkpt lat="47.34365" lon="-2.32482">
        <ele>-20.60000038147</ele>
        <time>2021-02-25T09:18:13.000Z</time>
      </trkpt>
      <trkpt lat="47.34369" lon="-2.32474">
        <ele>-21</ele>
        <time>2021-02-25T09:18:14.000Z</time>
      </trkpt>
      <trkpt lat="47.34372" lon="-2.32467">
        <ele>-21.39999961853</ele>
        <time>2021-02-25T09:18:15.000Z</time>
      </trkpt>
      <trkpt lat="47.34376" lon="-2.3246">
        <ele>-21.799999237061</ele>
        <time>2021-02-25T09:18:16.000Z</time>
      </trkpt>
      <trkpt lat="47.34379" lon="-2.32453">
        <ele>-22.200000762939</ele>
        <time>2021-02-25T09:18:17.000Z</time>
      </trkpt>
      <trkpt lat="47.34398" lon="-2.32417">
        <ele>-22.200000762939</ele>
        <time>2021-02-25T09:18:22.000Z</time>
      </trkpt>
      <trkpt lat="47.34406" lon="-2.32406">
        <ele>-22.200000762939</ele>
        <time>2021-02-25T09:18:24.000Z</time>
      </trkpt>
      <trkpt lat="47.34415" lon="-2.32395">
        <ele>-22.200000762939</ele>
        <time>2021-02-25T09:18:26.000Z</time>
      </trkpt>
      <trkpt lat="47.34423" lon="-2.32385">
        <ele>-22.200000762939</ele>
        <time>2021-02-25T09:18:28.000Z</time>
      </trkpt>
      <trkpt lat="47.34446" lon="-2.32363">
        <ele>-22.200000762939</ele>
        <time>2021-02-25T09:18:33.000Z</time>
      </trkpt>
      <trkpt lat="47.34477" lon="-2.3233">
        <ele>-22.200000762939</ele>
        <time>2021-02-25T09:18:40.000Z</time>
      </trkpt>
      <trkpt lat="47.34506" lon="-2.32301">
        <ele>-22.200000762939</ele>
        <time>2021-02-25T09:18:46.000Z</time>
      </trkpt>
      <trkpt lat="47.34537" lon="-2.32274">
        <ele>-22.200000762939</ele>
        <time>2021-02-25T09:18:52.000Z</time>
      </trkpt>
      <trkpt lat="47.34574" lon="-2.32243">
        <ele>-22.60000038147</ele>
        <time>2021-02-25T09:18:59.000Z</time>
      </trkpt>
      <trkpt lat="47.34579" lon="-2.32238">
        <ele>-23.39999961853</ele>
        <time>2021-02-25T09:19:00.000Z</time>
      </trkpt>
      <trkpt lat="47.34584" lon="-2.32234">
        <ele>-23.799999237061</ele>
        <time>2021-02-25T09:19:01.000Z</time>
      </trkpt>
      <trkpt lat="47.34589" lon="-2.3223">
        <ele>-24.200000762939</ele>
        <time>2021-02-25T09:19:02.000Z</time>
      </trkpt>
      <trkpt lat="47.34616" lon="-2.32208">
        <ele>-24.200000762939</ele>
        <time>2021-02-25T09:19:07.000Z</time>
      </trkpt>
      <trkpt lat="47.34642" lon="-2.32184">
        <ele>-24.60000038147</ele>
        <time>2021-02-25T09:19:12.000Z</time>
      </trkpt>
      <trkpt lat="47.34648" lon="-2.32179">
        <ele>-25</ele>
        <time>2021-02-25T09:19:13.000Z</time>
      </trkpt>
      <trkpt lat="47.34653" lon="-2.32174">
        <ele>-25.39999961853</ele>
        <time>2021-02-25T09:19:14.000Z</time>
      </trkpt>
      <trkpt lat="47.34658" lon="-2.3217">
        <ele>-25.799999237061</ele>
        <time>2021-02-25T09:19:15.000Z</time>
      </trkpt>
      <trkpt lat="47.34663" lon="-2.32165">
        <ele>-26.200000762939</ele>
        <time>2021-02-25T09:19:16.000Z</time>
      </trkpt>
      <trkpt lat="47.34698" lon="-2.32133">
        <ele>-26.200000762939</ele>
        <time>2021-02-25T09:19:23.000Z</time>
      </trkpt>
      <trkpt lat="47.34725" lon="-2.32109">
        <ele>-26.200000762939</ele>
        <time>2021-02-25T09:19:29.000Z</time>
      </trkpt>
      <trkpt lat="47.34728" lon="-2.32106">
        <ele>-26.799999237061</ele>
        <time>2021-02-25T09:19:30.000Z</time>
      </trkpt>
      <trkpt lat="47.34731" lon="-2.32104">
        <ele>-27.200000762939</ele>
        <time>2021-02-25T09:19:31.000Z</time>
      </trkpt>
      <trkpt lat="47.34733" lon="-2.32103">
        <ele>-27.60000038147</ele>
        <time>2021-02-25T09:19:32.000Z</time>
      </trkpt>
      <trkpt lat="47.34734" lon="-2.32101">
        <ele>-28</ele>
        <time>2021-02-25T09:19:33.000Z</time>
      </trkpt>
      <trkpt lat="47.34736" lon="-2.32101">
        <ele>-28.39999961853</ele>
        <time>2021-02-25T09:19:34.000Z</time>
      </trkpt>
      <trkpt lat="47.34738" lon="-2.32102">
        <ele>-28.39999961853</ele>
        <time>2021-02-25T09:19:37.000Z</time>
      </trkpt>
      <trkpt lat="47.34739" lon="-2.32105">
        <ele>-28.39999961853</ele>
        <time>2021-02-25T09:21:09.000Z</time>
      </trkpt>
      <trkpt lat="47.34743" lon="-2.32114">
        <ele>-28.39999961853</ele>
        <time>2021-02-25T09:21:12.000Z</time>
      </trkpt>
      <trkpt lat="47.34753" lon="-2.32141">
        <ele>-28.39999961853</ele>
        <time>2021-02-25T09:21:17.000Z</time>
      </trkpt>
      <trkpt lat="47.34768" lon="-2.32181">
        <ele>-28.39999961853</ele>
        <time>2021-02-25T09:21:23.000Z</time>
      </trkpt>
      <trkpt lat="47.3477" lon="-2.32189">
        <ele>-28.39999961853</ele>
        <time>2021-02-25T09:21:24.000Z</time>
      </trkpt>
      <trkpt lat="47.34772" lon="-2.32211">
        <ele>-28.39999961853</ele>
        <time>2021-02-25T09:21:27.000Z</time>
      </trkpt>
      <trkpt lat="47.34765" lon="-2.32234">
        <ele>-28.39999961853</ele>
        <time>2021-02-25T09:21:30.000Z</time>
      </trkpt>
      <trkpt lat="47.34755" lon="-2.32255">
        <ele>-28.39999961853</ele>
        <time>2021-02-25T09:21:33.000Z</time>
      </trkpt>
      <trkpt lat="47.34744" lon="-2.32278">
        <ele>-28.39999961853</ele>
        <time>2021-02-25T09:21:36.000Z</time>
      </trkpt>
      <trkpt lat="47.34719" lon="-2.32335">
        <ele>-28.39999961853</ele>
        <time>2021-02-25T09:21:44.000Z</time>
      </trkpt>
      <trkpt lat="47.34717" lon="-2.32342">
        <ele>-28</ele>
        <time>2021-02-25T09:21:45.000Z</time>
      </trkpt>
      <trkpt lat="47.34715" lon="-2.32349">
        <ele>-27.60000038147</ele>
        <time>2021-02-25T09:21:46.000Z</time>
      </trkpt>
      <trkpt lat="47.34712" lon="-2.32355">
        <ele>-27.200000762939</ele>
        <time>2021-02-25T09:21:47.000Z</time>
      </trkpt>
      <trkpt lat="47.34709" lon="-2.32362">
        <ele>-26.799999237061</ele>
        <time>2021-02-25T09:21:48.000Z</time>
      </trkpt>
      <trkpt lat="47.34707" lon="-2.32368">
        <ele>-26.39999961853</ele>
        <time>2021-02-25T09:21:49.000Z</time>
      </trkpt>
      <trkpt lat="47.34702" lon="-2.32382">
        <ele>-26.39999961853</ele>
        <time>2021-02-25T09:21:51.000Z</time>
      </trkpt>
      <trkpt lat="47.34697" lon="-2.32404">
        <ele>-25.799999237061</ele>
        <time>2021-02-25T09:21:54.000Z</time>
      </trkpt>
      <trkpt lat="47.34695" lon="-2.32411">
        <ele>-25.39999961853</ele>
        <time>2021-02-25T09:21:55.000Z</time>
      </trkpt>
      <trkpt lat="47.34693" lon="-2.32418">
        <ele>-25</ele>
        <time>2021-02-25T09:21:56.000Z</time>
      </trkpt>
      <trkpt lat="47.34691" lon="-2.32426">
        <ele>-24.60000038147</ele>
        <time>2021-02-25T09:21:57.000Z</time>
      </trkpt>
      <trkpt lat="47.34688" lon="-2.32434">
        <ele>-24.200000762939</ele>
        <time>2021-02-25T09:21:58.000Z</time>
      </trkpt>
      <trkpt lat="47.34671" lon="-2.32486">
        <ele>-24.200000762939</ele>
        <time>2021-02-25T09:22:04.000Z</time>
      </trkpt>
      <trkpt lat="47.34649" lon="-2.3255">
        <ele>-24.60000038147</ele>
        <time>2021-02-25T09:22:11.000Z</time>
      </trkpt>
      <trkpt lat="47.34646" lon="-2.32559">
        <ele>-25</ele>
        <time>2021-02-25T09:22:12.000Z</time>
      </trkpt>
      <trkpt lat="47.34642" lon="-2.32567">
        <ele>-25.39999961853</ele>
        <time>2021-02-25T09:22:13.000Z</time>
      </trkpt>
      <trkpt lat="47.3464" lon="-2.32575">
        <ele>-25.799999237061</ele>
        <time>2021-02-25T09:22:14.000Z</time>
      </trkpt>
      <trkpt lat="47.34637" lon="-2.32582">
        <ele>-26.200000762939</ele>
        <time>2021-02-25T09:22:15.000Z</time>
      </trkpt>
      <trkpt lat="47.34634" lon="-2.32589">
        <ele>-26.200000762939</ele>
        <time>2021-02-25T09:22:16.000Z</time>
      </trkpt>
      <trkpt lat="47.34614" lon="-2.32628">
        <ele>-26.200000762939</ele>
        <time>2021-02-25T09:22:22.000Z</time>
      </trkpt>
      <trkpt lat="47.34593" lon="-2.32655">
        <ele>-26.200000762939</ele>
        <time>2021-02-25T09:22:27.000Z</time>
      </trkpt>
      <trkpt lat="47.34573" lon="-2.32673">
        <ele>-26.200000762939</ele>
        <time>2021-02-25T09:22:32.000Z</time>
      </trkpt>
      <trkpt lat="47.34565" lon="-2.3268">
        <ele>-25.799999237061</ele>
        <time>2021-02-25T09:22:34.000Z</time>
      </trkpt>
      <trkpt lat="47.34561" lon="-2.32683">
        <ele>-25.39999961853</ele>
        <time>2021-02-25T09:22:35.000Z</time>
      </trkpt>
      <trkpt lat="47.34557" lon="-2.32687">
        <ele>-25</ele>
        <time>2021-02-25T09:22:36.000Z</time>
      </trkpt>
      <trkpt lat="47.34552" lon="-2.32691">
        <ele>-24.39999961853</ele>
        <time>2021-02-25T09:22:37.000Z</time>
      </trkpt>
      <trkpt lat="47.34547" lon="-2.32694">
        <ele>-24</ele>
        <time>2021-02-25T09:22:38.000Z</time>
      </trkpt>
      <trkpt lat="47.34543" lon="-2.32698">
        <ele>-24</ele>
        <time>2021-02-25T09:22:39.000Z</time>
      </trkpt>
      <trkpt lat="47.3451" lon="-2.32721">
        <ele>-24</ele>
        <time>2021-02-25T09:22:46.000Z</time>
      </trkpt>
      <trkpt lat="47.34467" lon="-2.32747">
        <ele>-24</ele>
        <time>2021-02-25T09:22:54.000Z</time>
      </trkpt>
      <trkpt lat="47.34456" lon="-2.32755">
        <ele>-24</ele>
        <time>2021-02-25T09:22:56.000Z</time>
      </trkpt>
      <trkpt lat="47.34451" lon="-2.3277">
        <ele>-24</ele>
        <time>2021-02-25T09:22:58.000Z</time>
      </trkpt>
      <trkpt lat="47.34452" lon="-2.32798">
        <ele>-24</ele>
        <time>2021-02-25T09:23:01.000Z</time>
      </trkpt>
      <trkpt lat="47.34452" lon="-2.32806">
        <ele>-24</ele>
        <time>2021-02-25T09:23:02.000Z</time>
      </trkpt>
      <trkpt lat="47.34454" lon="-2.32826">
        <ele>-24</ele>
        <time>2021-02-25T09:23:05.000Z</time>
      </trkpt>
      <trkpt lat="47.34446" lon="-2.32837">
        <ele>-24</ele>
        <time>2021-02-25T09:23:08.000Z</time>
      </trkpt>
      <trkpt lat="47.34442" lon="-2.3284">
        <ele>-24.39999961853</ele>
        <time>2021-02-25T09:23:09.000Z</time>
      </trkpt>
      <trkpt lat="47.34438" lon="-2.32843">
        <ele>-24.799999237061</ele>
        <time>2021-02-25T09:23:10.000Z</time>
      </trkpt>
      <trkpt lat="47.34432" lon="-2.32846">
        <ele>-25.200000762939</ele>
        <time>2021-02-25T09:23:11.000Z</time>
      </trkpt>
      <trkpt lat="47.34427" lon="-2.32849">
        <ele>-25.60000038147</ele>
        <time>2021-02-25T09:23:12.000Z</time>
      </trkpt>
      <trkpt lat="47.34421" lon="-2.32853">
        <ele>-26</ele>
        <time>2021-02-25T09:23:13.000Z</time>
      </trkpt>
      <trkpt lat="47.34416" lon="-2.32857">
        <ele>-26</ele>
        <time>2021-02-25T09:23:14.000Z</time>
      </trkpt>
      <trkpt lat="47.344" lon="-2.3287">
        <ele>-26</ele>
        <time>2021-02-25T09:23:17.000Z</time>
      </trkpt>
      <trkpt lat="47.34384" lon="-2.32884">
        <ele>-26</ele>
        <time>2021-02-25T09:23:20.000Z</time>
      </trkpt>
      <trkpt lat="47.3437" lon="-2.32899">
        <ele>-26</ele>
        <time>2021-02-25T09:23:23.000Z</time>
      </trkpt>
      <trkpt lat="47.34357" lon="-2.32913">
        <ele>-26</ele>
        <time>2021-02-25T09:23:26.000Z</time>
      </trkpt>
      <trkpt lat="47.34354" lon="-2.32925">
        <ele>-26</ele>
        <time>2021-02-25T09:23:28.000Z</time>
      </trkpt>
      <trkpt lat="47.34358" lon="-2.32947">
        <ele>-26</ele>
        <time>2021-02-25T09:23:31.000Z</time>
      </trkpt>
      <trkpt lat="47.34368" lon="-2.32996">
        <ele>-26</ele>
        <time>2021-02-25T09:23:37.000Z</time>
      </trkpt>
      <trkpt lat="47.34372" lon="-2.33013">
        <ele>-26</ele>
        <time>2021-02-25T09:23:39.000Z</time>
      </trkpt>
      <trkpt lat="47.3437" lon="-2.33032">
        <ele>-26</ele>
        <time>2021-02-25T09:23:42.000Z</time>
      </trkpt>
      <trkpt lat="47.34359" lon="-2.33042">
        <ele>-26</ele>
        <time>2021-02-25T09:23:45.000Z</time>
      </trkpt>
      <trkpt lat="47.34323" lon="-2.33056">
        <ele>-26</ele>
        <time>2021-02-25T09:23:51.000Z</time>
      </trkpt>
      <trkpt lat="47.34303" lon="-2.33059">
        <ele>-26</ele>
        <time>2021-02-25T09:23:56.000Z</time>
      </trkpt>
      <trkpt lat="47.34293" lon="-2.33063">
        <ele>-26</ele>
        <time>2021-02-25T09:24:02.000Z</time>
      </trkpt>
      <trkpt lat="47.34278" lon="-2.33071">
        <ele>-26</ele>
        <time>2021-02-25T09:24:09.000Z</time>
      </trkpt>
      <trkpt lat="47.34266" lon="-2.33083">
        <ele>-26</ele>
        <time>2021-02-25T09:24:13.000Z</time>
      </trkpt>
      <trkpt lat="47.34262" lon="-2.33095">
        <ele>-26</ele>
        <time>2021-02-25T09:24:15.000Z</time>
      </trkpt>
      <trkpt lat="47.34258" lon="-2.33109">
        <ele>-26</ele>
        <time>2021-02-25T09:24:17.000Z</time>
      </trkpt>
      <trkpt lat="47.34241" lon="-2.33158">
        <ele>-26</ele>
        <time>2021-02-25T09:24:23.000Z</time>
      </trkpt>
      <trkpt lat="47.34222" lon="-2.33209">
        <ele>-26</ele>
        <time>2021-02-25T09:24:30.000Z</time>
      </trkpt>
      <trkpt lat="47.34207" lon="-2.33253">
        <ele>-26</ele>
        <time>2021-02-25T09:24:36.000Z</time>
      </trkpt>
      <trkpt lat="47.34204" lon="-2.3326">
        <ele>-25.60000038147</ele>
        <time>2021-02-25T09:24:37.000Z</time>
      </trkpt>
      <trkpt lat="47.34202" lon="-2.33267">
        <ele>-25.200000762939</ele>
        <time>2021-02-25T09:24:38.000Z</time>
      </trkpt>
      <trkpt lat="47.34199" lon="-2.33274">
        <ele>-24.799999237061</ele>
        <time>2021-02-25T09:24:39.000Z</time>
      </trkpt>
      <trkpt lat="47.34197" lon="-2.33281">
        <ele>-24.39999961853</ele>
        <time>2021-02-25T09:24:40.000Z</time>
      </trkpt>
      <trkpt lat="47.34195" lon="-2.33289">
        <ele>-24</ele>
        <time>2021-02-25T09:24:41.000Z</time>
      </trkpt>
      <trkpt lat="47.3419" lon="-2.33304">
        <ele>-24</ele>
        <time>2021-02-25T09:24:43.000Z</time>
      </trkpt>
      <trkpt lat="47.34173" lon="-2.33357">
        <ele>-24</ele>
        <time>2021-02-25T09:24:50.000Z</time>
      </trkpt>
      <trkpt lat="47.34161" lon="-2.33392">
        <ele>-23.60000038147</ele>
        <time>2021-02-25T09:24:55.000Z</time>
      </trkpt>
      <trkpt lat="47.34159" lon="-2.33399">
        <ele>-23.200000762939</ele>
        <time>2021-02-25T09:24:56.000Z</time>
      </trkpt>
      <trkpt lat="47.34157" lon="-2.33405">
        <ele>-22.799999237061</ele>
        <time>2021-02-25T09:24:57.000Z</time>
      </trkpt>
      <trkpt lat="47.34154" lon="-2.33411">
        <ele>-22.39999961853</ele>
        <time>2021-02-25T09:24:58.000Z</time>
      </trkpt>
      <trkpt lat="47.34151" lon="-2.33416">
        <ele>-22</ele>
        <time>2021-02-25T09:24:59.000Z</time>
      </trkpt>
      <trkpt lat="47.34145" lon="-2.33426">
        <ele>-22</ele>
        <time>2021-02-25T09:25:01.000Z</time>
      </trkpt>
      <trkpt lat="47.34128" lon="-2.33454">
        <ele>-22</ele>
        <time>2021-02-25T09:25:07.000Z</time>
      </trkpt>
      <trkpt lat="47.34126" lon="-2.33458">
        <ele>-22</ele>
        <time>2021-02-25T09:25:08.000Z</time>
      </trkpt>
      <trkpt lat="47.34108" lon="-2.33481">
        <ele>-22</ele>
        <time>2021-02-25T09:25:14.000Z</time>
      </trkpt>
      <trkpt lat="47.34101" lon="-2.3349">
        <ele>-22</ele>
        <time>2021-02-25T09:25:16.000Z</time>
      </trkpt>
      <trkpt lat="47.34091" lon="-2.33505">
        <ele>-22</ele>
        <time>2021-02-25T09:25:19.000Z</time>
      </trkpt>
      <trkpt lat="47.34075" lon="-2.33533">
        <ele>-22</ele>
        <time>2021-02-25T09:25:25.000Z</time>
      </trkpt>
      <trkpt lat="47.34071" lon="-2.33543">
        <ele>-21.60000038147</ele>
        <time>2021-02-25T09:25:27.000Z</time>
      </trkpt>
      <trkpt lat="47.34068" lon="-2.33549">
        <ele>-21.200000762939</ele>
        <time>2021-02-25T09:25:28.000Z</time>
      </trkpt>
      <trkpt lat="47.34066" lon="-2.33554">
        <ele>-20.799999237061</ele>
        <time>2021-02-25T09:25:29.000Z</time>
      </trkpt>
      <trkpt lat="47.34063" lon="-2.3356">
        <ele>-20.39999961853</ele>
        <time>2021-02-25T09:25:30.000Z</time>
      </trkpt>
      <trkpt lat="47.3406" lon="-2.33566">
        <ele>-20</ele>
        <time>2021-02-25T09:25:31.000Z</time>
      </trkpt>
      <trkpt lat="47.34036" lon="-2.33604">
        <ele>-20</ele>
        <time>2021-02-25T09:25:38.000Z</time>
      </trkpt>
      <trkpt lat="47.34029" lon="-2.33616">
        <ele>-20</ele>
        <time>2021-02-25T09:25:40.000Z</time>
      </trkpt>
      <trkpt lat="47.34015" lon="-2.3364">
        <ele>-20</ele>
        <time>2021-02-25T09:25:44.000Z</time>
      </trkpt>
      <trkpt lat="47.33993" lon="-2.33681">
        <ele>-20</ele>
        <time>2021-02-25T09:25:51.000Z</time>
      </trkpt>
      <trkpt lat="47.33983" lon="-2.337">
        <ele>-19.60000038147</ele>
        <time>2021-02-25T09:25:54.000Z</time>
      </trkpt>
      <trkpt lat="47.3398" lon="-2.33707">
        <ele>-19</ele>
        <time>2021-02-25T09:25:55.000Z</time>
      </trkpt>
      <trkpt lat="47.33976" lon="-2.33714">
        <ele>-18.60000038147</ele>
        <time>2021-02-25T09:25:56.000Z</time>
      </trkpt>
      <trkpt lat="47.33973" lon="-2.33722">
        <ele>-18.200000762939</ele>
        <time>2021-02-25T09:25:57.000Z</time>
      </trkpt>
      <trkpt lat="47.33969" lon="-2.33729">
        <ele>-17.799999237061</ele>
        <time>2021-02-25T09:25:58.000Z</time>
      </trkpt>
      <trkpt lat="47.3396" lon="-2.33745">
        <ele>-17.799999237061</ele>
        <time>2021-02-25T09:26:00.000Z</time>
      </trkpt>
      <trkpt lat="47.3395" lon="-2.33762">
        <ele>-17.799999237061</ele>
        <time>2021-02-25T09:26:02.000Z</time>
      </trkpt>
      <trkpt lat="47.3392" lon="-2.33813">
        <ele>-17.799999237061</ele>
        <time>2021-02-25T09:26:09.000Z</time>
      </trkpt>
      <trkpt lat="47.33894" lon="-2.33856">
        <ele>-17.799999237061</ele>
        <time>2021-02-25T09:26:16.000Z</time>
      </trkpt>
      <trkpt lat="47.33884" lon="-2.33872">
        <ele>-17.39999961853</ele>
        <time>2021-02-25T09:26:20.000Z</time>
      </trkpt>
      <trkpt lat="47.33881" lon="-2.33874">
        <ele>-17</ele>
        <time>2021-02-25T09:26:21.000Z</time>
      </trkpt>
      <trkpt lat="47.33879" lon="-2.33878">
        <ele>-16.60000038147</ele>
        <time>2021-02-25T09:26:22.000Z</time>
      </trkpt>
      <trkpt lat="47.33876" lon="-2.33881">
        <ele>-16.200000762939</ele>
        <time>2021-02-25T09:26:23.000Z</time>
      </trkpt>
      <trkpt lat="47.33872" lon="-2.33884">
        <ele>-15.800000190735</ele>
        <time>2021-02-25T09:26:24.000Z</time>
      </trkpt>
      <trkpt lat="47.33856" lon="-2.33897">
        <ele>-15.800000190735</ele>
        <time>2021-02-25T09:26:28.000Z</time>
      </trkpt>
      <trkpt lat="47.33834" lon="-2.33919">
        <ele>-15.800000190735</ele>
        <time>2021-02-25T09:26:34.000Z</time>
      </trkpt>
      <trkpt lat="47.3383" lon="-2.33923">
        <ele>-15.800000190735</ele>
        <time>2021-02-25T09:26:35.000Z</time>
      </trkpt>
      <trkpt lat="47.33806" lon="-2.33941">
        <ele>-15.800000190735</ele>
        <time>2021-02-25T09:26:40.000Z</time>
      </trkpt>
      <trkpt lat="47.338" lon="-2.33945">
        <ele>-15.39999961853</ele>
        <time>2021-02-25T09:26:41.000Z</time>
      </trkpt>
      <trkpt lat="47.33795" lon="-2.3395">
        <ele>-15</ele>
        <time>2021-02-25T09:26:42.000Z</time>
      </trkpt>
      <trkpt lat="47.3379" lon="-2.33953">
        <ele>-14.60000038147</ele>
        <time>2021-02-25T09:26:43.000Z</time>
      </trkpt>
      <trkpt lat="47.33785" lon="-2.33957">
        <ele>-14.199999809265</ele>
        <time>2021-02-25T09:26:44.000Z</time>
      </trkpt>
      <trkpt lat="47.3378" lon="-2.33961">
        <ele>-13.800000190735</ele>
        <time>2021-02-25T09:26:45.000Z</time>
      </trkpt>
      <trkpt lat="47.33775" lon="-2.33965">
        <ele>-13.800000190735</ele>
        <time>2021-02-25T09:26:46.000Z</time>
      </trkpt>
      <trkpt lat="47.3374" lon="-2.33998">
        <ele>-13.800000190735</ele>
        <time>2021-02-25T09:26:53.000Z</time>
      </trkpt>
      <trkpt lat="47.33699" lon="-2.3403">
        <ele>-13.800000190735</ele>
        <time>2021-02-25T09:27:00.000Z</time>
      </trkpt>
      <trkpt lat="47.33681" lon="-2.34043">
        <ele>-13.199999809265</ele>
        <time>2021-02-25T09:27:03.000Z</time>
      </trkpt>
      <trkpt lat="47.33675" lon="-2.34047">
        <ele>-12.800000190735</ele>
        <time>2021-02-25T09:27:04.000Z</time>
      </trkpt>
      <trkpt lat="47.3367" lon="-2.34052">
        <ele>-12.39999961853</ele>
        <time>2021-02-25T09:27:05.000Z</time>
      </trkpt>
      <trkpt lat="47.33664" lon="-2.34056">
        <ele>-12</ele>
        <time>2021-02-25T09:27:06.000Z</time>
      </trkpt>
      <trkpt lat="47.33658" lon="-2.34061">
        <ele>-11.39999961853</ele>
        <time>2021-02-25T09:27:07.000Z</time>
      </trkpt>
      <trkpt lat="47.33653" lon="-2.34066">
        <ele>-11.39999961853</ele>
        <time>2021-02-25T09:27:08.000Z</time>
      </trkpt>
      <trkpt lat="47.33614" lon="-2.34096">
        <ele>-11.39999961853</ele>
        <time>2021-02-25T09:27:15.000Z</time>
      </trkpt>
      <trkpt lat="47.33575" lon="-2.34126">
        <ele>-11.39999961853</ele>
        <time>2021-02-25T09:27:22.000Z</time>
      </trkpt>
      <trkpt lat="47.3353" lon="-2.34157">
        <ele>-11.39999961853</ele>
        <time>2021-02-25T09:27:30.000Z</time>
      </trkpt>
      <trkpt lat="47.33496" lon="-2.3418">
        <ele>-11.39999961853</ele>
        <time>2021-02-25T09:27:36.000Z</time>
      </trkpt>
      <trkpt lat="47.33476" lon="-2.34198">
        <ele>-11</ele>
        <time>2021-02-25T09:27:40.000Z</time>
      </trkpt>
      <trkpt lat="47.33471" lon="-2.34203">
        <ele>-10.60000038147</ele>
        <time>2021-02-25T09:27:41.000Z</time>
      </trkpt>
      <trkpt lat="47.33466" lon="-2.34209">
        <ele>-10.199999809265</ele>
        <time>2021-02-25T09:27:42.000Z</time>
      </trkpt>
      <trkpt lat="47.33462" lon="-2.34214">
        <ele>-9.8000001907349</ele>
        <time>2021-02-25T09:27:43.000Z</time>
      </trkpt>
      <trkpt lat="47.33457" lon="-2.3422">
        <ele>-9.3999996185303</ele>
        <time>2021-02-25T09:27:44.000Z</time>
      </trkpt>
      <trkpt lat="47.33449" lon="-2.34232">
        <ele>-9.3999996185303</ele>
        <time>2021-02-25T09:27:46.000Z</time>
      </trkpt>
      <trkpt lat="47.33445" lon="-2.34238">
        <ele>-9.3999996185303</ele>
        <time>2021-02-25T09:27:47.000Z</time>
      </trkpt>
      <trkpt lat="47.33442" lon="-2.34244">
        <ele>-9.3999996185303</ele>
        <time>2021-02-25T09:27:48.000Z</time>
      </trkpt>
      <trkpt lat="47.33426" lon="-2.34278">
        <ele>-9.3999996185303</ele>
        <time>2021-02-25T09:27:53.000Z</time>
      </trkpt>
      <trkpt lat="47.33409" lon="-2.34327">
        <ele>-9.3999996185303</ele>
        <time>2021-02-25T09:27:59.000Z</time>
      </trkpt>
      <trkpt lat="47.33385" lon="-2.34392">
        <ele>-9.3999996185303</ele>
        <time>2021-02-25T09:28:07.000Z</time>
      </trkpt>
      <trkpt lat="47.33364" lon="-2.34454">
        <ele>-9.3999996185303</ele>
        <time>2021-02-25T09:28:15.000Z</time>
      </trkpt>
      <trkpt lat="47.33359" lon="-2.34469">
        <ele>-9.3999996185303</ele>
        <time>2021-02-25T09:28:17.000Z</time>
      </trkpt>
      <trkpt lat="47.33359" lon="-2.34487">
        <ele>-9.3999996185303</ele>
        <time>2021-02-25T09:28:19.000Z</time>
      </trkpt>
      <trkpt lat="47.33369" lon="-2.34508">
        <ele>-9.3999996185303</ele>
        <time>2021-02-25T09:28:22.000Z</time>
      </trkpt>
      <trkpt lat="47.33373" lon="-2.34515">
        <ele>-9.3999996185303</ele>
        <time>2021-02-25T09:28:23.000Z</time>
      </trkpt>
      <trkpt lat="47.33388" lon="-2.34542">
        <ele>-9</ele>
        <time>2021-02-25T09:28:27.000Z</time>
      </trkpt>
      <trkpt lat="47.33391" lon="-2.34548">
        <ele>-8.1999998092651</ele>
        <time>2021-02-25T09:28:28.000Z</time>
      </trkpt>
      <trkpt lat="47.33395" lon="-2.34554">
        <ele>-7.8000001907349</ele>
        <time>2021-02-25T09:28:29.000Z</time>
      </trkpt>
      <trkpt lat="47.33398" lon="-2.3456">
        <ele>-7.4000000953674</ele>
        <time>2021-02-25T09:28:30.000Z</time>
      </trkpt>
      <trkpt lat="47.33426" lon="-2.34607">
        <ele>-7.4000000953674</ele>
        <time>2021-02-25T09:28:38.000Z</time>
      </trkpt>
      <trkpt lat="47.33439" lon="-2.34631">
        <ele>-7</ele>
        <time>2021-02-25T09:28:42.000Z</time>
      </trkpt>
      <trkpt lat="47.33443" lon="-2.34637">
        <ele>-6.4000000953674</ele>
        <time>2021-02-25T09:28:43.000Z</time>
      </trkpt>
      <trkpt lat="47.33446" lon="-2.34643">
        <ele>-6</ele>
        <time>2021-02-25T09:28:44.000Z</time>
      </trkpt>
      <trkpt lat="47.33449" lon="-2.34648">
        <ele>-5.5999999046326</ele>
        <time>2021-02-25T09:28:45.000Z</time>
      </trkpt>
      <trkpt lat="47.33453" lon="-2.34654">
        <ele>-5.1999998092651</ele>
        <time>2021-02-25T09:28:46.000Z</time>
      </trkpt>
      <trkpt lat="47.33471" lon="-2.34683">
        <ele>-5.1999998092651</ele>
        <time>2021-02-25T09:28:51.000Z</time>
      </trkpt>
      <trkpt lat="47.33482" lon="-2.347">
        <ele>-4.8000001907349</ele>
        <time>2021-02-25T09:28:54.000Z</time>
      </trkpt>
      <trkpt lat="47.33486" lon="-2.34705">
        <ele>-4.4000000953674</ele>
        <time>2021-02-25T09:28:55.000Z</time>
      </trkpt>
      <trkpt lat="47.3349" lon="-2.34711">
        <ele>-4</ele>
        <time>2021-02-25T09:28:56.000Z</time>
      </trkpt>
      <trkpt lat="47.33493" lon="-2.34716">
        <ele>-3.5999999046326</ele>
        <time>2021-02-25T09:28:57.000Z</time>
      </trkpt>
      <trkpt lat="47.33497" lon="-2.34722">
        <ele>-3</ele>
        <time>2021-02-25T09:28:58.000Z</time>
      </trkpt>
      <trkpt lat="47.3351" lon="-2.34739">
        <ele>-3</ele>
        <time>2021-02-25T09:29:01.000Z</time>
      </trkpt>
      <trkpt lat="47.33534" lon="-2.34773">
        <ele>-2.5999999046326</ele>
        <time>2021-02-25T09:29:07.000Z</time>
      </trkpt>
      <trkpt lat="47.33538" lon="-2.34779">
        <ele>-2.2000000476837</ele>
        <time>2021-02-25T09:29:08.000Z</time>
      </trkpt>
      <trkpt lat="47.33542" lon="-2.34785">
        <ele>-1.7999999523163</ele>
        <time>2021-02-25T09:29:09.000Z</time>
      </trkpt>
      <trkpt lat="47.33546" lon="-2.34791">
        <ele>-1.3999999761581</ele>
        <time>2021-02-25T09:29:10.000Z</time>
      </trkpt>
      <trkpt lat="47.33551" lon="-2.34797">
        <ele>-1</ele>
        <time>2021-02-25T09:29:11.000Z</time>
      </trkpt>
      <trkpt lat="47.33584" lon="-2.34841">
        <ele>-1</ele>
        <time>2021-02-25T09:29:18.000Z</time>
      </trkpt>
      <trkpt lat="47.33618" lon="-2.34887">
        <ele>-1</ele>
        <time>2021-02-25T09:29:25.000Z</time>
      </trkpt>
      <trkpt lat="47.33637" lon="-2.34911">
        <ele>-1.6000000238419</ele>
        <time>2021-02-25T09:29:29.000Z</time>
      </trkpt>
      <trkpt lat="47.33642" lon="-2.34917">
        <ele>-2</ele>
        <time>2021-02-25T09:29:30.000Z</time>
      </trkpt>
      <trkpt lat="47.33646" lon="-2.34923">
        <ele>-2.4000000953674</ele>
        <time>2021-02-25T09:29:31.000Z</time>
      </trkpt>
      <trkpt lat="47.3365" lon="-2.34928">
        <ele>-2.7999999523163</ele>
        <time>2021-02-25T09:29:32.000Z</time>
      </trkpt>
      <trkpt lat="47.33654" lon="-2.34932">
        <ele>-3.2000000476837</ele>
        <time>2021-02-25T09:29:33.000Z</time>
      </trkpt>
      <trkpt lat="47.33671" lon="-2.34956">
        <ele>-3.2000000476837</ele>
        <time>2021-02-25T09:29:37.000Z</time>
      </trkpt>
      <trkpt lat="47.33708" lon="-2.35014">
        <ele>-3.2000000476837</ele>
        <time>2021-02-25T09:29:46.000Z</time>
      </trkpt>
      <trkpt lat="47.33738" lon="-2.35059">
        <ele>-3.2000000476837</ele>
        <time>2021-02-25T09:29:53.000Z</time>
      </trkpt>
      <trkpt lat="47.33748" lon="-2.35068">
        <ele>-3.2000000476837</ele>
        <time>2021-02-25T09:29:55.000Z</time>
      </trkpt>
      <trkpt lat="47.3376" lon="-2.35076">
        <ele>-3.2000000476837</ele>
        <time>2021-02-25T09:29:57.000Z</time>
      </trkpt>
      <trkpt lat="47.33766" lon="-2.3508">
        <ele>-3.2000000476837</ele>
        <time>2021-02-25T09:29:58.000Z</time>
      </trkpt>
      <trkpt lat="47.33804" lon="-2.35099">
        <ele>-3.2000000476837</ele>
        <time>2021-02-25T09:30:05.000Z</time>
      </trkpt>
      <trkpt lat="47.33834" lon="-2.35119">
        <ele>-3.2000000476837</ele>
        <time>2021-02-25T09:30:12.000Z</time>
      </trkpt>
      <trkpt lat="47.3386" lon="-2.35136">
        <ele>-3.2000000476837</ele>
        <time>2021-02-25T09:30:18.000Z</time>
      </trkpt>
      <trkpt lat="47.33877" lon="-2.35151">
        <ele>-3.2000000476837</ele>
        <time>2021-02-25T09:30:22.000Z</time>
      </trkpt>
      <trkpt lat="47.3389" lon="-2.35161">
        <ele>-3.2000000476837</ele>
        <time>2021-02-25T09:30:25.000Z</time>
      </trkpt>
      <trkpt lat="47.33922" lon="-2.35192">
        <ele>-3.2000000476837</ele>
        <time>2021-02-25T09:30:33.000Z</time>
      </trkpt>
      <trkpt lat="47.33933" lon="-2.35209">
        <ele>-3.2000000476837</ele>
        <time>2021-02-25T09:30:36.000Z</time>
      </trkpt>
      <trkpt lat="47.33943" lon="-2.35226">
        <ele>-3.2000000476837</ele>
        <time>2021-02-25T09:30:39.000Z</time>
      </trkpt>
      <trkpt lat="47.33952" lon="-2.35257">
        <ele>-3.2000000476837</ele>
        <time>2021-02-25T09:30:44.000Z</time>
      </trkpt>
      <trkpt lat="47.33967" lon="-2.35277">
        <ele>-3.2000000476837</ele>
        <time>2021-02-25T09:30:48.000Z</time>
      </trkpt>
      <trkpt lat="47.33997" lon="-2.35308">
        <ele>-3.2000000476837</ele>
        <time>2021-02-25T09:30:54.000Z</time>
      </trkpt>
      <trkpt lat="47.34003" lon="-2.35313">
        <ele>-4.1999998092651</ele>
        <time>2021-02-25T09:30:55.000Z</time>
      </trkpt>
      <trkpt lat="47.34009" lon="-2.35318">
        <ele>-4.5999999046326</ele>
        <time>2021-02-25T09:30:56.000Z</time>
      </trkpt>
      <trkpt lat="47.34014" lon="-2.35323">
        <ele>-5</ele>
        <time>2021-02-25T09:30:57.000Z</time>
      </trkpt>
      <trkpt lat="47.3402" lon="-2.35328">
        <ele>-5.4000000953674</ele>
        <time>2021-02-25T09:30:58.000Z</time>
      </trkpt>
      <trkpt lat="47.34034" lon="-2.35343">
        <ele>-5.4000000953674</ele>
        <time>2021-02-25T09:31:01.000Z</time>
      </trkpt>
      <trkpt lat="47.34064" lon="-2.35384">
        <ele>-5.4000000953674</ele>
        <time>2021-02-25T09:31:08.000Z</time>
      </trkpt>
      <trkpt lat="47.34076" lon="-2.35413">
        <ele>-5.8000001907349</ele>
        <time>2021-02-25T09:31:12.000Z</time>
      </trkpt>
      <trkpt lat="47.34079" lon="-2.35421">
        <ele>-6.1999998092651</ele>
        <time>2021-02-25T09:31:13.000Z</time>
      </trkpt>
      <trkpt lat="47.34082" lon="-2.35429">
        <ele>-6.5999999046326</ele>
        <time>2021-02-25T09:31:14.000Z</time>
      </trkpt>
      <trkpt lat="47.34086" lon="-2.35437">
        <ele>-7</ele>
        <time>2021-02-25T09:31:15.000Z</time>
      </trkpt>
      <trkpt lat="47.34089" lon="-2.35446">
        <ele>-7.4000000953674</ele>
        <time>2021-02-25T09:31:16.000Z</time>
      </trkpt>
      <trkpt lat="47.34106" lon="-2.35496">
        <ele>-7.4000000953674</ele>
        <time>2021-02-25T09:31:22.000Z</time>
      </trkpt>
      <trkpt lat="47.34127" lon="-2.35558">
        <ele>-7.4000000953674</ele>
        <time>2021-02-25T09:31:30.000Z</time>
      </trkpt>
      <trkpt lat="47.34145" lon="-2.35607">
        <ele>-7.4000000953674</ele>
        <time>2021-02-25T09:31:37.000Z</time>
      </trkpt>
      <trkpt lat="47.34171" lon="-2.35649">
        <ele>-7.4000000953674</ele>
        <time>2021-02-25T09:31:44.000Z</time>
      </trkpt>
      <trkpt lat="47.34189" lon="-2.3568">
        <ele>-7.8000001907349</ele>
        <time>2021-02-25T09:31:49.000Z</time>
      </trkpt>
      <trkpt lat="47.34192" lon="-2.35685">
        <ele>-8.1999998092651</ele>
        <time>2021-02-25T09:31:50.000Z</time>
      </trkpt>
      <trkpt lat="47.34195" lon="-2.3569">
        <ele>-8.6000003814697</ele>
        <time>2021-02-25T09:31:51.000Z</time>
      </trkpt>
      <trkpt lat="47.34197" lon="-2.35694">
        <ele>-9</ele>
        <time>2021-02-25T09:31:52.000Z</time>
      </trkpt>
      <trkpt lat="47.34199" lon="-2.35697">
        <ele>-9.3999996185303</ele>
        <time>2021-02-25T09:31:53.000Z</time>
      </trkpt>
      <trkpt lat="47.342" lon="-2.35698">
        <ele>-9.8000001907349</ele>
        <time>2021-02-25T09:31:54.000Z</time>
      </trkpt>
      <trkpt lat="47.34201" lon="-2.35699">
        <ele>-10.39999961853</ele>
        <time>2021-02-25T09:31:55.000Z</time>
      </trkpt>
      <trkpt lat="47.34202" lon="-2.35699">
        <ele>-10.800000190735</ele>
        <time>2021-02-25T09:31:56.000Z</time>
      </trkpt>
      <trkpt lat="47.34203" lon="-2.357">
        <ele>-11.199999809265</ele>
        <time>2021-02-25T09:31:57.000Z</time>
      </trkpt>
      <trkpt lat="47.34204" lon="-2.357">
        <ele>-11.60000038147</ele>
        <time>2021-02-25T09:31:58.000Z</time>
      </trkpt>
      <trkpt lat="47.34205" lon="-2.35702">
        <ele>-11.60000038147</ele>
        <time>2021-02-25T09:31:59.000Z</time>
      </trkpt>
      <trkpt lat="47.34205" lon="-2.35705">
        <ele>-11.60000038147</ele>
        <time>2021-02-25T09:32:01.000Z</time>
      </trkpt>
      <trkpt lat="47.34206" lon="-2.35708">
        <ele>-11.60000038147</ele>
        <time>2021-02-25T09:32:03.000Z</time>
      </trkpt>
      <trkpt lat="47.34208" lon="-2.35718">
        <ele>-12</ele>
        <time>2021-02-25T09:32:07.000Z</time>
      </trkpt>
      <trkpt lat="47.34209" lon="-2.35722">
        <ele>-12.39999961853</ele>
        <time>2021-02-25T09:32:08.000Z</time>
      </trkpt>
      <trkpt lat="47.34211" lon="-2.35724">
        <ele>-12.800000190735</ele>
        <time>2021-02-25T09:32:09.000Z</time>
      </trkpt>
      <trkpt lat="47.34213" lon="-2.35727">
        <ele>-13.800000190735</ele>
        <time>2021-02-25T09:32:10.000Z</time>
      </trkpt>
      <trkpt lat="47.34215" lon="-2.35726">
        <ele>-14.39999961853</ele>
        <time>2021-02-25T09:32:11.000Z</time>
      </trkpt>
      <trkpt lat="47.34218" lon="-2.35725">
        <ele>-15</ele>
        <time>2021-02-25T09:32:12.000Z</time>
      </trkpt>
      <trkpt lat="47.34221" lon="-2.35723">
        <ele>-15.60000038147</ele>
        <time>2021-02-25T09:32:13.000Z</time>
      </trkpt>
      <trkpt lat="47.34224" lon="-2.35718">
        <ele>-16.200000762939</ele>
        <time>2021-02-25T09:32:14.000Z</time>
      </trkpt>
      <trkpt lat="47.34228" lon="-2.35712">
        <ele>-16.200000762939</ele>
        <time>2021-02-25T09:32:15.000Z</time>
      </trkpt>
      <trkpt lat="47.34239" lon="-2.35692">
        <ele>-16.200000762939</ele>
        <time>2021-02-25T09:32:18.000Z</time>
      </trkpt>
      <trkpt lat="47.34247" lon="-2.35678">
        <ele>-16.200000762939</ele>
        <time>2021-02-25T09:32:20.000Z</time>
      </trkpt>
      <trkpt lat="47.34254" lon="-2.35665">
        <ele>-16.200000762939</ele>
        <time>2021-02-25T09:32:22.000Z</time>
      </trkpt>
      <trkpt lat="47.34271" lon="-2.35642">
        <ele>-16.200000762939</ele>
        <time>2021-02-25T09:32:26.000Z</time>
      </trkpt>
      <trkpt lat="47.34291" lon="-2.35616">
        <ele>-16.200000762939</ele>
        <time>2021-02-25T09:32:30.000Z</time>
      </trkpt>
      <trkpt lat="47.34302" lon="-2.35601">
        <ele>-16.200000762939</ele>
        <time>2021-02-25T09:32:32.000Z</time>
      </trkpt>
      <trkpt lat="47.34338" lon="-2.3555">
        <ele>-16.200000762939</ele>
        <time>2021-02-25T09:32:40.000Z</time>
      </trkpt>
      <trkpt lat="47.34364" lon="-2.35512">
        <ele>-16.200000762939</ele>
        <time>2021-02-25T09:32:46.000Z</time>
      </trkpt>
      <trkpt lat="47.34394" lon="-2.35468">
        <ele>-16.200000762939</ele>
        <time>2021-02-25T09:32:53.000Z</time>
      </trkpt>
      <trkpt lat="47.34405" lon="-2.35446">
        <ele>-16.200000762939</ele>
        <time>2021-02-25T09:32:56.000Z</time>
      </trkpt>
      <trkpt lat="47.3441" lon="-2.35431">
        <ele>-16.200000762939</ele>
        <time>2021-02-25T09:32:58.000Z</time>
      </trkpt>
      <trkpt lat="47.34418" lon="-2.35412">
        <ele>-16.200000762939</ele>
        <time>2021-02-25T09:33:02.000Z</time>
      </trkpt>
      <trkpt lat="47.34421" lon="-2.35403">
        <ele>-16.200000762939</ele>
        <time>2021-02-25T09:33:06.000Z</time>
      </trkpt>
      <trkpt lat="47.34424" lon="-2.35401">
        <ele>-16.200000762939</ele>
        <time>2021-02-25T09:33:10.000Z</time>
      </trkpt>
      <trkpt lat="47.34427" lon="-2.354">
        <ele>-16.200000762939</ele>
        <time>2021-02-25T09:33:12.000Z</time>
      </trkpt>
      <trkpt lat="47.34432" lon="-2.35396">
        <ele>-16.200000762939</ele>
        <time>2021-02-25T09:33:14.000Z</time>
      </trkpt>
      <trkpt lat="47.34436" lon="-2.35397">
        <ele>-16.200000762939</ele>
        <time>2021-02-25T09:33:16.000Z</time>
      </trkpt>
      <trkpt lat="47.34447" lon="-2.35401">
        <ele>-16.200000762939</ele>
        <time>2021-02-25T09:33:21.000Z</time>
      </trkpt>
      <trkpt lat="47.34448" lon="-2.35401">
        <ele>-16.60000038147</ele>
        <time>2021-02-25T09:33:22.000Z</time>
      </trkpt>
      <trkpt lat="47.34449" lon="-2.354">
        <ele>-17.39999961853</ele>
        <time>2021-02-25T09:33:23.000Z</time>
      </trkpt>
      <trkpt lat="47.3445" lon="-2.354">
        <ele>-17.799999237061</ele>
        <time>2021-02-25T09:33:24.000Z</time>
      </trkpt>
      <trkpt lat="47.34451" lon="-2.354">
        <ele>-18.200000762939</ele>
        <time>2021-02-25T09:33:25.000Z</time>
      </trkpt>
      <trkpt lat="47.34453" lon="-2.35401">
        <ele>-18.200000762939</ele>
        <time>2021-02-25T09:33:27.000Z</time>
      </trkpt>
      <trkpt lat="47.34455" lon="-2.35399">
        <ele>-18.200000762939</ele>
        <time>2021-02-25T09:33:29.000Z</time>
      </trkpt>
      <trkpt lat="47.34459" lon="-2.35396">
        <ele>-18.200000762939</ele>
        <time>2021-02-25T09:33:32.000Z</time>
      </trkpt>
      <trkpt lat="47.34459" lon="-2.35396">
        <ele>-18.200000762939</ele>
        <time>2021-02-25T09:33:34.000Z</time>
      </trkpt>
      <trkpt lat="47.34461" lon="-2.35392">
        <ele>-19</ele>
        <time>2021-02-25T09:33:42.000Z</time>
      </trkpt>
      <trkpt lat="47.34462" lon="-2.35389">
        <ele>-18.39999961853</ele>
        <time>2021-02-25T09:33:43.000Z</time>
      </trkpt>
      <trkpt lat="47.34463" lon="-2.35387">
        <ele>-17.60000038147</ele>
        <time>2021-02-25T09:33:44.000Z</time>
      </trkpt>
      <trkpt lat="47.34465" lon="-2.35385">
        <ele>-17</ele>
        <time>2021-02-25T09:33:45.000Z</time>
      </trkpt>
      <trkpt lat="47.34466" lon="-2.35383">
        <ele>-16.200000762939</ele>
        <time>2021-02-25T09:33:46.000Z</time>
      </trkpt>
      <trkpt lat="47.34473" lon="-2.35371">
        <ele>-16.200000762939</ele>
        <time>2021-02-25T09:33:51.000Z</time>
      </trkpt>
      <trkpt lat="47.34482" lon="-2.35356">
        <ele>-16.200000762939</ele>
        <time>2021-02-25T09:33:59.000Z</time>
      </trkpt>
      <trkpt lat="47.34484" lon="-2.35352">
        <ele>-16.200000762939</ele>
        <time>2021-02-25T09:34:01.000Z</time>
      </trkpt>
      <trkpt lat="47.34489" lon="-2.35345">
        <ele>-16.200000762939</ele>
        <time>2021-02-25T09:34:06.000Z</time>
      </trkpt>
      <trkpt lat="47.34491" lon="-2.35337">
        <ele>-15.800000190735</ele>
        <time>2021-02-25T09:34:10.000Z</time>
      </trkpt>
      <trkpt lat="47.34492" lon="-2.35336">
        <ele>-15.39999961853</ele>
        <time>2021-02-25T09:34:11.000Z</time>
      </trkpt>
      <trkpt lat="47.34494" lon="-2.35335">
        <ele>-14.60000038147</ele>
        <time>2021-02-25T09:34:12.000Z</time>
      </trkpt>
      <trkpt lat="47.34495" lon="-2.35335">
        <ele>-14.199999809265</ele>
        <time>2021-02-25T09:34:13.000Z</time>
      </trkpt>
      <trkpt lat="47.34496" lon="-2.35336">
        <ele>-14.199999809265</ele>
        <time>2021-02-25T09:34:14.000Z</time>
      </trkpt>
      <trkpt lat="47.34504" lon="-2.35341">
        <ele>-14.199999809265</ele>
        <time>2021-02-25T09:34:19.000Z</time>
      </trkpt>
      <trkpt lat="47.3452" lon="-2.35348">
        <ele>-14.199999809265</ele>
        <time>2021-02-25T09:34:24.000Z</time>
      </trkpt>
      <trkpt lat="47.34535" lon="-2.35357">
        <ele>-14.199999809265</ele>
        <time>2021-02-25T09:34:29.000Z</time>
      </trkpt>
      <trkpt lat="47.34553" lon="-2.35368">
        <ele>-14.199999809265</ele>
        <time>2021-02-25T09:34:34.000Z</time>
      </trkpt>
      <trkpt lat="47.3457" lon="-2.35369">
        <ele>-14.199999809265</ele>
        <time>2021-02-25T09:34:39.000Z</time>
      </trkpt>
      <trkpt lat="47.34592" lon="-2.3537">
        <ele>-14.199999809265</ele>
        <time>2021-02-25T09:34:46.000Z</time>
      </trkpt>
      <trkpt lat="47.34611" lon="-2.35373">
        <ele>-14.199999809265</ele>
        <time>2021-02-25T09:34:51.000Z</time>
      </trkpt>
      <trkpt lat="47.34615" lon="-2.35376">
        <ele>-14.199999809265</ele>
        <time>2021-02-25T09:34:52.000Z</time>
      </trkpt>
      <trkpt lat="47.34632" lon="-2.35392">
        <ele>-14.199999809265</ele>
        <time>2021-02-25T09:34:56.000Z</time>
      </trkpt>
      <trkpt lat="47.34636" lon="-2.35397">
        <ele>-14.60000038147</ele>
        <time>2021-02-25T09:34:57.000Z</time>
      </trkpt>
      <trkpt lat="47.3464" lon="-2.35402">
        <ele>-15</ele>
        <time>2021-02-25T09:34:58.000Z</time>
      </trkpt>
      <trkpt lat="47.34645" lon="-2.35406">
        <ele>-15.39999961853</ele>
        <time>2021-02-25T09:34:59.000Z</time>
      </trkpt>
      <trkpt lat="47.34648" lon="-2.35406">
        <ele>-15.800000190735</ele>
        <time>2021-02-25T09:35:00.000Z</time>
      </trkpt>
      <trkpt lat="47.34652" lon="-2.35405">
        <ele>-16.200000762939</ele>
        <time>2021-02-25T09:35:01.000Z</time>
      </trkpt>
      <trkpt lat="47.34662" lon="-2.35403">
        <ele>-16.200000762939</ele>
        <time>2021-02-25T09:35:05.000Z</time>
      </trkpt>
      <trkpt lat="47.34673" lon="-2.35399">
        <ele>-16.200000762939</ele>
        <time>2021-02-25T09:35:09.000Z</time>
      </trkpt>
      <trkpt lat="47.34691" lon="-2.35399">
        <ele>-16.200000762939</ele>
        <time>2021-02-25T09:35:14.000Z</time>
      </trkpt>
      <trkpt lat="47.34693" lon="-2.35396">
        <ele>-16.200000762939</ele>
        <time>2021-02-25T09:35:15.000Z</time>
      </trkpt>
      <trkpt lat="47.34699" lon="-2.35392">
        <ele>-16.200000762939</ele>
        <time>2021-02-25T09:35:17.000Z</time>
      </trkpt>
      <trkpt lat="47.34711" lon="-2.35376">
        <ele>-16.200000762939</ele>
        <time>2021-02-25T09:35:22.000Z</time>
      </trkpt>
      <trkpt lat="47.3472" lon="-2.35359">
        <ele>-16.200000762939</ele>
        <time>2021-02-25T09:35:27.000Z</time>
      </trkpt>
      <trkpt lat="47.34723" lon="-2.35344">
        <ele>-16.200000762939</ele>
        <time>2021-02-25T09:35:31.000Z</time>
      </trkpt>
      <trkpt lat="47.34722" lon="-2.35337">
        <ele>-16.200000762939</ele>
        <time>2021-02-25T09:35:33.000Z</time>
      </trkpt>
      <trkpt lat="47.34726" lon="-2.35314">
        <ele>-16.200000762939</ele>
        <time>2021-02-25T09:35:39.000Z</time>
      </trkpt>
      <trkpt lat="47.34738" lon="-2.35288">
        <ele>-16.200000762939</ele>
        <time>2021-02-25T09:35:44.000Z</time>
      </trkpt>
      <trkpt lat="47.3474" lon="-2.35283">
        <ele>-16.200000762939</ele>
        <time>2021-02-25T09:35:45.000Z</time>
      </trkpt>
      <trkpt lat="47.34743" lon="-2.35272">
        <ele>-16.200000762939</ele>
        <time>2021-02-25T09:35:47.000Z</time>
      </trkpt>
      <trkpt lat="47.34747" lon="-2.35251">
        <ele>-16.200000762939</ele>
        <time>2021-02-25T09:35:50.000Z</time>
      </trkpt>
      <trkpt lat="47.34752" lon="-2.3523">
        <ele>-16.200000762939</ele>
        <time>2021-02-25T09:35:53.000Z</time>
      </trkpt>
      <trkpt lat="47.34753" lon="-2.35206">
        <ele>-16.200000762939</ele>
        <time>2021-02-25T09:35:57.000Z</time>
      </trkpt>
      <trkpt lat="47.34757" lon="-2.3519">
        <ele>-16.200000762939</ele>
        <time>2021-02-25T09:36:01.000Z</time>
      </trkpt>
      <trkpt lat="47.34759" lon="-2.35184">
        <ele>-16.200000762939</ele>
        <time>2021-02-25T09:36:05.000Z</time>
      </trkpt>
      <trkpt lat="47.3476" lon="-2.35186">
        <ele>-16.200000762939</ele>
        <time>2021-02-25T09:36:57.000Z</time>
      </trkpt>
      <trkpt lat="47.3476" lon="-2.35197">
        <ele>-16.200000762939</ele>
        <time>2021-02-25T09:37:01.000Z</time>
      </trkpt>
      <trkpt lat="47.3476" lon="-2.35204">
        <ele>-16.200000762939</ele>
        <time>2021-02-25T09:37:03.000Z</time>
      </trkpt>
      <trkpt lat="47.34761" lon="-2.35222">
        <ele>-16.200000762939</ele>
        <time>2021-02-25T09:37:08.000Z</time>
      </trkpt>
      <trkpt lat="47.34755" lon="-2.35252">
        <ele>-16.200000762939</ele>
        <time>2021-02-25T09:37:15.000Z</time>
      </trkpt>
      <trkpt lat="47.34751" lon="-2.3527">
        <ele>-16.200000762939</ele>
        <time>2021-02-25T09:37:19.000Z</time>
      </trkpt>
      <trkpt lat="47.3475" lon="-2.35275">
        <ele>-16.200000762939</ele>
        <time>2021-02-25T09:37:20.000Z</time>
      </trkpt>
      <trkpt lat="47.34743" lon="-2.35293">
        <ele>-16.200000762939</ele>
        <time>2021-02-25T09:37:24.000Z</time>
      </trkpt>
      <trkpt lat="47.34739" lon="-2.353">
        <ele>-16.200000762939</ele>
        <time>2021-02-25T09:37:26.000Z</time>
      </trkpt>
      <trkpt lat="47.34732" lon="-2.35314">
        <ele>-16.200000762939</ele>
        <time>2021-02-25T09:37:29.000Z</time>
      </trkpt>
      <trkpt lat="47.3473" lon="-2.35329">
        <ele>-16.200000762939</ele>
        <time>2021-02-25T09:37:33.000Z</time>
      </trkpt>
      <trkpt lat="47.34731" lon="-2.35347">
        <ele>-16.200000762939</ele>
        <time>2021-02-25T09:37:38.000Z</time>
      </trkpt>
      <trkpt lat="47.34731" lon="-2.35351">
        <ele>-16.200000762939</ele>
        <time>2021-02-25T09:37:39.000Z</time>
      </trkpt>
      <trkpt lat="47.34728" lon="-2.35361">
        <ele>-16.200000762939</ele>
        <time>2021-02-25T09:37:42.000Z</time>
      </trkpt>
      <trkpt lat="47.34716" lon="-2.35378">
        <ele>-16.200000762939</ele>
        <time>2021-02-25T09:37:48.000Z</time>
      </trkpt>
      <trkpt lat="47.34705" lon="-2.3539">
        <ele>-16.200000762939</ele>
        <time>2021-02-25T09:37:52.000Z</time>
      </trkpt>
      <trkpt lat="47.34701" lon="-2.35391">
        <ele>-16.200000762939</ele>
        <time>2021-02-25T09:37:53.000Z</time>
      </trkpt>
      <trkpt lat="47.34694" lon="-2.35393">
        <ele>-16.200000762939</ele>
        <time>2021-02-25T09:37:55.000Z</time>
      </trkpt>
      <trkpt lat="47.34669" lon="-2.354">
        <ele>-16.200000762939</ele>
        <time>2021-02-25T09:38:01.000Z</time>
      </trkpt>
      <trkpt lat="47.3466" lon="-2.35403">
        <ele>-16.200000762939</ele>
        <time>2021-02-25T09:38:04.000Z</time>
      </trkpt>
      <trkpt lat="47.34659" lon="-2.35404">
        <ele>-16.200000762939</ele>
        <time>2021-02-25T09:38:05.000Z</time>
      </trkpt>
      <trkpt lat="47.34662" lon="-2.35412">
        <ele>-16.200000762939</ele>
        <time>2021-02-25T09:38:09.000Z</time>
      </trkpt>
      <trkpt lat="47.34666" lon="-2.35419">
        <ele>-16.200000762939</ele>
        <time>2021-02-25T09:38:12.000Z</time>
      </trkpt>
      <trkpt lat="47.3467" lon="-2.35427">
        <ele>-16.200000762939</ele>
        <time>2021-02-25T09:38:15.000Z</time>
      </trkpt>
      <trkpt lat="47.34685" lon="-2.35454">
        <ele>-16.200000762939</ele>
        <time>2021-02-25T09:38:24.000Z</time>
      </trkpt>
      <trkpt lat="47.34695" lon="-2.35472">
        <ele>-16.200000762939</ele>
        <time>2021-02-25T09:38:30.000Z</time>
      </trkpt>
      <trkpt lat="47.34713" lon="-2.35502">
        <ele>-16.200000762939</ele>
        <time>2021-02-25T09:38:38.000Z</time>
      </trkpt>
      <trkpt lat="47.34735" lon="-2.35538">
        <ele>-16.200000762939</ele>
        <time>2021-02-25T09:38:47.000Z</time>
      </trkpt>
      <trkpt lat="47.34749" lon="-2.35557">
        <ele>-16.200000762939</ele>
        <time>2021-02-25T09:38:51.000Z</time>
      </trkpt>
      <trkpt lat="47.34757" lon="-2.35567">
        <ele>-16.200000762939</ele>
        <time>2021-02-25T09:38:53.000Z</time>
      </trkpt>
      <trkpt lat="47.34778" lon="-2.35595">
        <ele>-16.200000762939</ele>
        <time>2021-02-25T09:38:59.000Z</time>
      </trkpt>
      <trkpt lat="47.34803" lon="-2.35624">
        <ele>-16.200000762939</ele>
        <time>2021-02-25T09:39:07.000Z</time>
      </trkpt>
      <trkpt lat="47.34826" lon="-2.3564">
        <ele>-16.200000762939</ele>
        <time>2021-02-25T09:39:14.000Z</time>
      </trkpt>
      <trkpt lat="47.34845" lon="-2.3565">
        <ele>-15.800000190735</ele>
        <time>2021-02-25T09:39:19.000Z</time>
      </trkpt>
      <trkpt lat="47.34849" lon="-2.35652">
        <ele>-15.39999961853</ele>
        <time>2021-02-25T09:39:20.000Z</time>
      </trkpt>
      <trkpt lat="47.34853" lon="-2.35654">
        <ele>-15</ele>
        <time>2021-02-25T09:39:21.000Z</time>
      </trkpt>
      <trkpt lat="47.34856" lon="-2.35656">
        <ele>-14.60000038147</ele>
        <time>2021-02-25T09:39:22.000Z</time>
      </trkpt>
      <trkpt lat="47.34858" lon="-2.35657">
        <ele>-14.199999809265</ele>
        <time>2021-02-25T09:39:23.000Z</time>
      </trkpt>
      <trkpt lat="47.34859" lon="-2.35657">
        <ele>-14.199999809265</ele>
        <time>2021-02-25T09:39:24.000Z</time>
      </trkpt>
      <trkpt lat="47.34859" lon="-2.35657">
        <ele>-14.199999809265</ele>
        <time>2021-02-25T09:39:25.000Z</time>
      </trkpt>
      <trkpt lat="47.3486" lon="-2.35661">
        <ele>-14.199999809265</ele>
        <time>2021-02-25T09:39:29.000Z</time>
      </trkpt>
      <trkpt lat="47.34859" lon="-2.35666">
        <ele>-14.199999809265</ele>
        <time>2021-02-25T09:39:31.000Z</time>
      </trkpt>
      <trkpt lat="47.34852" lon="-2.35683">
        <ele>-14.199999809265</ele>
        <time>2021-02-25T09:39:36.000Z</time>
      </trkpt>
      <trkpt lat="47.3485" lon="-2.35688">
        <ele>-14.199999809265</ele>
        <time>2021-02-25T09:39:37.000Z</time>
      </trkpt>
      <trkpt lat="47.34839" lon="-2.35715">
        <ele>-14.199999809265</ele>
        <time>2021-02-25T09:39:43.000Z</time>
      </trkpt>
      <trkpt lat="47.34831" lon="-2.35718">
        <ele>-14.199999809265</ele>
        <time>2021-02-25T09:39:47.000Z</time>
      </trkpt>
      <trkpt lat="47.34821" lon="-2.35722">
        <ele>-14.199999809265</ele>
        <time>2021-02-25T09:39:51.000Z</time>
      </trkpt>
      <trkpt lat="47.34803" lon="-2.35731">
        <ele>-14.199999809265</ele>
        <time>2021-02-25T09:39:56.000Z</time>
      </trkpt>
      <trkpt lat="47.34778" lon="-2.35743">
        <ele>-14.199999809265</ele>
        <time>2021-02-25T09:40:02.000Z</time>
      </trkpt>
      <trkpt lat="47.34762" lon="-2.3575">
        <ele>-14.199999809265</ele>
        <time>2021-02-25T09:40:06.000Z</time>
      </trkpt>
      <trkpt lat="47.34754" lon="-2.35755">
        <ele>-14.199999809265</ele>
        <time>2021-02-25T09:40:08.000Z</time>
      </trkpt>
      <trkpt lat="47.34732" lon="-2.35768">
        <ele>-14.199999809265</ele>
        <time>2021-02-25T09:40:13.000Z</time>
      </trkpt>
      <trkpt lat="47.34729" lon="-2.35771">
        <ele>-14.199999809265</ele>
        <time>2021-02-25T09:40:14.000Z</time>
      </trkpt>
      <trkpt lat="47.34697" lon="-2.35797">
        <ele>-14.199999809265</ele>
        <time>2021-02-25T09:40:22.000Z</time>
      </trkpt>
      <trkpt lat="47.34669" lon="-2.35821">
        <ele>-14.199999809265</ele>
        <time>2021-02-25T09:40:28.000Z</time>
      </trkpt>
      <trkpt lat="47.3465" lon="-2.35838">
        <ele>-14.60000038147</ele>
        <time>2021-02-25T09:40:33.000Z</time>
      </trkpt>
      <trkpt lat="47.34648" lon="-2.35839">
        <ele>-15</ele>
        <time>2021-02-25T09:40:34.000Z</time>
      </trkpt>
      <trkpt lat="47.34646" lon="-2.3584">
        <ele>-15.39999961853</ele>
        <time>2021-02-25T09:40:35.000Z</time>
      </trkpt>
      <trkpt lat="47.34644" lon="-2.3584">
        <ele>-15.800000190735</ele>
        <time>2021-02-25T09:40:36.000Z</time>
      </trkpt>
      <trkpt lat="47.34643" lon="-2.35841">
        <ele>-16.200000762939</ele>
        <time>2021-02-25T09:40:37.000Z</time>
      </trkpt>
      <trkpt lat="47.34642" lon="-2.35842">
        <ele>-16.200000762939</ele>
        <time>2021-02-25T09:40:38.000Z</time>
      </trkpt>
      <trkpt lat="47.34633" lon="-2.35851">
        <ele>-16.200000762939</ele>
        <time>2021-02-25T09:40:43.000Z</time>
      </trkpt>
      <trkpt lat="47.3463" lon="-2.35853">
        <ele>-16.200000762939</ele>
        <time>2021-02-25T09:40:44.000Z</time>
      </trkpt>
      <trkpt lat="47.34617" lon="-2.35862">
        <ele>-16.200000762939</ele>
        <time>2021-02-25T09:40:49.000Z</time>
      </trkpt>
      <trkpt lat="47.34599" lon="-2.35879">
        <ele>-16.200000762939</ele>
        <time>2021-02-25T09:40:56.000Z</time>
      </trkpt>
      <trkpt lat="47.3458" lon="-2.35894">
        <ele>-16.200000762939</ele>
        <time>2021-02-25T09:41:02.000Z</time>
      </trkpt>
      <trkpt lat="47.34552" lon="-2.35909">
        <ele>-16.200000762939</ele>
        <time>2021-02-25T09:41:09.000Z</time>
      </trkpt>
      <trkpt lat="47.34519" lon="-2.35922">
        <ele>-16.200000762939</ele>
        <time>2021-02-25T09:41:16.000Z</time>
      </trkpt>
      <trkpt lat="47.34496" lon="-2.35932">
        <ele>-16.200000762939</ele>
        <time>2021-02-25T09:41:22.000Z</time>
      </trkpt>
      <trkpt lat="47.34489" lon="-2.35935">
        <ele>-15.800000190735</ele>
        <time>2021-02-25T09:41:24.000Z</time>
      </trkpt>
      <trkpt lat="47.34486" lon="-2.35937">
        <ele>-15.39999961853</ele>
        <time>2021-02-25T09:41:25.000Z</time>
      </trkpt>
      <trkpt lat="47.34483" lon="-2.35939">
        <ele>-15</ele>
        <time>2021-02-25T09:41:26.000Z</time>
      </trkpt>
      <trkpt lat="47.34479" lon="-2.3594">
        <ele>-14.39999961853</ele>
        <time>2021-02-25T09:41:27.000Z</time>
      </trkpt>
      <trkpt lat="47.34476" lon="-2.35942">
        <ele>-14</ele>
        <time>2021-02-25T09:41:28.000Z</time>
      </trkpt>
      <trkpt lat="47.34472" lon="-2.35944">
        <ele>-14</ele>
        <time>2021-02-25T09:41:29.000Z</time>
      </trkpt>
      <trkpt lat="47.34444" lon="-2.35965">
        <ele>-14</ele>
        <time>2021-02-25T09:41:37.000Z</time>
      </trkpt>
      <trkpt lat="47.34434" lon="-2.35974">
        <ele>-13.60000038147</ele>
        <time>2021-02-25T09:41:40.000Z</time>
      </trkpt>
      <trkpt lat="47.34431" lon="-2.35977">
        <ele>-13.199999809265</ele>
        <time>2021-02-25T09:41:41.000Z</time>
      </trkpt>
      <trkpt lat="47.34428" lon="-2.35979">
        <ele>-12.800000190735</ele>
        <time>2021-02-25T09:41:42.000Z</time>
      </trkpt>
      <trkpt lat="47.34425" lon="-2.35982">
        <ele>-12.39999961853</ele>
        <time>2021-02-25T09:41:43.000Z</time>
      </trkpt>
      <trkpt lat="47.34422" lon="-2.35984">
        <ele>-12</ele>
        <time>2021-02-25T09:41:44.000Z</time>
      </trkpt>
      <trkpt lat="47.34419" lon="-2.35986">
        <ele>-12</ele>
        <time>2021-02-25T09:41:45.000Z</time>
      </trkpt>
      <trkpt lat="47.34407" lon="-2.35999">
        <ele>-12</ele>
        <time>2021-02-25T09:41:50.000Z</time>
      </trkpt>
      <trkpt lat="47.34407" lon="-2.36003">
        <ele>-12</ele>
        <time>2021-02-25T09:41:51.000Z</time>
      </trkpt>
      <trkpt lat="47.34413" lon="-2.36021">
        <ele>-12</ele>
        <time>2021-02-25T09:41:55.000Z</time>
      </trkpt>
      <trkpt lat="47.34416" lon="-2.36031">
        <ele>-12</ele>
        <time>2021-02-25T09:41:57.000Z</time>
      </trkpt>
      <trkpt lat="47.34422" lon="-2.36053">
        <ele>-12</ele>
        <time>2021-02-25T09:42:01.000Z</time>
      </trkpt>
      <trkpt lat="47.34435" lon="-2.36096">
        <ele>-12</ele>
        <time>2021-02-25T09:42:08.000Z</time>
      </trkpt>
      <trkpt lat="47.34437" lon="-2.36101">
        <ele>-12</ele>
        <time>2021-02-25T09:42:09.000Z</time>
      </trkpt>
      <trkpt lat="47.34448" lon="-2.36126">
        <ele>-12</ele>
        <time>2021-02-25T09:42:13.000Z</time>
      </trkpt>
      <trkpt lat="47.34464" lon="-2.3616">
        <ele>-12</ele>
        <time>2021-02-25T09:42:18.000Z</time>
      </trkpt>
      <trkpt lat="47.34468" lon="-2.36168">
        <ele>-12</ele>
        <time>2021-02-25T09:42:19.000Z</time>
      </trkpt>
      <trkpt lat="47.34502" lon="-2.36227">
        <ele>-12</ele>
        <time>2021-02-25T09:42:27.000Z</time>
      </trkpt>
      <trkpt lat="47.34508" lon="-2.36242">
        <ele>-12</ele>
        <time>2021-02-25T09:42:29.000Z</time>
      </trkpt>
      <trkpt lat="47.34512" lon="-2.36265">
        <ele>-12</ele>
        <time>2021-02-25T09:42:32.000Z</time>
      </trkpt>
      <trkpt lat="47.34516" lon="-2.36279">
        <ele>-12</ele>
        <time>2021-02-25T09:42:34.000Z</time>
      </trkpt>
      <trkpt lat="47.34523" lon="-2.36299">
        <ele>-12</ele>
        <time>2021-02-25T09:42:37.000Z</time>
      </trkpt>
      <trkpt lat="47.34538" lon="-2.3634">
        <ele>-12</ele>
        <time>2021-02-25T09:42:43.000Z</time>
      </trkpt>
      <trkpt lat="47.34549" lon="-2.36368">
        <ele>-12</ele>
        <time>2021-02-25T09:42:47.000Z</time>
      </trkpt>
      <trkpt lat="47.3456" lon="-2.36387">
        <ele>-12</ele>
        <time>2021-02-25T09:42:50.000Z</time>
      </trkpt>
      <trkpt lat="47.34585" lon="-2.36426">
        <ele>-12</ele>
        <time>2021-02-25T09:42:57.000Z</time>
      </trkpt>
      <trkpt lat="47.34597" lon="-2.36437">
        <ele>-12</ele>
        <time>2021-02-25T09:43:00.000Z</time>
      </trkpt>
      <trkpt lat="47.34606" lon="-2.36438">
        <ele>-11.60000038147</ele>
        <time>2021-02-25T09:43:02.000Z</time>
      </trkpt>
      <trkpt lat="47.3461" lon="-2.36436">
        <ele>-11.199999809265</ele>
        <time>2021-02-25T09:43:03.000Z</time>
      </trkpt>
      <trkpt lat="47.34615" lon="-2.36434">
        <ele>-10.800000190735</ele>
        <time>2021-02-25T09:43:04.000Z</time>
      </trkpt>
      <trkpt lat="47.3462" lon="-2.36431">
        <ele>-10.39999961853</ele>
        <time>2021-02-25T09:43:05.000Z</time>
      </trkpt>
      <trkpt lat="47.34625" lon="-2.36428">
        <ele>-10</ele>
        <time>2021-02-25T09:43:06.000Z</time>
      </trkpt>
      <trkpt lat="47.34634" lon="-2.36423">
        <ele>-10</ele>
        <time>2021-02-25T09:43:08.000Z</time>
      </trkpt>
      <trkpt lat="47.34647" lon="-2.36416">
        <ele>-10</ele>
        <time>2021-02-25T09:43:11.000Z</time>
      </trkpt>
      <trkpt lat="47.3466" lon="-2.3641">
        <ele>-10</ele>
        <time>2021-02-25T09:43:14.000Z</time>
      </trkpt>
      <trkpt lat="47.34673" lon="-2.36403">
        <ele>-9.3999996185303</ele>
        <time>2021-02-25T09:43:17.000Z</time>
      </trkpt>
      <trkpt lat="47.34678" lon="-2.36401">
        <ele>-9</ele>
        <time>2021-02-25T09:43:18.000Z</time>
      </trkpt>
      <trkpt lat="47.34682" lon="-2.364">
        <ele>-8.6000003814697</ele>
        <time>2021-02-25T09:43:19.000Z</time>
      </trkpt>
      <trkpt lat="47.34688" lon="-2.36398">
        <ele>-8</ele>
        <time>2021-02-25T09:43:20.000Z</time>
      </trkpt>
      <trkpt lat="47.34693" lon="-2.36397">
        <ele>-7.5999999046326</ele>
        <time>2021-02-25T09:43:21.000Z</time>
      </trkpt>
      <trkpt lat="47.34717" lon="-2.36388">
        <ele>-7.5999999046326</ele>
        <time>2021-02-25T09:43:26.000Z</time>
      </trkpt>
      <trkpt lat="47.34726" lon="-2.36383">
        <ele>-7.1999998092651</ele>
        <time>2021-02-25T09:43:28.000Z</time>
      </trkpt>
      <trkpt lat="47.34731" lon="-2.3638">
        <ele>-6.8000001907349</ele>
        <time>2021-02-25T09:43:29.000Z</time>
      </trkpt>
      <trkpt lat="47.34735" lon="-2.36377">
        <ele>-6.4000000953674</ele>
        <time>2021-02-25T09:43:30.000Z</time>
      </trkpt>
      <trkpt lat="47.3474" lon="-2.36374">
        <ele>-6</ele>
        <time>2021-02-25T09:43:31.000Z</time>
      </trkpt>
      <trkpt lat="47.34745" lon="-2.36371">
        <ele>-5.5999999046326</ele>
        <time>2021-02-25T09:43:32.000Z</time>
      </trkpt>
      <trkpt lat="47.3475" lon="-2.36368">
        <ele>-5.5999999046326</ele>
        <time>2021-02-25T09:43:33.000Z</time>
      </trkpt>
      <trkpt lat="47.3478" lon="-2.36346">
        <ele>-5.5999999046326</ele>
        <time>2021-02-25T09:43:39.000Z</time>
      </trkpt>
      <trkpt lat="47.34827" lon="-2.36319">
        <ele>-5.5999999046326</ele>
        <time>2021-02-25T09:43:48.000Z</time>
      </trkpt>
      <trkpt lat="47.34842" lon="-2.36326">
        <ele>-5.5999999046326</ele>
        <time>2021-02-25T09:43:51.000Z</time>
      </trkpt>
      <trkpt lat="47.34847" lon="-2.3633">
        <ele>-5.5999999046326</ele>
        <time>2021-02-25T09:43:52.000Z</time>
      </trkpt>
      <trkpt lat="47.34852" lon="-2.36333">
        <ele>-5.5999999046326</ele>
        <time>2021-02-25T09:43:53.000Z</time>
      </trkpt>
      <trkpt lat="47.34867" lon="-2.36341">
        <ele>-5.5999999046326</ele>
        <time>2021-02-25T09:43:56.000Z</time>
      </trkpt>
      <trkpt lat="47.34904" lon="-2.36363">
        <ele>-5.5999999046326</ele>
        <time>2021-02-25T09:44:03.000Z</time>
      </trkpt>
      <trkpt lat="47.3494" lon="-2.36386">
        <ele>-5.5999999046326</ele>
        <time>2021-02-25T09:44:09.000Z</time>
      </trkpt>
      <trkpt lat="47.34946" lon="-2.3639">
        <ele>-6</ele>
        <time>2021-02-25T09:44:10.000Z</time>
      </trkpt>
      <trkpt lat="47.34953" lon="-2.36395">
        <ele>-6.4000000953674</ele>
        <time>2021-02-25T09:44:11.000Z</time>
      </trkpt>
      <trkpt lat="47.34961" lon="-2.36399">
        <ele>-7</ele>
        <time>2021-02-25T09:44:12.000Z</time>
      </trkpt>
      <trkpt lat="47.34968" lon="-2.36403">
        <ele>-7.4000000953674</ele>
        <time>2021-02-25T09:44:13.000Z</time>
      </trkpt>
      <trkpt lat="47.34976" lon="-2.36408">
        <ele>-7.8000001907349</ele>
        <time>2021-02-25T09:44:14.000Z</time>
      </trkpt>
      <trkpt lat="47.34983" lon="-2.36412">
        <ele>-8.1999998092651</ele>
        <time>2021-02-25T09:44:15.000Z</time>
      </trkpt>
      <trkpt lat="47.34989" lon="-2.36417">
        <ele>-8.8000001907349</ele>
        <time>2021-02-25T09:44:16.000Z</time>
      </trkpt>
      <trkpt lat="47.34996" lon="-2.36423">
        <ele>-9.1999998092651</ele>
        <time>2021-02-25T09:44:17.000Z</time>
      </trkpt>
      <trkpt lat="47.35002" lon="-2.3643">
        <ele>-9.6000003814697</ele>
        <time>2021-02-25T09:44:18.000Z</time>
      </trkpt>
      <trkpt lat="47.35007" lon="-2.36438">
        <ele>-10</ele>
        <time>2021-02-25T09:44:19.000Z</time>
      </trkpt>
      <trkpt lat="47.35015" lon="-2.36456">
        <ele>-10.39999961853</ele>
        <time>2021-02-25T09:44:21.000Z</time>
      </trkpt>
      <trkpt lat="47.35018" lon="-2.36466">
        <ele>-10.800000190735</ele>
        <time>2021-02-25T09:44:22.000Z</time>
      </trkpt>
      <trkpt lat="47.35021" lon="-2.36476">
        <ele>-11.199999809265</ele>
        <time>2021-02-25T09:44:23.000Z</time>
      </trkpt>
      <trkpt lat="47.35024" lon="-2.36486">
        <ele>-11.60000038147</ele>
        <time>2021-02-25T09:44:24.000Z</time>
      </trkpt>
      <trkpt lat="47.35028" lon="-2.36494">
        <ele>-12</ele>
        <time>2021-02-25T09:44:25.000Z</time>
      </trkpt>
      <trkpt lat="47.35036" lon="-2.36511">
        <ele>-12</ele>
        <time>2021-02-25T09:44:27.000Z</time>
      </trkpt>
      <trkpt lat="47.35057" lon="-2.36548">
        <ele>-12</ele>
        <time>2021-02-25T09:44:32.000Z</time>
      </trkpt>
      <trkpt lat="47.3506" lon="-2.36556">
        <ele>-12</ele>
        <time>2021-02-25T09:44:33.000Z</time>
      </trkpt>
      <trkpt lat="47.35075" lon="-2.36598">
        <ele>-11.60000038147</ele>
        <time>2021-02-25T09:44:38.000Z</time>
      </trkpt>
      <trkpt lat="47.35078" lon="-2.36607">
        <ele>-11.199999809265</ele>
        <time>2021-02-25T09:44:39.000Z</time>
      </trkpt>
      <trkpt lat="47.35081" lon="-2.36616">
        <ele>-10.60000038147</ele>
        <time>2021-02-25T09:44:40.000Z</time>
      </trkpt>
      <trkpt lat="47.35083" lon="-2.36624">
        <ele>-10.199999809265</ele>
        <time>2021-02-25T09:44:41.000Z</time>
      </trkpt>
      <trkpt lat="47.35086" lon="-2.36633">
        <ele>-9.8000001907349</ele>
        <time>2021-02-25T09:44:42.000Z</time>
      </trkpt>
      <trkpt lat="47.35105" lon="-2.36691">
        <ele>-9.8000001907349</ele>
        <time>2021-02-25T09:44:49.000Z</time>
      </trkpt>
      <trkpt lat="47.3511" lon="-2.36708">
        <ele>-9.3999996185303</ele>
        <time>2021-02-25T09:44:51.000Z</time>
      </trkpt>
      <trkpt lat="47.35113" lon="-2.36717">
        <ele>-9</ele>
        <time>2021-02-25T09:44:52.000Z</time>
      </trkpt>
      <trkpt lat="47.35115" lon="-2.36726">
        <ele>-8.6000003814697</ele>
        <time>2021-02-25T09:44:53.000Z</time>
      </trkpt>
      <trkpt lat="47.35117" lon="-2.36735">
        <ele>-8.1999998092651</ele>
        <time>2021-02-25T09:44:54.000Z</time>
      </trkpt>
      <trkpt lat="47.35119" lon="-2.36744">
        <ele>-7.8000001907349</ele>
        <time>2021-02-25T09:44:55.000Z</time>
      </trkpt>
      <trkpt lat="47.35124" lon="-2.36761">
        <ele>-7.8000001907349</ele>
        <time>2021-02-25T09:44:57.000Z</time>
      </trkpt>
      <trkpt lat="47.35137" lon="-2.36815">
        <ele>-7.8000001907349</ele>
        <time>2021-02-25T09:45:03.000Z</time>
      </trkpt>
      <trkpt lat="47.35156" lon="-2.36897">
        <ele>-7.8000001907349</ele>
        <time>2021-02-25T09:45:12.000Z</time>
      </trkpt>
      <trkpt lat="47.35179" lon="-2.36952">
        <ele>-7.8000001907349</ele>
        <time>2021-02-25T09:45:19.000Z</time>
      </trkpt>
      <trkpt lat="47.35207" lon="-2.37011">
        <ele>-7.8000001907349</ele>
        <time>2021-02-25T09:45:27.000Z</time>
      </trkpt>
      <trkpt lat="47.35225" lon="-2.37083">
        <ele>-7.8000001907349</ele>
        <time>2021-02-25T09:45:35.000Z</time>
      </trkpt>
      <trkpt lat="47.35238" lon="-2.37146">
        <ele>-7.8000001907349</ele>
        <time>2021-02-25T09:45:42.000Z</time>
      </trkpt>
      <trkpt lat="47.35249" lon="-2.37174">
        <ele>-7.8000001907349</ele>
        <time>2021-02-25T09:45:46.000Z</time>
      </trkpt>
      <trkpt lat="47.35256" lon="-2.37185">
        <ele>-7.8000001907349</ele>
        <time>2021-02-25T09:45:48.000Z</time>
      </trkpt>
      <trkpt lat="47.35273" lon="-2.37214">
        <ele>-7.8000001907349</ele>
        <time>2021-02-25T09:45:54.000Z</time>
      </trkpt>
      <trkpt lat="47.35274" lon="-2.37216">
        <ele>-7.8000001907349</ele>
        <time>2021-02-25T09:45:56.000Z</time>
      </trkpt>
      <trkpt lat="47.35276" lon="-2.37219">
        <ele>-7.8000001907349</ele>
        <time>2021-02-25T09:46:44.000Z</time>
      </trkpt>
      <trkpt lat="47.35277" lon="-2.37222">
        <ele>-7.8000001907349</ele>
        <time>2021-02-25T09:46:45.000Z</time>
      </trkpt>
      <trkpt lat="47.3528" lon="-2.37233">
        <ele>-7.8000001907349</ele>
        <time>2021-02-25T09:46:48.000Z</time>
      </trkpt>
      <trkpt lat="47.35281" lon="-2.37264">
        <ele>-7.8000001907349</ele>
        <time>2021-02-25T09:46:53.000Z</time>
      </trkpt>
      <trkpt lat="47.35282" lon="-2.37308">
        <ele>-7.8000001907349</ele>
        <time>2021-02-25T09:47:00.000Z</time>
      </trkpt>
      <trkpt lat="47.35284" lon="-2.37345">
        <ele>-7.8000001907349</ele>
        <time>2021-02-25T09:47:07.000Z</time>
      </trkpt>
      <trkpt lat="47.35286" lon="-2.37375">
        <ele>-7.8000001907349</ele>
        <time>2021-02-25T09:47:12.000Z</time>
      </trkpt>
      <trkpt lat="47.35286" lon="-2.37388">
        <ele>-7.8000001907349</ele>
        <time>2021-02-25T09:47:14.000Z</time>
      </trkpt>
      <trkpt lat="47.35289" lon="-2.37437">
        <ele>-7.8000001907349</ele>
        <time>2021-02-25T09:47:21.000Z</time>
      </trkpt>
      <trkpt lat="47.35295" lon="-2.37481">
        <ele>-8.1999998092651</ele>
        <time>2021-02-25T09:47:26.000Z</time>
      </trkpt>
      <trkpt lat="47.35296" lon="-2.37491">
        <ele>-8.6000003814697</ele>
        <time>2021-02-25T09:47:27.000Z</time>
      </trkpt>
      <trkpt lat="47.35298" lon="-2.375">
        <ele>-9.1999998092651</ele>
        <time>2021-02-25T09:47:28.000Z</time>
      </trkpt>
      <trkpt lat="47.35299" lon="-2.3751">
        <ele>-9.6000003814697</ele>
        <time>2021-02-25T09:47:29.000Z</time>
      </trkpt>
      <trkpt lat="47.35301" lon="-2.3752">
        <ele>-10</ele>
        <time>2021-02-25T09:47:30.000Z</time>
      </trkpt>
      <trkpt lat="47.35308" lon="-2.3756">
        <ele>-10</ele>
        <time>2021-02-25T09:47:34.000Z</time>
      </trkpt>
      <trkpt lat="47.35326" lon="-2.37635">
        <ele>-10</ele>
        <time>2021-02-25T09:47:42.000Z</time>
      </trkpt>
      <trkpt lat="47.35339" lon="-2.37688">
        <ele>-10</ele>
        <time>2021-02-25T09:47:48.000Z</time>
      </trkpt>
      <trkpt lat="47.35351" lon="-2.37732">
        <ele>-10.39999961853</ele>
        <time>2021-02-25T09:47:53.000Z</time>
      </trkpt>
      <trkpt lat="47.35353" lon="-2.37741">
        <ele>-10.800000190735</ele>
        <time>2021-02-25T09:47:54.000Z</time>
      </trkpt>
      <trkpt lat="47.35356" lon="-2.37749">
        <ele>-11.199999809265</ele>
        <time>2021-02-25T09:47:55.000Z</time>
      </trkpt>
      <trkpt lat="47.35358" lon="-2.37757">
        <ele>-11.800000190735</ele>
        <time>2021-02-25T09:47:56.000Z</time>
      </trkpt>
      <trkpt lat="47.3536" lon="-2.37765">
        <ele>-12.199999809265</ele>
        <time>2021-02-25T09:47:57.000Z</time>
      </trkpt>
      <trkpt lat="47.35374" lon="-2.37813">
        <ele>-12.199999809265</ele>
        <time>2021-02-25T09:48:03.000Z</time>
      </trkpt>
      <trkpt lat="47.35383" lon="-2.37849">
        <ele>-12.199999809265</ele>
        <time>2021-02-25T09:48:09.000Z</time>
      </trkpt>
      <trkpt lat="47.35397" lon="-2.37897">
        <ele>-12.199999809265</ele>
        <time>2021-02-25T09:48:17.000Z</time>
      </trkpt>
      <trkpt lat="47.35413" lon="-2.37954">
        <ele>-12.199999809265</ele>
        <time>2021-02-25T09:48:26.000Z</time>
      </trkpt>
      <trkpt lat="47.3543" lon="-2.38009">
        <ele>-12.199999809265</ele>
        <time>2021-02-25T09:48:35.000Z</time>
      </trkpt>
      <trkpt lat="47.35446" lon="-2.38061">
        <ele>-12.199999809265</ele>
        <time>2021-02-25T09:48:43.000Z</time>
      </trkpt>
      <trkpt lat="47.35447" lon="-2.38068">
        <ele>-12.199999809265</ele>
        <time>2021-02-25T09:48:44.000Z</time>
      </trkpt>
      <trkpt lat="47.35446" lon="-2.38081">
        <ele>-12.199999809265</ele>
        <time>2021-02-25T09:48:46.000Z</time>
      </trkpt>
      <trkpt lat="47.35433" lon="-2.38099">
        <ele>-12.199999809265</ele>
        <time>2021-02-25T09:48:49.000Z</time>
      </trkpt>
      <trkpt lat="47.35403" lon="-2.38142">
        <ele>-12.199999809265</ele>
        <time>2021-02-25T09:48:55.000Z</time>
      </trkpt>
      <trkpt lat="47.35362" lon="-2.38199">
        <ele>-12.199999809265</ele>
        <time>2021-02-25T09:49:02.000Z</time>
      </trkpt>
      <trkpt lat="47.35333" lon="-2.38238">
        <ele>-12.199999809265</ele>
        <time>2021-02-25T09:49:07.000Z</time>
      </trkpt>
      <trkpt lat="47.35327" lon="-2.38246">
        <ele>-12.60000038147</ele>
        <time>2021-02-25T09:49:08.000Z</time>
      </trkpt>
      <trkpt lat="47.35322" lon="-2.38254">
        <ele>-13</ele>
        <time>2021-02-25T09:49:09.000Z</time>
      </trkpt>
      <trkpt lat="47.35316" lon="-2.38262">
        <ele>-13.39999961853</ele>
        <time>2021-02-25T09:49:10.000Z</time>
      </trkpt>
      <trkpt lat="47.3531" lon="-2.38269">
        <ele>-13.800000190735</ele>
        <time>2021-02-25T09:49:11.000Z</time>
      </trkpt>
      <trkpt lat="47.35305" lon="-2.38278">
        <ele>-14.199999809265</ele>
        <time>2021-02-25T09:49:12.000Z</time>
      </trkpt>
      <trkpt lat="47.35294" lon="-2.38293">
        <ele>-14.199999809265</ele>
        <time>2021-02-25T09:49:14.000Z</time>
      </trkpt>
      <trkpt lat="47.35265" lon="-2.38333">
        <ele>-14.60000038147</ele>
        <time>2021-02-25T09:49:19.000Z</time>
      </trkpt>
      <trkpt lat="47.35259" lon="-2.38342">
        <ele>-15</ele>
        <time>2021-02-25T09:49:20.000Z</time>
      </trkpt>
      <trkpt lat="47.35253" lon="-2.38349">
        <ele>-15.39999961853</ele>
        <time>2021-02-25T09:49:21.000Z</time>
      </trkpt>
      <trkpt lat="47.35247" lon="-2.38358">
        <ele>-15.800000190735</ele>
        <time>2021-02-25T09:49:22.000Z</time>
      </trkpt>
      <trkpt lat="47.35241" lon="-2.38365">
        <ele>-16.200000762939</ele>
        <time>2021-02-25T09:49:23.000Z</time>
      </trkpt>
      <trkpt lat="47.35236" lon="-2.38373">
        <ele>-16.200000762939</ele>
        <time>2021-02-25T09:49:24.000Z</time>
      </trkpt>
      <trkpt lat="47.3523" lon="-2.38381">
        <ele>-16.200000762939</ele>
        <time>2021-02-25T09:49:25.000Z</time>
      </trkpt>
      <trkpt lat="47.35198" lon="-2.38425">
        <ele>-16.200000762939</ele>
        <time>2021-02-25T09:49:31.000Z</time>
      </trkpt>
      <trkpt lat="47.35158" lon="-2.38481">
        <ele>-16.200000762939</ele>
        <time>2021-02-25T09:49:39.000Z</time>
      </trkpt>
      <trkpt lat="47.35134" lon="-2.38523">
        <ele>-16.200000762939</ele>
        <time>2021-02-25T09:49:44.000Z</time>
      </trkpt>
      <trkpt lat="47.35105" lon="-2.38585">
        <ele>-16.200000762939</ele>
        <time>2021-02-25T09:49:51.000Z</time>
      </trkpt>
      <trkpt lat="47.3507" lon="-2.38659">
        <ele>-16.200000762939</ele>
        <time>2021-02-25T09:49:59.000Z</time>
      </trkpt>
      <trkpt lat="47.35066" lon="-2.38668">
        <ele>-16.200000762939</ele>
        <time>2021-02-25T09:50:00.000Z</time>
      </trkpt>
      <trkpt lat="47.35035" lon="-2.38732">
        <ele>-16.200000762939</ele>
        <time>2021-02-25T09:50:07.000Z</time>
      </trkpt>
      <trkpt lat="47.35014" lon="-2.38765">
        <ele>-16.200000762939</ele>
        <time>2021-02-25T09:50:11.000Z</time>
      </trkpt>
      <trkpt lat="47.35008" lon="-2.3877">
        <ele>-16.200000762939</ele>
        <time>2021-02-25T09:50:12.000Z</time>
      </trkpt>
      <trkpt lat="47.34984" lon="-2.38794">
        <ele>-16.200000762939</ele>
        <time>2021-02-25T09:50:16.000Z</time>
      </trkpt>
      <trkpt lat="47.34973" lon="-2.3881">
        <ele>-16.200000762939</ele>
        <time>2021-02-25T09:50:18.000Z</time>
      </trkpt>
      <trkpt lat="47.34935" lon="-2.38874">
        <ele>-16.200000762939</ele>
        <time>2021-02-25T09:50:26.000Z</time>
      </trkpt>
      <trkpt lat="47.34925" lon="-2.38893">
        <ele>-16.200000762939</ele>
        <time>2021-02-25T09:50:29.000Z</time>
      </trkpt>
      <trkpt lat="47.34923" lon="-2.38898">
        <ele>-16.200000762939</ele>
        <time>2021-02-25T09:50:30.000Z</time>
      </trkpt>
      <trkpt lat="47.34925" lon="-2.38917">
        <ele>-16.200000762939</ele>
        <time>2021-02-25T09:50:33.000Z</time>
      </trkpt>
      <trkpt lat="47.34931" lon="-2.38929">
        <ele>-16.200000762939</ele>
        <time>2021-02-25T09:50:35.000Z</time>
      </trkpt>
      <trkpt lat="47.34937" lon="-2.38943">
        <ele>-16.200000762939</ele>
        <time>2021-02-25T09:50:37.000Z</time>
      </trkpt>
      <trkpt lat="47.34962" lon="-2.38989">
        <ele>-16.200000762939</ele>
        <time>2021-02-25T09:50:44.000Z</time>
      </trkpt>
      <trkpt lat="47.34991" lon="-2.39045">
        <ele>-16.200000762939</ele>
        <time>2021-02-25T09:50:52.000Z</time>
      </trkpt>
      <trkpt lat="47.35023" lon="-2.39113">
        <ele>-16.200000762939</ele>
        <time>2021-02-25T09:51:01.000Z</time>
      </trkpt>
      <trkpt lat="47.35027" lon="-2.3912">
        <ele>-16.200000762939</ele>
        <time>2021-02-25T09:51:02.000Z</time>
      </trkpt>
      <trkpt lat="47.35036" lon="-2.39144">
        <ele>-16.200000762939</ele>
        <time>2021-02-25T09:51:05.000Z</time>
      </trkpt>
      <trkpt lat="47.35038" lon="-2.39161">
        <ele>-16.200000762939</ele>
        <time>2021-02-25T09:51:07.000Z</time>
      </trkpt>
      <trkpt lat="47.35042" lon="-2.39213">
        <ele>-16.200000762939</ele>
        <time>2021-02-25T09:51:13.000Z</time>
      </trkpt>
      <trkpt lat="47.35042" lon="-2.39222">
        <ele>-16.200000762939</ele>
        <time>2021-02-25T09:51:14.000Z</time>
      </trkpt>
      <trkpt lat="47.35048" lon="-2.39297">
        <ele>-16.200000762939</ele>
        <time>2021-02-25T09:51:22.000Z</time>
      </trkpt>
      <trkpt lat="47.35048" lon="-2.39332">
        <ele>-16.200000762939</ele>
        <time>2021-02-25T09:51:26.000Z</time>
      </trkpt>
      <trkpt lat="47.35047" lon="-2.3934">
        <ele>-16.200000762939</ele>
        <time>2021-02-25T09:51:27.000Z</time>
      </trkpt>
      <trkpt lat="47.35039" lon="-2.39389">
        <ele>-16.200000762939</ele>
        <time>2021-02-25T09:51:33.000Z</time>
      </trkpt>
      <trkpt lat="47.35034" lon="-2.39416">
        <ele>-16.200000762939</ele>
        <time>2021-02-25T09:51:38.000Z</time>
      </trkpt>
      <trkpt lat="47.35034" lon="-2.39422">
        <ele>-16.200000762939</ele>
        <time>2021-02-25T09:51:42.000Z</time>
      </trkpt>
      <trkpt lat="47.35034" lon="-2.39427">
        <ele>-16.200000762939</ele>
        <time>2021-02-25T09:51:50.000Z</time>
      </trkpt>
      <trkpt lat="47.35034" lon="-2.39436">
        <ele>-16.200000762939</ele>
        <time>2021-02-25T09:51:52.000Z</time>
      </trkpt>
      <trkpt lat="47.35034" lon="-2.39476">
        <ele>-16.200000762939</ele>
        <time>2021-02-25T09:52:00.000Z</time>
      </trkpt>
      <trkpt lat="47.35033" lon="-2.39511">
        <ele>-16.200000762939</ele>
        <time>2021-02-25T09:52:08.000Z</time>
      </trkpt>
      <trkpt lat="47.35031" lon="-2.39546">
        <ele>-16.200000762939</ele>
        <time>2021-02-25T09:52:15.000Z</time>
      </trkpt>
      <trkpt lat="47.35029" lon="-2.3959">
        <ele>-16.200000762939</ele>
        <time>2021-02-25T09:52:24.000Z</time>
      </trkpt>
      <trkpt lat="47.35027" lon="-2.3963">
        <ele>-16.200000762939</ele>
        <time>2021-02-25T09:52:31.000Z</time>
      </trkpt>
      <trkpt lat="47.35023" lon="-2.39683">
        <ele>-15.800000190735</ele>
        <time>2021-02-25T09:52:40.000Z</time>
      </trkpt>
      <trkpt lat="47.35022" lon="-2.39689">
        <ele>-15.39999961853</ele>
        <time>2021-02-25T09:52:41.000Z</time>
      </trkpt>
      <trkpt lat="47.35022" lon="-2.39696">
        <ele>-15</ele>
        <time>2021-02-25T09:52:42.000Z</time>
      </trkpt>
      <trkpt lat="47.35022" lon="-2.39702">
        <ele>-14.60000038147</ele>
        <time>2021-02-25T09:52:43.000Z</time>
      </trkpt>
      <trkpt lat="47.35021" lon="-2.39708">
        <ele>-14.199999809265</ele>
        <time>2021-02-25T09:52:44.000Z</time>
      </trkpt>
      <trkpt lat="47.35018" lon="-2.39733">
        <ele>-14.199999809265</ele>
        <time>2021-02-25T09:52:48.000Z</time>
      </trkpt>
      <trkpt lat="47.35013" lon="-2.39786">
        <ele>-14.199999809265</ele>
        <time>2021-02-25T09:52:56.000Z</time>
      </trkpt>
      <trkpt lat="47.35011" lon="-2.39842">
        <ele>-14.199999809265</ele>
        <time>2021-02-25T09:53:04.000Z</time>
      </trkpt>
      <trkpt lat="47.35012" lon="-2.39848">
        <ele>-14.199999809265</ele>
        <time>2021-02-25T09:53:05.000Z</time>
      </trkpt>
      <trkpt lat="47.35017" lon="-2.39871">
        <ele>-14.199999809265</ele>
        <time>2021-02-25T09:53:09.000Z</time>
      </trkpt>
      <trkpt lat="47.35017" lon="-2.39884">
        <ele>-14.199999809265</ele>
        <time>2021-02-25T09:53:11.000Z</time>
      </trkpt>
      <trkpt lat="47.35017" lon="-2.39891">
        <ele>-14.199999809265</ele>
        <time>2021-02-25T09:53:12.000Z</time>
      </trkpt>
      <trkpt lat="47.35015" lon="-2.39904">
        <ele>-14.199999809265</ele>
        <time>2021-02-25T09:53:14.000Z</time>
      </trkpt>
      <trkpt lat="47.35014" lon="-2.3991">
        <ele>-14.199999809265</ele>
        <time>2021-02-25T09:53:15.000Z</time>
      </trkpt>
      <trkpt lat="47.35012" lon="-2.39916">
        <ele>-14.199999809265</ele>
        <time>2021-02-25T09:53:16.000Z</time>
      </trkpt>
      <trkpt lat="47.35004" lon="-2.39934">
        <ele>-14.199999809265</ele>
        <time>2021-02-25T09:53:19.000Z</time>
      </trkpt>
      <trkpt lat="47.34975" lon="-2.39989">
        <ele>-14.199999809265</ele>
        <time>2021-02-25T09:53:29.000Z</time>
      </trkpt>
      <trkpt lat="47.34969" lon="-2.39998">
        <ele>-14.199999809265</ele>
        <time>2021-02-25T09:53:31.000Z</time>
      </trkpt>
      <trkpt lat="47.34954" lon="-2.40012">
        <ele>-14.199999809265</ele>
        <time>2021-02-25T09:53:35.000Z</time>
      </trkpt>
      <trkpt lat="47.34936" lon="-2.40027">
        <ele>-14.199999809265</ele>
        <time>2021-02-25T09:53:40.000Z</time>
      </trkpt>
      <trkpt lat="47.34928" lon="-2.40033">
        <ele>-14.199999809265</ele>
        <time>2021-02-25T09:53:42.000Z</time>
      </trkpt>
      <trkpt lat="47.3492" lon="-2.4004">
        <ele>-14.199999809265</ele>
        <time>2021-02-25T09:53:44.000Z</time>
      </trkpt>
      <trkpt lat="47.34908" lon="-2.40051">
        <ele>-14.199999809265</ele>
        <time>2021-02-25T09:53:47.000Z</time>
      </trkpt>
      <trkpt lat="47.34883" lon="-2.40074">
        <ele>-14.199999809265</ele>
        <time>2021-02-25T09:53:53.000Z</time>
      </trkpt>
      <trkpt lat="47.34879" lon="-2.40078">
        <ele>-14.199999809265</ele>
        <time>2021-02-25T09:53:54.000Z</time>
      </trkpt>
      <trkpt lat="47.34872" lon="-2.40086">
        <ele>-14.199999809265</ele>
        <time>2021-02-25T09:53:56.000Z</time>
      </trkpt>
      <trkpt lat="47.34863" lon="-2.40104">
        <ele>-14.199999809265</ele>
        <time>2021-02-25T09:53:59.000Z</time>
      </trkpt>
      <trkpt lat="47.34859" lon="-2.40124">
        <ele>-14.199999809265</ele>
        <time>2021-02-25T09:54:02.000Z</time>
      </trkpt>
      <trkpt lat="47.34857" lon="-2.40139">
        <ele>-13.800000190735</ele>
        <time>2021-02-25T09:54:04.000Z</time>
      </trkpt>
      <trkpt lat="47.34856" lon="-2.40146">
        <ele>-13.39999961853</ele>
        <time>2021-02-25T09:54:05.000Z</time>
      </trkpt>
      <trkpt lat="47.34855" lon="-2.40152">
        <ele>-13</ele>
        <time>2021-02-25T09:54:06.000Z</time>
      </trkpt>
      <trkpt lat="47.34854" lon="-2.40158">
        <ele>-12.60000038147</ele>
        <time>2021-02-25T09:54:07.000Z</time>
      </trkpt>
      <trkpt lat="47.34854" lon="-2.40164">
        <ele>-12.199999809265</ele>
        <time>2021-02-25T09:54:08.000Z</time>
      </trkpt>
      <trkpt lat="47.34854" lon="-2.40177">
        <ele>-12.199999809265</ele>
        <time>2021-02-25T09:54:10.000Z</time>
      </trkpt>
      <trkpt lat="47.34862" lon="-2.40196">
        <ele>-12.199999809265</ele>
        <time>2021-02-25T09:54:14.000Z</time>
      </trkpt>
      <trkpt lat="47.34879" lon="-2.40215">
        <ele>-12.199999809265</ele>
        <time>2021-02-25T09:54:19.000Z</time>
      </trkpt>
      <trkpt lat="47.34882" lon="-2.4022">
        <ele>-12.199999809265</ele>
        <time>2021-02-25T09:54:20.000Z</time>
      </trkpt>
      <trkpt lat="47.34894" lon="-2.40244">
        <ele>-12.199999809265</ele>
        <time>2021-02-25T09:54:25.000Z</time>
      </trkpt>
      <trkpt lat="47.34897" lon="-2.40264">
        <ele>-12.199999809265</ele>
        <time>2021-02-25T09:54:29.000Z</time>
      </trkpt>
      <trkpt lat="47.34895" lon="-2.40268">
        <ele>-12.199999809265</ele>
        <time>2021-02-25T09:54:30.000Z</time>
      </trkpt>
      <trkpt lat="47.34884" lon="-2.40279">
        <ele>-12.199999809265</ele>
        <time>2021-02-25T09:54:33.000Z</time>
      </trkpt>
      <trkpt lat="47.3488" lon="-2.40283">
        <ele>-12.199999809265</ele>
        <time>2021-02-25T09:54:34.000Z</time>
      </trkpt>
      <trkpt lat="47.34854" lon="-2.40318">
        <ele>-12.199999809265</ele>
        <time>2021-02-25T09:54:42.000Z</time>
      </trkpt>
      <trkpt lat="47.34854" lon="-2.4034">
        <ele>-12.199999809265</ele>
        <time>2021-02-25T09:54:45.000Z</time>
      </trkpt>
      <trkpt lat="47.3486" lon="-2.40362">
        <ele>-12.199999809265</ele>
        <time>2021-02-25T09:54:48.000Z</time>
      </trkpt>
      <trkpt lat="47.34865" lon="-2.40386">
        <ele>-12.199999809265</ele>
        <time>2021-02-25T09:54:51.000Z</time>
      </trkpt>
      <trkpt lat="47.34876" lon="-2.40447">
        <ele>-12.60000038147</ele>
        <time>2021-02-25T09:54:58.000Z</time>
      </trkpt>
      <trkpt lat="47.34877" lon="-2.40457">
        <ele>-13</ele>
        <time>2021-02-25T09:54:59.000Z</time>
      </trkpt>
      <trkpt lat="47.34879" lon="-2.40467">
        <ele>-13.39999961853</ele>
        <time>2021-02-25T09:55:00.000Z</time>
      </trkpt>
      <trkpt lat="47.3488" lon="-2.40478">
        <ele>-13.800000190735</ele>
        <time>2021-02-25T09:55:01.000Z</time>
      </trkpt>
      <trkpt lat="47.34881" lon="-2.40489">
        <ele>-14.199999809265</ele>
        <time>2021-02-25T09:55:02.000Z</time>
      </trkpt>
      <trkpt lat="47.34886" lon="-2.40523">
        <ele>-14.199999809265</ele>
        <time>2021-02-25T09:55:05.000Z</time>
      </trkpt>
      <trkpt lat="47.34887" lon="-2.40535">
        <ele>-14.60000038147</ele>
        <time>2021-02-25T09:55:06.000Z</time>
      </trkpt>
      <trkpt lat="47.34888" lon="-2.40545">
        <ele>-15</ele>
        <time>2021-02-25T09:55:07.000Z</time>
      </trkpt>
      <trkpt lat="47.34887" lon="-2.40555">
        <ele>-15.39999961853</ele>
        <time>2021-02-25T09:55:08.000Z</time>
      </trkpt>
      <trkpt lat="47.34885" lon="-2.40564">
        <ele>-15.800000190735</ele>
        <time>2021-02-25T09:55:09.000Z</time>
      </trkpt>
      <trkpt lat="47.34882" lon="-2.40571">
        <ele>-16.200000762939</ele>
        <time>2021-02-25T09:55:10.000Z</time>
      </trkpt>
      <trkpt lat="47.34871" lon="-2.40584">
        <ele>-16.200000762939</ele>
        <time>2021-02-25T09:55:12.000Z</time>
      </trkpt>
      <trkpt lat="47.3486" lon="-2.40596">
        <ele>-16.200000762939</ele>
        <time>2021-02-25T09:55:14.000Z</time>
      </trkpt>
      <trkpt lat="47.34844" lon="-2.40614">
        <ele>-16.200000762939</ele>
        <time>2021-02-25T09:55:17.000Z</time>
      </trkpt>
      <trkpt lat="47.34839" lon="-2.40622">
        <ele>-16.200000762939</ele>
        <time>2021-02-25T09:55:18.000Z</time>
      </trkpt>
      <trkpt lat="47.34829" lon="-2.40659">
        <ele>-16.200000762939</ele>
        <time>2021-02-25T09:55:22.000Z</time>
      </trkpt>
      <trkpt lat="47.34822" lon="-2.40702">
        <ele>-16.200000762939</ele>
        <time>2021-02-25T09:55:27.000Z</time>
      </trkpt>
      <trkpt lat="47.34822" lon="-2.40719">
        <ele>-16.200000762939</ele>
        <time>2021-02-25T09:55:29.000Z</time>
      </trkpt>
      <trkpt lat="47.34824" lon="-2.40741">
        <ele>-16.200000762939</ele>
        <time>2021-02-25T09:55:32.000Z</time>
      </trkpt>
      <trkpt lat="47.3483" lon="-2.40766">
        <ele>-16.200000762939</ele>
        <time>2021-02-25T09:55:36.000Z</time>
      </trkpt>
      <trkpt lat="47.34834" lon="-2.4077">
        <ele>-16.200000762939</ele>
        <time>2021-02-25T09:55:37.000Z</time>
      </trkpt>
      <trkpt lat="47.34839" lon="-2.40773">
        <ele>-15.800000190735</ele>
        <time>2021-02-25T09:55:38.000Z</time>
      </trkpt>
      <trkpt lat="47.34844" lon="-2.40775">
        <ele>-15.39999961853</ele>
        <time>2021-02-25T09:55:39.000Z</time>
      </trkpt>
      <trkpt lat="47.34848" lon="-2.40775">
        <ele>-15</ele>
        <time>2021-02-25T09:55:40.000Z</time>
      </trkpt>
      <trkpt lat="47.34853" lon="-2.40775">
        <ele>-14.60000038147</ele>
        <time>2021-02-25T09:55:41.000Z</time>
      </trkpt>
      <trkpt lat="47.34858" lon="-2.40775">
        <ele>-14</ele>
        <time>2021-02-25T09:55:42.000Z</time>
      </trkpt>
      <trkpt lat="47.34875" lon="-2.40774">
        <ele>-14</ele>
        <time>2021-02-25T09:55:46.000Z</time>
      </trkpt>
      <trkpt lat="47.34888" lon="-2.40776">
        <ele>-14</ele>
        <time>2021-02-25T09:55:51.000Z</time>
      </trkpt>
      <trkpt lat="47.34905" lon="-2.40775">
        <ele>-14</ele>
        <time>2021-02-25T09:55:57.000Z</time>
      </trkpt>
      <trkpt lat="47.34914" lon="-2.40783">
        <ele>-14</ele>
        <time>2021-02-25T09:56:02.000Z</time>
      </trkpt>
      <trkpt lat="47.34925" lon="-2.40786">
        <ele>-14</ele>
        <time>2021-02-25T09:56:08.000Z</time>
      </trkpt>
      <trkpt lat="47.34928" lon="-2.40783">
        <ele>-14</ele>
        <time>2021-02-25T09:56:10.000Z</time>
      </trkpt>
      <trkpt lat="47.3493" lon="-2.40779">
        <ele>-14</ele>
        <time>2021-02-25T09:56:12.000Z</time>
      </trkpt>
      <trkpt lat="47.34931" lon="-2.40774">
        <ele>-14</ele>
        <time>2021-02-25T09:56:14.000Z</time>
      </trkpt>
      <trkpt lat="47.34931" lon="-2.40772">
        <ele>-14</ele>
        <time>2021-02-25T09:56:16.000Z</time>
      </trkpt>
      <trkpt lat="47.34929" lon="-2.40778">
        <ele>-14</ele>
        <time>2021-02-25T10:07:23.000Z</time>
      </trkpt>
      <trkpt lat="47.34924" lon="-2.40784">
        <ele>-14</ele>
        <time>2021-02-25T10:07:28.000Z</time>
      </trkpt>
      <trkpt lat="47.34922" lon="-2.40784">
        <ele>-14</ele>
        <time>2021-02-25T10:07:29.000Z</time>
      </trkpt>
      <trkpt lat="47.34909" lon="-2.4078">
        <ele>-14</ele>
        <time>2021-02-25T10:07:34.000Z</time>
      </trkpt>
      <trkpt lat="47.34906" lon="-2.40778">
        <ele>-14</ele>
        <time>2021-02-25T10:07:35.000Z</time>
      </trkpt>
      <trkpt lat="47.34903" lon="-2.4078">
        <ele>-14</ele>
        <time>2021-02-25T10:07:36.000Z</time>
      </trkpt>
      <trkpt lat="47.34901" lon="-2.40786">
        <ele>-14</ele>
        <time>2021-02-25T10:07:38.000Z</time>
      </trkpt>
      <trkpt lat="47.34906" lon="-2.408">
        <ele>-14</ele>
        <time>2021-02-25T10:07:42.000Z</time>
      </trkpt>
      <trkpt lat="47.34914" lon="-2.40812">
        <ele>-14</ele>
        <time>2021-02-25T10:07:45.000Z</time>
      </trkpt>
      <trkpt lat="47.34917" lon="-2.4082">
        <ele>-14</ele>
        <time>2021-02-25T10:07:47.000Z</time>
      </trkpt>
      <trkpt lat="47.34925" lon="-2.40834">
        <ele>-14</ele>
        <time>2021-02-25T10:07:50.000Z</time>
      </trkpt>
      <trkpt lat="47.34931" lon="-2.40845">
        <ele>-14</ele>
        <time>2021-02-25T10:07:52.000Z</time>
      </trkpt>
      <trkpt lat="47.34936" lon="-2.40859">
        <ele>-14</ele>
        <time>2021-02-25T10:07:54.000Z</time>
      </trkpt>
      <trkpt lat="47.3494" lon="-2.40881">
        <ele>-14</ele>
        <time>2021-02-25T10:07:57.000Z</time>
      </trkpt>
      <trkpt lat="47.34941" lon="-2.40888">
        <ele>-14</ele>
        <time>2021-02-25T10:07:58.000Z</time>
      </trkpt>
      <trkpt lat="47.34942" lon="-2.40903">
        <ele>-14</ele>
        <time>2021-02-25T10:08:00.000Z</time>
      </trkpt>
      <trkpt lat="47.34943" lon="-2.40925">
        <ele>-14</ele>
        <time>2021-02-25T10:08:03.000Z</time>
      </trkpt>
      <trkpt lat="47.3494" lon="-2.40976">
        <ele>-14</ele>
        <time>2021-02-25T10:08:10.000Z</time>
      </trkpt>
      <trkpt lat="47.34934" lon="-2.41023">
        <ele>-14</ele>
        <time>2021-02-25T10:08:17.000Z</time>
      </trkpt>
      <trkpt lat="47.34938" lon="-2.41054">
        <ele>-14</ele>
        <time>2021-02-25T10:08:22.000Z</time>
      </trkpt>
      <trkpt lat="47.3494" lon="-2.4106">
        <ele>-14</ele>
        <time>2021-02-25T10:08:23.000Z</time>
      </trkpt>
      <trkpt lat="47.3495" lon="-2.41086">
        <ele>-14</ele>
        <time>2021-02-25T10:08:27.000Z</time>
      </trkpt>
      <trkpt lat="47.34969" lon="-2.41138">
        <ele>-14</ele>
        <time>2021-02-25T10:08:34.000Z</time>
      </trkpt>
      <trkpt lat="47.34985" lon="-2.41174">
        <ele>-14</ele>
        <time>2021-02-25T10:08:40.000Z</time>
      </trkpt>
      <trkpt lat="47.34987" lon="-2.4118">
        <ele>-14</ele>
        <time>2021-02-25T10:08:41.000Z</time>
      </trkpt>
      <trkpt lat="47.35" lon="-2.4121">
        <ele>-14</ele>
        <time>2021-02-25T10:08:46.000Z</time>
      </trkpt>
      <trkpt lat="47.35018" lon="-2.41257">
        <ele>-14</ele>
        <time>2021-02-25T10:08:53.000Z</time>
      </trkpt>
      <trkpt lat="47.35031" lon="-2.41297">
        <ele>-14</ele>
        <time>2021-02-25T10:08:59.000Z</time>
      </trkpt>
      <trkpt lat="47.35042" lon="-2.41328">
        <ele>-14</ele>
        <time>2021-02-25T10:09:04.000Z</time>
      </trkpt>
      <trkpt lat="47.35045" lon="-2.41335">
        <ele>-14</ele>
        <time>2021-02-25T10:09:05.000Z</time>
      </trkpt>
      <trkpt lat="47.35068" lon="-2.41389">
        <ele>-14</ele>
        <time>2021-02-25T10:09:13.000Z</time>
      </trkpt>
      <trkpt lat="47.35071" lon="-2.41394">
        <ele>-14</ele>
        <time>2021-02-25T10:09:14.000Z</time>
      </trkpt>
      <trkpt lat="47.35075" lon="-2.41408">
        <ele>-14</ele>
        <time>2021-02-25T10:09:17.000Z</time>
      </trkpt>
      <trkpt lat="47.35064" lon="-2.41416">
        <ele>-14</ele>
        <time>2021-02-25T10:09:21.000Z</time>
      </trkpt>
      <trkpt lat="47.35045" lon="-2.41426">
        <ele>-14</ele>
        <time>2021-02-25T10:09:26.000Z</time>
      </trkpt>
      <trkpt lat="47.35019" lon="-2.41439">
        <ele>-14</ele>
        <time>2021-02-25T10:09:32.000Z</time>
      </trkpt>
      <trkpt lat="47.35014" lon="-2.41441">
        <ele>-14</ele>
        <time>2021-02-25T10:09:33.000Z</time>
      </trkpt>
      <trkpt lat="47.34977" lon="-2.41456">
        <ele>-14</ele>
        <time>2021-02-25T10:09:41.000Z</time>
      </trkpt>
      <trkpt lat="47.34939" lon="-2.41467">
        <ele>-14</ele>
        <time>2021-02-25T10:09:49.000Z</time>
      </trkpt>
      <trkpt lat="47.34901" lon="-2.41479">
        <ele>-14</ele>
        <time>2021-02-25T10:09:57.000Z</time>
      </trkpt>
      <trkpt lat="47.34873" lon="-2.41487">
        <ele>-14</ele>
        <time>2021-02-25T10:10:03.000Z</time>
      </trkpt>
      <trkpt lat="47.34853" lon="-2.41492">
        <ele>-14</ele>
        <time>2021-02-25T10:10:07.000Z</time>
      </trkpt>
      <trkpt lat="47.34839" lon="-2.41496">
        <ele>-14</ele>
        <time>2021-02-25T10:10:10.000Z</time>
      </trkpt>
      <trkpt lat="47.34813" lon="-2.41506">
        <ele>-14</ele>
        <time>2021-02-25T10:10:16.000Z</time>
      </trkpt>
      <trkpt lat="47.34808" lon="-2.41508">
        <ele>-14</ele>
        <time>2021-02-25T10:10:17.000Z</time>
      </trkpt>
      <trkpt lat="47.34776" lon="-2.41518">
        <ele>-14</ele>
        <time>2021-02-25T10:10:23.000Z</time>
      </trkpt>
      <trkpt lat="47.34738" lon="-2.41527">
        <ele>-14</ele>
        <time>2021-02-25T10:10:30.000Z</time>
      </trkpt>
      <trkpt lat="47.34726" lon="-2.41532">
        <ele>-13.60000038147</ele>
        <time>2021-02-25T10:10:33.000Z</time>
      </trkpt>
      <trkpt lat="47.34723" lon="-2.41533">
        <ele>-13.199999809265</ele>
        <time>2021-02-25T10:10:34.000Z</time>
      </trkpt>
      <trkpt lat="47.34718" lon="-2.41534">
        <ele>-12.800000190735</ele>
        <time>2021-02-25T10:10:35.000Z</time>
      </trkpt>
      <trkpt lat="47.34714" lon="-2.41535">
        <ele>-12.39999961853</ele>
        <time>2021-02-25T10:10:36.000Z</time>
      </trkpt>
      <trkpt lat="47.3471" lon="-2.41536">
        <ele>-12</ele>
        <time>2021-02-25T10:10:37.000Z</time>
      </trkpt>
      <trkpt lat="47.34694" lon="-2.41542">
        <ele>-12</ele>
        <time>2021-02-25T10:10:41.000Z</time>
      </trkpt>
      <trkpt lat="47.34671" lon="-2.41549">
        <ele>-11.60000038147</ele>
        <time>2021-02-25T10:10:47.000Z</time>
      </trkpt>
      <trkpt lat="47.34667" lon="-2.4155">
        <ele>-11.199999809265</ele>
        <time>2021-02-25T10:10:48.000Z</time>
      </trkpt>
      <trkpt lat="47.34663" lon="-2.41551">
        <ele>-10.800000190735</ele>
        <time>2021-02-25T10:10:49.000Z</time>
      </trkpt>
      <trkpt lat="47.34659" lon="-2.41553">
        <ele>-10.39999961853</ele>
        <time>2021-02-25T10:10:50.000Z</time>
      </trkpt>
      <trkpt lat="47.34654" lon="-2.41554">
        <ele>-10</ele>
        <time>2021-02-25T10:10:51.000Z</time>
      </trkpt>
      <trkpt lat="47.34641" lon="-2.41559">
        <ele>-10</ele>
        <time>2021-02-25T10:10:54.000Z</time>
      </trkpt>
      <trkpt lat="47.34607" lon="-2.41574">
        <ele>-10</ele>
        <time>2021-02-25T10:11:01.000Z</time>
      </trkpt>
      <trkpt lat="47.34573" lon="-2.41589">
        <ele>-10</ele>
        <time>2021-02-25T10:11:08.000Z</time>
      </trkpt>
      <trkpt lat="47.34539" lon="-2.416">
        <ele>-10</ele>
        <time>2021-02-25T10:11:15.000Z</time>
      </trkpt>
      <trkpt lat="47.34509" lon="-2.41611">
        <ele>-10</ele>
        <time>2021-02-25T10:11:22.000Z</time>
      </trkpt>
      <trkpt lat="47.34471" lon="-2.41634">
        <ele>-9.6000003814697</ele>
        <time>2021-02-25T10:11:31.000Z</time>
      </trkpt>
      <trkpt lat="47.34467" lon="-2.41636">
        <ele>-9.1999998092651</ele>
        <time>2021-02-25T10:11:32.000Z</time>
      </trkpt>
      <trkpt lat="47.34462" lon="-2.4164">
        <ele>-8.8000001907349</ele>
        <time>2021-02-25T10:11:33.000Z</time>
      </trkpt>
      <trkpt lat="47.34458" lon="-2.41644">
        <ele>-8.3999996185303</ele>
        <time>2021-02-25T10:11:34.000Z</time>
      </trkpt>
      <trkpt lat="47.34454" lon="-2.41647">
        <ele>-8</ele>
        <time>2021-02-25T10:11:35.000Z</time>
      </trkpt>
      <trkpt lat="47.34446" lon="-2.41656">
        <ele>-8</ele>
        <time>2021-02-25T10:11:37.000Z</time>
      </trkpt>
      <trkpt lat="47.34427" lon="-2.41684">
        <ele>-8</ele>
        <time>2021-02-25T10:11:43.000Z</time>
      </trkpt>
      <trkpt lat="47.34423" lon="-2.41688">
        <ele>-8</ele>
        <time>2021-02-25T10:11:44.000Z</time>
      </trkpt>
      <trkpt lat="47.34411" lon="-2.41697">
        <ele>-8</ele>
        <time>2021-02-25T10:11:47.000Z</time>
      </trkpt>
      <trkpt lat="47.34407" lon="-2.417">
        <ele>-8</ele>
        <time>2021-02-25T10:11:48.000Z</time>
      </trkpt>
      <trkpt lat="47.34382" lon="-2.41714">
        <ele>-7.5999999046326</ele>
        <time>2021-02-25T10:11:54.000Z</time>
      </trkpt>
      <trkpt lat="47.34378" lon="-2.41716">
        <ele>-7.1999998092651</ele>
        <time>2021-02-25T10:11:55.000Z</time>
      </trkpt>
      <trkpt lat="47.34373" lon="-2.41719">
        <ele>-6.8000001907349</ele>
        <time>2021-02-25T10:11:56.000Z</time>
      </trkpt>
      <trkpt lat="47.34369" lon="-2.41722">
        <ele>-6.4000000953674</ele>
        <time>2021-02-25T10:11:57.000Z</time>
      </trkpt>
      <trkpt lat="47.34365" lon="-2.41724">
        <ele>-6</ele>
        <time>2021-02-25T10:11:58.000Z</time>
      </trkpt>
      <trkpt lat="47.34353" lon="-2.4173">
        <ele>-6</ele>
        <time>2021-02-25T10:12:01.000Z</time>
      </trkpt>
      <trkpt lat="47.34336" lon="-2.41739">
        <ele>-5.5999999046326</ele>
        <time>2021-02-25T10:12:06.000Z</time>
      </trkpt>
      <trkpt lat="47.34332" lon="-2.41741">
        <ele>-5.1999998092651</ele>
        <time>2021-02-25T10:12:07.000Z</time>
      </trkpt>
      <trkpt lat="47.34327" lon="-2.41743">
        <ele>-4.8000001907349</ele>
        <time>2021-02-25T10:12:08.000Z</time>
      </trkpt>
      <trkpt lat="47.34322" lon="-2.41745">
        <ele>-4.4000000953674</ele>
        <time>2021-02-25T10:12:09.000Z</time>
      </trkpt>
      <trkpt lat="47.34317" lon="-2.41747">
        <ele>-4</ele>
        <time>2021-02-25T10:12:10.000Z</time>
      </trkpt>
      <trkpt lat="47.34303" lon="-2.41754">
        <ele>-4</ele>
        <time>2021-02-25T10:12:13.000Z</time>
      </trkpt>
      <trkpt lat="47.34287" lon="-2.41762">
        <ele>-4</ele>
        <time>2021-02-25T10:12:17.000Z</time>
      </trkpt>
      <trkpt lat="47.34276" lon="-2.4177">
        <ele>-4</ele>
        <time>2021-02-25T10:12:20.000Z</time>
      </trkpt>
      <trkpt lat="47.34261" lon="-2.4178">
        <ele>-3.5999999046326</ele>
        <time>2021-02-25T10:12:24.000Z</time>
      </trkpt>
      <trkpt lat="47.34258" lon="-2.41782">
        <ele>-3.2000000476837</ele>
        <time>2021-02-25T10:12:25.000Z</time>
      </trkpt>
      <trkpt lat="47.34254" lon="-2.41784">
        <ele>-2.7999999523163</ele>
        <time>2021-02-25T10:12:26.000Z</time>
      </trkpt>
      <trkpt lat="47.3425" lon="-2.41785">
        <ele>-2.2000000476837</ele>
        <time>2021-02-25T10:12:27.000Z</time>
      </trkpt>
      <trkpt lat="47.34246" lon="-2.41786">
        <ele>-1.7999999523163</ele>
        <time>2021-02-25T10:12:28.000Z</time>
      </trkpt>
      <trkpt lat="47.34235" lon="-2.4178">
        <ele>-1.7999999523163</ele>
        <time>2021-02-25T10:12:31.000Z</time>
      </trkpt>
      <trkpt lat="47.34232" lon="-2.41775">
        <ele>-1.7999999523163</ele>
        <time>2021-02-25T10:12:32.000Z</time>
      </trkpt>
      <trkpt lat="47.34224" lon="-2.4175">
        <ele>-1.7999999523163</ele>
        <time>2021-02-25T10:12:36.000Z</time>
      </trkpt>
      <trkpt lat="47.34214" lon="-2.4171">
        <ele>-1.7999999523163</ele>
        <time>2021-02-25T10:12:42.000Z</time>
      </trkpt>
      <trkpt lat="47.34212" lon="-2.41704">
        <ele>-1.7999999523163</ele>
        <time>2021-02-25T10:12:43.000Z</time>
      </trkpt>
      <trkpt lat="47.34196" lon="-2.41691">
        <ele>-1.7999999523163</ele>
        <time>2021-02-25T10:12:47.000Z</time>
      </trkpt>
      <trkpt lat="47.34182" lon="-2.41702">
        <ele>-1.7999999523163</ele>
        <time>2021-02-25T10:12:50.000Z</time>
      </trkpt>
      <trkpt lat="47.3416" lon="-2.41729">
        <ele>-1.7999999523163</ele>
        <time>2021-02-25T10:12:56.000Z</time>
      </trkpt>
      <trkpt lat="47.34128" lon="-2.41759">
        <ele>-1.7999999523163</ele>
        <time>2021-02-25T10:13:04.000Z</time>
      </trkpt>
      <trkpt lat="47.34124" lon="-2.41763">
        <ele>-1.3999999761581</ele>
        <time>2021-02-25T10:13:05.000Z</time>
      </trkpt>
      <trkpt lat="47.34119" lon="-2.41767">
        <ele>-1</ele>
        <time>2021-02-25T10:13:06.000Z</time>
      </trkpt>
      <trkpt lat="47.34115" lon="-2.4177">
        <ele>-0.60000002384186</ele>
        <time>2021-02-25T10:13:07.000Z</time>
      </trkpt>
      <trkpt lat="47.34111" lon="-2.41774">
        <ele>-0.20000000298023</ele>
        <time>2021-02-25T10:13:08.000Z</time>
      </trkpt>
      <trkpt lat="47.34107" lon="-2.41777">
        <ele>0.20000000298023</ele>
        <time>2021-02-25T10:13:09.000Z</time>
      </trkpt>
      <trkpt lat="47.34095" lon="-2.41788">
        <ele>0.20000000298023</ele>
        <time>2021-02-25T10:13:12.000Z</time>
      </trkpt>
      <trkpt lat="47.34069" lon="-2.41815">
        <ele>0.60000002384186</ele>
        <time>2021-02-25T10:13:19.000Z</time>
      </trkpt>
      <trkpt lat="47.34065" lon="-2.4182">
        <ele>1</ele>
        <time>2021-02-25T10:13:20.000Z</time>
      </trkpt>
      <trkpt lat="47.34062" lon="-2.41824">
        <ele>1.3999999761581</ele>
        <time>2021-02-25T10:13:21.000Z</time>
      </trkpt>
      <trkpt lat="47.34059" lon="-2.41829">
        <ele>1.7999999523163</ele>
        <time>2021-02-25T10:13:22.000Z</time>
      </trkpt>
      <trkpt lat="47.34056" lon="-2.41833">
        <ele>2.2000000476837</ele>
        <time>2021-02-25T10:13:23.000Z</time>
      </trkpt>
      <trkpt lat="47.34039" lon="-2.41858">
        <ele>2.2000000476837</ele>
        <time>2021-02-25T10:13:28.000Z</time>
      </trkpt>
      <trkpt lat="47.34016" lon="-2.41894">
        <ele>2.2000000476837</ele>
        <time>2021-02-25T10:13:35.000Z</time>
      </trkpt>
      <trkpt lat="47.34002" lon="-2.41914">
        <ele>2.5999999046326</ele>
        <time>2021-02-25T10:13:39.000Z</time>
      </trkpt>
      <trkpt lat="47.33998" lon="-2.41919">
        <ele>3</ele>
        <time>2021-02-25T10:13:40.000Z</time>
      </trkpt>
      <trkpt lat="47.33995" lon="-2.41924">
        <ele>3.4000000953674</ele>
        <time>2021-02-25T10:13:41.000Z</time>
      </trkpt>
      <trkpt lat="47.33991" lon="-2.41929">
        <ele>3.7999999523163</ele>
        <time>2021-02-25T10:13:42.000Z</time>
      </trkpt>
      <trkpt lat="47.33987" lon="-2.41935">
        <ele>4.1999998092651</ele>
        <time>2021-02-25T10:13:43.000Z</time>
      </trkpt>
      <trkpt lat="47.33984" lon="-2.4194">
        <ele>4.1999998092651</ele>
        <time>2021-02-25T10:13:44.000Z</time>
      </trkpt>
      <trkpt lat="47.33964" lon="-2.41968">
        <ele>4.1999998092651</ele>
        <time>2021-02-25T10:13:49.000Z</time>
      </trkpt>
      <trkpt lat="47.33943" lon="-2.41994">
        <ele>4.1999998092651</ele>
        <time>2021-02-25T10:13:54.000Z</time>
      </trkpt>
      <trkpt lat="47.3391" lon="-2.42026">
        <ele>4.5999999046326</ele>
        <time>2021-02-25T10:14:01.000Z</time>
      </trkpt>
      <trkpt lat="47.33905" lon="-2.4203">
        <ele>5.4000000953674</ele>
        <time>2021-02-25T10:14:02.000Z</time>
      </trkpt>
      <trkpt lat="47.339" lon="-2.42034">
        <ele>5.8000001907349</ele>
        <time>2021-02-25T10:14:03.000Z</time>
      </trkpt>
      <trkpt lat="47.33896" lon="-2.42039">
        <ele>6.4000000953674</ele>
        <time>2021-02-25T10:14:04.000Z</time>
      </trkpt>
      <trkpt lat="47.33872" lon="-2.42058">
        <ele>6.4000000953674</ele>
        <time>2021-02-25T10:14:09.000Z</time>
      </trkpt>
      <trkpt lat="47.33833" lon="-2.42083">
        <ele>6.4000000953674</ele>
        <time>2021-02-25T10:14:17.000Z</time>
      </trkpt>
      <trkpt lat="47.33825" lon="-2.42089">
        <ele>6.4000000953674</ele>
        <time>2021-02-25T10:14:19.000Z</time>
      </trkpt>
      <trkpt lat="47.3382" lon="-2.421">
        <ele>6.4000000953674</ele>
        <time>2021-02-25T10:14:21.000Z</time>
      </trkpt>
      <trkpt lat="47.3382" lon="-2.42121">
        <ele>6.4000000953674</ele>
        <time>2021-02-25T10:14:24.000Z</time>
      </trkpt>
      <trkpt lat="47.33822" lon="-2.42129">
        <ele>6.4000000953674</ele>
        <time>2021-02-25T10:14:25.000Z</time>
      </trkpt>
      <trkpt lat="47.33824" lon="-2.42143">
        <ele>6.8000001907349</ele>
        <time>2021-02-25T10:14:27.000Z</time>
      </trkpt>
      <trkpt lat="47.33825" lon="-2.42151">
        <ele>7.1999998092651</ele>
        <time>2021-02-25T10:14:28.000Z</time>
      </trkpt>
      <trkpt lat="47.33826" lon="-2.42158">
        <ele>7.5999999046326</ele>
        <time>2021-02-25T10:14:29.000Z</time>
      </trkpt>
      <trkpt lat="47.33826" lon="-2.42165">
        <ele>8</ele>
        <time>2021-02-25T10:14:30.000Z</time>
      </trkpt>
      <trkpt lat="47.33827" lon="-2.42172">
        <ele>8.3999996185303</ele>
        <time>2021-02-25T10:14:31.000Z</time>
      </trkpt>
      <trkpt lat="47.33828" lon="-2.42179">
        <ele>8.3999996185303</ele>
        <time>2021-02-25T10:14:32.000Z</time>
      </trkpt>
      <trkpt lat="47.33836" lon="-2.42239">
        <ele>8.3999996185303</ele>
        <time>2021-02-25T10:14:41.000Z</time>
      </trkpt>
      <trkpt lat="47.33837" lon="-2.42251">
        <ele>9</ele>
        <time>2021-02-25T10:14:43.000Z</time>
      </trkpt>
      <trkpt lat="47.33838" lon="-2.42258">
        <ele>9.3999996185303</ele>
        <time>2021-02-25T10:14:44.000Z</time>
      </trkpt>
      <trkpt lat="47.33838" lon="-2.42264">
        <ele>9.8000001907349</ele>
        <time>2021-02-25T10:14:45.000Z</time>
      </trkpt>
      <trkpt lat="47.33839" lon="-2.42271">
        <ele>10.39999961853</ele>
        <time>2021-02-25T10:14:46.000Z</time>
      </trkpt>
      <trkpt lat="47.3384" lon="-2.42277">
        <ele>10.800000190735</ele>
        <time>2021-02-25T10:14:47.000Z</time>
      </trkpt>
      <trkpt lat="47.33842" lon="-2.42289">
        <ele>10.800000190735</ele>
        <time>2021-02-25T10:14:49.000Z</time>
      </trkpt>
      <trkpt lat="47.3385" lon="-2.42334">
        <ele>10.800000190735</ele>
        <time>2021-02-25T10:14:56.000Z</time>
      </trkpt>
      <trkpt lat="47.33851" lon="-2.42347">
        <ele>11.199999809265</ele>
        <time>2021-02-25T10:14:58.000Z</time>
      </trkpt>
      <trkpt lat="47.33852" lon="-2.42353">
        <ele>11.60000038147</ele>
        <time>2021-02-25T10:14:59.000Z</time>
      </trkpt>
      <trkpt lat="47.33853" lon="-2.4236">
        <ele>12</ele>
        <time>2021-02-25T10:15:00.000Z</time>
      </trkpt>
      <trkpt lat="47.33854" lon="-2.42366">
        <ele>12.39999961853</ele>
        <time>2021-02-25T10:15:01.000Z</time>
      </trkpt>
      <trkpt lat="47.33855" lon="-2.42373">
        <ele>12.800000190735</ele>
        <time>2021-02-25T10:15:02.000Z</time>
      </trkpt>
      <trkpt lat="47.33855" lon="-2.42379">
        <ele>12.800000190735</ele>
        <time>2021-02-25T10:15:03.000Z</time>
      </trkpt>
      <trkpt lat="47.33859" lon="-2.42404">
        <ele>12.800000190735</ele>
        <time>2021-02-25T10:15:08.000Z</time>
      </trkpt>
      <trkpt lat="47.33865" lon="-2.42425">
        <ele>12.800000190735</ele>
        <time>2021-02-25T10:15:13.000Z</time>
      </trkpt>
      <trkpt lat="47.3387" lon="-2.42436">
        <ele>12</ele>
        <time>2021-02-25T10:15:16.000Z</time>
      </trkpt>
      <trkpt lat="47.3387" lon="-2.42439">
        <ele>11.60000038147</ele>
        <time>2021-02-25T10:15:17.000Z</time>
      </trkpt>
      <trkpt lat="47.33868" lon="-2.42441">
        <ele>11.199999809265</ele>
        <time>2021-02-25T10:15:18.000Z</time>
      </trkpt>
      <trkpt lat="47.33866" lon="-2.42442">
        <ele>10.800000190735</ele>
        <time>2021-02-25T10:15:19.000Z</time>
      </trkpt>
      <trkpt lat="47.33859" lon="-2.4244">
        <ele>10.800000190735</ele>
        <time>2021-02-25T10:15:21.000Z</time>
      </trkpt>
      <trkpt lat="47.33846" lon="-2.4244">
        <ele>10.800000190735</ele>
        <time>2021-02-25T10:15:25.000Z</time>
      </trkpt>
      <trkpt lat="47.33848" lon="-2.42449">
        <ele>10.800000190735</ele>
        <time>2021-02-25T10:15:28.000Z</time>
      </trkpt>
      <trkpt lat="47.33847" lon="-2.42466">
        <ele>10.800000190735</ele>
        <time>2021-02-25T10:15:31.000Z</time>
      </trkpt>
      <trkpt lat="47.33845" lon="-2.42472">
        <ele>10.39999961853</ele>
        <time>2021-02-25T10:15:32.000Z</time>
      </trkpt>
      <trkpt lat="47.33843" lon="-2.42479">
        <ele>9.8000001907349</ele>
        <time>2021-02-25T10:15:33.000Z</time>
      </trkpt>
      <trkpt lat="47.33841" lon="-2.42486">
        <ele>9.3999996185303</ele>
        <time>2021-02-25T10:15:34.000Z</time>
      </trkpt>
      <trkpt lat="47.33838" lon="-2.42493">
        <ele>8.8000001907349</ele>
        <time>2021-02-25T10:15:35.000Z</time>
      </trkpt>
      <trkpt lat="47.33836" lon="-2.42501">
        <ele>8.3999996185303</ele>
        <time>2021-02-25T10:15:36.000Z</time>
      </trkpt>
      <trkpt lat="47.33834" lon="-2.42509">
        <ele>8.3999996185303</ele>
        <time>2021-02-25T10:15:37.000Z</time>
      </trkpt>
      <trkpt lat="47.3383" lon="-2.42524">
        <ele>8.3999996185303</ele>
        <time>2021-02-25T10:15:39.000Z</time>
      </trkpt>
      <trkpt lat="47.33824" lon="-2.42544">
        <ele>8.3999996185303</ele>
        <time>2021-02-25T10:15:42.000Z</time>
      </trkpt>
      <trkpt lat="47.33822" lon="-2.42551">
        <ele>8.3999996185303</ele>
        <time>2021-02-25T10:15:43.000Z</time>
      </trkpt>
      <trkpt lat="47.33819" lon="-2.42563">
        <ele>8.8000001907349</ele>
        <time>2021-02-25T10:15:45.000Z</time>
      </trkpt>
      <trkpt lat="47.33817" lon="-2.42569">
        <ele>9.1999998092651</ele>
        <time>2021-02-25T10:15:46.000Z</time>
      </trkpt>
      <trkpt lat="47.33816" lon="-2.42575">
        <ele>9.6000003814697</ele>
        <time>2021-02-25T10:15:47.000Z</time>
      </trkpt>
      <trkpt lat="47.33815" lon="-2.42581">
        <ele>10</ele>
        <time>2021-02-25T10:15:48.000Z</time>
      </trkpt>
      <trkpt lat="47.33814" lon="-2.42587">
        <ele>10.39999961853</ele>
        <time>2021-02-25T10:15:49.000Z</time>
      </trkpt>
      <trkpt lat="47.33811" lon="-2.42605">
        <ele>10.800000190735</ele>
        <time>2021-02-25T10:15:52.000Z</time>
      </trkpt>
      <trkpt lat="47.33809" lon="-2.42611">
        <ele>11.39999961853</ele>
        <time>2021-02-25T10:15:53.000Z</time>
      </trkpt>
      <trkpt lat="47.33809" lon="-2.42617">
        <ele>11.800000190735</ele>
        <time>2021-02-25T10:15:54.000Z</time>
      </trkpt>
      <trkpt lat="47.33807" lon="-2.42623">
        <ele>12.199999809265</ele>
        <time>2021-02-25T10:15:55.000Z</time>
      </trkpt>
      <trkpt lat="47.33806" lon="-2.4263">
        <ele>12.60000038147</ele>
        <time>2021-02-25T10:15:56.000Z</time>
      </trkpt>
      <trkpt lat="47.33798" lon="-2.42664">
        <ele>12.60000038147</ele>
        <time>2021-02-25T10:16:01.000Z</time>
      </trkpt>
      <trkpt lat="47.33788" lon="-2.42711">
        <ele>12.60000038147</ele>
        <time>2021-02-25T10:16:08.000Z</time>
      </trkpt>
      <trkpt lat="47.33786" lon="-2.42718">
        <ele>12.60000038147</ele>
        <time>2021-02-25T10:16:09.000Z</time>
      </trkpt>
      <trkpt lat="47.33777" lon="-2.42761">
        <ele>12.60000038147</ele>
        <time>2021-02-25T10:16:15.000Z</time>
      </trkpt>
      <trkpt lat="47.33776" lon="-2.42789">
        <ele>12.60000038147</ele>
        <time>2021-02-25T10:16:20.000Z</time>
      </trkpt>
      <trkpt lat="47.33776" lon="-2.42793">
        <ele>12.199999809265</ele>
        <time>2021-02-25T10:16:21.000Z</time>
      </trkpt>
      <trkpt lat="47.33776" lon="-2.42796">
        <ele>11.800000190735</ele>
        <time>2021-02-25T10:16:22.000Z</time>
      </trkpt>
      <trkpt lat="47.33776" lon="-2.42798">
        <ele>11.39999961853</ele>
        <time>2021-02-25T10:16:23.000Z</time>
      </trkpt>
      <trkpt lat="47.33775" lon="-2.428">
        <ele>10.800000190735</ele>
        <time>2021-02-25T10:16:24.000Z</time>
      </trkpt>
      <trkpt lat="47.33775" lon="-2.42803">
        <ele>10.39999961853</ele>
        <time>2021-02-25T10:16:25.000Z</time>
      </trkpt>
      <trkpt lat="47.33775" lon="-2.42806">
        <ele>10.39999961853</ele>
        <time>2021-02-25T10:16:26.000Z</time>
      </trkpt>
      <trkpt lat="47.33775" lon="-2.42819">
        <ele>10.39999961853</ele>
        <time>2021-02-25T10:16:32.000Z</time>
      </trkpt>
      <trkpt lat="47.33775" lon="-2.42822">
        <ele>10.39999961853</ele>
        <time>2021-02-25T10:16:58.000Z</time>
      </trkpt>
      <trkpt lat="47.33772" lon="-2.42843">
        <ele>10.39999961853</ele>
        <time>2021-02-25T10:17:03.000Z</time>
      </trkpt>
      <trkpt lat="47.33771" lon="-2.42874">
        <ele>10.39999961853</ele>
        <time>2021-02-25T10:17:08.000Z</time>
      </trkpt>
      <trkpt lat="47.3377" lon="-2.42881">
        <ele>10.39999961853</ele>
        <time>2021-02-25T10:17:09.000Z</time>
      </trkpt>
      <trkpt lat="47.33768" lon="-2.429">
        <ele>10.800000190735</ele>
        <time>2021-02-25T10:17:12.000Z</time>
      </trkpt>
      <trkpt lat="47.33768" lon="-2.42908">
        <ele>11.199999809265</ele>
        <time>2021-02-25T10:17:13.000Z</time>
      </trkpt>
      <trkpt lat="47.33768" lon="-2.42915">
        <ele>11.60000038147</ele>
        <time>2021-02-25T10:17:14.000Z</time>
      </trkpt>
      <trkpt lat="47.33768" lon="-2.42922">
        <ele>12</ele>
        <time>2021-02-25T10:17:15.000Z</time>
      </trkpt>
      <trkpt lat="47.33768" lon="-2.42929">
        <ele>12.39999961853</ele>
        <time>2021-02-25T10:17:16.000Z</time>
      </trkpt>
      <trkpt lat="47.33765" lon="-2.42981">
        <ele>12.39999961853</ele>
        <time>2021-02-25T10:17:24.000Z</time>
      </trkpt>
      <trkpt lat="47.33763" lon="-2.42985">
        <ele>12.800000190735</ele>
        <time>2021-02-25T10:17:25.000Z</time>
      </trkpt>
      <trkpt lat="47.33759" lon="-2.42987">
        <ele>13.199999809265</ele>
        <time>2021-02-25T10:17:26.000Z</time>
      </trkpt>
      <trkpt lat="47.33755" lon="-2.42988">
        <ele>13.60000038147</ele>
        <time>2021-02-25T10:17:27.000Z</time>
      </trkpt>
      <trkpt lat="47.3375" lon="-2.42988">
        <ele>14</ele>
        <time>2021-02-25T10:17:28.000Z</time>
      </trkpt>
      <trkpt lat="47.33746" lon="-2.42987">
        <ele>14.39999961853</ele>
        <time>2021-02-25T10:17:29.000Z</time>
      </trkpt>
      <trkpt lat="47.3374" lon="-2.42986">
        <ele>14.39999961853</ele>
        <time>2021-02-25T10:17:30.000Z</time>
      </trkpt>
      <trkpt lat="47.33735" lon="-2.42986">
        <ele>14.39999961853</ele>
        <time>2021-02-25T10:17:31.000Z</time>
      </trkpt>
      <trkpt lat="47.33696" lon="-2.42988">
        <ele>14.39999961853</ele>
        <time>2021-02-25T10:17:38.000Z</time>
      </trkpt>
      <trkpt lat="47.33663" lon="-2.43008">
        <ele>14.39999961853</ele>
        <time>2021-02-25T10:17:44.000Z</time>
      </trkpt>
      <trkpt lat="47.33645" lon="-2.43031">
        <ele>14.39999961853</ele>
        <time>2021-02-25T10:17:48.000Z</time>
      </trkpt>
      <trkpt lat="47.33641" lon="-2.43038">
        <ele>14.39999961853</ele>
        <time>2021-02-25T10:17:49.000Z</time>
      </trkpt>
      <trkpt lat="47.33622" lon="-2.43079">
        <ele>14.39999961853</ele>
        <time>2021-02-25T10:17:54.000Z</time>
      </trkpt>
      <trkpt lat="47.33601" lon="-2.43137">
        <ele>14.39999961853</ele>
        <time>2021-02-25T10:18:02.000Z</time>
      </trkpt>
      <trkpt lat="47.33575" lon="-2.43199">
        <ele>14.39999961853</ele>
        <time>2021-02-25T10:18:10.000Z</time>
      </trkpt>
      <trkpt lat="47.33571" lon="-2.43206">
        <ele>14.39999961853</ele>
        <time>2021-02-25T10:18:11.000Z</time>
      </trkpt>
      <trkpt lat="47.33555" lon="-2.43219">
        <ele>14.39999961853</ele>
        <time>2021-02-25T10:18:14.000Z</time>
      </trkpt>
      <trkpt lat="47.33549" lon="-2.43222">
        <ele>14.39999961853</ele>
        <time>2021-02-25T10:18:15.000Z</time>
      </trkpt>
      <trkpt lat="47.33525" lon="-2.43228">
        <ele>14.39999961853</ele>
        <time>2021-02-25T10:18:19.000Z</time>
      </trkpt>
      <trkpt lat="47.33518" lon="-2.43227">
        <ele>14.39999961853</ele>
        <time>2021-02-25T10:18:20.000Z</time>
      </trkpt>
      <trkpt lat="47.33501" lon="-2.43223">
        <ele>14.39999961853</ele>
        <time>2021-02-25T10:18:23.000Z</time>
      </trkpt>
      <trkpt lat="47.33464" lon="-2.43205">
        <ele>14.39999961853</ele>
        <time>2021-02-25T10:18:30.000Z</time>
      </trkpt>
      <trkpt lat="47.33459" lon="-2.43202">
        <ele>14.39999961853</ele>
        <time>2021-02-25T10:18:33.000Z</time>
      </trkpt>
      <trkpt lat="47.33458" lon="-2.43202">
        <ele>14.39999961853</ele>
        <time>2021-02-25T10:18:46.000Z</time>
      </trkpt>
      <trkpt lat="47.33456" lon="-2.43203">
        <ele>14.39999961853</ele>
        <time>2021-02-25T10:18:47.000Z</time>
      </trkpt>
      <trkpt lat="47.33455" lon="-2.43204">
        <ele>14.39999961853</ele>
        <time>2021-02-25T10:18:48.000Z</time>
      </trkpt>
      <trkpt lat="47.33452" lon="-2.43216">
        <ele>14.39999961853</ele>
        <time>2021-02-25T10:18:52.000Z</time>
      </trkpt>
      <trkpt lat="47.3345" lon="-2.4323">
        <ele>14.39999961853</ele>
        <time>2021-02-25T10:18:55.000Z</time>
      </trkpt>
      <trkpt lat="47.33449" lon="-2.43235">
        <ele>14.39999961853</ele>
        <time>2021-02-25T10:18:56.000Z</time>
      </trkpt>
      <trkpt lat="47.33439" lon="-2.43272">
        <ele>14.39999961853</ele>
        <time>2021-02-25T10:19:02.000Z</time>
      </trkpt>
      <trkpt lat="47.33433" lon="-2.43301">
        <ele>14.39999961853</ele>
        <time>2021-02-25T10:19:06.000Z</time>
      </trkpt>
      <trkpt lat="47.33429" lon="-2.43315">
        <ele>14.39999961853</ele>
        <time>2021-02-25T10:19:08.000Z</time>
      </trkpt>
      <trkpt lat="47.33413" lon="-2.43382">
        <ele>14.800000190735</ele>
        <time>2021-02-25T10:19:17.000Z</time>
      </trkpt>
      <trkpt lat="47.33411" lon="-2.43389">
        <ele>15.39999961853</ele>
        <time>2021-02-25T10:19:18.000Z</time>
      </trkpt>
      <trkpt lat="47.33409" lon="-2.43397">
        <ele>15.800000190735</ele>
        <time>2021-02-25T10:19:19.000Z</time>
      </trkpt>
      <trkpt lat="47.33408" lon="-2.43404">
        <ele>16.200000762939</ele>
        <time>2021-02-25T10:19:20.000Z</time>
      </trkpt>
      <trkpt lat="47.33406" lon="-2.43411">
        <ele>16.60000038147</ele>
        <time>2021-02-25T10:19:21.000Z</time>
      </trkpt>
      <trkpt lat="47.33404" lon="-2.43418">
        <ele>16.60000038147</ele>
        <time>2021-02-25T10:19:22.000Z</time>
      </trkpt>
      <trkpt lat="47.33403" lon="-2.43433">
        <ele>16.60000038147</ele>
        <time>2021-02-25T10:19:24.000Z</time>
      </trkpt>
      <trkpt lat="47.33409" lon="-2.43455">
        <ele>16.60000038147</ele>
        <time>2021-02-25T10:19:27.000Z</time>
      </trkpt>
      <trkpt lat="47.3341" lon="-2.43462">
        <ele>16.60000038147</ele>
        <time>2021-02-25T10:19:28.000Z</time>
      </trkpt>
      <trkpt lat="47.33411" lon="-2.4347">
        <ele>16.60000038147</ele>
        <time>2021-02-25T10:19:29.000Z</time>
      </trkpt>
      <trkpt lat="47.33417" lon="-2.43502">
        <ele>16.60000038147</ele>
        <time>2021-02-25T10:19:33.000Z</time>
      </trkpt>
      <trkpt lat="47.33419" lon="-2.43526">
        <ele>16.60000038147</ele>
        <time>2021-02-25T10:19:36.000Z</time>
      </trkpt>
      <trkpt lat="47.33418" lon="-2.43542">
        <ele>16.60000038147</ele>
        <time>2021-02-25T10:19:38.000Z</time>
      </trkpt>
      <trkpt lat="47.33409" lon="-2.43614">
        <ele>16.60000038147</ele>
        <time>2021-02-25T10:19:47.000Z</time>
      </trkpt>
      <trkpt lat="47.33404" lon="-2.43628">
        <ele>16.60000038147</ele>
        <time>2021-02-25T10:19:49.000Z</time>
      </trkpt>
      <trkpt lat="47.33394" lon="-2.43649">
        <ele>17</ele>
        <time>2021-02-25T10:19:52.000Z</time>
      </trkpt>
      <trkpt lat="47.3339" lon="-2.43656">
        <ele>17.39999961853</ele>
        <time>2021-02-25T10:19:53.000Z</time>
      </trkpt>
      <trkpt lat="47.33386" lon="-2.43661">
        <ele>17.799999237061</ele>
        <time>2021-02-25T10:19:54.000Z</time>
      </trkpt>
      <trkpt lat="47.33382" lon="-2.43667">
        <ele>18.200000762939</ele>
        <time>2021-02-25T10:19:55.000Z</time>
      </trkpt>
      <trkpt lat="47.33377" lon="-2.43671">
        <ele>18.60000038147</ele>
        <time>2021-02-25T10:19:56.000Z</time>
      </trkpt>
      <trkpt lat="47.33372" lon="-2.43674">
        <ele>18.60000038147</ele>
        <time>2021-02-25T10:19:57.000Z</time>
      </trkpt>
      <trkpt lat="47.33367" lon="-2.43677">
        <ele>18.60000038147</ele>
        <time>2021-02-25T10:19:58.000Z</time>
      </trkpt>
      <trkpt lat="47.33329" lon="-2.43699">
        <ele>18.60000038147</ele>
        <time>2021-02-25T10:20:05.000Z</time>
      </trkpt>
      <trkpt lat="47.33325" lon="-2.43703">
        <ele>18.60000038147</ele>
        <time>2021-02-25T10:20:06.000Z</time>
      </trkpt>
      <trkpt lat="47.3331" lon="-2.43721">
        <ele>18.60000038147</ele>
        <time>2021-02-25T10:20:10.000Z</time>
      </trkpt>
      <trkpt lat="47.33293" lon="-2.43745">
        <ele>18.60000038147</ele>
        <time>2021-02-25T10:20:15.000Z</time>
      </trkpt>
      <trkpt lat="47.33292" lon="-2.43751">
        <ele>18.60000038147</ele>
        <time>2021-02-25T10:20:16.000Z</time>
      </trkpt>
      <trkpt lat="47.33291" lon="-2.43758">
        <ele>18.60000038147</ele>
        <time>2021-02-25T10:20:19.000Z</time>
      </trkpt>
      <trkpt lat="47.33292" lon="-2.43759">
        <ele>18.60000038147</ele>
        <time>2021-02-25T10:20:21.000Z</time>
      </trkpt>
      <trkpt lat="47.33292" lon="-2.43762">
        <ele>18.60000038147</ele>
        <time>2021-02-25T10:20:25.000Z</time>
      </trkpt>
      <trkpt lat="47.33293" lon="-2.43765">
        <ele>18.60000038147</ele>
        <time>2021-02-25T10:20:26.000Z</time>
      </trkpt>
      <trkpt lat="47.33297" lon="-2.43792">
        <ele>18.60000038147</ele>
        <time>2021-02-25T10:20:33.000Z</time>
      </trkpt>
      <trkpt lat="47.33298" lon="-2.43804">
        <ele>18.60000038147</ele>
        <time>2021-02-25T10:20:36.000Z</time>
      </trkpt>
      <trkpt lat="47.33292" lon="-2.4381">
        <ele>18.60000038147</ele>
        <time>2021-02-25T10:20:38.000Z</time>
      </trkpt>
      <trkpt lat="47.33276" lon="-2.43811">
        <ele>18.60000038147</ele>
        <time>2021-02-25T10:20:42.000Z</time>
      </trkpt>
      <trkpt lat="47.3325" lon="-2.43818">
        <ele>18.60000038147</ele>
        <time>2021-02-25T10:20:48.000Z</time>
      </trkpt>
      <trkpt lat="47.33207" lon="-2.43833">
        <ele>18.60000038147</ele>
        <time>2021-02-25T10:20:58.000Z</time>
      </trkpt>
      <trkpt lat="47.33201" lon="-2.43834">
        <ele>18.60000038147</ele>
        <time>2021-02-25T10:21:00.000Z</time>
      </trkpt>
      <trkpt lat="47.33196" lon="-2.43827">
        <ele>18.60000038147</ele>
        <time>2021-02-25T10:21:02.000Z</time>
      </trkpt>
      <trkpt lat="47.33186" lon="-2.43809">
        <ele>18.60000038147</ele>
        <time>2021-02-25T10:21:06.000Z</time>
      </trkpt>
      <trkpt lat="47.33171" lon="-2.43812">
        <ele>18.60000038147</ele>
        <time>2021-02-25T10:21:09.000Z</time>
      </trkpt>
      <trkpt lat="47.33161" lon="-2.43816">
        <ele>18.60000038147</ele>
        <time>2021-02-25T10:21:11.000Z</time>
      </trkpt>
      <trkpt lat="47.33151" lon="-2.43819">
        <ele>18.60000038147</ele>
        <time>2021-02-25T10:21:13.000Z</time>
      </trkpt>
      <trkpt lat="47.33139" lon="-2.43823">
        <ele>18.60000038147</ele>
        <time>2021-02-25T10:21:15.000Z</time>
      </trkpt>
      <trkpt lat="47.33098" lon="-2.43839">
        <ele>18.60000038147</ele>
        <time>2021-02-25T10:21:22.000Z</time>
      </trkpt>
      <trkpt lat="47.33048" lon="-2.43858">
        <ele>18.60000038147</ele>
        <time>2021-02-25T10:21:30.000Z</time>
      </trkpt>
      <trkpt lat="47.33002" lon="-2.43878">
        <ele>18.60000038147</ele>
        <time>2021-02-25T10:21:37.000Z</time>
      </trkpt>
      <trkpt lat="47.3296" lon="-2.43908">
        <ele>18.60000038147</ele>
        <time>2021-02-25T10:21:44.000Z</time>
      </trkpt>
      <trkpt lat="47.32911" lon="-2.43945">
        <ele>18.60000038147</ele>
        <time>2021-02-25T10:21:52.000Z</time>
      </trkpt>
      <trkpt lat="47.32868" lon="-2.43969">
        <ele>18.60000038147</ele>
        <time>2021-02-25T10:21:59.000Z</time>
      </trkpt>
      <trkpt lat="47.32841" lon="-2.43978">
        <ele>18.60000038147</ele>
        <time>2021-02-25T10:22:04.000Z</time>
      </trkpt>
      <trkpt lat="47.32836" lon="-2.43979">
        <ele>18.60000038147</ele>
        <time>2021-02-25T10:22:07.000Z</time>
      </trkpt>
      <trkpt lat="47.32835" lon="-2.43979">
        <ele>18.60000038147</ele>
        <time>2021-02-25T10:22:09.000Z</time>
      </trkpt>
      <trkpt lat="47.32834" lon="-2.43981">
        <ele>18.60000038147</ele>
        <time>2021-02-25T10:22:10.000Z</time>
      </trkpt>
      <trkpt lat="47.32833" lon="-2.43983">
        <ele>18.60000038147</ele>
        <time>2021-02-25T10:22:11.000Z</time>
      </trkpt>
      <trkpt lat="47.32829" lon="-2.43998">
        <ele>18.60000038147</ele>
        <time>2021-02-25T10:22:15.000Z</time>
      </trkpt>
      <trkpt lat="47.32828" lon="-2.44003">
        <ele>18.60000038147</ele>
        <time>2021-02-25T10:22:16.000Z</time>
      </trkpt>
      <trkpt lat="47.32823" lon="-2.44035">
        <ele>18.60000038147</ele>
        <time>2021-02-25T10:22:21.000Z</time>
      </trkpt>
      <trkpt lat="47.32814" lon="-2.44083">
        <ele>18.60000038147</ele>
        <time>2021-02-25T10:22:27.000Z</time>
      </trkpt>
      <trkpt lat="47.32806" lon="-2.44123">
        <ele>18.60000038147</ele>
        <time>2021-02-25T10:22:32.000Z</time>
      </trkpt>
      <trkpt lat="47.32802" lon="-2.44149">
        <ele>18.60000038147</ele>
        <time>2021-02-25T10:22:35.000Z</time>
      </trkpt>
      <trkpt lat="47.32786" lon="-2.4423">
        <ele>18.200000762939</ele>
        <time>2021-02-25T10:22:44.000Z</time>
      </trkpt>
      <trkpt lat="47.32784" lon="-2.44239">
        <ele>17.799999237061</ele>
        <time>2021-02-25T10:22:45.000Z</time>
      </trkpt>
      <trkpt lat="47.32782" lon="-2.44248">
        <ele>17.39999961853</ele>
        <time>2021-02-25T10:22:46.000Z</time>
      </trkpt>
      <trkpt lat="47.3278" lon="-2.44256">
        <ele>17</ele>
        <time>2021-02-25T10:22:47.000Z</time>
      </trkpt>
      <trkpt lat="47.32778" lon="-2.44265">
        <ele>16.60000038147</ele>
        <time>2021-02-25T10:22:48.000Z</time>
      </trkpt>
      <trkpt lat="47.32774" lon="-2.44292">
        <ele>16.60000038147</ele>
        <time>2021-02-25T10:22:51.000Z</time>
      </trkpt>
      <trkpt lat="47.32769" lon="-2.44334">
        <ele>16.60000038147</ele>
        <time>2021-02-25T10:22:56.000Z</time>
      </trkpt>
      <trkpt lat="47.32768" lon="-2.44343">
        <ele>16.60000038147</ele>
        <time>2021-02-25T10:22:57.000Z</time>
      </trkpt>
      <trkpt lat="47.3277" lon="-2.44374">
        <ele>16.60000038147</ele>
        <time>2021-02-25T10:23:01.000Z</time>
      </trkpt>
      <trkpt lat="47.32773" lon="-2.44388">
        <ele>16.60000038147</ele>
        <time>2021-02-25T10:23:03.000Z</time>
      </trkpt>
      <trkpt lat="47.32778" lon="-2.44398">
        <ele>16.60000038147</ele>
        <time>2021-02-25T10:23:05.000Z</time>
      </trkpt>
      <trkpt lat="47.32779" lon="-2.44423">
        <ele>16.60000038147</ele>
        <time>2021-02-25T10:23:09.000Z</time>
      </trkpt>
      <trkpt lat="47.32768" lon="-2.44434">
        <ele>16.60000038147</ele>
        <time>2021-02-25T10:23:12.000Z</time>
      </trkpt>
      <trkpt lat="47.32757" lon="-2.44432">
        <ele>16.60000038147</ele>
        <time>2021-02-25T10:23:15.000Z</time>
      </trkpt>
      <trkpt lat="47.32744" lon="-2.44445">
        <ele>16.60000038147</ele>
        <time>2021-02-25T10:23:19.000Z</time>
      </trkpt>
      <trkpt lat="47.32725" lon="-2.4446">
        <ele>16.60000038147</ele>
        <time>2021-02-25T10:23:23.000Z</time>
      </trkpt>
      <trkpt lat="47.3272" lon="-2.44464">
        <ele>16.60000038147</ele>
        <time>2021-02-25T10:23:24.000Z</time>
      </trkpt>
      <trkpt lat="47.32685" lon="-2.44487">
        <ele>16.60000038147</ele>
        <time>2021-02-25T10:23:31.000Z</time>
      </trkpt>
      <trkpt lat="47.3267" lon="-2.44503">
        <ele>16.60000038147</ele>
        <time>2021-02-25T10:23:35.000Z</time>
      </trkpt>
      <trkpt lat="47.32668" lon="-2.44508">
        <ele>16.60000038147</ele>
        <time>2021-02-25T10:23:36.000Z</time>
      </trkpt>
      <trkpt lat="47.32666" lon="-2.44512">
        <ele>16.200000762939</ele>
        <time>2021-02-25T10:23:37.000Z</time>
      </trkpt>
      <trkpt lat="47.32664" lon="-2.44516">
        <ele>15.60000038147</ele>
        <time>2021-02-25T10:23:38.000Z</time>
      </trkpt>
      <trkpt lat="47.32662" lon="-2.44521">
        <ele>15.199999809265</ele>
        <time>2021-02-25T10:23:39.000Z</time>
      </trkpt>
      <trkpt lat="47.32659" lon="-2.44525">
        <ele>14.800000190735</ele>
        <time>2021-02-25T10:23:40.000Z</time>
      </trkpt>
      <trkpt lat="47.32657" lon="-2.4453">
        <ele>14.39999961853</ele>
        <time>2021-02-25T10:23:41.000Z</time>
      </trkpt>
      <trkpt lat="47.32654" lon="-2.44535">
        <ele>14.39999961853</ele>
        <time>2021-02-25T10:23:42.000Z</time>
      </trkpt>
      <trkpt lat="47.32652" lon="-2.44541">
        <ele>14.39999961853</ele>
        <time>2021-02-25T10:23:43.000Z</time>
      </trkpt>
      <trkpt lat="47.32646" lon="-2.44552">
        <ele>14.39999961853</ele>
        <time>2021-02-25T10:23:45.000Z</time>
      </trkpt>
      <trkpt lat="47.3264" lon="-2.44563">
        <ele>14.39999961853</ele>
        <time>2021-02-25T10:23:47.000Z</time>
      </trkpt>
      <trkpt lat="47.32611" lon="-2.44611">
        <ele>14</ele>
        <time>2021-02-25T10:23:55.000Z</time>
      </trkpt>
      <trkpt lat="47.32608" lon="-2.44617">
        <ele>13</ele>
        <time>2021-02-25T10:23:56.000Z</time>
      </trkpt>
      <trkpt lat="47.32604" lon="-2.44623">
        <ele>12.60000038147</ele>
        <time>2021-02-25T10:23:57.000Z</time>
      </trkpt>
      <trkpt lat="47.326" lon="-2.44629">
        <ele>12.199999809265</ele>
        <time>2021-02-25T10:23:58.000Z</time>
      </trkpt>
      <trkpt lat="47.32588" lon="-2.44644">
        <ele>12.199999809265</ele>
        <time>2021-02-25T10:24:01.000Z</time>
      </trkpt>
      <trkpt lat="47.32575" lon="-2.44659">
        <ele>11.800000190735</ele>
        <time>2021-02-25T10:24:04.000Z</time>
      </trkpt>
      <trkpt lat="47.3257" lon="-2.44665">
        <ele>11.39999961853</ele>
        <time>2021-02-25T10:24:05.000Z</time>
      </trkpt>
      <trkpt lat="47.32566" lon="-2.44672">
        <ele>10.800000190735</ele>
        <time>2021-02-25T10:24:06.000Z</time>
      </trkpt>
      <trkpt lat="47.32561" lon="-2.4468">
        <ele>10.39999961853</ele>
        <time>2021-02-25T10:24:07.000Z</time>
      </trkpt>
      <trkpt lat="47.32557" lon="-2.44687">
        <ele>10</ele>
        <time>2021-02-25T10:24:08.000Z</time>
      </trkpt>
      <trkpt lat="47.32546" lon="-2.447">
        <ele>9.6000003814697</ele>
        <time>2021-02-25T10:24:10.000Z</time>
      </trkpt>
      <trkpt lat="47.32541" lon="-2.44706">
        <ele>9.1999998092651</ele>
        <time>2021-02-25T10:24:11.000Z</time>
      </trkpt>
      <trkpt lat="47.32538" lon="-2.44713">
        <ele>8.6000003814697</ele>
        <time>2021-02-25T10:24:12.000Z</time>
      </trkpt>
      <trkpt lat="47.32535" lon="-2.44718">
        <ele>8.1999998092651</ele>
        <time>2021-02-25T10:24:13.000Z</time>
      </trkpt>
      <trkpt lat="47.32532" lon="-2.44723">
        <ele>7.5999999046326</ele>
        <time>2021-02-25T10:24:14.000Z</time>
      </trkpt>
      <trkpt lat="47.3253" lon="-2.44728">
        <ele>7.1999998092651</ele>
        <time>2021-02-25T10:24:15.000Z</time>
      </trkpt>
      <trkpt lat="47.3253" lon="-2.44733">
        <ele>6.8000001907349</ele>
        <time>2021-02-25T10:24:16.000Z</time>
      </trkpt>
      <trkpt lat="47.32529" lon="-2.44737">
        <ele>6.4000000953674</ele>
        <time>2021-02-25T10:24:17.000Z</time>
      </trkpt>
      <trkpt lat="47.32527" lon="-2.44741">
        <ele>6</ele>
        <time>2021-02-25T10:24:18.000Z</time>
      </trkpt>
      <trkpt lat="47.32523" lon="-2.44744">
        <ele>5.5999999046326</ele>
        <time>2021-02-25T10:24:19.000Z</time>
      </trkpt>
      <trkpt lat="47.32519" lon="-2.44746">
        <ele>5.5999999046326</ele>
        <time>2021-02-25T10:24:20.000Z</time>
      </trkpt>
      <trkpt lat="47.32505" lon="-2.44756">
        <ele>5.5999999046326</ele>
        <time>2021-02-25T10:24:23.000Z</time>
      </trkpt>
      <trkpt lat="47.32499" lon="-2.44761">
        <ele>5</ele>
        <time>2021-02-25T10:24:24.000Z</time>
      </trkpt>
      <trkpt lat="47.32491" lon="-2.44766">
        <ele>4.5999999046326</ele>
        <time>2021-02-25T10:24:25.000Z</time>
      </trkpt>
      <trkpt lat="47.32483" lon="-2.44772">
        <ele>4.1999998092651</ele>
        <time>2021-02-25T10:24:26.000Z</time>
      </trkpt>
      <trkpt lat="47.32474" lon="-2.44778">
        <ele>3.7999999523163</ele>
        <time>2021-02-25T10:24:27.000Z</time>
      </trkpt>
      <trkpt lat="47.32465" lon="-2.44785">
        <ele>3.4000000953674</ele>
        <time>2021-02-25T10:24:28.000Z</time>
      </trkpt>
      <trkpt lat="47.32455" lon="-2.44792">
        <ele>2.7999999523163</ele>
        <time>2021-02-25T10:24:29.000Z</time>
      </trkpt>
      <trkpt lat="47.32446" lon="-2.44799">
        <ele>2.4000000953674</ele>
        <time>2021-02-25T10:24:30.000Z</time>
      </trkpt>
      <trkpt lat="47.32435" lon="-2.44806">
        <ele>2</ele>
        <time>2021-02-25T10:24:31.000Z</time>
      </trkpt>
      <trkpt lat="47.32426" lon="-2.44813">
        <ele>1.6000000238419</ele>
        <time>2021-02-25T10:24:32.000Z</time>
      </trkpt>
      <trkpt lat="47.32418" lon="-2.44818">
        <ele>1</ele>
        <time>2021-02-25T10:24:33.000Z</time>
      </trkpt>
      <trkpt lat="47.32392" lon="-2.44835">
        <ele>1</ele>
        <time>2021-02-25T10:24:36.000Z</time>
      </trkpt>
      <trkpt lat="47.32377" lon="-2.44847">
        <ele>0.60000002384186</ele>
        <time>2021-02-25T10:24:38.000Z</time>
      </trkpt>
      <trkpt lat="47.3237" lon="-2.44852">
        <ele>24.1</ele>
        <time>2021-02-25T10:24:39.000Z</time>
      </trkpt>
      <trkpt lat="47.32362" lon="-2.44858">
        <ele>-0.40000000596046</ele>
        <time>2021-02-25T10:24:40.000Z</time>
      </trkpt>
      <trkpt lat="47.32355" lon="-2.44864">
        <ele>-1</ele>
        <time>2021-02-25T10:24:41.000Z</time>
      </trkpt>
      <trkpt lat="47.32348" lon="-2.44871">
        <ele>-1.3999999761581</ele>
        <time>2021-02-25T10:24:42.000Z</time>
      </trkpt>
      <trkpt lat="47.32336" lon="-2.44886">
        <ele>-1.3999999761581</ele>
        <time>2021-02-25T10:24:44.000Z</time>
      </trkpt>
      <trkpt lat="47.32324" lon="-2.44904">
        <ele>-1.7999999523163</ele>
        <time>2021-02-25T10:24:46.000Z</time>
      </trkpt>
      <trkpt lat="47.32318" lon="-2.44913">
        <ele>-2.2000000476837</ele>
        <time>2021-02-25T10:24:47.000Z</time>
      </trkpt>
      <trkpt lat="47.32312" lon="-2.44921">
        <ele>-2.5999999046326</ele>
        <time>2021-02-25T10:24:48.000Z</time>
      </trkpt>
      <trkpt lat="47.32306" lon="-2.4493">
        <ele>-3.2000000476837</ele>
        <time>2021-02-25T10:24:49.000Z</time>
      </trkpt>
      <trkpt lat="47.32299" lon="-2.44938">
        <ele>-3.5999999046326</ele>
        <time>2021-02-25T10:24:50.000Z</time>
      </trkpt>
      <trkpt lat="47.32264" lon="-2.44977">
        <ele>-3.5999999046326</ele>
        <time>2021-02-25T10:24:55.000Z</time>
      </trkpt>
      <trkpt lat="47.32251" lon="-2.44992">
        <ele>-4</ele>
        <time>2021-02-25T10:24:57.000Z</time>
      </trkpt>
      <trkpt lat="47.32245" lon="-2.44999">
        <ele>-4.5999999046326</ele>
        <time>2021-02-25T10:24:58.000Z</time>
      </trkpt>
      <trkpt lat="47.32239" lon="-2.45006">
        <ele>-5</ele>
        <time>2021-02-25T10:24:59.000Z</time>
      </trkpt>
      <trkpt lat="47.32233" lon="-2.45013">
        <ele>-5.8000001907349</ele>
        <time>2021-02-25T10:25:00.000Z</time>
      </trkpt>
      <trkpt lat="47.32226" lon="-2.4502">
        <ele>-6.4000000953674</ele>
        <time>2021-02-25T10:25:01.000Z</time>
      </trkpt>
      <trkpt lat="47.32221" lon="-2.45025">
        <ele>-7.1999998092651</ele>
        <time>2021-02-25T10:25:02.000Z</time>
      </trkpt>
      <trkpt lat="47.32217" lon="-2.45029">
        <ele>-8</ele>
        <time>2021-02-25T10:25:03.000Z</time>
      </trkpt>
      <trkpt lat="47.32212" lon="-2.45028">
        <ele>-8.8000001907349</ele>
        <time>2021-02-25T10:25:04.000Z</time>
      </trkpt>
      <trkpt lat="47.3221" lon="-2.45023">
        <ele>-9.6000003814697</ele>
        <time>2021-02-25T10:25:05.000Z</time>
      </trkpt>
      <trkpt lat="47.32208" lon="-2.45017">
        <ele>-10.60000038147</ele>
        <time>2021-02-25T10:25:06.000Z</time>
      </trkpt>
      <trkpt lat="47.32205" lon="-2.4501">
        <ele>-11.39999961853</ele>
        <time>2021-02-25T10:25:07.000Z</time>
      </trkpt>
      <trkpt lat="47.32195" lon="-2.44988">
        <ele>-11.39999961853</ele>
        <time>2021-02-25T10:25:10.000Z</time>
      </trkpt>
      <trkpt lat="47.32185" lon="-2.44974">
        <ele>-11.39999961853</ele>
        <time>2021-02-25T10:25:12.000Z</time>
      </trkpt>
      <trkpt lat="47.32173" lon="-2.44963">
        <ele>-11.39999961853</ele>
        <time>2021-02-25T10:25:14.000Z</time>
      </trkpt>
      <trkpt lat="47.32166" lon="-2.44957">
        <ele>-11.800000190735</ele>
        <time>2021-02-25T10:25:15.000Z</time>
      </trkpt>
      <trkpt lat="47.32159" lon="-2.44952">
        <ele>-12.199999809265</ele>
        <time>2021-02-25T10:25:16.000Z</time>
      </trkpt>
      <trkpt lat="47.32153" lon="-2.44948">
        <ele>-12.800000190735</ele>
        <time>2021-02-25T10:25:17.000Z</time>
      </trkpt>
      <trkpt lat="47.32148" lon="-2.44943">
        <ele>-13.199999809265</ele>
        <time>2021-02-25T10:25:18.000Z</time>
      </trkpt>
      <trkpt lat="47.32142" lon="-2.44938">
        <ele>-13.60000038147</ele>
        <time>2021-02-25T10:25:19.000Z</time>
      </trkpt>
      <trkpt lat="47.32137" lon="-2.44931">
        <ele>-13.60000038147</ele>
        <time>2021-02-25T10:25:20.000Z</time>
      </trkpt>
      <trkpt lat="47.32131" lon="-2.44924">
        <ele>-14</ele>
        <time>2021-02-25T10:25:21.000Z</time>
      </trkpt>
      <trkpt lat="47.32127" lon="-2.44916">
        <ele>-14.39999961853</ele>
        <time>2021-02-25T10:25:22.000Z</time>
      </trkpt>
      <trkpt lat="47.32122" lon="-2.44907">
        <ele>-14.800000190735</ele>
        <time>2021-02-25T10:25:23.000Z</time>
      </trkpt>
      <trkpt lat="47.32118" lon="-2.44898">
        <ele>-15.199999809265</ele>
        <time>2021-02-25T10:25:24.000Z</time>
      </trkpt>
      <trkpt lat="47.32114" lon="-2.44889">
        <ele>-15.60000038147</ele>
        <time>2021-02-25T10:25:25.000Z</time>
      </trkpt>
      <trkpt lat="47.32093" lon="-2.44839">
        <ele>-15.60000038147</ele>
        <time>2021-02-25T10:25:31.000Z</time>
      </trkpt>
      <trkpt lat="47.32074" lon="-2.44795">
        <ele>-15.60000038147</ele>
        <time>2021-02-25T10:25:37.000Z</time>
      </trkpt>
      <trkpt lat="47.32067" lon="-2.4478">
        <ele>-16</ele>
        <time>2021-02-25T10:25:39.000Z</time>
      </trkpt>
      <trkpt lat="47.32063" lon="-2.44773">
        <ele>-16.39999961853</ele>
        <time>2021-02-25T10:25:40.000Z</time>
      </trkpt>
      <trkpt lat="47.32059" lon="-2.44766">
        <ele>-16.799999237061</ele>
        <time>2021-02-25T10:25:41.000Z</time>
      </trkpt>
      <trkpt lat="47.32055" lon="-2.44759">
        <ele>-17.200000762939</ele>
        <time>2021-02-25T10:25:42.000Z</time>
      </trkpt>
      <trkpt lat="47.32051" lon="-2.44751">
        <ele>-17.60000038147</ele>
        <time>2021-02-25T10:25:43.000Z</time>
      </trkpt>
      <trkpt lat="47.32046" lon="-2.44744">
        <ele>-17.60000038147</ele>
        <time>2021-02-25T10:25:44.000Z</time>
      </trkpt>
      <trkpt lat="47.32033" lon="-2.44724">
        <ele>-17.60000038147</ele>
        <time>2021-02-25T10:25:47.000Z</time>
      </trkpt>
      <trkpt lat="47.32001" lon="-2.44677">
        <ele>-17.60000038147</ele>
        <time>2021-02-25T10:25:54.000Z</time>
      </trkpt>
      <trkpt lat="47.31992" lon="-2.44666">
        <ele>-17.60000038147</ele>
        <time>2021-02-25T10:25:56.000Z</time>
      </trkpt>
      <trkpt lat="47.31976" lon="-2.44648">
        <ele>-17.60000038147</ele>
        <time>2021-02-25T10:25:59.000Z</time>
      </trkpt>
      <trkpt lat="47.31933" lon="-2.44599">
        <ele>-17.60000038147</ele>
        <time>2021-02-25T10:26:07.000Z</time>
      </trkpt>
      <trkpt lat="47.31928" lon="-2.44593">
        <ele>-17.60000038147</ele>
        <time>2021-02-25T10:26:08.000Z</time>
      </trkpt>
      <trkpt lat="47.31913" lon="-2.44575">
        <ele>-17.60000038147</ele>
        <time>2021-02-25T10:26:11.000Z</time>
      </trkpt>
      <trkpt lat="47.31906" lon="-2.44561">
        <ele>-17.60000038147</ele>
        <time>2021-02-25T10:26:13.000Z</time>
      </trkpt>
      <trkpt lat="47.31909" lon="-2.44537">
        <ele>-17.60000038147</ele>
        <time>2021-02-25T10:26:16.000Z</time>
      </trkpt>
      <trkpt lat="47.31918" lon="-2.44517">
        <ele>-17.60000038147</ele>
        <time>2021-02-25T10:26:19.000Z</time>
      </trkpt>
      <trkpt lat="47.31924" lon="-2.44503">
        <ele>-17.60000038147</ele>
        <time>2021-02-25T10:26:21.000Z</time>
      </trkpt>
      <trkpt lat="47.31944" lon="-2.44452">
        <ele>-17.60000038147</ele>
        <time>2021-02-25T10:26:28.000Z</time>
      </trkpt>
      <trkpt lat="47.3195" lon="-2.44436">
        <ele>-17.60000038147</ele>
        <time>2021-02-25T10:26:30.000Z</time>
      </trkpt>
      <trkpt lat="47.31956" lon="-2.44421">
        <ele>-18</ele>
        <time>2021-02-25T10:26:32.000Z</time>
      </trkpt>
      <trkpt lat="47.3196" lon="-2.44413">
        <ele>-18.39999961853</ele>
        <time>2021-02-25T10:26:33.000Z</time>
      </trkpt>
      <trkpt lat="47.31962" lon="-2.44405">
        <ele>-18.799999237061</ele>
        <time>2021-02-25T10:26:34.000Z</time>
      </trkpt>
      <trkpt lat="47.31965" lon="-2.44397">
        <ele>-19.39999961853</ele>
        <time>2021-02-25T10:26:35.000Z</time>
      </trkpt>
      <trkpt lat="47.31968" lon="-2.44389">
        <ele>-19.799999237061</ele>
        <time>2021-02-25T10:26:36.000Z</time>
      </trkpt>
      <trkpt lat="47.31974" lon="-2.44373">
        <ele>-19.799999237061</ele>
        <time>2021-02-25T10:26:38.000Z</time>
      </trkpt>
      <trkpt lat="47.31981" lon="-2.4436">
        <ele>-19.799999237061</ele>
        <time>2021-02-25T10:26:40.000Z</time>
      </trkpt>
      <trkpt lat="47.31989" lon="-2.4435">
        <ele>-19.799999237061</ele>
        <time>2021-02-25T10:26:42.000Z</time>
      </trkpt>
      <trkpt lat="47.32003" lon="-2.44329">
        <ele>-19.799999237061</ele>
        <time>2021-02-25T10:26:46.000Z</time>
      </trkpt>
      <trkpt lat="47.32016" lon="-2.44309">
        <ele>-19.799999237061</ele>
        <time>2021-02-25T10:26:50.000Z</time>
      </trkpt>
      <trkpt lat="47.32022" lon="-2.44298">
        <ele>-19.200000762939</ele>
        <time>2021-02-25T10:26:52.000Z</time>
      </trkpt>
      <trkpt lat="47.32025" lon="-2.44293">
        <ele>-18.799999237061</ele>
        <time>2021-02-25T10:26:53.000Z</time>
      </trkpt>
      <trkpt lat="47.32028" lon="-2.44288">
        <ele>-18.39999961853</ele>
        <time>2021-02-25T10:26:54.000Z</time>
      </trkpt>
      <trkpt lat="47.32031" lon="-2.44283">
        <ele>-18</ele>
        <time>2021-02-25T10:26:55.000Z</time>
      </trkpt>
      <trkpt lat="47.32034" lon="-2.44278">
        <ele>-17.60000038147</ele>
        <time>2021-02-25T10:26:56.000Z</time>
      </trkpt>
      <trkpt lat="47.32043" lon="-2.44265">
        <ele>-17</ele>
        <time>2021-02-25T10:26:59.000Z</time>
      </trkpt>
      <trkpt lat="47.32046" lon="-2.4426">
        <ele>-16.60000038147</ele>
        <time>2021-02-25T10:27:00.000Z</time>
      </trkpt>
      <trkpt lat="47.32049" lon="-2.44255">
        <ele>-16.200000762939</ele>
        <time>2021-02-25T10:27:01.000Z</time>
      </trkpt>
      <trkpt lat="47.32052" lon="-2.4425">
        <ele>-15.800000190735</ele>
        <time>2021-02-25T10:27:02.000Z</time>
      </trkpt>
      <trkpt lat="47.32055" lon="-2.44246">
        <ele>-15.39999961853</ele>
        <time>2021-02-25T10:27:03.000Z</time>
      </trkpt>
      <trkpt lat="47.32064" lon="-2.44234">
        <ele>-15</ele>
        <time>2021-02-25T10:27:06.000Z</time>
      </trkpt>
      <trkpt lat="47.32067" lon="-2.4423">
        <ele>-14.60000038147</ele>
        <time>2021-02-25T10:27:07.000Z</time>
      </trkpt>
      <trkpt lat="47.3207" lon="-2.44226">
        <ele>-14.199999809265</ele>
        <time>2021-02-25T10:27:08.000Z</time>
      </trkpt>
      <trkpt lat="47.32073" lon="-2.44222">
        <ele>-13.800000190735</ele>
        <time>2021-02-25T10:27:09.000Z</time>
      </trkpt>
      <trkpt lat="47.32076" lon="-2.44218">
        <ele>-13.39999961853</ele>
        <time>2021-02-25T10:27:10.000Z</time>
      </trkpt>
      <trkpt lat="47.32082" lon="-2.4421">
        <ele>-12.60000038147</ele>
        <time>2021-02-25T10:27:12.000Z</time>
      </trkpt>
      <trkpt lat="47.32085" lon="-2.44206">
        <ele>-12.199999809265</ele>
        <time>2021-02-25T10:27:13.000Z</time>
      </trkpt>
      <trkpt lat="47.32087" lon="-2.44203">
        <ele>-11.800000190735</ele>
        <time>2021-02-25T10:27:14.000Z</time>
      </trkpt>
      <trkpt lat="47.3209" lon="-2.44199">
        <ele>-11.39999961853</ele>
        <time>2021-02-25T10:27:15.000Z</time>
      </trkpt>
      <trkpt lat="47.32109" lon="-2.44176">
        <ele>-11</ele>
        <time>2021-02-25T10:27:21.000Z</time>
      </trkpt>
      <trkpt lat="47.32111" lon="-2.44172">
        <ele>-10.39999961853</ele>
        <time>2021-02-25T10:27:22.000Z</time>
      </trkpt>
      <trkpt lat="47.32114" lon="-2.44168">
        <ele>-10</ele>
        <time>2021-02-25T10:27:23.000Z</time>
      </trkpt>
      <trkpt lat="47.32116" lon="-2.44164">
        <ele>-9.6000003814697</ele>
        <time>2021-02-25T10:27:24.000Z</time>
      </trkpt>
      <trkpt lat="47.32119" lon="-2.44161">
        <ele>-9.1999998092651</ele>
        <time>2021-02-25T10:27:25.000Z</time>
      </trkpt>
      <trkpt lat="47.32125" lon="-2.44156">
        <ele>-8.8000001907349</ele>
        <time>2021-02-25T10:27:27.000Z</time>
      </trkpt>
      <trkpt lat="47.32128" lon="-2.44152">
        <ele>-8.3999996185303</ele>
        <time>2021-02-25T10:27:28.000Z</time>
      </trkpt>
      <trkpt lat="47.3213" lon="-2.44149">
        <ele>-8</ele>
        <time>2021-02-25T10:27:29.000Z</time>
      </trkpt>
      <trkpt lat="47.32132" lon="-2.44146">
        <ele>-7.5999999046326</ele>
        <time>2021-02-25T10:27:30.000Z</time>
      </trkpt>
      <trkpt lat="47.32135" lon="-2.44143">
        <ele>-7.1999998092651</ele>
        <time>2021-02-25T10:27:31.000Z</time>
      </trkpt>
      <trkpt lat="47.32146" lon="-2.44127">
        <ele>-6.8000001907349</ele>
        <time>2021-02-25T10:27:36.000Z</time>
      </trkpt>
      <trkpt lat="47.32149" lon="-2.44124">
        <ele>-6</ele>
        <time>2021-02-25T10:27:37.000Z</time>
      </trkpt>
      <trkpt lat="47.32152" lon="-2.44122">
        <ele>-5.4000000953674</ele>
        <time>2021-02-25T10:27:38.000Z</time>
      </trkpt>
      <trkpt lat="47.32154" lon="-2.44119">
        <ele>-5</ele>
        <time>2021-02-25T10:27:39.000Z</time>
      </trkpt>
      <trkpt lat="47.32161" lon="-2.4411">
        <ele>-5</ele>
        <time>2021-02-25T10:27:42.000Z</time>
      </trkpt>
      <trkpt lat="47.32165" lon="-2.44104">
        <ele>-4.5999999046326</ele>
        <time>2021-02-25T10:27:44.000Z</time>
      </trkpt>
      <trkpt lat="47.32168" lon="-2.44101">
        <ele>-4.1999998092651</ele>
        <time>2021-02-25T10:27:45.000Z</time>
      </trkpt>
      <trkpt lat="47.3217" lon="-2.44099">
        <ele>-3.7999999523163</ele>
        <time>2021-02-25T10:27:46.000Z</time>
      </trkpt>
      <trkpt lat="47.32173" lon="-2.44097">
        <ele>-3.4000000953674</ele>
        <time>2021-02-25T10:27:47.000Z</time>
      </trkpt>
      <trkpt lat="47.32176" lon="-2.44095">
        <ele>-3</ele>
        <time>2021-02-25T10:27:48.000Z</time>
      </trkpt>
      <trkpt lat="47.32179" lon="-2.44093">
        <ele>-3</ele>
        <time>2021-02-25T10:27:49.000Z</time>
      </trkpt>
      <trkpt lat="47.32191" lon="-2.44079">
        <ele>-2.5999999046326</ele>
        <time>2021-02-25T10:27:54.000Z</time>
      </trkpt>
      <trkpt lat="47.32194" lon="-2.44077">
        <ele>-2.2000000476837</ele>
        <time>2021-02-25T10:27:55.000Z</time>
      </trkpt>
      <trkpt lat="47.32196" lon="-2.44074">
        <ele>-1.7999999523163</ele>
        <time>2021-02-25T10:27:56.000Z</time>
      </trkpt>
      <trkpt lat="47.32198" lon="-2.44072">
        <ele>-1.3999999761581</ele>
        <time>2021-02-25T10:27:57.000Z</time>
      </trkpt>
      <trkpt lat="47.32201" lon="-2.4407">
        <ele>-1</ele>
        <time>2021-02-25T10:27:58.000Z</time>
      </trkpt>
      <trkpt lat="47.3221" lon="-2.44061">
        <ele>-1</ele>
        <time>2021-02-25T10:28:02.000Z</time>
      </trkpt>
      <trkpt lat="47.32215" lon="-2.44057">
        <ele>-0.60000002384186</ele>
        <time>2021-02-25T10:28:04.000Z</time>
      </trkpt>
      <trkpt lat="47.32218" lon="-2.44056">
        <ele>-0.20000000298023</ele>
        <time>2021-02-25T10:28:05.000Z</time>
      </trkpt>
      <trkpt lat="47.3222" lon="-2.44054">
        <ele>0.20000000298023</ele>
        <time>2021-02-25T10:28:06.000Z</time>
      </trkpt>
      <trkpt lat="47.32222" lon="-2.44051">
        <ele>0.80000001192093</ele>
        <time>2021-02-25T10:28:07.000Z</time>
      </trkpt>
      <trkpt lat="47.32222" lon="-2.44047">
        <ele>1.2000000476837</ele>
        <time>2021-02-25T10:28:08.000Z</time>
      </trkpt>
      <trkpt lat="47.32218" lon="-2.44033">
        <ele>1.2000000476837</ele>
        <time>2021-02-25T10:28:12.000Z</time>
      </trkpt>
      <trkpt lat="47.32209" lon="-2.44022">
        <ele>1.2000000476837</ele>
        <time>2021-02-25T10:28:15.000Z</time>
      </trkpt>
      <trkpt lat="47.32205" lon="-2.44019">
        <ele>1.2000000476837</ele>
        <time>2021-02-25T10:28:16.000Z</time>
      </trkpt>
      <trkpt lat="47.32178" lon="-2.43986">
        <ele>1.2000000476837</ele>
        <time>2021-02-25T10:28:23.000Z</time>
      </trkpt>
      <trkpt lat="47.32152" lon="-2.4395">
        <ele>1.2000000476837</ele>
        <time>2021-02-25T10:28:29.000Z</time>
      </trkpt>
      <trkpt lat="47.32138" lon="-2.43927">
        <ele>1.2000000476837</ele>
        <time>2021-02-25T10:28:32.000Z</time>
      </trkpt>
      <trkpt lat="47.32131" lon="-2.4392">
        <ele>1.2000000476837</ele>
        <time>2021-02-25T10:28:33.000Z</time>
      </trkpt>
      <trkpt lat="47.32117" lon="-2.43907">
        <ele>0.60000002384186</ele>
        <time>2021-02-25T10:28:35.000Z</time>
      </trkpt>
      <trkpt lat="47.32109" lon="-2.43904">
        <ele>0.20000000298023</ele>
        <time>2021-02-25T10:28:36.000Z</time>
      </trkpt>
      <trkpt lat="47.321" lon="-2.43899">
        <ele>-0.20000000298023</ele>
        <time>2021-02-25T10:28:37.000Z</time>
      </trkpt>
      <trkpt lat="47.32092" lon="-2.43894">
        <ele>-0.60000002384186</ele>
        <time>2021-02-25T10:28:38.000Z</time>
      </trkpt>
      <trkpt lat="47.32084" lon="-2.43888">
        <ele>-1</ele>
        <time>2021-02-25T10:28:39.000Z</time>
      </trkpt>
      <trkpt lat="47.32076" lon="-2.4388">
        <ele>-1.6000000238419</ele>
        <time>2021-02-25T10:28:40.000Z</time>
      </trkpt>
      <trkpt lat="47.3207" lon="-2.43871">
        <ele>-2</ele>
        <time>2021-02-25T10:28:41.000Z</time>
      </trkpt>
      <trkpt lat="47.32064" lon="-2.43861">
        <ele>-2.5999999046326</ele>
        <time>2021-02-25T10:28:42.000Z</time>
      </trkpt>
      <trkpt lat="47.3206" lon="-2.4385">
        <ele>-3</ele>
        <time>2021-02-25T10:28:43.000Z</time>
      </trkpt>
      <trkpt lat="47.32054" lon="-2.43841">
        <ele>-3</ele>
        <time>2021-02-25T10:28:44.000Z</time>
      </trkpt>
      <trkpt lat="47.32049" lon="-2.43832">
        <ele>-3</ele>
        <time>2021-02-25T10:28:45.000Z</time>
      </trkpt>
      <trkpt lat="47.32045" lon="-2.43824">
        <ele>-3.4000000953674</ele>
        <time>2021-02-25T10:28:46.000Z</time>
      </trkpt>
      <trkpt lat="47.32041" lon="-2.43818">
        <ele>-3.7999999523163</ele>
        <time>2021-02-25T10:28:47.000Z</time>
      </trkpt>
      <trkpt lat="47.32037" lon="-2.43811">
        <ele>-4.4000000953674</ele>
        <time>2021-02-25T10:28:48.000Z</time>
      </trkpt>
      <trkpt lat="47.32034" lon="-2.43804">
        <ele>-5.1999998092651</ele>
        <time>2021-02-25T10:28:49.000Z</time>
      </trkpt>
      <trkpt lat="47.32031" lon="-2.43799">
        <ele>-5.5999999046326</ele>
        <time>2021-02-25T10:28:50.000Z</time>
      </trkpt>
      <trkpt lat="47.32026" lon="-2.43799">
        <ele>-6</ele>
        <time>2021-02-25T10:28:51.000Z</time>
      </trkpt>
      <trkpt lat="47.3202" lon="-2.43803">
        <ele>-6.5999999046326</ele>
        <time>2021-02-25T10:28:52.000Z</time>
      </trkpt>
      <trkpt lat="47.32015" lon="-2.43809">
        <ele>-7</ele>
        <time>2021-02-25T10:28:53.000Z</time>
      </trkpt>
      <trkpt lat="47.32009" lon="-2.43816">
        <ele>-7.4000000953674</ele>
        <time>2021-02-25T10:28:54.000Z</time>
      </trkpt>
      <trkpt lat="47.32002" lon="-2.43823">
        <ele>-8</ele>
        <time>2021-02-25T10:28:55.000Z</time>
      </trkpt>
      <trkpt lat="47.31996" lon="-2.4383">
        <ele>-8.3999996185303</ele>
        <time>2021-02-25T10:28:56.000Z</time>
      </trkpt>
      <trkpt lat="47.31991" lon="-2.43837">
        <ele>-9</ele>
        <time>2021-02-25T10:28:57.000Z</time>
      </trkpt>
      <trkpt lat="47.31985" lon="-2.4384">
        <ele>-9.6000003814697</ele>
        <time>2021-02-25T10:28:58.000Z</time>
      </trkpt>
      <trkpt lat="47.31979" lon="-2.4384">
        <ele>-10.199999809265</ele>
        <time>2021-02-25T10:28:59.000Z</time>
      </trkpt>
      <trkpt lat="47.31975" lon="-2.43838">
        <ele>-10.60000038147</ele>
        <time>2021-02-25T10:29:00.000Z</time>
      </trkpt>
      <trkpt lat="47.3197" lon="-2.43833">
        <ele>-11.199999809265</ele>
        <time>2021-02-25T10:29:01.000Z</time>
      </trkpt>
      <trkpt lat="47.31966" lon="-2.43827">
        <ele>-11.800000190735</ele>
        <time>2021-02-25T10:29:02.000Z</time>
      </trkpt>
      <trkpt lat="47.31962" lon="-2.4382">
        <ele>-12.39999961853</ele>
        <time>2021-02-25T10:29:03.000Z</time>
      </trkpt>
      <trkpt lat="47.31958" lon="-2.43812">
        <ele>-12.39999961853</ele>
        <time>2021-02-25T10:29:04.000Z</time>
      </trkpt>
      <trkpt lat="47.31946" lon="-2.43787">
        <ele>-12.39999961853</ele>
        <time>2021-02-25T10:29:07.000Z</time>
      </trkpt>
      <trkpt lat="47.31928" lon="-2.43736">
        <ele>-12.39999961853</ele>
        <time>2021-02-25T10:29:12.000Z</time>
      </trkpt>
      <trkpt lat="47.3192" lon="-2.43716">
        <ele>-13.199999809265</ele>
        <time>2021-02-25T10:29:14.000Z</time>
      </trkpt>
      <trkpt lat="47.31916" lon="-2.43706">
        <ele>-13.60000038147</ele>
        <time>2021-02-25T10:29:15.000Z</time>
      </trkpt>
      <trkpt lat="47.31912" lon="-2.43696">
        <ele>-14</ele>
        <time>2021-02-25T10:29:16.000Z</time>
      </trkpt>
      <trkpt lat="47.31908" lon="-2.43686">
        <ele>-14.60000038147</ele>
        <time>2021-02-25T10:29:17.000Z</time>
      </trkpt>
      <trkpt lat="47.319" lon="-2.43667">
        <ele>-14.60000038147</ele>
        <time>2021-02-25T10:29:19.000Z</time>
      </trkpt>
      <trkpt lat="47.3189" lon="-2.43641">
        <ele>-14.60000038147</ele>
        <time>2021-02-25T10:29:22.000Z</time>
      </trkpt>
      <trkpt lat="47.31893" lon="-2.43623">
        <ele>-14.60000038147</ele>
        <time>2021-02-25T10:29:24.000Z</time>
      </trkpt>
      <trkpt lat="47.31902" lon="-2.43613">
        <ele>-14.60000038147</ele>
        <time>2021-02-25T10:29:26.000Z</time>
      </trkpt>
      <trkpt lat="47.31906" lon="-2.43609">
        <ele>-14.60000038147</ele>
        <time>2021-02-25T10:29:27.000Z</time>
      </trkpt>
      <trkpt lat="47.31911" lon="-2.43605">
        <ele>-14.60000038147</ele>
        <time>2021-02-25T10:29:28.000Z</time>
      </trkpt>
      <trkpt lat="47.31923" lon="-2.43593">
        <ele>-14.60000038147</ele>
        <time>2021-02-25T10:29:31.000Z</time>
      </trkpt>
      <trkpt lat="47.31926" lon="-2.43587">
        <ele>-14.60000038147</ele>
        <time>2021-02-25T10:29:32.000Z</time>
      </trkpt>
      <trkpt lat="47.31929" lon="-2.43564">
        <ele>-14.60000038147</ele>
        <time>2021-02-25T10:29:35.000Z</time>
      </trkpt>
      <trkpt lat="47.31929" lon="-2.43557">
        <ele>-14</ele>
        <time>2021-02-25T10:29:36.000Z</time>
      </trkpt>
      <trkpt lat="47.31929" lon="-2.43549">
        <ele>-13.60000038147</ele>
        <time>2021-02-25T10:29:37.000Z</time>
      </trkpt>
      <trkpt lat="47.31929" lon="-2.43541">
        <ele>-13.199999809265</ele>
        <time>2021-02-25T10:29:38.000Z</time>
      </trkpt>
      <trkpt lat="47.31929" lon="-2.43534">
        <ele>-12.39999961853</ele>
        <time>2021-02-25T10:29:39.000Z</time>
      </trkpt>
      <trkpt lat="47.31928" lon="-2.4351">
        <ele>-11.800000190735</ele>
        <time>2021-02-25T10:29:42.000Z</time>
      </trkpt>
      <trkpt lat="47.31928" lon="-2.43502">
        <ele>-11.39999961853</ele>
        <time>2021-02-25T10:29:43.000Z</time>
      </trkpt>
      <trkpt lat="47.31929" lon="-2.43494">
        <ele>-11</ele>
        <time>2021-02-25T10:29:44.000Z</time>
      </trkpt>
      <trkpt lat="47.3193" lon="-2.43486">
        <ele>-10.60000038147</ele>
        <time>2021-02-25T10:29:45.000Z</time>
      </trkpt>
      <trkpt lat="47.31931" lon="-2.43479">
        <ele>-10</ele>
        <time>2021-02-25T10:29:46.000Z</time>
      </trkpt>
      <trkpt lat="47.31933" lon="-2.43471">
        <ele>-10</ele>
        <time>2021-02-25T10:29:47.000Z</time>
      </trkpt>
      <trkpt lat="47.31946" lon="-2.43431">
        <ele>-10</ele>
        <time>2021-02-25T10:29:53.000Z</time>
      </trkpt>
      <trkpt lat="47.3196" lon="-2.43393">
        <ele>-10</ele>
        <time>2021-02-25T10:29:59.000Z</time>
      </trkpt>
      <trkpt lat="47.31963" lon="-2.4338">
        <ele>-9.6000003814697</ele>
        <time>2021-02-25T10:30:01.000Z</time>
      </trkpt>
      <trkpt lat="47.31965" lon="-2.43373">
        <ele>-9.1999998092651</ele>
        <time>2021-02-25T10:30:02.000Z</time>
      </trkpt>
      <trkpt lat="47.31966" lon="-2.43366">
        <ele>-8.8000001907349</ele>
        <time>2021-02-25T10:30:03.000Z</time>
      </trkpt>
      <trkpt lat="47.31968" lon="-2.43359">
        <ele>-8</ele>
        <time>2021-02-25T10:30:04.000Z</time>
      </trkpt>
      <trkpt lat="47.3197" lon="-2.43353">
        <ele>-8</ele>
        <time>2021-02-25T10:30:05.000Z</time>
      </trkpt>
      <trkpt lat="47.31971" lon="-2.43346">
        <ele>-8</ele>
        <time>2021-02-25T10:30:06.000Z</time>
      </trkpt>
      <trkpt lat="47.31974" lon="-2.43333">
        <ele>-7.5999999046326</ele>
        <time>2021-02-25T10:30:08.000Z</time>
      </trkpt>
      <trkpt lat="47.31974" lon="-2.43327">
        <ele>-7</ele>
        <time>2021-02-25T10:30:09.000Z</time>
      </trkpt>
      <trkpt lat="47.31975" lon="-2.43322">
        <ele>-6.5999999046326</ele>
        <time>2021-02-25T10:30:10.000Z</time>
      </trkpt>
      <trkpt lat="47.31976" lon="-2.43317">
        <ele>-6.1999998092651</ele>
        <time>2021-02-25T10:30:11.000Z</time>
      </trkpt>
      <trkpt lat="47.31976" lon="-2.43311">
        <ele>-5.8000001907349</ele>
        <time>2021-02-25T10:30:12.000Z</time>
      </trkpt>
      <trkpt lat="47.31975" lon="-2.43294">
        <ele>-5.8000001907349</ele>
        <time>2021-02-25T10:30:17.000Z</time>
      </trkpt>
      <trkpt lat="47.31976" lon="-2.43282">
        <ele>-5.8000001907349</ele>
        <time>2021-02-25T10:30:22.000Z</time>
      </trkpt>
      <trkpt lat="47.31979" lon="-2.43278">
        <ele>-5.8000001907349</ele>
        <time>2021-02-25T10:30:25.000Z</time>
      </trkpt>
      <trkpt lat="47.3198" lon="-2.43283">
        <ele>-5.8000001907349</ele>
        <time>2021-02-25T10:30:27.000Z</time>
      </trkpt>
      <trkpt lat="47.3198" lon="-2.43288">
        <ele>-5.8000001907349</ele>
        <time>2021-02-25T10:30:29.000Z</time>
      </trkpt>
      <trkpt lat="47.31981" lon="-2.43295">
        <ele>-5.8000001907349</ele>
        <time>2021-02-25T10:30:32.000Z</time>
      </trkpt>
      <trkpt lat="47.31981" lon="-2.43299">
        <ele>-5.8000001907349</ele>
        <time>2021-02-25T10:30:34.000Z</time>
      </trkpt>
      <trkpt lat="47.31976" lon="-2.43301">
        <ele>-5.8000001907349</ele>
        <time>2021-02-25T10:30:37.000Z</time>
      </trkpt>
      <trkpt lat="47.31974" lon="-2.43294">
        <ele>-5.8000001907349</ele>
        <time>2021-02-25T10:30:41.000Z</time>
      </trkpt>
      <trkpt lat="47.31975" lon="-2.43285">
        <ele>-5.8000001907349</ele>
        <time>2021-02-25T10:30:45.000Z</time>
      </trkpt>
      <trkpt lat="47.31975" lon="-2.43281">
        <ele>-5.8000001907349</ele>
        <time>2021-02-25T10:30:47.000Z</time>
      </trkpt>
      <trkpt lat="47.31976" lon="-2.43278">
        <ele>-5.8000001907349</ele>
        <time>2021-02-25T10:30:49.000Z</time>
      </trkpt>
      <trkpt lat="47.31978" lon="-2.43279">
        <ele>-5.8000001907349</ele>
        <time>2021-02-25T10:30:51.000Z</time>
      </trkpt>
      <trkpt lat="47.31977" lon="-2.43282">
        <ele>-5.8000001907349</ele>
        <time>2021-02-25T10:30:52.000Z</time>
      </trkpt>
      <trkpt lat="47.31967" lon="-2.43284">
        <ele>-5.8000001907349</ele>
        <time>2021-02-25T10:30:56.000Z</time>
      </trkpt>
      <trkpt lat="47.31964" lon="-2.43284">
        <ele>-5.8000001907349</ele>
        <time>2021-02-25T10:30:57.000Z</time>
      </trkpt>
      <trkpt lat="47.31956" lon="-2.43286">
        <ele>-5.8000001907349</ele>
        <time>2021-02-25T10:30:59.000Z</time>
      </trkpt>
      <trkpt lat="47.31948" lon="-2.43291">
        <ele>-5.8000001907349</ele>
        <time>2021-02-25T10:31:01.000Z</time>
      </trkpt>
      <trkpt lat="47.31938" lon="-2.43297">
        <ele>-5.8000001907349</ele>
        <time>2021-02-25T10:31:03.000Z</time>
      </trkpt>
      <trkpt lat="47.31921" lon="-2.43307">
        <ele>-6.1999998092651</ele>
        <time>2021-02-25T10:31:06.000Z</time>
      </trkpt>
      <trkpt lat="47.31912" lon="-2.43312">
        <ele>-6.5999999046326</ele>
        <time>2021-02-25T10:31:07.000Z</time>
      </trkpt>
      <trkpt lat="47.31905" lon="-2.43316">
        <ele>-7</ele>
        <time>2021-02-25T10:31:08.000Z</time>
      </trkpt>
      <trkpt lat="47.31898" lon="-2.43321">
        <ele>-7.4000000953674</ele>
        <time>2021-02-25T10:31:09.000Z</time>
      </trkpt>
      <trkpt lat="47.31891" lon="-2.43325">
        <ele>-7.8000001907349</ele>
        <time>2021-02-25T10:31:10.000Z</time>
      </trkpt>
      <trkpt lat="47.31884" lon="-2.4333">
        <ele>-8.3999996185303</ele>
        <time>2021-02-25T10:31:11.000Z</time>
      </trkpt>
      <trkpt lat="47.31876" lon="-2.43336">
        <ele>-9.1999998092651</ele>
        <time>2021-02-25T10:31:12.000Z</time>
      </trkpt>
      <trkpt lat="47.31869" lon="-2.43342">
        <ele>-9.8000001907349</ele>
        <time>2021-02-25T10:31:13.000Z</time>
      </trkpt>
      <trkpt lat="47.31862" lon="-2.43347">
        <ele>-10.199999809265</ele>
        <time>2021-02-25T10:31:14.000Z</time>
      </trkpt>
      <trkpt lat="47.31854" lon="-2.43353">
        <ele>-10.800000190735</ele>
        <time>2021-02-25T10:31:15.000Z</time>
      </trkpt>
      <trkpt lat="47.31847" lon="-2.4336">
        <ele>-11.199999809265</ele>
        <time>2021-02-25T10:31:16.000Z</time>
      </trkpt>
      <trkpt lat="47.3184" lon="-2.43367">
        <ele>-11.800000190735</ele>
        <time>2021-02-25T10:31:17.000Z</time>
      </trkpt>
      <trkpt lat="47.31833" lon="-2.43373">
        <ele>-12.199999809265</ele>
        <time>2021-02-25T10:31:18.000Z</time>
      </trkpt>
      <trkpt lat="47.3181" lon="-2.43389">
        <ele>-12.199999809265</ele>
        <time>2021-02-25T10:31:21.000Z</time>
      </trkpt>
      <trkpt lat="47.31786" lon="-2.43401">
        <ele>-12.60000038147</ele>
        <time>2021-02-25T10:31:24.000Z</time>
      </trkpt>
      <trkpt lat="47.31778" lon="-2.43405">
        <ele>-13</ele>
        <time>2021-02-25T10:31:25.000Z</time>
      </trkpt>
      <trkpt lat="47.3177" lon="-2.4341">
        <ele>-13.39999961853</ele>
        <time>2021-02-25T10:31:26.000Z</time>
      </trkpt>
      <trkpt lat="47.31761" lon="-2.43414">
        <ele>-13.800000190735</ele>
        <time>2021-02-25T10:31:27.000Z</time>
      </trkpt>
      <trkpt lat="47.31753" lon="-2.43419">
        <ele>-14.199999809265</ele>
        <time>2021-02-25T10:31:28.000Z</time>
      </trkpt>
      <trkpt lat="47.31746" lon="-2.43423">
        <ele>-14.199999809265</ele>
        <time>2021-02-25T10:31:29.000Z</time>
      </trkpt>
      <trkpt lat="47.31724" lon="-2.43438">
        <ele>-14.199999809265</ele>
        <time>2021-02-25T10:31:32.000Z</time>
      </trkpt>
      <trkpt lat="47.31718" lon="-2.43445">
        <ele>-14.60000038147</ele>
        <time>2021-02-25T10:31:33.000Z</time>
      </trkpt>
      <trkpt lat="47.31712" lon="-2.43453">
        <ele>-15</ele>
        <time>2021-02-25T10:31:34.000Z</time>
      </trkpt>
      <trkpt lat="47.31707" lon="-2.43463">
        <ele>-15.39999961853</ele>
        <time>2021-02-25T10:31:35.000Z</time>
      </trkpt>
      <trkpt lat="47.31703" lon="-2.43472">
        <ele>-16.39999961853</ele>
        <time>2021-02-25T10:31:36.000Z</time>
      </trkpt>
      <trkpt lat="47.31699" lon="-2.43482">
        <ele>-16.39999961853</ele>
        <time>2021-02-25T10:31:37.000Z</time>
      </trkpt>
      <trkpt lat="47.31694" lon="-2.43492">
        <ele>-16.39999961853</ele>
        <time>2021-02-25T10:31:38.000Z</time>
      </trkpt>
      <trkpt lat="47.31661" lon="-2.43546">
        <ele>-16.799999237061</ele>
        <time>2021-02-25T10:31:44.000Z</time>
      </trkpt>
      <trkpt lat="47.31655" lon="-2.43554">
        <ele>-17.200000762939</ele>
        <time>2021-02-25T10:31:45.000Z</time>
      </trkpt>
      <trkpt lat="47.31648" lon="-2.43562">
        <ele>-17.60000038147</ele>
        <time>2021-02-25T10:31:46.000Z</time>
      </trkpt>
      <trkpt lat="47.31642" lon="-2.4357">
        <ele>-18</ele>
        <time>2021-02-25T10:31:47.000Z</time>
      </trkpt>
      <trkpt lat="47.31635" lon="-2.43577">
        <ele>-18.39999961853</ele>
        <time>2021-02-25T10:31:48.000Z</time>
      </trkpt>
      <trkpt lat="47.31621" lon="-2.43591">
        <ele>-18.39999961853</ele>
        <time>2021-02-25T10:31:50.000Z</time>
      </trkpt>
      <trkpt lat="47.31577" lon="-2.43624">
        <ele>-18.39999961853</ele>
        <time>2021-02-25T10:31:56.000Z</time>
      </trkpt>
      <trkpt lat="47.31533" lon="-2.43657">
        <ele>-19</ele>
        <time>2021-02-25T10:32:02.000Z</time>
      </trkpt>
      <trkpt lat="47.31526" lon="-2.43663">
        <ele>-19.39999961853</ele>
        <time>2021-02-25T10:32:03.000Z</time>
      </trkpt>
      <trkpt lat="47.31519" lon="-2.43669">
        <ele>-19.799999237061</ele>
        <time>2021-02-25T10:32:04.000Z</time>
      </trkpt>
      <trkpt lat="47.31512" lon="-2.43675">
        <ele>-20.200000762939</ele>
        <time>2021-02-25T10:32:05.000Z</time>
      </trkpt>
      <trkpt lat="47.31504" lon="-2.4368">
        <ele>-20.799999237061</ele>
        <time>2021-02-25T10:32:06.000Z</time>
      </trkpt>
      <trkpt lat="47.31459" lon="-2.43713">
        <ele>-20.799999237061</ele>
        <time>2021-02-25T10:32:12.000Z</time>
      </trkpt>
      <trkpt lat="47.31407" lon="-2.4375">
        <ele>-20.799999237061</ele>
        <time>2021-02-25T10:32:19.000Z</time>
      </trkpt>
      <trkpt lat="47.31399" lon="-2.43755">
        <ele>-20.799999237061</ele>
        <time>2021-02-25T10:32:20.000Z</time>
      </trkpt>
      <trkpt lat="47.31349" lon="-2.43795">
        <ele>-21.200000762939</ele>
        <time>2021-02-25T10:32:27.000Z</time>
      </trkpt>
      <trkpt lat="47.31343" lon="-2.43802">
        <ele>-21.60000038147</ele>
        <time>2021-02-25T10:32:28.000Z</time>
      </trkpt>
      <trkpt lat="47.31337" lon="-2.43806">
        <ele>-22</ele>
        <time>2021-02-25T10:32:29.000Z</time>
      </trkpt>
      <trkpt lat="47.31332" lon="-2.4381">
        <ele>-22.39999961853</ele>
        <time>2021-02-25T10:32:30.000Z</time>
      </trkpt>
      <trkpt lat="47.31327" lon="-2.43813">
        <ele>-22.799999237061</ele>
        <time>2021-02-25T10:32:31.000Z</time>
      </trkpt>
      <trkpt lat="47.31322" lon="-2.43816">
        <ele>-22.799999237061</ele>
        <time>2021-02-25T10:32:32.000Z</time>
      </trkpt>
      <trkpt lat="47.31307" lon="-2.43813">
        <ele>-22.799999237061</ele>
        <time>2021-02-25T10:32:35.000Z</time>
      </trkpt>
      <trkpt lat="47.31295" lon="-2.43795">
        <ele>-22.799999237061</ele>
        <time>2021-02-25T10:32:38.000Z</time>
      </trkpt>
      <trkpt lat="47.31275" lon="-2.43751">
        <ele>-22.799999237061</ele>
        <time>2021-02-25T10:32:43.000Z</time>
      </trkpt>
      <trkpt lat="47.31253" lon="-2.43697">
        <ele>-22.799999237061</ele>
        <time>2021-02-25T10:32:49.000Z</time>
      </trkpt>
      <trkpt lat="47.31241" lon="-2.43645">
        <ele>-22.799999237061</ele>
        <time>2021-02-25T10:32:55.000Z</time>
      </trkpt>
      <trkpt lat="47.31232" lon="-2.4359">
        <ele>-22.799999237061</ele>
        <time>2021-02-25T10:33:02.000Z</time>
      </trkpt>
      <trkpt lat="47.31222" lon="-2.43527">
        <ele>-22.799999237061</ele>
        <time>2021-02-25T10:33:10.000Z</time>
      </trkpt>
      <trkpt lat="47.31213" lon="-2.43458">
        <ele>-22.799999237061</ele>
        <time>2021-02-25T10:33:18.000Z</time>
      </trkpt>
      <trkpt lat="47.312" lon="-2.43374">
        <ele>-22.799999237061</ele>
        <time>2021-02-25T10:33:27.000Z</time>
      </trkpt>
      <trkpt lat="47.31189" lon="-2.43317">
        <ele>-22.799999237061</ele>
        <time>2021-02-25T10:33:34.000Z</time>
      </trkpt>
      <trkpt lat="47.31186" lon="-2.43309">
        <ele>-22.799999237061</ele>
        <time>2021-02-25T10:33:35.000Z</time>
      </trkpt>
      <trkpt lat="47.31174" lon="-2.43286">
        <ele>-22.799999237061</ele>
        <time>2021-02-25T10:33:38.000Z</time>
      </trkpt>
      <trkpt lat="47.31155" lon="-2.43256">
        <ele>-22.799999237061</ele>
        <time>2021-02-25T10:33:42.000Z</time>
      </trkpt>
      <trkpt lat="47.3115" lon="-2.43249">
        <ele>-22.799999237061</ele>
        <time>2021-02-25T10:33:43.000Z</time>
      </trkpt>
      <trkpt lat="47.31122" lon="-2.43204">
        <ele>-22.799999237061</ele>
        <time>2021-02-25T10:33:49.000Z</time>
      </trkpt>
      <trkpt lat="47.31114" lon="-2.43192">
        <ele>-22.799999237061</ele>
        <time>2021-02-25T10:33:51.000Z</time>
      </trkpt>
      <trkpt lat="47.31108" lon="-2.4319">
        <ele>-22.799999237061</ele>
        <time>2021-02-25T10:33:52.000Z</time>
      </trkpt>
      <trkpt lat="47.31091" lon="-2.43199">
        <ele>-22.799999237061</ele>
        <time>2021-02-25T10:33:55.000Z</time>
      </trkpt>
      <trkpt lat="47.31086" lon="-2.43204">
        <ele>-22.799999237061</ele>
        <time>2021-02-25T10:33:56.000Z</time>
      </trkpt>
      <trkpt lat="47.3108" lon="-2.43209">
        <ele>-23.200000762939</ele>
        <time>2021-02-25T10:33:57.000Z</time>
      </trkpt>
      <trkpt lat="47.31075" lon="-2.43214">
        <ele>-23.60000038147</ele>
        <time>2021-02-25T10:33:58.000Z</time>
      </trkpt>
      <trkpt lat="47.31069" lon="-2.43219">
        <ele>-24</ele>
        <time>2021-02-25T10:33:59.000Z</time>
      </trkpt>
      <trkpt lat="47.31063" lon="-2.43225">
        <ele>-24.60000038147</ele>
        <time>2021-02-25T10:34:00.000Z</time>
      </trkpt>
      <trkpt lat="47.31057" lon="-2.43231">
        <ele>-25</ele>
        <time>2021-02-25T10:34:01.000Z</time>
      </trkpt>
      <trkpt lat="47.31052" lon="-2.43237">
        <ele>-25</ele>
        <time>2021-02-25T10:34:02.000Z</time>
      </trkpt>
      <trkpt lat="47.31031" lon="-2.43269">
        <ele>-25</ele>
        <time>2021-02-25T10:34:06.000Z</time>
      </trkpt>
      <trkpt lat="47.3102" lon="-2.43284">
        <ele>-25</ele>
        <time>2021-02-25T10:34:08.000Z</time>
      </trkpt>
      <trkpt lat="47.31002" lon="-2.43304">
        <ele>-25</ele>
        <time>2021-02-25T10:34:11.000Z</time>
      </trkpt>
      <trkpt lat="47.30988" lon="-2.43314">
        <ele>-25</ele>
        <time>2021-02-25T10:34:13.000Z</time>
      </trkpt>
      <trkpt lat="47.30966" lon="-2.43326">
        <ele>-25</ele>
        <time>2021-02-25T10:34:16.000Z</time>
      </trkpt>
      <trkpt lat="47.30918" lon="-2.43344">
        <ele>-25</ele>
        <time>2021-02-25T10:34:22.000Z</time>
      </trkpt>
      <trkpt lat="47.3086" lon="-2.43368">
        <ele>-25</ele>
        <time>2021-02-25T10:34:29.000Z</time>
      </trkpt>
      <trkpt lat="47.3081" lon="-2.43388">
        <ele>-25.39999961853</ele>
        <time>2021-02-25T10:34:35.000Z</time>
      </trkpt>
      <trkpt lat="47.30801" lon="-2.43389">
        <ele>-25.799999237061</ele>
        <time>2021-02-25T10:34:36.000Z</time>
      </trkpt>
      <trkpt lat="47.30792" lon="-2.43389">
        <ele>-26.200000762939</ele>
        <time>2021-02-25T10:34:37.000Z</time>
      </trkpt>
      <trkpt lat="47.30784" lon="-2.43389">
        <ele>-26.60000038147</ele>
        <time>2021-02-25T10:34:38.000Z</time>
      </trkpt>
      <trkpt lat="47.30775" lon="-2.43388">
        <ele>-27</ele>
        <time>2021-02-25T10:34:39.000Z</time>
      </trkpt>
      <trkpt lat="47.30736" lon="-2.4339">
        <ele>-27</ele>
        <time>2021-02-25T10:34:44.000Z</time>
      </trkpt>
      <trkpt lat="47.307" lon="-2.43393">
        <ele>-27</ele>
        <time>2021-02-25T10:34:49.000Z</time>
      </trkpt>
      <trkpt lat="47.30694" lon="-2.43394">
        <ele>-27</ele>
        <time>2021-02-25T10:34:50.000Z</time>
      </trkpt>
      <trkpt lat="47.30669" lon="-2.43397">
        <ele>-27</ele>
        <time>2021-02-25T10:34:54.000Z</time>
      </trkpt>
      <trkpt lat="47.30662" lon="-2.43399">
        <ele>-27</ele>
        <time>2021-02-25T10:34:55.000Z</time>
      </trkpt>
      <trkpt lat="47.30614" lon="-2.43413">
        <ele>-27</ele>
        <time>2021-02-25T10:35:02.000Z</time>
      </trkpt>
      <trkpt lat="47.30567" lon="-2.43421">
        <ele>-27</ele>
        <time>2021-02-25T10:35:09.000Z</time>
      </trkpt>
      <trkpt lat="47.30547" lon="-2.43421">
        <ele>-27</ele>
        <time>2021-02-25T10:35:12.000Z</time>
      </trkpt>
      <trkpt lat="47.30533" lon="-2.43419">
        <ele>-27</ele>
        <time>2021-02-25T10:35:14.000Z</time>
      </trkpt>
      <trkpt lat="47.30482" lon="-2.43413">
        <ele>-27</ele>
        <time>2021-02-25T10:35:21.000Z</time>
      </trkpt>
      <trkpt lat="47.30468" lon="-2.43412">
        <ele>-27</ele>
        <time>2021-02-25T10:35:23.000Z</time>
      </trkpt>
      <trkpt lat="47.30455" lon="-2.43417">
        <ele>-27</ele>
        <time>2021-02-25T10:35:25.000Z</time>
      </trkpt>
      <trkpt lat="47.30442" lon="-2.43421">
        <ele>-27</ele>
        <time>2021-02-25T10:35:27.000Z</time>
      </trkpt>
      <trkpt lat="47.30435" lon="-2.43418">
        <ele>-27</ele>
        <time>2021-02-25T10:35:28.000Z</time>
      </trkpt>
      <trkpt lat="47.30423" lon="-2.43394">
        <ele>-27</ele>
        <time>2021-02-25T10:35:31.000Z</time>
      </trkpt>
      <trkpt lat="47.30418" lon="-2.43365">
        <ele>-27</ele>
        <time>2021-02-25T10:35:34.000Z</time>
      </trkpt>
      <trkpt lat="47.30415" lon="-2.43345">
        <ele>-27</ele>
        <time>2021-02-25T10:35:36.000Z</time>
      </trkpt>
      <trkpt lat="47.30398" lon="-2.4327">
        <ele>-27</ele>
        <time>2021-02-25T10:35:44.000Z</time>
      </trkpt>
      <trkpt lat="47.30392" lon="-2.43253">
        <ele>-27</ele>
        <time>2021-02-25T10:35:46.000Z</time>
      </trkpt>
      <trkpt lat="47.30383" lon="-2.4324">
        <ele>-27</ele>
        <time>2021-02-25T10:35:48.000Z</time>
      </trkpt>
      <trkpt lat="47.30364" lon="-2.43235">
        <ele>-27</ele>
        <time>2021-02-25T10:35:51.000Z</time>
      </trkpt>
      <trkpt lat="47.30351" lon="-2.4324">
        <ele>-27</ele>
        <time>2021-02-25T10:35:53.000Z</time>
      </trkpt>
      <trkpt lat="47.30344" lon="-2.43241">
        <ele>-27</ele>
        <time>2021-02-25T10:35:54.000Z</time>
      </trkpt>
      <trkpt lat="47.30338" lon="-2.43243">
        <ele>-27</ele>
        <time>2021-02-25T10:35:55.000Z</time>
      </trkpt>
      <trkpt lat="47.30291" lon="-2.43254">
        <ele>-27</ele>
        <time>2021-02-25T10:36:02.000Z</time>
      </trkpt>
      <trkpt lat="47.30249" lon="-2.43268">
        <ele>-27</ele>
        <time>2021-02-25T10:36:08.000Z</time>
      </trkpt>
      <trkpt lat="47.30199" lon="-2.4329">
        <ele>-27</ele>
        <time>2021-02-25T10:36:15.000Z</time>
      </trkpt>
      <trkpt lat="47.30154" lon="-2.43309">
        <ele>-27</ele>
        <time>2021-02-25T10:36:21.000Z</time>
      </trkpt>
      <trkpt lat="47.301" lon="-2.43324">
        <ele>-27</ele>
        <time>2021-02-25T10:36:28.000Z</time>
      </trkpt>
      <trkpt lat="47.30046" lon="-2.43336">
        <ele>-27</ele>
        <time>2021-02-25T10:36:35.000Z</time>
      </trkpt>
      <trkpt lat="47.30039" lon="-2.43336">
        <ele>-27</ele>
        <time>2021-02-25T10:36:36.000Z</time>
      </trkpt>
      <trkpt lat="47.30016" lon="-2.4333">
        <ele>-27</ele>
        <time>2021-02-25T10:36:39.000Z</time>
      </trkpt>
      <trkpt lat="47.2999" lon="-2.43308">
        <ele>-27</ele>
        <time>2021-02-25T10:36:43.000Z</time>
      </trkpt>
      <trkpt lat="47.29984" lon="-2.43302">
        <ele>-27</ele>
        <time>2021-02-25T10:36:44.000Z</time>
      </trkpt>
      <trkpt lat="47.29962" lon="-2.43294">
        <ele>-27</ele>
        <time>2021-02-25T10:36:47.000Z</time>
      </trkpt>
      <trkpt lat="47.29942" lon="-2.43302">
        <ele>-27</ele>
        <time>2021-02-25T10:36:50.000Z</time>
      </trkpt>
      <trkpt lat="47.29935" lon="-2.43305">
        <ele>-27</ele>
        <time>2021-02-25T10:36:51.000Z</time>
      </trkpt>
      <trkpt lat="47.29914" lon="-2.43312">
        <ele>-27</ele>
        <time>2021-02-25T10:36:55.000Z</time>
      </trkpt>
      <trkpt lat="47.29903" lon="-2.43311">
        <ele>-27</ele>
        <time>2021-02-25T10:36:59.000Z</time>
      </trkpt>
      <trkpt lat="47.29903" lon="-2.43309">
        <ele>-27</ele>
        <time>2021-02-25T10:37:01.000Z</time>
      </trkpt>
      <trkpt lat="47.29901" lon="-2.43311">
        <ele>-27</ele>
        <time>2021-02-25T10:37:11.000Z</time>
      </trkpt>
      <trkpt lat="47.29891" lon="-2.43319">
        <ele>-27</ele>
        <time>2021-02-25T10:37:16.000Z</time>
      </trkpt>
      <trkpt lat="47.29874" lon="-2.43333">
        <ele>-27</ele>
        <time>2021-02-25T10:37:22.000Z</time>
      </trkpt>
      <trkpt lat="47.29867" lon="-2.43339">
        <ele>-27</ele>
        <time>2021-02-25T10:37:24.000Z</time>
      </trkpt>
      <trkpt lat="47.29856" lon="-2.4335">
        <ele>-27</ele>
        <time>2021-02-25T10:37:27.000Z</time>
      </trkpt>
      <trkpt lat="47.29824" lon="-2.43387">
        <ele>-27</ele>
        <time>2021-02-25T10:37:35.000Z</time>
      </trkpt>
      <trkpt lat="47.29779" lon="-2.43437">
        <ele>-27</ele>
        <time>2021-02-25T10:37:45.000Z</time>
      </trkpt>
      <trkpt lat="47.29749" lon="-2.43468">
        <ele>-27</ele>
        <time>2021-02-25T10:37:52.000Z</time>
      </trkpt>
      <trkpt lat="47.29741" lon="-2.43476">
        <ele>-27</ele>
        <time>2021-02-25T10:37:54.000Z</time>
      </trkpt>
      <trkpt lat="47.29728" lon="-2.43489">
        <ele>-27</ele>
        <time>2021-02-25T10:37:57.000Z</time>
      </trkpt>
      <trkpt lat="47.29723" lon="-2.43493">
        <ele>-27</ele>
        <time>2021-02-25T10:37:58.000Z</time>
      </trkpt>
      <trkpt lat="47.29694" lon="-2.43514">
        <ele>-27</ele>
        <time>2021-02-25T10:38:04.000Z</time>
      </trkpt>
      <trkpt lat="47.29666" lon="-2.43534">
        <ele>-27</ele>
        <time>2021-02-25T10:38:11.000Z</time>
      </trkpt>
      <trkpt lat="47.29647" lon="-2.43543">
        <ele>-27</ele>
        <time>2021-02-25T10:38:15.000Z</time>
      </trkpt>
      <trkpt lat="47.29643" lon="-2.43548">
        <ele>-27</ele>
        <time>2021-02-25T10:38:16.000Z</time>
      </trkpt>
      <trkpt lat="47.29634" lon="-2.43554">
        <ele>-27</ele>
        <time>2021-02-25T10:38:18.000Z</time>
      </trkpt>
      <trkpt lat="47.2963" lon="-2.43553">
        <ele>-27</ele>
        <time>2021-02-25T10:38:19.000Z</time>
      </trkpt>
      <trkpt lat="47.29624" lon="-2.43544">
        <ele>-27</ele>
        <time>2021-02-25T10:38:21.000Z</time>
      </trkpt>
      <trkpt lat="47.29627" lon="-2.43522">
        <ele>-27</ele>
        <time>2021-02-25T10:38:24.000Z</time>
      </trkpt>
      <trkpt lat="47.29624" lon="-2.435">
        <ele>-27</ele>
        <time>2021-02-25T10:38:27.000Z</time>
      </trkpt>
      <trkpt lat="47.29614" lon="-2.43495">
        <ele>-27</ele>
        <time>2021-02-25T10:38:29.000Z</time>
      </trkpt>
      <trkpt lat="47.29603" lon="-2.43496">
        <ele>-27</ele>
        <time>2021-02-25T10:38:31.000Z</time>
      </trkpt>
      <trkpt lat="47.29586" lon="-2.43498">
        <ele>-27</ele>
        <time>2021-02-25T10:38:34.000Z</time>
      </trkpt>
      <trkpt lat="47.29539" lon="-2.43492">
        <ele>-27</ele>
        <time>2021-02-25T10:38:42.000Z</time>
      </trkpt>
      <trkpt lat="47.295" lon="-2.4348">
        <ele>-27</ele>
        <time>2021-02-25T10:38:49.000Z</time>
      </trkpt>
      <trkpt lat="47.29468" lon="-2.43465">
        <ele>-27</ele>
        <time>2021-02-25T10:38:56.000Z</time>
      </trkpt>
      <trkpt lat="47.29455" lon="-2.43468">
        <ele>-27</ele>
        <time>2021-02-25T10:39:01.000Z</time>
      </trkpt>
      <trkpt lat="47.29452" lon="-2.43467">
        <ele>-27</ele>
        <time>2021-02-25T10:39:02.000Z</time>
      </trkpt>
      <trkpt lat="47.29447" lon="-2.4346">
        <ele>-27</ele>
        <time>2021-02-25T10:39:04.000Z</time>
      </trkpt>
      <trkpt lat="47.29443" lon="-2.43447">
        <ele>-27</ele>
        <time>2021-02-25T10:39:07.000Z</time>
      </trkpt>
      <trkpt lat="47.29442" lon="-2.43445">
        <ele>-27</ele>
        <time>2021-02-25T10:39:08.000Z</time>
      </trkpt>
      <trkpt lat="47.29437" lon="-2.43424">
        <ele>-27</ele>
        <time>2021-02-25T10:39:13.000Z</time>
      </trkpt>
      <trkpt lat="47.29434" lon="-2.43405">
        <ele>-27</ele>
        <time>2021-02-25T10:39:16.000Z</time>
      </trkpt>
      <trkpt lat="47.2943" lon="-2.43395">
        <ele>-27</ele>
        <time>2021-02-25T10:39:18.000Z</time>
      </trkpt>
      <trkpt lat="47.29427" lon="-2.43392">
        <ele>-27</ele>
        <time>2021-02-25T10:39:19.000Z</time>
      </trkpt>
      <trkpt lat="47.2942" lon="-2.43389">
        <ele>-27</ele>
        <time>2021-02-25T10:39:21.000Z</time>
      </trkpt>
      <trkpt lat="47.29412" lon="-2.43383">
        <ele>-27</ele>
        <time>2021-02-25T10:39:24.000Z</time>
      </trkpt>
      <trkpt lat="47.2941" lon="-2.4338">
        <ele>-27</ele>
        <time>2021-02-25T10:39:25.000Z</time>
      </trkpt>
      <trkpt lat="47.29409" lon="-2.43367">
        <ele>-27</ele>
        <time>2021-02-25T10:39:28.000Z</time>
      </trkpt>
      <trkpt lat="47.29409" lon="-2.43361">
        <ele>-27</ele>
        <time>2021-02-25T10:39:29.000Z</time>
      </trkpt>
      <trkpt lat="47.29399" lon="-2.43341">
        <ele>-27</ele>
        <time>2021-02-25T10:39:33.000Z</time>
      </trkpt>
      <trkpt lat="47.29389" lon="-2.43328">
        <ele>-27</ele>
        <time>2021-02-25T10:39:36.000Z</time>
      </trkpt>
      <trkpt lat="47.29375" lon="-2.43308">
        <ele>-27</ele>
        <time>2021-02-25T10:39:40.000Z</time>
      </trkpt>
      <trkpt lat="47.29368" lon="-2.433">
        <ele>-27</ele>
        <time>2021-02-25T10:39:42.000Z</time>
      </trkpt>
      <trkpt lat="47.29362" lon="-2.43283">
        <ele>-27</ele>
        <time>2021-02-25T10:39:45.000Z</time>
      </trkpt>
      <trkpt lat="47.29361" lon="-2.43276">
        <ele>-27</ele>
        <time>2021-02-25T10:39:46.000Z</time>
      </trkpt>
      <trkpt lat="47.29358" lon="-2.43262">
        <ele>-27</ele>
        <time>2021-02-25T10:39:48.000Z</time>
      </trkpt>
      <trkpt lat="47.29357" lon="-2.43255">
        <ele>-27</ele>
        <time>2021-02-25T10:39:49.000Z</time>
      </trkpt>
      <trkpt lat="47.29357" lon="-2.43248">
        <ele>-27</ele>
        <time>2021-02-25T10:39:50.000Z</time>
      </trkpt>
      <trkpt lat="47.29367" lon="-2.43224">
        <ele>-27</ele>
        <time>2021-02-25T10:39:54.000Z</time>
      </trkpt>
      <trkpt lat="47.29371" lon="-2.43217">
        <ele>-27</ele>
        <time>2021-02-25T10:39:55.000Z</time>
      </trkpt>
      <trkpt lat="47.29373" lon="-2.43201">
        <ele>-27</ele>
        <time>2021-02-25T10:39:57.000Z</time>
      </trkpt>
      <trkpt lat="47.2937" lon="-2.43169">
        <ele>-27</ele>
        <time>2021-02-25T10:40:01.000Z</time>
      </trkpt>
      <trkpt lat="47.29366" lon="-2.43152">
        <ele>-27</ele>
        <time>2021-02-25T10:40:03.000Z</time>
      </trkpt>
      <trkpt lat="47.29359" lon="-2.43128">
        <ele>-27</ele>
        <time>2021-02-25T10:40:06.000Z</time>
      </trkpt>
      <trkpt lat="47.29349" lon="-2.43107">
        <ele>-27</ele>
        <time>2021-02-25T10:40:09.000Z</time>
      </trkpt>
      <trkpt lat="47.29342" lon="-2.43093">
        <ele>-27</ele>
        <time>2021-02-25T10:40:11.000Z</time>
      </trkpt>
      <trkpt lat="47.29328" lon="-2.4308">
        <ele>-27</ele>
        <time>2021-02-25T10:40:14.000Z</time>
      </trkpt>
      <trkpt lat="47.29324" lon="-2.43077">
        <ele>-27</ele>
        <time>2021-02-25T10:40:15.000Z</time>
      </trkpt>
      <trkpt lat="47.29319" lon="-2.43074">
        <ele>-27</ele>
        <time>2021-02-25T10:40:16.000Z</time>
      </trkpt>
      <trkpt lat="47.29307" lon="-2.43063">
        <ele>-27</ele>
        <time>2021-02-25T10:40:19.000Z</time>
      </trkpt>
      <trkpt lat="47.29304" lon="-2.43041">
        <ele>-27</ele>
        <time>2021-02-25T10:40:22.000Z</time>
      </trkpt>
      <trkpt lat="47.29305" lon="-2.43033">
        <ele>-27</ele>
        <time>2021-02-25T10:40:23.000Z</time>
      </trkpt>
      <trkpt lat="47.29312" lon="-2.42982">
        <ele>-27</ele>
        <time>2021-02-25T10:40:29.000Z</time>
      </trkpt>
      <trkpt lat="47.29313" lon="-2.42973">
        <ele>-27</ele>
        <time>2021-02-25T10:40:30.000Z</time>
      </trkpt>
      <trkpt lat="47.29311" lon="-2.42945">
        <ele>-27</ele>
        <time>2021-02-25T10:40:33.000Z</time>
      </trkpt>
      <trkpt lat="47.29311" lon="-2.42936">
        <ele>-27</ele>
        <time>2021-02-25T10:40:34.000Z</time>
      </trkpt>
      <trkpt lat="47.29313" lon="-2.42919">
        <ele>-27</ele>
        <time>2021-02-25T10:40:36.000Z</time>
      </trkpt>
      <trkpt lat="47.29317" lon="-2.42902">
        <ele>-27</ele>
        <time>2021-02-25T10:40:38.000Z</time>
      </trkpt>
      <trkpt lat="47.29327" lon="-2.42867">
        <ele>-27</ele>
        <time>2021-02-25T10:40:42.000Z</time>
      </trkpt>
      <trkpt lat="47.2933" lon="-2.42858">
        <ele>-27</ele>
        <time>2021-02-25T10:40:43.000Z</time>
      </trkpt>
      <trkpt lat="47.29342" lon="-2.42836">
        <ele>-27</ele>
        <time>2021-02-25T10:40:46.000Z</time>
      </trkpt>
      <trkpt lat="47.29351" lon="-2.42823">
        <ele>-27</ele>
        <time>2021-02-25T10:40:48.000Z</time>
      </trkpt>
      <trkpt lat="47.29365" lon="-2.42808">
        <ele>-27</ele>
        <time>2021-02-25T10:40:51.000Z</time>
      </trkpt>
      <trkpt lat="47.29379" lon="-2.42781">
        <ele>-27</ele>
        <time>2021-02-25T10:40:55.000Z</time>
      </trkpt>
      <trkpt lat="47.29382" lon="-2.42773">
        <ele>-27</ele>
        <time>2021-02-25T10:40:56.000Z</time>
      </trkpt>
      <trkpt lat="47.29389" lon="-2.42748">
        <ele>-27</ele>
        <time>2021-02-25T10:40:59.000Z</time>
      </trkpt>
      <trkpt lat="47.29405" lon="-2.42704">
        <ele>-27</ele>
        <time>2021-02-25T10:41:05.000Z</time>
      </trkpt>
      <trkpt lat="47.29417" lon="-2.42675">
        <ele>-27</ele>
        <time>2021-02-25T10:41:10.000Z</time>
      </trkpt>
      <trkpt lat="47.29419" lon="-2.42648">
        <ele>-27</ele>
        <time>2021-02-25T10:41:14.000Z</time>
      </trkpt>
      <trkpt lat="47.29422" lon="-2.42603">
        <ele>-27</ele>
        <time>2021-02-25T10:41:21.000Z</time>
      </trkpt>
      <trkpt lat="47.29423" lon="-2.42591">
        <ele>-27</ele>
        <time>2021-02-25T10:41:23.000Z</time>
      </trkpt>
      <trkpt lat="47.29427" lon="-2.4258">
        <ele>-27</ele>
        <time>2021-02-25T10:41:25.000Z</time>
      </trkpt>
      <trkpt lat="47.29433" lon="-2.42573">
        <ele>-27</ele>
        <time>2021-02-25T10:41:27.000Z</time>
      </trkpt>
      <trkpt lat="47.29442" lon="-2.42561">
        <ele>-27</ele>
        <time>2021-02-25T10:41:30.000Z</time>
      </trkpt>
      <trkpt lat="47.29455" lon="-2.42548">
        <ele>-27</ele>
        <time>2021-02-25T10:41:35.000Z</time>
      </trkpt>
      <trkpt lat="47.29472" lon="-2.42531">
        <ele>-27</ele>
        <time>2021-02-25T10:41:41.000Z</time>
      </trkpt>
      <trkpt lat="47.29485" lon="-2.42515">
        <ele>-27</ele>
        <time>2021-02-25T10:41:45.000Z</time>
      </trkpt>
      <trkpt lat="47.29492" lon="-2.42506">
        <ele>-26.60000038147</ele>
        <time>2021-02-25T10:41:47.000Z</time>
      </trkpt>
      <trkpt lat="47.29497" lon="-2.42503">
        <ele>-26.200000762939</ele>
        <time>2021-02-25T10:41:48.000Z</time>
      </trkpt>
      <trkpt lat="47.29502" lon="-2.42499">
        <ele>-25.799999237061</ele>
        <time>2021-02-25T10:41:49.000Z</time>
      </trkpt>
      <trkpt lat="47.29506" lon="-2.42494">
        <ele>-25.200000762939</ele>
        <time>2021-02-25T10:41:50.000Z</time>
      </trkpt>
      <trkpt lat="47.29511" lon="-2.42489">
        <ele>-24.799999237061</ele>
        <time>2021-02-25T10:41:51.000Z</time>
      </trkpt>
      <trkpt lat="47.29515" lon="-2.42484">
        <ele>-24.799999237061</ele>
        <time>2021-02-25T10:41:52.000Z</time>
      </trkpt>
      <trkpt lat="47.29519" lon="-2.4248">
        <ele>-24.799999237061</ele>
        <time>2021-02-25T10:41:53.000Z</time>
      </trkpt>
      <trkpt lat="47.29538" lon="-2.42465">
        <ele>-24.799999237061</ele>
        <time>2021-02-25T10:41:57.000Z</time>
      </trkpt>
      <trkpt lat="47.29544" lon="-2.42455">
        <ele>-25.200000762939</ele>
        <time>2021-02-25T10:41:59.000Z</time>
      </trkpt>
      <trkpt lat="47.29547" lon="-2.42449">
        <ele>-25.60000038147</ele>
        <time>2021-02-25T10:42:00.000Z</time>
      </trkpt>
      <trkpt lat="47.29549" lon="-2.42444">
        <ele>-26</ele>
        <time>2021-02-25T10:42:01.000Z</time>
      </trkpt>
      <trkpt lat="47.29552" lon="-2.42439">
        <ele>-26.39999961853</ele>
        <time>2021-02-25T10:42:02.000Z</time>
      </trkpt>
      <trkpt lat="47.29555" lon="-2.42436">
        <ele>-26.799999237061</ele>
        <time>2021-02-25T10:42:03.000Z</time>
      </trkpt>
      <trkpt lat="47.29562" lon="-2.4243">
        <ele>-26.799999237061</ele>
        <time>2021-02-25T10:42:05.000Z</time>
      </trkpt>
      <trkpt lat="47.29579" lon="-2.42424">
        <ele>-26.799999237061</ele>
        <time>2021-02-25T10:42:10.000Z</time>
      </trkpt>
      <trkpt lat="47.29594" lon="-2.42427">
        <ele>-26.799999237061</ele>
        <time>2021-02-25T10:42:14.000Z</time>
      </trkpt>
      <trkpt lat="47.29603" lon="-2.4243">
        <ele>-26.799999237061</ele>
        <time>2021-02-25T10:42:16.000Z</time>
      </trkpt>
      <trkpt lat="47.29624" lon="-2.42436">
        <ele>-26.799999237061</ele>
        <time>2021-02-25T10:42:22.000Z</time>
      </trkpt>
      <trkpt lat="47.29628" lon="-2.42425">
        <ele>-26.799999237061</ele>
        <time>2021-02-25T10:42:24.000Z</time>
      </trkpt>
      <trkpt lat="47.29632" lon="-2.42394">
        <ele>-26.799999237061</ele>
        <time>2021-02-25T10:42:28.000Z</time>
      </trkpt>
      <trkpt lat="47.29634" lon="-2.42386">
        <ele>-26.799999237061</ele>
        <time>2021-02-25T10:42:29.000Z</time>
      </trkpt>
      <trkpt lat="47.29647" lon="-2.42337">
        <ele>-26.799999237061</ele>
        <time>2021-02-25T10:42:35.000Z</time>
      </trkpt>
      <trkpt lat="47.29659" lon="-2.42277">
        <ele>-26.799999237061</ele>
        <time>2021-02-25T10:42:42.000Z</time>
      </trkpt>
      <trkpt lat="47.2967" lon="-2.42235">
        <ele>-26.799999237061</ele>
        <time>2021-02-25T10:42:47.000Z</time>
      </trkpt>
      <trkpt lat="47.29673" lon="-2.42227">
        <ele>-26.799999237061</ele>
        <time>2021-02-25T10:42:48.000Z</time>
      </trkpt>
      <trkpt lat="47.2968" lon="-2.42211">
        <ele>-26.39999961853</ele>
        <time>2021-02-25T10:42:50.000Z</time>
      </trkpt>
      <trkpt lat="47.29683" lon="-2.42203">
        <ele>-26</ele>
        <time>2021-02-25T10:42:51.000Z</time>
      </trkpt>
      <trkpt lat="47.29688" lon="-2.42196">
        <ele>-25.60000038147</ele>
        <time>2021-02-25T10:42:52.000Z</time>
      </trkpt>
      <trkpt lat="47.29692" lon="-2.4219">
        <ele>-25.200000762939</ele>
        <time>2021-02-25T10:42:53.000Z</time>
      </trkpt>
      <trkpt lat="47.29696" lon="-2.42183">
        <ele>-24.799999237061</ele>
        <time>2021-02-25T10:42:54.000Z</time>
      </trkpt>
      <trkpt lat="47.29725" lon="-2.4213">
        <ele>-24.799999237061</ele>
        <time>2021-02-25T10:43:01.000Z</time>
      </trkpt>
      <trkpt lat="47.29762" lon="-2.42064">
        <ele>-24.799999237061</ele>
        <time>2021-02-25T10:43:10.000Z</time>
      </trkpt>
      <trkpt lat="47.29786" lon="-2.42017">
        <ele>-24.799999237061</ele>
        <time>2021-02-25T10:43:16.000Z</time>
      </trkpt>
      <trkpt lat="47.29787" lon="-2.42008">
        <ele>-24.799999237061</ele>
        <time>2021-02-25T10:43:17.000Z</time>
      </trkpt>
      <trkpt lat="47.29786" lon="-2.41982">
        <ele>-24.799999237061</ele>
        <time>2021-02-25T10:43:20.000Z</time>
      </trkpt>
      <trkpt lat="47.29783" lon="-2.41964">
        <ele>-24.799999237061</ele>
        <time>2021-02-25T10:43:22.000Z</time>
      </trkpt>
      <trkpt lat="47.29781" lon="-2.41956">
        <ele>-25.200000762939</ele>
        <time>2021-02-25T10:43:23.000Z</time>
      </trkpt>
      <trkpt lat="47.29779" lon="-2.41948">
        <ele>-25.60000038147</ele>
        <time>2021-02-25T10:43:24.000Z</time>
      </trkpt>
      <trkpt lat="47.29777" lon="-2.4194">
        <ele>-26</ele>
        <time>2021-02-25T10:43:25.000Z</time>
      </trkpt>
      <trkpt lat="47.29775" lon="-2.41932">
        <ele>-26.39999961853</ele>
        <time>2021-02-25T10:43:26.000Z</time>
      </trkpt>
      <trkpt lat="47.29774" lon="-2.41925">
        <ele>-27</ele>
        <time>2021-02-25T10:43:27.000Z</time>
      </trkpt>
      <trkpt lat="47.29766" lon="-2.41873">
        <ele>-27</ele>
        <time>2021-02-25T10:43:34.000Z</time>
      </trkpt>
      <trkpt lat="47.29766" lon="-2.41866">
        <ele>-27</ele>
        <time>2021-02-25T10:43:35.000Z</time>
      </trkpt>
      <trkpt lat="47.29769" lon="-2.4183">
        <ele>-27</ele>
        <time>2021-02-25T10:43:40.000Z</time>
      </trkpt>
      <trkpt lat="47.2977" lon="-2.41779">
        <ele>-27</ele>
        <time>2021-02-25T10:43:47.000Z</time>
      </trkpt>
      <trkpt lat="47.29767" lon="-2.41753">
        <ele>-27</ele>
        <time>2021-02-25T10:43:51.000Z</time>
      </trkpt>
      <trkpt lat="47.29764" lon="-2.41749">
        <ele>-27</ele>
        <time>2021-02-25T10:43:52.000Z</time>
      </trkpt>
      <trkpt lat="47.2975" lon="-2.41749">
        <ele>-27</ele>
        <time>2021-02-25T10:43:55.000Z</time>
      </trkpt>
      <trkpt lat="47.29728" lon="-2.41767">
        <ele>-27</ele>
        <time>2021-02-25T10:44:00.000Z</time>
      </trkpt>
      <trkpt lat="47.29721" lon="-2.41776">
        <ele>-27</ele>
        <time>2021-02-25T10:44:02.000Z</time>
      </trkpt>
      <trkpt lat="47.29719" lon="-2.41781">
        <ele>-27</ele>
        <time>2021-02-25T10:44:03.000Z</time>
      </trkpt>
      <trkpt lat="47.29717" lon="-2.41785">
        <ele>-27</ele>
        <time>2021-02-25T10:44:04.000Z</time>
      </trkpt>
      <trkpt lat="47.29702" lon="-2.41811">
        <ele>-27</ele>
        <time>2021-02-25T10:44:11.000Z</time>
      </trkpt>
      <trkpt lat="47.29693" lon="-2.41818">
        <ele>-27</ele>
        <time>2021-02-25T10:44:16.000Z</time>
      </trkpt>
      <trkpt lat="47.29673" lon="-2.41822">
        <ele>-27</ele>
        <time>2021-02-25T10:44:23.000Z</time>
      </trkpt>
      <trkpt lat="47.29656" lon="-2.41828">
        <ele>-27</ele>
        <time>2021-02-25T10:44:28.000Z</time>
      </trkpt>
      <trkpt lat="47.2965" lon="-2.41825">
        <ele>-27</ele>
        <time>2021-02-25T10:44:30.000Z</time>
      </trkpt>
      <trkpt lat="47.29648" lon="-2.41821">
        <ele>-27</ele>
        <time>2021-02-25T10:44:31.000Z</time>
      </trkpt>
      <trkpt lat="47.2964" lon="-2.41803">
        <ele>-27</ele>
        <time>2021-02-25T10:44:35.000Z</time>
      </trkpt>
      <trkpt lat="47.29639" lon="-2.41799">
        <ele>-27</ele>
        <time>2021-02-25T10:44:36.000Z</time>
      </trkpt>
      <trkpt lat="47.29635" lon="-2.41777">
        <ele>-27</ele>
        <time>2021-02-25T10:44:40.000Z</time>
      </trkpt>
      <trkpt lat="47.29632" lon="-2.41772">
        <ele>-27</ele>
        <time>2021-02-25T10:44:41.000Z</time>
      </trkpt>
      <trkpt lat="47.29627" lon="-2.41761">
        <ele>-27</ele>
        <time>2021-02-25T10:44:43.000Z</time>
      </trkpt>
      <trkpt lat="47.29617" lon="-2.41748">
        <ele>-27</ele>
        <time>2021-02-25T10:44:46.000Z</time>
      </trkpt>
      <trkpt lat="47.29609" lon="-2.41741">
        <ele>-27</ele>
        <time>2021-02-25T10:44:48.000Z</time>
      </trkpt>
      <trkpt lat="47.29594" lon="-2.41726">
        <ele>-27</ele>
        <time>2021-02-25T10:44:53.000Z</time>
      </trkpt>
      <trkpt lat="47.29585" lon="-2.41718">
        <ele>-27</ele>
        <time>2021-02-25T10:44:57.000Z</time>
      </trkpt>
      <trkpt lat="47.29566" lon="-2.41708">
        <ele>-27</ele>
        <time>2021-02-25T10:45:04.000Z</time>
      </trkpt>
      <trkpt lat="47.29551" lon="-2.41692">
        <ele>-27</ele>
        <time>2021-02-25T10:45:09.000Z</time>
      </trkpt>
      <trkpt lat="47.29539" lon="-2.41665">
        <ele>-27</ele>
        <time>2021-02-25T10:45:15.000Z</time>
      </trkpt>
      <trkpt lat="47.29532" lon="-2.4164">
        <ele>-27</ele>
        <time>2021-02-25T10:45:20.000Z</time>
      </trkpt>
      <trkpt lat="47.29528" lon="-2.41606">
        <ele>-27</ele>
        <time>2021-02-25T10:45:26.000Z</time>
      </trkpt>
      <trkpt lat="47.29529" lon="-2.41585">
        <ele>-27</ele>
        <time>2021-02-25T10:45:31.000Z</time>
      </trkpt>
      <trkpt lat="47.29537" lon="-2.41558">
        <ele>-27</ele>
        <time>2021-02-25T10:45:37.000Z</time>
      </trkpt>
      <trkpt lat="47.29541" lon="-2.41527">
        <ele>-27</ele>
        <time>2021-02-25T10:45:43.000Z</time>
      </trkpt>
      <trkpt lat="47.29536" lon="-2.41509">
        <ele>-27</ele>
        <time>2021-02-25T10:45:47.000Z</time>
      </trkpt>
      <trkpt lat="47.29521" lon="-2.41482">
        <ele>-27</ele>
        <time>2021-02-25T10:45:53.000Z</time>
      </trkpt>
      <trkpt lat="47.29507" lon="-2.41476">
        <ele>-27</ele>
        <time>2021-02-25T10:45:57.000Z</time>
      </trkpt>
      <trkpt lat="47.29492" lon="-2.41484">
        <ele>-27</ele>
        <time>2021-02-25T10:46:01.000Z</time>
      </trkpt>
      <trkpt lat="47.29481" lon="-2.41487">
        <ele>-27</ele>
        <time>2021-02-25T10:46:04.000Z</time>
      </trkpt>
      <trkpt lat="47.29477" lon="-2.41486">
        <ele>-27</ele>
        <time>2021-02-25T10:46:05.000Z</time>
      </trkpt>
      <trkpt lat="47.29454" lon="-2.41485">
        <ele>-27</ele>
        <time>2021-02-25T10:46:11.000Z</time>
      </trkpt>
      <trkpt lat="47.29438" lon="-2.41487">
        <ele>-27</ele>
        <time>2021-02-25T10:46:16.000Z</time>
      </trkpt>
      <trkpt lat="47.2942" lon="-2.41472">
        <ele>-27</ele>
        <time>2021-02-25T10:46:22.000Z</time>
      </trkpt>
      <trkpt lat="47.29404" lon="-2.41451">
        <ele>-27</ele>
        <time>2021-02-25T10:46:28.000Z</time>
      </trkpt>
      <trkpt lat="47.29391" lon="-2.41425">
        <ele>-27</ele>
        <time>2021-02-25T10:46:34.000Z</time>
      </trkpt>
      <trkpt lat="47.29379" lon="-2.41394">
        <ele>-27</ele>
        <time>2021-02-25T10:46:41.000Z</time>
      </trkpt>
      <trkpt lat="47.29363" lon="-2.41369">
        <ele>-27</ele>
        <time>2021-02-25T10:46:48.000Z</time>
      </trkpt>
      <trkpt lat="47.2935" lon="-2.41347">
        <ele>-27</ele>
        <time>2021-02-25T10:46:54.000Z</time>
      </trkpt>
      <trkpt lat="47.29351" lon="-2.41326">
        <ele>-27</ele>
        <time>2021-02-25T10:46:58.000Z</time>
      </trkpt>
      <trkpt lat="47.2936" lon="-2.41308">
        <ele>-27</ele>
        <time>2021-02-25T10:47:02.000Z</time>
      </trkpt>
      <trkpt lat="47.29379" lon="-2.41293">
        <ele>-27</ele>
        <time>2021-02-25T10:47:07.000Z</time>
      </trkpt>
      <trkpt lat="47.29388" lon="-2.41283">
        <ele>-27</ele>
        <time>2021-02-25T10:47:10.000Z</time>
      </trkpt>
      <trkpt lat="47.29393" lon="-2.41275">
        <ele>-27</ele>
        <time>2021-02-25T10:47:12.000Z</time>
      </trkpt>
      <trkpt lat="47.29402" lon="-2.41258">
        <ele>-27</ele>
        <time>2021-02-25T10:47:18.000Z</time>
      </trkpt>
      <trkpt lat="47.29414" lon="-2.41236">
        <ele>-27</ele>
        <time>2021-02-25T10:47:24.000Z</time>
      </trkpt>
      <trkpt lat="47.29433" lon="-2.41212">
        <ele>-27</ele>
        <time>2021-02-25T10:47:32.000Z</time>
      </trkpt>
      <trkpt lat="47.29447" lon="-2.41192">
        <ele>-27</ele>
        <time>2021-02-25T10:47:38.000Z</time>
      </trkpt>
      <trkpt lat="47.29466" lon="-2.41168">
        <ele>-27</ele>
        <time>2021-02-25T10:47:45.000Z</time>
      </trkpt>
      <trkpt lat="47.29475" lon="-2.41158">
        <ele>-26.60000038147</ele>
        <time>2021-02-25T10:47:48.000Z</time>
      </trkpt>
      <trkpt lat="47.29477" lon="-2.41155">
        <ele>-26</ele>
        <time>2021-02-25T10:47:49.000Z</time>
      </trkpt>
      <trkpt lat="47.2948" lon="-2.41152">
        <ele>-25.60000038147</ele>
        <time>2021-02-25T10:47:50.000Z</time>
      </trkpt>
      <trkpt lat="47.29483" lon="-2.41148">
        <ele>-25.200000762939</ele>
        <time>2021-02-25T10:47:51.000Z</time>
      </trkpt>
      <trkpt lat="47.29485" lon="-2.41146">
        <ele>-24.799999237061</ele>
        <time>2021-02-25T10:47:52.000Z</time>
      </trkpt>
      <trkpt lat="47.29491" lon="-2.41139">
        <ele>-24.799999237061</ele>
        <time>2021-02-25T10:47:54.000Z</time>
      </trkpt>
      <trkpt lat="47.29507" lon="-2.41118">
        <ele>-24.799999237061</ele>
        <time>2021-02-25T10:48:00.000Z</time>
      </trkpt>
      <trkpt lat="47.29529" lon="-2.41096">
        <ele>-24.799999237061</ele>
        <time>2021-02-25T10:48:07.000Z</time>
      </trkpt>
      <trkpt lat="47.29553" lon="-2.41072">
        <ele>-24.799999237061</ele>
        <time>2021-02-25T10:48:15.000Z</time>
      </trkpt>
      <trkpt lat="47.29563" lon="-2.41062">
        <ele>-24.799999237061</ele>
        <time>2021-02-25T10:48:20.000Z</time>
      </trkpt>
      <trkpt lat="47.29571" lon="-2.41059">
        <ele>-24.799999237061</ele>
        <time>2021-02-25T10:48:23.000Z</time>
      </trkpt>
      <trkpt lat="47.29574" lon="-2.41061">
        <ele>-24.799999237061</ele>
        <time>2021-02-25T10:48:24.000Z</time>
      </trkpt>
      <trkpt lat="47.29582" lon="-2.41073">
        <ele>-24.799999237061</ele>
        <time>2021-02-25T10:48:27.000Z</time>
      </trkpt>
      <trkpt lat="47.29585" lon="-2.41077">
        <ele>-24.799999237061</ele>
        <time>2021-02-25T10:48:28.000Z</time>
      </trkpt>
      <trkpt lat="47.29588" lon="-2.41081">
        <ele>-24.799999237061</ele>
        <time>2021-02-25T10:48:29.000Z</time>
      </trkpt>
      <trkpt lat="47.29606" lon="-2.41107">
        <ele>-24.799999237061</ele>
        <time>2021-02-25T10:48:36.000Z</time>
      </trkpt>
      <trkpt lat="47.29628" lon="-2.41138">
        <ele>-24.799999237061</ele>
        <time>2021-02-25T10:48:43.000Z</time>
      </trkpt>
      <trkpt lat="47.29652" lon="-2.41167">
        <ele>-24.799999237061</ele>
        <time>2021-02-25T10:48:50.000Z</time>
      </trkpt>
      <trkpt lat="47.29676" lon="-2.41188">
        <ele>-24.799999237061</ele>
        <time>2021-02-25T10:48:57.000Z</time>
      </trkpt>
      <trkpt lat="47.2968" lon="-2.41191">
        <ele>-24.799999237061</ele>
        <time>2021-02-25T10:48:58.000Z</time>
      </trkpt>
      <trkpt lat="47.29696" lon="-2.4119">
        <ele>-24.799999237061</ele>
        <time>2021-02-25T10:49:02.000Z</time>
      </trkpt>
      <trkpt lat="47.297" lon="-2.41188">
        <ele>-24.799999237061</ele>
        <time>2021-02-25T10:49:03.000Z</time>
      </trkpt>
      <trkpt lat="47.29704" lon="-2.41184">
        <ele>-24.799999237061</ele>
        <time>2021-02-25T10:49:04.000Z</time>
      </trkpt>
      <trkpt lat="47.29715" lon="-2.41171">
        <ele>-24.799999237061</ele>
        <time>2021-02-25T10:49:07.000Z</time>
      </trkpt>
      <trkpt lat="47.29742" lon="-2.41137">
        <ele>-24.799999237061</ele>
        <time>2021-02-25T10:49:14.000Z</time>
      </trkpt>
      <trkpt lat="47.2978" lon="-2.41092">
        <ele>-24.799999237061</ele>
        <time>2021-02-25T10:49:23.000Z</time>
      </trkpt>
      <trkpt lat="47.29811" lon="-2.41056">
        <ele>-24.799999237061</ele>
        <time>2021-02-25T10:49:30.000Z</time>
      </trkpt>
      <trkpt lat="47.29838" lon="-2.41021">
        <ele>-24.799999237061</ele>
        <time>2021-02-25T10:49:36.000Z</time>
      </trkpt>
      <trkpt lat="47.29841" lon="-2.41014">
        <ele>-24.799999237061</ele>
        <time>2021-02-25T10:49:37.000Z</time>
      </trkpt>
      <trkpt lat="47.29847" lon="-2.40981">
        <ele>-24.799999237061</ele>
        <time>2021-02-25T10:49:41.000Z</time>
      </trkpt>
      <trkpt lat="47.29848" lon="-2.40973">
        <ele>-24.799999237061</ele>
        <time>2021-02-25T10:49:42.000Z</time>
      </trkpt>
      <trkpt lat="47.29855" lon="-2.40904">
        <ele>-24.799999237061</ele>
        <time>2021-02-25T10:49:50.000Z</time>
      </trkpt>
      <trkpt lat="47.29857" lon="-2.40847">
        <ele>-24.799999237061</ele>
        <time>2021-02-25T10:49:57.000Z</time>
      </trkpt>
      <trkpt lat="47.29854" lon="-2.40824">
        <ele>-24.799999237061</ele>
        <time>2021-02-25T10:50:00.000Z</time>
      </trkpt>
      <trkpt lat="47.29848" lon="-2.40803">
        <ele>-24.799999237061</ele>
        <time>2021-02-25T10:50:03.000Z</time>
      </trkpt>
      <trkpt lat="47.29839" lon="-2.40767">
        <ele>-24</ele>
        <time>2021-02-25T10:50:08.000Z</time>
      </trkpt>
      <trkpt lat="47.29837" lon="-2.4076">
        <ele>-23.60000038147</ele>
        <time>2021-02-25T10:50:09.000Z</time>
      </trkpt>
      <trkpt lat="47.29835" lon="-2.40753">
        <ele>-23.200000762939</ele>
        <time>2021-02-25T10:50:10.000Z</time>
      </trkpt>
      <trkpt lat="47.29833" lon="-2.40746">
        <ele>-22.799999237061</ele>
        <time>2021-02-25T10:50:11.000Z</time>
      </trkpt>
      <trkpt lat="47.29822" lon="-2.40704">
        <ele>-22.799999237061</ele>
        <time>2021-02-25T10:50:17.000Z</time>
      </trkpt>
      <trkpt lat="47.29806" lon="-2.40662">
        <ele>-22.799999237061</ele>
        <time>2021-02-25T10:50:23.000Z</time>
      </trkpt>
      <trkpt lat="47.29803" lon="-2.40655">
        <ele>-22.799999237061</ele>
        <time>2021-02-25T10:50:24.000Z</time>
      </trkpt>
      <trkpt lat="47.29794" lon="-2.40626">
        <ele>-22.799999237061</ele>
        <time>2021-02-25T10:50:28.000Z</time>
      </trkpt>
      <trkpt lat="47.29786" lon="-2.40608">
        <ele>-22.799999237061</ele>
        <time>2021-02-25T10:50:32.000Z</time>
      </trkpt>
      <trkpt lat="47.29781" lon="-2.40591">
        <ele>-22.799999237061</ele>
        <time>2021-02-25T10:50:38.000Z</time>
      </trkpt>
      <trkpt lat="47.29782" lon="-2.40588">
        <ele>-22.799999237061</ele>
        <time>2021-02-25T10:50:40.000Z</time>
      </trkpt>
      <trkpt lat="47.29781" lon="-2.40584">
        <ele>-22.799999237061</ele>
        <time>2021-02-25T10:50:43.000Z</time>
      </trkpt>
      <trkpt lat="47.2978" lon="-2.40582">
        <ele>-22.799999237061</ele>
        <time>2021-02-25T10:50:44.000Z</time>
      </trkpt>
      <trkpt lat="47.29781" lon="-2.40579">
        <ele>-22.799999237061</ele>
        <time>2021-02-25T10:50:45.000Z</time>
      </trkpt>
      <trkpt lat="47.29787" lon="-2.40575">
        <ele>-22.799999237061</ele>
        <time>2021-02-25T10:50:48.000Z</time>
      </trkpt>
      <trkpt lat="47.29796" lon="-2.40568">
        <ele>-22.799999237061</ele>
        <time>2021-02-25T10:50:51.000Z</time>
      </trkpt>
      <trkpt lat="47.29795" lon="-2.40549">
        <ele>-22.799999237061</ele>
        <time>2021-02-25T10:50:54.000Z</time>
      </trkpt>
      <trkpt lat="47.29794" lon="-2.40543">
        <ele>-22.799999237061</ele>
        <time>2021-02-25T10:50:55.000Z</time>
      </trkpt>
      <trkpt lat="47.29789" lon="-2.40513">
        <ele>-22.799999237061</ele>
        <time>2021-02-25T10:51:00.000Z</time>
      </trkpt>
      <trkpt lat="47.2978" lon="-2.40466">
        <ele>-22.799999237061</ele>
        <time>2021-02-25T10:51:07.000Z</time>
      </trkpt>
      <trkpt lat="47.29779" lon="-2.40459">
        <ele>-22.39999961853</ele>
        <time>2021-02-25T10:51:08.000Z</time>
      </trkpt>
      <trkpt lat="47.29778" lon="-2.40452">
        <ele>-22</ele>
        <time>2021-02-25T10:51:09.000Z</time>
      </trkpt>
      <trkpt lat="47.29777" lon="-2.40445">
        <ele>-21.60000038147</ele>
        <time>2021-02-25T10:51:10.000Z</time>
      </trkpt>
      <trkpt lat="47.29776" lon="-2.40438">
        <ele>-21.200000762939</ele>
        <time>2021-02-25T10:51:11.000Z</time>
      </trkpt>
      <trkpt lat="47.29776" lon="-2.40431">
        <ele>-20.799999237061</ele>
        <time>2021-02-25T10:51:12.000Z</time>
      </trkpt>
      <trkpt lat="47.29775" lon="-2.40416">
        <ele>-20.799999237061</ele>
        <time>2021-02-25T10:51:14.000Z</time>
      </trkpt>
      <trkpt lat="47.29775" lon="-2.40381">
        <ele>-20.39999961853</ele>
        <time>2021-02-25T10:51:19.000Z</time>
      </trkpt>
      <trkpt lat="47.29776" lon="-2.40374">
        <ele>-20</ele>
        <time>2021-02-25T10:51:20.000Z</time>
      </trkpt>
      <trkpt lat="47.29775" lon="-2.40366">
        <ele>-19.200000762939</ele>
        <time>2021-02-25T10:51:21.000Z</time>
      </trkpt>
      <trkpt lat="47.29775" lon="-2.40359">
        <ele>-18.799999237061</ele>
        <time>2021-02-25T10:51:22.000Z</time>
      </trkpt>
      <trkpt lat="47.29774" lon="-2.40353">
        <ele>-18.799999237061</ele>
        <time>2021-02-25T10:51:23.000Z</time>
      </trkpt>
      <trkpt lat="47.2977" lon="-2.4035">
        <ele>-18.799999237061</ele>
        <time>2021-02-25T10:51:24.000Z</time>
      </trkpt>
      <trkpt lat="47.29766" lon="-2.40353">
        <ele>-18.39999961853</ele>
        <time>2021-02-25T10:51:25.000Z</time>
      </trkpt>
      <trkpt lat="47.29762" lon="-2.40355">
        <ele>-18</ele>
        <time>2021-02-25T10:51:26.000Z</time>
      </trkpt>
      <trkpt lat="47.29758" lon="-2.40356">
        <ele>-17.60000038147</ele>
        <time>2021-02-25T10:51:27.000Z</time>
      </trkpt>
      <trkpt lat="47.29754" lon="-2.40358">
        <ele>-17.200000762939</ele>
        <time>2021-02-25T10:51:28.000Z</time>
      </trkpt>
      <trkpt lat="47.2975" lon="-2.40361">
        <ele>-16.799999237061</ele>
        <time>2021-02-25T10:51:29.000Z</time>
      </trkpt>
      <trkpt lat="47.29729" lon="-2.40373">
        <ele>-16.799999237061</ele>
        <time>2021-02-25T10:51:34.000Z</time>
      </trkpt>
      <trkpt lat="47.29704" lon="-2.40389">
        <ele>-16.799999237061</ele>
        <time>2021-02-25T10:51:41.000Z</time>
      </trkpt>
      <trkpt lat="47.29691" lon="-2.40385">
        <ele>-16.799999237061</ele>
        <time>2021-02-25T10:51:46.000Z</time>
      </trkpt>
      <trkpt lat="47.29684" lon="-2.40374">
        <ele>-16.799999237061</ele>
        <time>2021-02-25T10:51:52.000Z</time>
      </trkpt>
      <trkpt lat="47.2968" lon="-2.40362">
        <ele>-16.799999237061</ele>
        <time>2021-02-25T10:51:57.000Z</time>
      </trkpt>
      <trkpt lat="47.29678" lon="-2.40348">
        <ele>-16.799999237061</ele>
        <time>2021-02-25T10:52:03.000Z</time>
      </trkpt>
      <trkpt lat="47.29679" lon="-2.40319">
        <ele>-16.799999237061</ele>
        <time>2021-02-25T10:52:10.000Z</time>
      </trkpt>
      <trkpt lat="47.29677" lon="-2.40293">
        <ele>-16.799999237061</ele>
        <time>2021-02-25T10:52:17.000Z</time>
      </trkpt>
      <trkpt lat="47.29675" lon="-2.40274">
        <ele>-16.799999237061</ele>
        <time>2021-02-25T10:52:22.000Z</time>
      </trkpt>
      <trkpt lat="47.29675" lon="-2.40259">
        <ele>-16.799999237061</ele>
        <time>2021-02-25T10:52:28.000Z</time>
      </trkpt>
      <trkpt lat="47.29674" lon="-2.40244">
        <ele>-16.799999237061</ele>
        <time>2021-02-25T10:52:33.000Z</time>
      </trkpt>
      <trkpt lat="47.29672" lon="-2.4022">
        <ele>-16.799999237061</ele>
        <time>2021-02-25T10:52:41.000Z</time>
      </trkpt>
      <trkpt lat="47.29672" lon="-2.40217">
        <ele>-17.200000762939</ele>
        <time>2021-02-25T10:52:42.000Z</time>
      </trkpt>
      <trkpt lat="47.29672" lon="-2.40214">
        <ele>-17.60000038147</ele>
        <time>2021-02-25T10:52:43.000Z</time>
      </trkpt>
      <trkpt lat="47.29671" lon="-2.40211">
        <ele>-18</ele>
        <time>2021-02-25T10:52:44.000Z</time>
      </trkpt>
      <trkpt lat="47.29671" lon="-2.40207">
        <ele>-18.39999961853</ele>
        <time>2021-02-25T10:52:45.000Z</time>
      </trkpt>
      <trkpt lat="47.2967" lon="-2.40205">
        <ele>-19</ele>
        <time>2021-02-25T10:52:46.000Z</time>
      </trkpt>
      <trkpt lat="47.29669" lon="-2.40199">
        <ele>-19</ele>
        <time>2021-02-25T10:52:48.000Z</time>
      </trkpt>
      <trkpt lat="47.29667" lon="-2.40182">
        <ele>-19</ele>
        <time>2021-02-25T10:52:54.000Z</time>
      </trkpt>
      <trkpt lat="47.29665" lon="-2.40162">
        <ele>-19</ele>
        <time>2021-02-25T10:53:00.000Z</time>
      </trkpt>
      <trkpt lat="47.29665" lon="-2.40158">
        <ele>-19</ele>
        <time>2021-02-25T10:53:01.000Z</time>
      </trkpt>
      <trkpt lat="47.2966" lon="-2.40137">
        <ele>-19</ele>
        <time>2021-02-25T10:53:06.000Z</time>
      </trkpt>
      <trkpt lat="47.29657" lon="-2.4013">
        <ele>-19</ele>
        <time>2021-02-25T10:53:08.000Z</time>
      </trkpt>
      <trkpt lat="47.29653" lon="-2.40122">
        <ele>-19.39999961853</ele>
        <time>2021-02-25T10:53:10.000Z</time>
      </trkpt>
      <trkpt lat="47.29652" lon="-2.40117">
        <ele>-19.799999237061</ele>
        <time>2021-02-25T10:53:11.000Z</time>
      </trkpt>
      <trkpt lat="47.2965" lon="-2.40112">
        <ele>-20.200000762939</ele>
        <time>2021-02-25T10:53:12.000Z</time>
      </trkpt>
      <trkpt lat="47.29649" lon="-2.40107">
        <ele>-20.60000038147</ele>
        <time>2021-02-25T10:53:13.000Z</time>
      </trkpt>
      <trkpt lat="47.29648" lon="-2.40102">
        <ele>-21</ele>
        <time>2021-02-25T10:53:14.000Z</time>
      </trkpt>
      <trkpt lat="47.29644" lon="-2.40081">
        <ele>-21</ele>
        <time>2021-02-25T10:53:18.000Z</time>
      </trkpt>
      <trkpt lat="47.29642" lon="-2.40068">
        <ele>-21</ele>
        <time>2021-02-25T10:53:22.000Z</time>
      </trkpt>
      <trkpt lat="47.29636" lon="-2.40067">
        <ele>-21</ele>
        <time>2021-02-25T10:53:26.000Z</time>
      </trkpt>
      <trkpt lat="47.29632" lon="-2.40058">
        <ele>-21</ele>
        <time>2021-02-25T10:53:29.000Z</time>
      </trkpt>
      <trkpt lat="47.29621" lon="-2.40032">
        <ele>-21</ele>
        <time>2021-02-25T10:53:35.000Z</time>
      </trkpt>
      <trkpt lat="47.29619" lon="-2.40027">
        <ele>-21.39999961853</ele>
        <time>2021-02-25T10:53:36.000Z</time>
      </trkpt>
      <trkpt lat="47.29618" lon="-2.40021">
        <ele>-21.799999237061</ele>
        <time>2021-02-25T10:53:37.000Z</time>
      </trkpt>
      <trkpt lat="47.29619" lon="-2.40014">
        <ele>-22.200000762939</ele>
        <time>2021-02-25T10:53:38.000Z</time>
      </trkpt>
      <trkpt lat="47.29622" lon="-2.40008">
        <ele>-22.60000038147</ele>
        <time>2021-02-25T10:53:39.000Z</time>
      </trkpt>
      <trkpt lat="47.29625" lon="-2.40004">
        <ele>-23</ele>
        <time>2021-02-25T10:53:40.000Z</time>
      </trkpt>
      <trkpt lat="47.29636" lon="-2.39994">
        <ele>-23</ele>
        <time>2021-02-25T10:53:43.000Z</time>
      </trkpt>
      <trkpt lat="47.29649" lon="-2.39983">
        <ele>-23</ele>
        <time>2021-02-25T10:53:48.000Z</time>
      </trkpt>
      <trkpt lat="47.29647" lon="-2.39973">
        <ele>-23</ele>
        <time>2021-02-25T10:53:51.000Z</time>
      </trkpt>
      <trkpt lat="47.29637" lon="-2.39952">
        <ele>-23</ele>
        <time>2021-02-25T10:53:56.000Z</time>
      </trkpt>
      <trkpt lat="47.29622" lon="-2.39926">
        <ele>-23</ele>
        <time>2021-02-25T10:54:01.000Z</time>
      </trkpt>
      <trkpt lat="47.29605" lon="-2.39893">
        <ele>-23</ele>
        <time>2021-02-25T10:54:07.000Z</time>
      </trkpt>
      <trkpt lat="47.29603" lon="-2.39888">
        <ele>-23</ele>
        <time>2021-02-25T10:54:08.000Z</time>
      </trkpt>
      <trkpt lat="47.29603" lon="-2.3987">
        <ele>-23</ele>
        <time>2021-02-25T10:54:11.000Z</time>
      </trkpt>
      <trkpt lat="47.29608" lon="-2.39859">
        <ele>-23.799999237061</ele>
        <time>2021-02-25T10:54:13.000Z</time>
      </trkpt>
      <trkpt lat="47.2961" lon="-2.39853">
        <ele>-24.200000762939</ele>
        <time>2021-02-25T10:54:14.000Z</time>
      </trkpt>
      <trkpt lat="47.2961" lon="-2.39846">
        <ele>-24.60000038147</ele>
        <time>2021-02-25T10:54:15.000Z</time>
      </trkpt>
      <trkpt lat="47.29609" lon="-2.39841">
        <ele>-25</ele>
        <time>2021-02-25T10:54:16.000Z</time>
      </trkpt>
      <trkpt lat="47.29604" lon="-2.3983">
        <ele>-25</ele>
        <time>2021-02-25T10:54:18.000Z</time>
      </trkpt>
      <trkpt lat="47.29602" lon="-2.39824">
        <ele>-25</ele>
        <time>2021-02-25T10:54:19.000Z</time>
      </trkpt>
      <trkpt lat="47.29599" lon="-2.39812">
        <ele>-25</ele>
        <time>2021-02-25T10:54:21.000Z</time>
      </trkpt>
      <trkpt lat="47.29602" lon="-2.398">
        <ele>-25</ele>
        <time>2021-02-25T10:54:23.000Z</time>
      </trkpt>
      <trkpt lat="47.29607" lon="-2.39789">
        <ele>-25</ele>
        <time>2021-02-25T10:54:25.000Z</time>
      </trkpt>
      <trkpt lat="47.29612" lon="-2.39777">
        <ele>-25</ele>
        <time>2021-02-25T10:54:27.000Z</time>
      </trkpt>
      <trkpt lat="47.29612" lon="-2.3977">
        <ele>-25</ele>
        <time>2021-02-25T10:54:28.000Z</time>
      </trkpt>
      <trkpt lat="47.29608" lon="-2.3975">
        <ele>-25</ele>
        <time>2021-02-25T10:54:31.000Z</time>
      </trkpt>
      <trkpt lat="47.29604" lon="-2.39739">
        <ele>-25</ele>
        <time>2021-02-25T10:54:33.000Z</time>
      </trkpt>
      <trkpt lat="47.29596" lon="-2.39722">
        <ele>-25</ele>
        <time>2021-02-25T10:54:36.000Z</time>
      </trkpt>
      <trkpt lat="47.29596" lon="-2.39701">
        <ele>-25</ele>
        <time>2021-02-25T10:54:40.000Z</time>
      </trkpt>
      <trkpt lat="47.29601" lon="-2.39692">
        <ele>-25.39999961853</ele>
        <time>2021-02-25T10:54:42.000Z</time>
      </trkpt>
      <trkpt lat="47.29605" lon="-2.39687">
        <ele>-25.799999237061</ele>
        <time>2021-02-25T10:54:43.000Z</time>
      </trkpt>
      <trkpt lat="47.29607" lon="-2.39682">
        <ele>-26.200000762939</ele>
        <time>2021-02-25T10:54:44.000Z</time>
      </trkpt>
      <trkpt lat="47.2961" lon="-2.39677">
        <ele>-26.60000038147</ele>
        <time>2021-02-25T10:54:45.000Z</time>
      </trkpt>
      <trkpt lat="47.29613" lon="-2.39671">
        <ele>-27</ele>
        <time>2021-02-25T10:54:46.000Z</time>
      </trkpt>
      <trkpt lat="47.29621" lon="-2.39656">
        <ele>-27</ele>
        <time>2021-02-25T10:54:49.000Z</time>
      </trkpt>
      <trkpt lat="47.29623" lon="-2.3965">
        <ele>-27</ele>
        <time>2021-02-25T10:54:50.000Z</time>
      </trkpt>
      <trkpt lat="47.29626" lon="-2.39632">
        <ele>-27</ele>
        <time>2021-02-25T10:54:53.000Z</time>
      </trkpt>
      <trkpt lat="47.29627" lon="-2.39626">
        <ele>-27</ele>
        <time>2021-02-25T10:54:54.000Z</time>
      </trkpt>
      <trkpt lat="47.29627" lon="-2.3962">
        <ele>-27</ele>
        <time>2021-02-25T10:54:55.000Z</time>
      </trkpt>
      <trkpt lat="47.29628" lon="-2.39587">
        <ele>-27</ele>
        <time>2021-02-25T10:55:01.000Z</time>
      </trkpt>
      <trkpt lat="47.29625" lon="-2.39575">
        <ele>-27</ele>
        <time>2021-02-25T10:55:04.000Z</time>
      </trkpt>
      <trkpt lat="47.29622" lon="-2.39573">
        <ele>-27</ele>
        <time>2021-02-25T10:55:05.000Z</time>
      </trkpt>
      <trkpt lat="47.29612" lon="-2.39572">
        <ele>-27</ele>
        <time>2021-02-25T10:55:09.000Z</time>
      </trkpt>
      <trkpt lat="47.2961" lon="-2.39568">
        <ele>-26.60000038147</ele>
        <time>2021-02-25T10:55:11.000Z</time>
      </trkpt>
      <trkpt lat="47.29612" lon="-2.39566">
        <ele>-26.200000762939</ele>
        <time>2021-02-25T10:55:12.000Z</time>
      </trkpt>
      <trkpt lat="47.29614" lon="-2.39566">
        <ele>-25.799999237061</ele>
        <time>2021-02-25T10:55:13.000Z</time>
      </trkpt>
      <trkpt lat="47.29616" lon="-2.39566">
        <ele>-25.200000762939</ele>
        <time>2021-02-25T10:55:14.000Z</time>
      </trkpt>
      <trkpt lat="47.29618" lon="-2.39566">
        <ele>-24.799999237061</ele>
        <time>2021-02-25T10:55:15.000Z</time>
      </trkpt>
      <trkpt lat="47.2962" lon="-2.39565">
        <ele>-24.799999237061</ele>
        <time>2021-02-25T10:55:16.000Z</time>
      </trkpt>
      <trkpt lat="47.29623" lon="-2.39555">
        <ele>-24.799999237061</ele>
        <time>2021-02-25T10:55:22.000Z</time>
      </trkpt>
      <trkpt lat="47.29621" lon="-2.39554">
        <ele>-24.39999961853</ele>
        <time>2021-02-25T10:55:23.000Z</time>
      </trkpt>
      <trkpt lat="47.29618" lon="-2.39555">
        <ele>-24</ele>
        <time>2021-02-25T10:55:24.000Z</time>
      </trkpt>
      <trkpt lat="47.29615" lon="-2.39555">
        <ele>-23.60000038147</ele>
        <time>2021-02-25T10:55:25.000Z</time>
      </trkpt>
      <trkpt lat="47.29612" lon="-2.39555">
        <ele>-23</ele>
        <time>2021-02-25T10:55:26.000Z</time>
      </trkpt>
      <trkpt lat="47.2961" lon="-2.39555">
        <ele>-22.60000038147</ele>
        <time>2021-02-25T10:55:27.000Z</time>
      </trkpt>
      <trkpt lat="47.296" lon="-2.39552">
        <ele>-22.60000038147</ele>
        <time>2021-02-25T10:55:31.000Z</time>
      </trkpt>
      <trkpt lat="47.29594" lon="-2.39552">
        <ele>-22.200000762939</ele>
        <time>2021-02-25T10:55:34.000Z</time>
      </trkpt>
      <trkpt lat="47.29592" lon="-2.39551">
        <ele>-21.799999237061</ele>
        <time>2021-02-25T10:55:35.000Z</time>
      </trkpt>
      <trkpt lat="47.2959" lon="-2.39551">
        <ele>-21.39999961853</ele>
        <time>2021-02-25T10:55:36.000Z</time>
      </trkpt>
      <trkpt lat="47.29587" lon="-2.3955">
        <ele>-21</ele>
        <time>2021-02-25T10:55:37.000Z</time>
      </trkpt>
      <trkpt lat="47.29584" lon="-2.39549">
        <ele>-20.60000038147</ele>
        <time>2021-02-25T10:55:38.000Z</time>
      </trkpt>
      <trkpt lat="47.29562" lon="-2.39544">
        <ele>-20.60000038147</ele>
        <time>2021-02-25T10:55:43.000Z</time>
      </trkpt>
      <trkpt lat="47.29554" lon="-2.39537">
        <ele>-20.60000038147</ele>
        <time>2021-02-25T10:55:46.000Z</time>
      </trkpt>
      <trkpt lat="47.29555" lon="-2.39534">
        <ele>-21</ele>
        <time>2021-02-25T10:55:47.000Z</time>
      </trkpt>
      <trkpt lat="47.29555" lon="-2.39533">
        <ele>-21.39999961853</ele>
        <time>2021-02-25T10:55:48.000Z</time>
      </trkpt>
      <trkpt lat="47.29556" lon="-2.3953">
        <ele>-21.799999237061</ele>
        <time>2021-02-25T10:55:49.000Z</time>
      </trkpt>
      <trkpt lat="47.29555" lon="-2.39526">
        <ele>-22.200000762939</ele>
        <time>2021-02-25T10:55:50.000Z</time>
      </trkpt>
      <trkpt lat="47.29555" lon="-2.39523">
        <ele>-22.799999237061</ele>
        <time>2021-02-25T10:55:51.000Z</time>
      </trkpt>
      <trkpt lat="47.29554" lon="-2.39512">
        <ele>-22.799999237061</ele>
        <time>2021-02-25T10:55:53.000Z</time>
      </trkpt>
      <trkpt lat="47.29555" lon="-2.39502">
        <ele>-23.200000762939</ele>
        <time>2021-02-25T10:55:55.000Z</time>
      </trkpt>
      <trkpt lat="47.29556" lon="-2.39499">
        <ele>-23.60000038147</ele>
        <time>2021-02-25T10:55:56.000Z</time>
      </trkpt>
      <trkpt lat="47.29557" lon="-2.39493">
        <ele>-24</ele>
        <time>2021-02-25T10:55:57.000Z</time>
      </trkpt>
      <trkpt lat="47.29557" lon="-2.39487">
        <ele>-24.39999961853</ele>
        <time>2021-02-25T10:55:58.000Z</time>
      </trkpt>
      <trkpt lat="47.29555" lon="-2.39485">
        <ele>-24.799999237061</ele>
        <time>2021-02-25T10:55:59.000Z</time>
      </trkpt>
      <trkpt lat="47.29552" lon="-2.39485">
        <ele>-24.799999237061</ele>
        <time>2021-02-25T10:56:00.000Z</time>
      </trkpt>
      <trkpt lat="47.2955" lon="-2.39483">
        <ele>-25.200000762939</ele>
        <time>2021-02-25T10:56:01.000Z</time>
      </trkpt>
      <trkpt lat="47.29546" lon="-2.3948">
        <ele>-25.60000038147</ele>
        <time>2021-02-25T10:56:02.000Z</time>
      </trkpt>
      <trkpt lat="47.29543" lon="-2.39478">
        <ele>-26</ele>
        <time>2021-02-25T10:56:03.000Z</time>
      </trkpt>
      <trkpt lat="47.2954" lon="-2.39476">
        <ele>-26.39999961853</ele>
        <time>2021-02-25T10:56:04.000Z</time>
      </trkpt>
      <trkpt lat="47.29537" lon="-2.39474">
        <ele>-26.799999237061</ele>
        <time>2021-02-25T10:56:05.000Z</time>
      </trkpt>
      <trkpt lat="47.29511" lon="-2.39468">
        <ele>-26.799999237061</ele>
        <time>2021-02-25T10:56:12.000Z</time>
      </trkpt>
      <trkpt lat="47.29486" lon="-2.39465">
        <ele>-26.799999237061</ele>
        <time>2021-02-25T10:56:19.000Z</time>
      </trkpt>
      <trkpt lat="47.29464" lon="-2.39466">
        <ele>-26.799999237061</ele>
        <time>2021-02-25T10:56:25.000Z</time>
      </trkpt>
      <trkpt lat="47.29445" lon="-2.39465">
        <ele>-26.799999237061</ele>
        <time>2021-02-25T10:56:30.000Z</time>
      </trkpt>
      <trkpt lat="47.29431" lon="-2.39466">
        <ele>-26.799999237061</ele>
        <time>2021-02-25T10:56:34.000Z</time>
      </trkpt>
      <trkpt lat="47.29427" lon="-2.39465">
        <ele>-26.799999237061</ele>
        <time>2021-02-25T10:56:35.000Z</time>
      </trkpt>
      <trkpt lat="47.29394" lon="-2.39464">
        <ele>-26.799999237061</ele>
        <time>2021-02-25T10:56:43.000Z</time>
      </trkpt>
      <trkpt lat="47.29386" lon="-2.39464">
        <ele>-26.39999961853</ele>
        <time>2021-02-25T10:56:45.000Z</time>
      </trkpt>
      <trkpt lat="47.29382" lon="-2.39464">
        <ele>-26</ele>
        <time>2021-02-25T10:56:46.000Z</time>
      </trkpt>
      <trkpt lat="47.29378" lon="-2.39465">
        <ele>-25.60000038147</ele>
        <time>2021-02-25T10:56:47.000Z</time>
      </trkpt>
      <trkpt lat="47.29374" lon="-2.39464">
        <ele>-25.200000762939</ele>
        <time>2021-02-25T10:56:48.000Z</time>
      </trkpt>
      <trkpt lat="47.2937" lon="-2.39463">
        <ele>-24.799999237061</ele>
        <time>2021-02-25T10:56:49.000Z</time>
      </trkpt>
      <trkpt lat="47.29366" lon="-2.39463">
        <ele>-24.799999237061</ele>
        <time>2021-02-25T10:56:50.000Z</time>
      </trkpt>
      <trkpt lat="47.29358" lon="-2.39461">
        <ele>-24.799999237061</ele>
        <time>2021-02-25T10:56:52.000Z</time>
      </trkpt>
      <trkpt lat="47.29352" lon="-2.39454">
        <ele>-24.799999237061</ele>
        <time>2021-02-25T10:56:54.000Z</time>
      </trkpt>
      <trkpt lat="47.29349" lon="-2.39432">
        <ele>-24.799999237061</ele>
        <time>2021-02-25T10:56:58.000Z</time>
      </trkpt>
      <trkpt lat="47.29348" lon="-2.39408">
        <ele>-24.799999237061</ele>
        <time>2021-02-25T10:57:02.000Z</time>
      </trkpt>
      <trkpt lat="47.29347" lon="-2.39402">
        <ele>-24.799999237061</ele>
        <time>2021-02-25T10:57:03.000Z</time>
      </trkpt>
      <trkpt lat="47.29346" lon="-2.3935">
        <ele>-24.799999237061</ele>
        <time>2021-02-25T10:57:11.000Z</time>
      </trkpt>
      <trkpt lat="47.29346" lon="-2.39313">
        <ele>-24.799999237061</ele>
        <time>2021-02-25T10:57:18.000Z</time>
      </trkpt>
      <trkpt lat="47.29353" lon="-2.39285">
        <ele>-24.799999237061</ele>
        <time>2021-02-25T10:57:23.000Z</time>
      </trkpt>
      <trkpt lat="47.29351" lon="-2.3926">
        <ele>-24.799999237061</ele>
        <time>2021-02-25T10:57:27.000Z</time>
      </trkpt>
      <trkpt lat="47.2935" lon="-2.39253">
        <ele>-24.799999237061</ele>
        <time>2021-02-25T10:57:28.000Z</time>
      </trkpt>
      <trkpt lat="47.29349" lon="-2.39208">
        <ele>-24.799999237061</ele>
        <time>2021-02-25T10:57:35.000Z</time>
      </trkpt>
      <trkpt lat="47.29352" lon="-2.39181">
        <ele>-24.799999237061</ele>
        <time>2021-02-25T10:57:40.000Z</time>
      </trkpt>
      <trkpt lat="47.29353" lon="-2.39175">
        <ele>-24.799999237061</ele>
        <time>2021-02-25T10:57:41.000Z</time>
      </trkpt>
      <trkpt lat="47.29363" lon="-2.39162">
        <ele>-24.799999237061</ele>
        <time>2021-02-25T10:57:44.000Z</time>
      </trkpt>
      <trkpt lat="47.29376" lon="-2.39167">
        <ele>-24.799999237061</ele>
        <time>2021-02-25T10:57:47.000Z</time>
      </trkpt>
      <trkpt lat="47.29409" lon="-2.39173">
        <ele>-24.799999237061</ele>
        <time>2021-02-25T10:57:54.000Z</time>
      </trkpt>
      <trkpt lat="47.29413" lon="-2.39172">
        <ele>-24.799999237061</ele>
        <time>2021-02-25T10:57:55.000Z</time>
      </trkpt>
      <trkpt lat="47.29421" lon="-2.39162">
        <ele>-24.799999237061</ele>
        <time>2021-02-25T10:57:57.000Z</time>
      </trkpt>
      <trkpt lat="47.29423" lon="-2.39138">
        <ele>-24.799999237061</ele>
        <time>2021-02-25T10:58:00.000Z</time>
      </trkpt>
      <trkpt lat="47.29421" lon="-2.3912">
        <ele>-24.799999237061</ele>
        <time>2021-02-25T10:58:02.000Z</time>
      </trkpt>
      <trkpt lat="47.29421" lon="-2.39093">
        <ele>-24.799999237061</ele>
        <time>2021-02-25T10:58:05.000Z</time>
      </trkpt>
      <trkpt lat="47.29424" lon="-2.39044">
        <ele>-24.799999237061</ele>
        <time>2021-02-25T10:58:11.000Z</time>
      </trkpt>
      <trkpt lat="47.29425" lon="-2.39036">
        <ele>-24.799999237061</ele>
        <time>2021-02-25T10:58:12.000Z</time>
      </trkpt>
      <trkpt lat="47.29432" lon="-2.39">
        <ele>-24.799999237061</ele>
        <time>2021-02-25T10:58:17.000Z</time>
      </trkpt>
      <trkpt lat="47.29439" lon="-2.38973">
        <ele>-24.39999961853</ele>
        <time>2021-02-25T10:58:21.000Z</time>
      </trkpt>
      <trkpt lat="47.2944" lon="-2.38966">
        <ele>-24</ele>
        <time>2021-02-25T10:58:22.000Z</time>
      </trkpt>
      <trkpt lat="47.29441" lon="-2.38959">
        <ele>-23.60000038147</ele>
        <time>2021-02-25T10:58:23.000Z</time>
      </trkpt>
      <trkpt lat="47.29443" lon="-2.38952">
        <ele>-23.200000762939</ele>
        <time>2021-02-25T10:58:24.000Z</time>
      </trkpt>
      <trkpt lat="47.29444" lon="-2.38945">
        <ele>-22.799999237061</ele>
        <time>2021-02-25T10:58:25.000Z</time>
      </trkpt>
      <trkpt lat="47.29445" lon="-2.38938">
        <ele>-22.799999237061</ele>
        <time>2021-02-25T10:58:26.000Z</time>
      </trkpt>
      <trkpt lat="47.29446" lon="-2.38931">
        <ele>-23.200000762939</ele>
        <time>2021-02-25T10:58:27.000Z</time>
      </trkpt>
      <trkpt lat="47.29448" lon="-2.38925">
        <ele>-23.60000038147</ele>
        <time>2021-02-25T10:58:28.000Z</time>
      </trkpt>
      <trkpt lat="47.29449" lon="-2.38918">
        <ele>-24.200000762939</ele>
        <time>2021-02-25T10:58:29.000Z</time>
      </trkpt>
      <trkpt lat="47.29451" lon="-2.38911">
        <ele>-23.60000038147</ele>
        <time>2021-02-25T10:58:30.000Z</time>
      </trkpt>
      <trkpt lat="47.29453" lon="-2.38905">
        <ele>-23</ele>
        <time>2021-02-25T10:58:31.000Z</time>
      </trkpt>
      <trkpt lat="47.29454" lon="-2.38898">
        <ele>-22.39999961853</ele>
        <time>2021-02-25T10:58:32.000Z</time>
      </trkpt>
      <trkpt lat="47.29456" lon="-2.38891">
        <ele>-21.799999237061</ele>
        <time>2021-02-25T10:58:33.000Z</time>
      </trkpt>
      <trkpt lat="47.29458" lon="-2.38885">
        <ele>-21.39999961853</ele>
        <time>2021-02-25T10:58:34.000Z</time>
      </trkpt>
      <trkpt lat="47.29459" lon="-2.38878">
        <ele>-21.39999961853</ele>
        <time>2021-02-25T10:58:35.000Z</time>
      </trkpt>
      <trkpt lat="47.2947" lon="-2.38848">
        <ele>-21.39999961853</ele>
        <time>2021-02-25T10:58:40.000Z</time>
      </trkpt>
      <trkpt lat="47.29471" lon="-2.38842">
        <ele>-21.39999961853</ele>
        <time>2021-02-25T10:58:41.000Z</time>
      </trkpt>
      <trkpt lat="47.29471" lon="-2.38814">
        <ele>-21.39999961853</ele>
        <time>2021-02-25T10:58:45.000Z</time>
      </trkpt>
      <trkpt lat="47.29471" lon="-2.3876">
        <ele>-21.39999961853</ele>
        <time>2021-02-25T10:58:52.000Z</time>
      </trkpt>
      <trkpt lat="47.29469" lon="-2.38713">
        <ele>-21.39999961853</ele>
        <time>2021-02-25T10:58:58.000Z</time>
      </trkpt>
      <trkpt lat="47.29467" lon="-2.38697">
        <ele>-21.39999961853</ele>
        <time>2021-02-25T10:59:00.000Z</time>
      </trkpt>
      <trkpt lat="47.29465" lon="-2.38681">
        <ele>-21.799999237061</ele>
        <time>2021-02-25T10:59:02.000Z</time>
      </trkpt>
      <trkpt lat="47.29463" lon="-2.38673">
        <ele>-22.200000762939</ele>
        <time>2021-02-25T10:59:03.000Z</time>
      </trkpt>
      <trkpt lat="47.2946" lon="-2.38666">
        <ele>-22.60000038147</ele>
        <time>2021-02-25T10:59:04.000Z</time>
      </trkpt>
      <trkpt lat="47.29458" lon="-2.38659">
        <ele>-23</ele>
        <time>2021-02-25T10:59:05.000Z</time>
      </trkpt>
      <trkpt lat="47.29457" lon="-2.38652">
        <ele>-23.39999961853</ele>
        <time>2021-02-25T10:59:06.000Z</time>
      </trkpt>
      <trkpt lat="47.2946" lon="-2.38637">
        <ele>-23.39999961853</ele>
        <time>2021-02-25T10:59:08.000Z</time>
      </trkpt>
      <trkpt lat="47.2946" lon="-2.38601">
        <ele>-23.39999961853</ele>
        <time>2021-02-25T10:59:12.000Z</time>
      </trkpt>
      <trkpt lat="47.29458" lon="-2.3852">
        <ele>-23.39999961853</ele>
        <time>2021-02-25T10:59:21.000Z</time>
      </trkpt>
      <trkpt lat="47.29455" lon="-2.38436">
        <ele>-23.39999961853</ele>
        <time>2021-02-25T10:59:30.000Z</time>
      </trkpt>
      <trkpt lat="47.29453" lon="-2.38376">
        <ele>-23.799999237061</ele>
        <time>2021-02-25T10:59:37.000Z</time>
      </trkpt>
      <trkpt lat="47.29453" lon="-2.38367">
        <ele>-24.200000762939</ele>
        <time>2021-02-25T10:59:38.000Z</time>
      </trkpt>
      <trkpt lat="47.29452" lon="-2.38358">
        <ele>-24.60000038147</ele>
        <time>2021-02-25T10:59:39.000Z</time>
      </trkpt>
      <trkpt lat="47.29453" lon="-2.3835">
        <ele>-25</ele>
        <time>2021-02-25T10:59:40.000Z</time>
      </trkpt>
      <trkpt lat="47.29453" lon="-2.38342">
        <ele>-25.39999961853</ele>
        <time>2021-02-25T10:59:41.000Z</time>
      </trkpt>
      <trkpt lat="47.29454" lon="-2.38316">
        <ele>-25.39999961853</ele>
        <time>2021-02-25T10:59:44.000Z</time>
      </trkpt>
      <trkpt lat="47.29454" lon="-2.38254">
        <ele>-25.39999961853</ele>
        <time>2021-02-25T10:59:52.000Z</time>
      </trkpt>
      <trkpt lat="47.29449" lon="-2.38203">
        <ele>-25.39999961853</ele>
        <time>2021-02-25T10:59:58.000Z</time>
      </trkpt>
      <trkpt lat="47.29437" lon="-2.38132">
        <ele>-25.39999961853</ele>
        <time>2021-02-25T11:00:06.000Z</time>
      </trkpt>
      <trkpt lat="47.29415" lon="-2.38066">
        <ele>-25.39999961853</ele>
        <time>2021-02-25T11:00:14.000Z</time>
      </trkpt>
      <trkpt lat="47.29398" lon="-2.38016">
        <ele>-25.39999961853</ele>
        <time>2021-02-25T11:00:21.000Z</time>
      </trkpt>
      <trkpt lat="47.29378" lon="-2.37965">
        <ele>-25</ele>
        <time>2021-02-25T11:00:29.000Z</time>
      </trkpt>
      <trkpt lat="47.29375" lon="-2.37959">
        <ele>-24.60000038147</ele>
        <time>2021-02-25T11:00:30.000Z</time>
      </trkpt>
      <trkpt lat="47.29373" lon="-2.37952">
        <ele>-24.200000762939</ele>
        <time>2021-02-25T11:00:31.000Z</time>
      </trkpt>
      <trkpt lat="47.29371" lon="-2.37945">
        <ele>-23.799999237061</ele>
        <time>2021-02-25T11:00:32.000Z</time>
      </trkpt>
      <trkpt lat="47.29369" lon="-2.37939">
        <ele>-23.39999961853</ele>
        <time>2021-02-25T11:00:33.000Z</time>
      </trkpt>
      <trkpt lat="47.29364" lon="-2.37927">
        <ele>-23.39999961853</ele>
        <time>2021-02-25T11:00:35.000Z</time>
      </trkpt>
      <trkpt lat="47.29346" lon="-2.37874">
        <ele>-23.39999961853</ele>
        <time>2021-02-25T11:00:43.000Z</time>
      </trkpt>
      <trkpt lat="47.29344" lon="-2.37867">
        <ele>-23</ele>
        <time>2021-02-25T11:00:44.000Z</time>
      </trkpt>
      <trkpt lat="47.29342" lon="-2.37861">
        <ele>-22.60000038147</ele>
        <time>2021-02-25T11:00:45.000Z</time>
      </trkpt>
      <trkpt lat="47.29341" lon="-2.37855">
        <ele>-22</ele>
        <time>2021-02-25T11:00:46.000Z</time>
      </trkpt>
      <trkpt lat="47.29339" lon="-2.37848">
        <ele>-21.60000038147</ele>
        <time>2021-02-25T11:00:47.000Z</time>
      </trkpt>
      <trkpt lat="47.29337" lon="-2.37842">
        <ele>-21.200000762939</ele>
        <time>2021-02-25T11:00:48.000Z</time>
      </trkpt>
      <trkpt lat="47.29334" lon="-2.37822">
        <ele>-21.200000762939</ele>
        <time>2021-02-25T11:00:51.000Z</time>
      </trkpt>
      <trkpt lat="47.29333" lon="-2.37802">
        <ele>-21.200000762939</ele>
        <time>2021-02-25T11:00:54.000Z</time>
      </trkpt>
      <trkpt lat="47.29332" lon="-2.37781">
        <ele>-21.200000762939</ele>
        <time>2021-02-25T11:00:57.000Z</time>
      </trkpt>
      <trkpt lat="47.29332" lon="-2.37774">
        <ele>-20.799999237061</ele>
        <time>2021-02-25T11:00:58.000Z</time>
      </trkpt>
      <trkpt lat="47.29331" lon="-2.37767">
        <ele>-20.39999961853</ele>
        <time>2021-02-25T11:00:59.000Z</time>
      </trkpt>
      <trkpt lat="47.29331" lon="-2.3776">
        <ele>-20</ele>
        <time>2021-02-25T11:01:00.000Z</time>
      </trkpt>
      <trkpt lat="47.29331" lon="-2.37753">
        <ele>-19.60000038147</ele>
        <time>2021-02-25T11:01:01.000Z</time>
      </trkpt>
      <trkpt lat="47.2933" lon="-2.37747">
        <ele>-19.200000762939</ele>
        <time>2021-02-25T11:01:02.000Z</time>
      </trkpt>
      <trkpt lat="47.2933" lon="-2.37733">
        <ele>-19.200000762939</ele>
        <time>2021-02-25T11:01:04.000Z</time>
      </trkpt>
      <trkpt lat="47.2933" lon="-2.37727">
        <ele>-18.799999237061</ele>
        <time>2021-02-25T11:01:05.000Z</time>
      </trkpt>
      <trkpt lat="47.29329" lon="-2.3772">
        <ele>-18.39999961853</ele>
        <time>2021-02-25T11:01:06.000Z</time>
      </trkpt>
      <trkpt lat="47.29329" lon="-2.37713">
        <ele>-18</ele>
        <time>2021-02-25T11:01:07.000Z</time>
      </trkpt>
      <trkpt lat="47.29329" lon="-2.37706">
        <ele>-17.60000038147</ele>
        <time>2021-02-25T11:01:08.000Z</time>
      </trkpt>
      <trkpt lat="47.29328" lon="-2.377">
        <ele>-17.200000762939</ele>
        <time>2021-02-25T11:01:09.000Z</time>
      </trkpt>
      <trkpt lat="47.29328" lon="-2.37686">
        <ele>-17.200000762939</ele>
        <time>2021-02-25T11:01:11.000Z</time>
      </trkpt>
      <trkpt lat="47.29329" lon="-2.37666">
        <ele>-16.200000762939</ele>
        <time>2021-02-25T11:01:14.000Z</time>
      </trkpt>
      <trkpt lat="47.29328" lon="-2.3766">
        <ele>-15.800000190735</ele>
        <time>2021-02-25T11:01:15.000Z</time>
      </trkpt>
      <trkpt lat="47.29327" lon="-2.37654">
        <ele>-15.39999961853</ele>
        <time>2021-02-25T11:01:16.000Z</time>
      </trkpt>
      <trkpt lat="47.29326" lon="-2.37647">
        <ele>-15</ele>
        <time>2021-02-25T11:01:17.000Z</time>
      </trkpt>
      <trkpt lat="47.29322" lon="-2.37634">
        <ele>-15</ele>
        <time>2021-02-25T11:01:19.000Z</time>
      </trkpt>
      <trkpt lat="47.2931" lon="-2.37604">
        <ele>-15</ele>
        <time>2021-02-25T11:01:24.000Z</time>
      </trkpt>
      <trkpt lat="47.29307" lon="-2.37599">
        <ele>-15</ele>
        <time>2021-02-25T11:01:25.000Z</time>
      </trkpt>
      <trkpt lat="47.29282" lon="-2.3756">
        <ele>-15</ele>
        <time>2021-02-25T11:01:32.000Z</time>
      </trkpt>
      <trkpt lat="47.29262" lon="-2.37524">
        <ele>-15</ele>
        <time>2021-02-25T11:01:38.000Z</time>
      </trkpt>
      <trkpt lat="47.29258" lon="-2.37518">
        <ele>-15</ele>
        <time>2021-02-25T11:01:39.000Z</time>
      </trkpt>
      <trkpt lat="47.29239" lon="-2.37492">
        <ele>-15</ele>
        <time>2021-02-25T11:01:44.000Z</time>
      </trkpt>
      <trkpt lat="47.29235" lon="-2.37486">
        <ele>-14.60000038147</ele>
        <time>2021-02-25T11:01:45.000Z</time>
      </trkpt>
      <trkpt lat="47.29231" lon="-2.3748">
        <ele>-14.199999809265</ele>
        <time>2021-02-25T11:01:46.000Z</time>
      </trkpt>
      <trkpt lat="47.29228" lon="-2.37475">
        <ele>-13.800000190735</ele>
        <time>2021-02-25T11:01:47.000Z</time>
      </trkpt>
      <trkpt lat="47.29224" lon="-2.37468">
        <ele>-13.39999961853</ele>
        <time>2021-02-25T11:01:48.000Z</time>
      </trkpt>
      <trkpt lat="47.2922" lon="-2.37462">
        <ele>-12.800000190735</ele>
        <time>2021-02-25T11:01:49.000Z</time>
      </trkpt>
      <trkpt lat="47.29213" lon="-2.37449">
        <ele>-12.800000190735</ele>
        <time>2021-02-25T11:01:51.000Z</time>
      </trkpt>
      <trkpt lat="47.29194" lon="-2.3742">
        <ele>-12.39999961853</ele>
        <time>2021-02-25T11:01:56.000Z</time>
      </trkpt>
      <trkpt lat="47.2919" lon="-2.37414">
        <ele>-12</ele>
        <time>2021-02-25T11:01:57.000Z</time>
      </trkpt>
      <trkpt lat="47.29187" lon="-2.37409">
        <ele>-11.60000038147</ele>
        <time>2021-02-25T11:01:58.000Z</time>
      </trkpt>
      <trkpt lat="47.29183" lon="-2.37402">
        <ele>-11.199999809265</ele>
        <time>2021-02-25T11:01:59.000Z</time>
      </trkpt>
      <trkpt lat="47.29179" lon="-2.37396">
        <ele>-10.800000190735</ele>
        <time>2021-02-25T11:02:00.000Z</time>
      </trkpt>
      <trkpt lat="47.29167" lon="-2.37374">
        <ele>-10.800000190735</ele>
        <time>2021-02-25T11:02:04.000Z</time>
      </trkpt>
      <trkpt lat="47.29149" lon="-2.37335">
        <ele>-10.800000190735</ele>
        <time>2021-02-25T11:02:10.000Z</time>
      </trkpt>
      <trkpt lat="47.29146" lon="-2.37329">
        <ele>-10.39999961853</ele>
        <time>2021-02-25T11:02:11.000Z</time>
      </trkpt>
      <trkpt lat="47.29143" lon="-2.37324">
        <ele>-9.8000001907349</ele>
        <time>2021-02-25T11:02:12.000Z</time>
      </trkpt>
      <trkpt lat="47.2914" lon="-2.37319">
        <ele>-9.3999996185303</ele>
        <time>2021-02-25T11:02:13.000Z</time>
      </trkpt>
      <trkpt lat="47.29137" lon="-2.37314">
        <ele>-9</ele>
        <time>2021-02-25T11:02:14.000Z</time>
      </trkpt>
      <trkpt lat="47.29133" lon="-2.3731">
        <ele>-8.6000003814697</ele>
        <time>2021-02-25T11:02:15.000Z</time>
      </trkpt>
      <trkpt lat="47.29125" lon="-2.37302">
        <ele>-8.6000003814697</ele>
        <time>2021-02-25T11:02:17.000Z</time>
      </trkpt>
      <trkpt lat="47.29108" lon="-2.37283">
        <ele>-8.6000003814697</ele>
        <time>2021-02-25T11:02:21.000Z</time>
      </trkpt>
      <trkpt lat="47.29077" lon="-2.3725">
        <ele>-8.6000003814697</ele>
        <time>2021-02-25T11:02:28.000Z</time>
      </trkpt>
      <trkpt lat="47.29062" lon="-2.37238">
        <ele>-8.6000003814697</ele>
        <time>2021-02-25T11:02:31.000Z</time>
      </trkpt>
      <trkpt lat="47.29047" lon="-2.37223">
        <ele>-8.6000003814697</ele>
        <time>2021-02-25T11:02:34.000Z</time>
      </trkpt>
      <trkpt lat="47.29028" lon="-2.37202">
        <ele>-9</ele>
        <time>2021-02-25T11:02:38.000Z</time>
      </trkpt>
      <trkpt lat="47.29023" lon="-2.37196">
        <ele>-9.3999996185303</ele>
        <time>2021-02-25T11:02:39.000Z</time>
      </trkpt>
      <trkpt lat="47.29018" lon="-2.3719">
        <ele>-9.8000001907349</ele>
        <time>2021-02-25T11:02:40.000Z</time>
      </trkpt>
      <trkpt lat="47.29014" lon="-2.37185">
        <ele>-10.199999809265</ele>
        <time>2021-02-25T11:02:41.000Z</time>
      </trkpt>
      <trkpt lat="47.2901" lon="-2.37181">
        <ele>-10.60000038147</ele>
        <time>2021-02-25T11:02:42.000Z</time>
      </trkpt>
      <trkpt lat="47.29004" lon="-2.37173">
        <ele>-11</ele>
        <time>2021-02-25T11:02:44.000Z</time>
      </trkpt>
      <trkpt lat="47.29002" lon="-2.37169">
        <ele>-11.60000038147</ele>
        <time>2021-02-25T11:02:45.000Z</time>
      </trkpt>
      <trkpt lat="47.29001" lon="-2.37164">
        <ele>-12</ele>
        <time>2021-02-25T11:02:46.000Z</time>
      </trkpt>
      <trkpt lat="47.29002" lon="-2.37159">
        <ele>-12.60000038147</ele>
        <time>2021-02-25T11:02:47.000Z</time>
      </trkpt>
      <trkpt lat="47.29003" lon="-2.37154">
        <ele>-13</ele>
        <time>2021-02-25T11:02:48.000Z</time>
      </trkpt>
      <trkpt lat="47.28998" lon="-2.37141">
        <ele>-13</ele>
        <time>2021-02-25T11:02:51.000Z</time>
      </trkpt>
      <trkpt lat="47.28985" lon="-2.37105">
        <ele>-12.60000038147</ele>
        <time>2021-02-25T11:02:58.000Z</time>
      </trkpt>
      <trkpt lat="47.28984" lon="-2.37099">
        <ele>-12.199999809265</ele>
        <time>2021-02-25T11:02:59.000Z</time>
      </trkpt>
      <trkpt lat="47.28981" lon="-2.37093">
        <ele>-11.800000190735</ele>
        <time>2021-02-25T11:03:00.000Z</time>
      </trkpt>
      <trkpt lat="47.28979" lon="-2.37087">
        <ele>-11.199999809265</ele>
        <time>2021-02-25T11:03:01.000Z</time>
      </trkpt>
      <trkpt lat="47.28977" lon="-2.37081">
        <ele>-10.800000190735</ele>
        <time>2021-02-25T11:03:02.000Z</time>
      </trkpt>
      <trkpt lat="47.2897" lon="-2.37056">
        <ele>-10.800000190735</ele>
        <time>2021-02-25T11:03:06.000Z</time>
      </trkpt>
      <trkpt lat="47.28967" lon="-2.3705">
        <ele>-10.39999961853</ele>
        <time>2021-02-25T11:03:07.000Z</time>
      </trkpt>
      <trkpt lat="47.28965" lon="-2.37044">
        <ele>-10</ele>
        <time>2021-02-25T11:03:08.000Z</time>
      </trkpt>
      <trkpt lat="47.28962" lon="-2.37039">
        <ele>-9.6000003814697</ele>
        <time>2021-02-25T11:03:09.000Z</time>
      </trkpt>
      <trkpt lat="47.28959" lon="-2.37033">
        <ele>-9</ele>
        <time>2021-02-25T11:03:10.000Z</time>
      </trkpt>
      <trkpt lat="47.28956" lon="-2.37027">
        <ele>-8.6000003814697</ele>
        <time>2021-02-25T11:03:11.000Z</time>
      </trkpt>
      <trkpt lat="47.28954" lon="-2.37022">
        <ele>-8.6000003814697</ele>
        <time>2021-02-25T11:03:12.000Z</time>
      </trkpt>
      <trkpt lat="47.28948" lon="-2.37011">
        <ele>-8.6000003814697</ele>
        <time>2021-02-25T11:03:14.000Z</time>
      </trkpt>
      <trkpt lat="47.28939" lon="-2.36994">
        <ele>-8.6000003814697</ele>
        <time>2021-02-25T11:03:17.000Z</time>
      </trkpt>
      <trkpt lat="47.28914" lon="-2.36956">
        <ele>-8.6000003814697</ele>
        <time>2021-02-25T11:03:24.000Z</time>
      </trkpt>
      <trkpt lat="47.28887" lon="-2.36923">
        <ele>-8.6000003814697</ele>
        <time>2021-02-25T11:03:31.000Z</time>
      </trkpt>
      <trkpt lat="47.28866" lon="-2.36902">
        <ele>-8.6000003814697</ele>
        <time>2021-02-25T11:03:36.000Z</time>
      </trkpt>
      <trkpt lat="47.28859" lon="-2.36897">
        <ele>-8.6000003814697</ele>
        <time>2021-02-25T11:03:38.000Z</time>
      </trkpt>
      <trkpt lat="47.28854" lon="-2.36894">
        <ele>-8.6000003814697</ele>
        <time>2021-02-25T11:03:42.000Z</time>
      </trkpt>
      <trkpt lat="47.28851" lon="-2.36894">
        <ele>-10.60000038147</ele>
        <time>2021-02-25T11:03:57.000Z</time>
      </trkpt>
      <trkpt lat="47.28848" lon="-2.3689">
        <ele>-10.60000038147</ele>
        <time>2021-02-25T11:03:59.000Z</time>
      </trkpt>
      <trkpt lat="47.28835" lon="-2.36877">
        <ele>-10.60000038147</ele>
        <time>2021-02-25T11:04:04.000Z</time>
      </trkpt>
      <trkpt lat="47.28831" lon="-2.3687">
        <ele>-10.60000038147</ele>
        <time>2021-02-25T11:04:05.000Z</time>
      </trkpt>
      <trkpt lat="47.28828" lon="-2.36862">
        <ele>-11</ele>
        <time>2021-02-25T11:04:06.000Z</time>
      </trkpt>
      <trkpt lat="47.28826" lon="-2.36854">
        <ele>-11.60000038147</ele>
        <time>2021-02-25T11:04:07.000Z</time>
      </trkpt>
      <trkpt lat="47.28824" lon="-2.36844">
        <ele>-12.39999961853</ele>
        <time>2021-02-25T11:04:08.000Z</time>
      </trkpt>
      <trkpt lat="47.28822" lon="-2.36835">
        <ele>-13</ele>
        <time>2021-02-25T11:04:09.000Z</time>
      </trkpt>
      <trkpt lat="47.28819" lon="-2.36828">
        <ele>-13.60000038147</ele>
        <time>2021-02-25T11:04:10.000Z</time>
      </trkpt>
      <trkpt lat="47.28816" lon="-2.36821">
        <ele>-14.199999809265</ele>
        <time>2021-02-25T11:04:11.000Z</time>
      </trkpt>
      <trkpt lat="47.28813" lon="-2.36818">
        <ele>-15</ele>
        <time>2021-02-25T11:04:12.000Z</time>
      </trkpt>
      <trkpt lat="47.2881" lon="-2.36817">
        <ele>-15.800000190735</ele>
        <time>2021-02-25T11:04:13.000Z</time>
      </trkpt>
      <trkpt lat="47.28808" lon="-2.36819">
        <ele>-16.60000038147</ele>
        <time>2021-02-25T11:04:14.000Z</time>
      </trkpt>
      <trkpt lat="47.28806" lon="-2.36821">
        <ele>-17.39999961853</ele>
        <time>2021-02-25T11:04:15.000Z</time>
      </trkpt>
      <trkpt lat="47.28803" lon="-2.36822">
        <ele>-18.200000762939</ele>
        <time>2021-02-25T11:04:16.000Z</time>
      </trkpt>
      <trkpt lat="47.288" lon="-2.36828">
        <ele>-18.200000762939</ele>
        <time>2021-02-25T11:04:17.000Z</time>
      </trkpt>
      <trkpt lat="47.28797" lon="-2.36834">
        <ele>-18.200000762939</ele>
        <time>2021-02-25T11:04:18.000Z</time>
      </trkpt>
      <trkpt lat="47.28783" lon="-2.36875">
        <ele>-18.200000762939</ele>
        <time>2021-02-25T11:04:24.000Z</time>
      </trkpt>
      <trkpt lat="47.2878" lon="-2.36888">
        <ele>-18.200000762939</ele>
        <time>2021-02-25T11:04:26.000Z</time>
      </trkpt>
      <trkpt lat="47.28776" lon="-2.3691">
        <ele>-18.200000762939</ele>
        <time>2021-02-25T11:04:30.000Z</time>
      </trkpt>
      <trkpt lat="47.28764" lon="-2.36913">
        <ele>-18.200000762939</ele>
        <time>2021-02-25T11:04:34.000Z</time>
      </trkpt>
      <trkpt lat="47.28761" lon="-2.36913">
        <ele>-18.200000762939</ele>
        <time>2021-02-25T11:04:35.000Z</time>
      </trkpt>
      <trkpt lat="47.28741" lon="-2.36913">
        <ele>-18.200000762939</ele>
        <time>2021-02-25T11:04:42.000Z</time>
      </trkpt>
      <trkpt lat="47.28738" lon="-2.36912">
        <ele>-18.200000762939</ele>
        <time>2021-02-25T11:04:43.000Z</time>
      </trkpt>
      <trkpt lat="47.28737" lon="-2.36911">
        <ele>-17.799999237061</ele>
        <time>2021-02-25T11:04:44.000Z</time>
      </trkpt>
      <trkpt lat="47.28734" lon="-2.36908">
        <ele>-17.39999961853</ele>
        <time>2021-02-25T11:04:45.000Z</time>
      </trkpt>
      <trkpt lat="47.28733" lon="-2.36905">
        <ele>-17</ele>
        <time>2021-02-25T11:04:46.000Z</time>
      </trkpt>
      <trkpt lat="47.28732" lon="-2.36902">
        <ele>-16.60000038147</ele>
        <time>2021-02-25T11:04:47.000Z</time>
      </trkpt>
      <trkpt lat="47.2873" lon="-2.369">
        <ele>-16.200000762939</ele>
        <time>2021-02-25T11:04:48.000Z</time>
      </trkpt>
      <trkpt lat="47.28726" lon="-2.36894">
        <ele>-15.800000190735</ele>
        <time>2021-02-25T11:04:50.000Z</time>
      </trkpt>
      <trkpt lat="47.28725" lon="-2.36892">
        <ele>-15.199999809265</ele>
        <time>2021-02-25T11:04:51.000Z</time>
      </trkpt>
      <trkpt lat="47.28723" lon="-2.36888">
        <ele>-14.800000190735</ele>
        <time>2021-02-25T11:04:52.000Z</time>
      </trkpt>
      <trkpt lat="47.28721" lon="-2.36884">
        <ele>-14.39999961853</ele>
        <time>2021-02-25T11:04:53.000Z</time>
      </trkpt>
      <trkpt lat="47.28718" lon="-2.36881">
        <ele>-13.800000190735</ele>
        <time>2021-02-25T11:04:54.000Z</time>
      </trkpt>
      <trkpt lat="47.28717" lon="-2.36878">
        <ele>-13.800000190735</ele>
        <time>2021-02-25T11:04:55.000Z</time>
      </trkpt>
      <trkpt lat="47.28714" lon="-2.36872">
        <ele>-13</ele>
        <time>2021-02-25T11:04:57.000Z</time>
      </trkpt>
      <trkpt lat="47.28713" lon="-2.36869">
        <ele>-12.60000038147</ele>
        <time>2021-02-25T11:04:58.000Z</time>
      </trkpt>
      <trkpt lat="47.28711" lon="-2.36866">
        <ele>-12</ele>
        <time>2021-02-25T11:04:59.000Z</time>
      </trkpt>
      <trkpt lat="47.2871" lon="-2.36863">
        <ele>-11.60000038147</ele>
        <time>2021-02-25T11:05:00.000Z</time>
      </trkpt>
      <trkpt lat="47.28701" lon="-2.36839">
        <ele>-11.60000038147</ele>
        <time>2021-02-25T11:05:06.000Z</time>
      </trkpt>
      <trkpt lat="47.28699" lon="-2.36833">
        <ele>-11.199999809265</ele>
        <time>2021-02-25T11:05:08.000Z</time>
      </trkpt>
      <trkpt lat="47.28698" lon="-2.36827">
        <ele>-10.800000190735</ele>
        <time>2021-02-25T11:05:09.000Z</time>
      </trkpt>
      <trkpt lat="47.28697" lon="-2.36824">
        <ele>-10.39999961853</ele>
        <time>2021-02-25T11:05:10.000Z</time>
      </trkpt>
      <trkpt lat="47.28696" lon="-2.36821">
        <ele>-10</ele>
        <time>2021-02-25T11:05:11.000Z</time>
      </trkpt>
      <trkpt lat="47.28696" lon="-2.36818">
        <ele>-9.3999996185303</ele>
        <time>2021-02-25T11:05:12.000Z</time>
      </trkpt>
      <trkpt lat="47.28695" lon="-2.36816">
        <ele>-9.3999996185303</ele>
        <time>2021-02-25T11:05:13.000Z</time>
      </trkpt>
      <trkpt lat="47.28692" lon="-2.36808">
        <ele>-9.3999996185303</ele>
        <time>2021-02-25T11:05:18.000Z</time>
      </trkpt>
      <trkpt lat="47.28687" lon="-2.36803">
        <ele>-9.3999996185303</ele>
        <time>2021-02-25T11:05:31.000Z</time>
      </trkpt>
      <trkpt lat="47.28671" lon="-2.36793">
        <ele>-9.3999996185303</ele>
        <time>2021-02-25T11:05:36.000Z</time>
      </trkpt>
      <trkpt lat="47.28658" lon="-2.368">
        <ele>-9.3999996185303</ele>
        <time>2021-02-25T11:05:39.000Z</time>
      </trkpt>
      <trkpt lat="47.28645" lon="-2.36813">
        <ele>-9.3999996185303</ele>
        <time>2021-02-25T11:05:43.000Z</time>
      </trkpt>
      <trkpt lat="47.28643" lon="-2.36814">
        <ele>-9.3999996185303</ele>
        <time>2021-02-25T11:05:45.000Z</time>
      </trkpt>
      <trkpt lat="47.28643" lon="-2.36814">
        <ele>-9.3999996185303</ele>
        <time>2021-02-25T11:05:54.000Z</time>
      </trkpt>
      <trkpt lat="47.28641" lon="-2.36816">
        <ele>-9.3999996185303</ele>
        <time>2021-02-25T11:05:55.000Z</time>
      </trkpt>
      <trkpt lat="47.28628" lon="-2.36827">
        <ele>-9.3999996185303</ele>
        <time>2021-02-25T11:05:59.000Z</time>
      </trkpt>
      <trkpt lat="47.28609" lon="-2.36849">
        <ele>-10</ele>
        <time>2021-02-25T11:06:04.000Z</time>
      </trkpt>
      <trkpt lat="47.28605" lon="-2.3685">
        <ele>-10.39999961853</ele>
        <time>2021-02-25T11:06:05.000Z</time>
      </trkpt>
      <trkpt lat="47.28601" lon="-2.36848">
        <ele>-10.800000190735</ele>
        <time>2021-02-25T11:06:06.000Z</time>
      </trkpt>
      <trkpt lat="47.28597" lon="-2.36844">
        <ele>-11.199999809265</ele>
        <time>2021-02-25T11:06:07.000Z</time>
      </trkpt>
      <trkpt lat="47.28594" lon="-2.36839">
        <ele>-11.60000038147</ele>
        <time>2021-02-25T11:06:08.000Z</time>
      </trkpt>
      <trkpt lat="47.28589" lon="-2.36829">
        <ele>-11.60000038147</ele>
        <time>2021-02-25T11:06:10.000Z</time>
      </trkpt>
      <trkpt lat="47.28585" lon="-2.36818">
        <ele>-11.60000038147</ele>
        <time>2021-02-25T11:06:12.000Z</time>
      </trkpt>
      <trkpt lat="47.28581" lon="-2.36808">
        <ele>-11.60000038147</ele>
        <time>2021-02-25T11:06:14.000Z</time>
      </trkpt>
      <trkpt lat="47.28573" lon="-2.36792">
        <ele>-11.60000038147</ele>
        <time>2021-02-25T11:06:17.000Z</time>
      </trkpt>
      <trkpt lat="47.28561" lon="-2.36771">
        <ele>-11.60000038147</ele>
        <time>2021-02-25T11:06:21.000Z</time>
      </trkpt>
      <trkpt lat="47.28557" lon="-2.36762">
        <ele>-11.60000038147</ele>
        <time>2021-02-25T11:06:23.000Z</time>
      </trkpt>
      <trkpt lat="47.28548" lon="-2.36742">
        <ele>-11.60000038147</ele>
        <time>2021-02-25T11:06:27.000Z</time>
      </trkpt>
      <trkpt lat="47.28546" lon="-2.36738">
        <ele>-11.199999809265</ele>
        <time>2021-02-25T11:06:28.000Z</time>
      </trkpt>
      <trkpt lat="47.28544" lon="-2.36734">
        <ele>-10.800000190735</ele>
        <time>2021-02-25T11:06:29.000Z</time>
      </trkpt>
      <trkpt lat="47.28541" lon="-2.3673">
        <ele>-10.39999961853</ele>
        <time>2021-02-25T11:06:30.000Z</time>
      </trkpt>
      <trkpt lat="47.28539" lon="-2.36726">
        <ele>-10</ele>
        <time>2021-02-25T11:06:31.000Z</time>
      </trkpt>
      <trkpt lat="47.28536" lon="-2.36723">
        <ele>-9.6000003814697</ele>
        <time>2021-02-25T11:06:32.000Z</time>
      </trkpt>
      <trkpt lat="47.28534" lon="-2.3672">
        <ele>-9.6000003814697</ele>
        <time>2021-02-25T11:06:33.000Z</time>
      </trkpt>
      <trkpt lat="47.28523" lon="-2.36704">
        <ele>-9.6000003814697</ele>
        <time>2021-02-25T11:06:38.000Z</time>
      </trkpt>
      <trkpt lat="47.28518" lon="-2.36699">
        <ele>-9.1999998092651</ele>
        <time>2021-02-25T11:06:40.000Z</time>
      </trkpt>
      <trkpt lat="47.28515" lon="-2.36697">
        <ele>-8.8000001907349</ele>
        <time>2021-02-25T11:06:41.000Z</time>
      </trkpt>
      <trkpt lat="47.28514" lon="-2.36695">
        <ele>-8.3999996185303</ele>
        <time>2021-02-25T11:06:42.000Z</time>
      </trkpt>
      <trkpt lat="47.28512" lon="-2.36694">
        <ele>-8</ele>
        <time>2021-02-25T11:06:43.000Z</time>
      </trkpt>
      <trkpt lat="47.28511" lon="-2.36693">
        <ele>-7.5999999046326</ele>
        <time>2021-02-25T11:06:44.000Z</time>
      </trkpt>
      <trkpt lat="47.28499" lon="-2.3668">
        <ele>-7.5999999046326</ele>
        <time>2021-02-25T11:06:49.000Z</time>
      </trkpt>
      <trkpt lat="47.28491" lon="-2.36661">
        <ele>-7.5999999046326</ele>
        <time>2021-02-25T11:06:53.000Z</time>
      </trkpt>
      <trkpt lat="47.28481" lon="-2.36621">
        <ele>-7.5999999046326</ele>
        <time>2021-02-25T11:07:00.000Z</time>
      </trkpt>
      <trkpt lat="47.28475" lon="-2.36603">
        <ele>-7.1999998092651</ele>
        <time>2021-02-25T11:07:03.000Z</time>
      </trkpt>
      <trkpt lat="47.28473" lon="-2.36597">
        <ele>-6.8000001907349</ele>
        <time>2021-02-25T11:07:04.000Z</time>
      </trkpt>
      <trkpt lat="47.28471" lon="-2.3659">
        <ele>-6.1999998092651</ele>
        <time>2021-02-25T11:07:05.000Z</time>
      </trkpt>
      <trkpt lat="47.2847" lon="-2.36584">
        <ele>-5.8000001907349</ele>
        <time>2021-02-25T11:07:06.000Z</time>
      </trkpt>
      <trkpt lat="47.28469" lon="-2.36578">
        <ele>-5.4000000953674</ele>
        <time>2021-02-25T11:07:07.000Z</time>
      </trkpt>
      <trkpt lat="47.28475" lon="-2.36554">
        <ele>-5.4000000953674</ele>
        <time>2021-02-25T11:07:11.000Z</time>
      </trkpt>
      <trkpt lat="47.28482" lon="-2.36547">
        <ele>-5.4000000953674</ele>
        <time>2021-02-25T11:07:13.000Z</time>
      </trkpt>
      <trkpt lat="47.28499" lon="-2.36529">
        <ele>-5.4000000953674</ele>
        <time>2021-02-25T11:07:18.000Z</time>
      </trkpt>
      <trkpt lat="47.28517" lon="-2.36509">
        <ele>-5.4000000953674</ele>
        <time>2021-02-25T11:07:24.000Z</time>
      </trkpt>
      <trkpt lat="47.28519" lon="-2.36506">
        <ele>-5</ele>
        <time>2021-02-25T11:07:25.000Z</time>
      </trkpt>
      <trkpt lat="47.28521" lon="-2.36503">
        <ele>-4</ele>
        <time>2021-02-25T11:07:26.000Z</time>
      </trkpt>
      <trkpt lat="47.28522" lon="-2.36499">
        <ele>-3.5999999046326</ele>
        <time>2021-02-25T11:07:27.000Z</time>
      </trkpt>
      <trkpt lat="47.28521" lon="-2.36495">
        <ele>-3.2000000476837</ele>
        <time>2021-02-25T11:07:28.000Z</time>
      </trkpt>
      <trkpt lat="47.28519" lon="-2.36482">
        <ele>-3.2000000476837</ele>
        <time>2021-02-25T11:07:31.000Z</time>
      </trkpt>
      <trkpt lat="47.28518" lon="-2.36474">
        <ele>-3.2000000476837</ele>
        <time>2021-02-25T11:07:33.000Z</time>
      </trkpt>
      <trkpt lat="47.28511" lon="-2.36456">
        <ele>-3.2000000476837</ele>
        <time>2021-02-25T11:07:37.000Z</time>
      </trkpt>
      <trkpt lat="47.28508" lon="-2.36452">
        <ele>-3.2000000476837</ele>
        <time>2021-02-25T11:07:38.000Z</time>
      </trkpt>
      <trkpt lat="47.28496" lon="-2.36444">
        <ele>-3.2000000476837</ele>
        <time>2021-02-25T11:07:41.000Z</time>
      </trkpt>
      <trkpt lat="47.28488" lon="-2.36439">
        <ele>-3.2000000476837</ele>
        <time>2021-02-25T11:07:43.000Z</time>
      </trkpt>
      <trkpt lat="47.28479" lon="-2.3643">
        <ele>-3.2000000476837</ele>
        <time>2021-02-25T11:07:46.000Z</time>
      </trkpt>
      <trkpt lat="47.28476" lon="-2.36427">
        <ele>-2.7999999523163</ele>
        <time>2021-02-25T11:07:47.000Z</time>
      </trkpt>
      <trkpt lat="47.28474" lon="-2.36424">
        <ele>-2.4000000953674</ele>
        <time>2021-02-25T11:07:48.000Z</time>
      </trkpt>
      <trkpt lat="47.28472" lon="-2.36422">
        <ele>-1.7999999523163</ele>
        <time>2021-02-25T11:07:49.000Z</time>
      </trkpt>
      <trkpt lat="47.2847" lon="-2.36419">
        <ele>-1.3999999761581</ele>
        <time>2021-02-25T11:07:50.000Z</time>
      </trkpt>
      <trkpt lat="47.28469" lon="-2.36416">
        <ele>-1</ele>
        <time>2021-02-25T11:07:51.000Z</time>
      </trkpt>
      <trkpt lat="47.28467" lon="-2.36413">
        <ele>-1</ele>
        <time>2021-02-25T11:07:52.000Z</time>
      </trkpt>
      <trkpt lat="47.28454" lon="-2.36397">
        <ele>-1</ele>
        <time>2021-02-25T11:07:56.000Z</time>
      </trkpt>
      <trkpt lat="47.28427" lon="-2.36374">
        <ele>-1</ele>
        <time>2021-02-25T11:08:02.000Z</time>
      </trkpt>
      <trkpt lat="47.28415" lon="-2.36364">
        <ele>-1</ele>
        <time>2021-02-25T11:08:05.000Z</time>
      </trkpt>
      <trkpt lat="47.2841" lon="-2.36354">
        <ele>-1</ele>
        <time>2021-02-25T11:08:07.000Z</time>
      </trkpt>
      <trkpt lat="47.28406" lon="-2.36349">
        <ele>-1</ele>
        <time>2021-02-25T11:08:08.000Z</time>
      </trkpt>
      <trkpt lat="47.28398" lon="-2.36341">
        <ele>-1.3999999761581</ele>
        <time>2021-02-25T11:08:10.000Z</time>
      </trkpt>
      <trkpt lat="47.28394" lon="-2.36339">
        <ele>-1.7999999523163</ele>
        <time>2021-02-25T11:08:11.000Z</time>
      </trkpt>
      <trkpt lat="47.2839" lon="-2.36336">
        <ele>-2.2000000476837</ele>
        <time>2021-02-25T11:08:12.000Z</time>
      </trkpt>
      <trkpt lat="47.28386" lon="-2.36333">
        <ele>-2.5999999046326</ele>
        <time>2021-02-25T11:08:13.000Z</time>
      </trkpt>
      <trkpt lat="47.28381" lon="-2.3633">
        <ele>-3.2000000476837</ele>
        <time>2021-02-25T11:08:14.000Z</time>
      </trkpt>
      <trkpt lat="47.28369" lon="-2.3632">
        <ele>-3.2000000476837</ele>
        <time>2021-02-25T11:08:17.000Z</time>
      </trkpt>
      <trkpt lat="47.28362" lon="-2.36307">
        <ele>-3.5999999046326</ele>
        <time>2021-02-25T11:08:20.000Z</time>
      </trkpt>
      <trkpt lat="47.28361" lon="-2.36302">
        <ele>-4</ele>
        <time>2021-02-25T11:08:21.000Z</time>
      </trkpt>
      <trkpt lat="47.28361" lon="-2.36295">
        <ele>-4.4000000953674</ele>
        <time>2021-02-25T11:08:22.000Z</time>
      </trkpt>
      <trkpt lat="47.28361" lon="-2.36289">
        <ele>-4.8000001907349</ele>
        <time>2021-02-25T11:08:23.000Z</time>
      </trkpt>
      <trkpt lat="47.28361" lon="-2.36282">
        <ele>-5.1999998092651</ele>
        <time>2021-02-25T11:08:24.000Z</time>
      </trkpt>
      <trkpt lat="47.28359" lon="-2.36278">
        <ele>-5.1999998092651</ele>
        <time>2021-02-25T11:08:25.000Z</time>
      </trkpt>
      <trkpt lat="47.28348" lon="-2.36271">
        <ele>-5.1999998092651</ele>
        <time>2021-02-25T11:08:28.000Z</time>
      </trkpt>
      <trkpt lat="47.28323" lon="-2.36261">
        <ele>-5.1999998092651</ele>
        <time>2021-02-25T11:08:32.000Z</time>
      </trkpt>
      <trkpt lat="47.28315" lon="-2.36258">
        <ele>-5.5999999046326</ele>
        <time>2021-02-25T11:08:33.000Z</time>
      </trkpt>
      <trkpt lat="47.28309" lon="-2.36256">
        <ele>-6</ele>
        <time>2021-02-25T11:08:34.000Z</time>
      </trkpt>
      <trkpt lat="47.28302" lon="-2.36254">
        <ele>-6.4000000953674</ele>
        <time>2021-02-25T11:08:35.000Z</time>
      </trkpt>
      <trkpt lat="47.28295" lon="-2.36251">
        <ele>-6.8000001907349</ele>
        <time>2021-02-25T11:08:36.000Z</time>
      </trkpt>
      <trkpt lat="47.2829" lon="-2.36248">
        <ele>-7.1999998092651</ele>
        <time>2021-02-25T11:08:37.000Z</time>
      </trkpt>
      <trkpt lat="47.28282" lon="-2.36236">
        <ele>-7.1999998092651</ele>
        <time>2021-02-25T11:08:40.000Z</time>
      </trkpt>
      <trkpt lat="47.28276" lon="-2.36218">
        <ele>-7.1999998092651</ele>
        <time>2021-02-25T11:08:45.000Z</time>
      </trkpt>
      <trkpt lat="47.28275" lon="-2.36213">
        <ele>-7.1999998092651</ele>
        <time>2021-02-25T11:08:46.000Z</time>
      </trkpt>
      <trkpt lat="47.2827" lon="-2.36187">
        <ele>-7.1999998092651</ele>
        <time>2021-02-25T11:08:51.000Z</time>
      </trkpt>
      <trkpt lat="47.28264" lon="-2.36161">
        <ele>-7.1999998092651</ele>
        <time>2021-02-25T11:08:56.000Z</time>
      </trkpt>
      <trkpt lat="47.28251" lon="-2.36133">
        <ele>-7.1999998092651</ele>
        <time>2021-02-25T11:09:02.000Z</time>
      </trkpt>
      <trkpt lat="47.28244" lon="-2.3611">
        <ele>-7.1999998092651</ele>
        <time>2021-02-25T11:09:07.000Z</time>
      </trkpt>
      <trkpt lat="47.28247" lon="-2.36093">
        <ele>-6.8000001907349</ele>
        <time>2021-02-25T11:09:11.000Z</time>
      </trkpt>
      <trkpt lat="47.28248" lon="-2.36089">
        <ele>-6.4000000953674</ele>
        <time>2021-02-25T11:09:12.000Z</time>
      </trkpt>
      <trkpt lat="47.28249" lon="-2.36085">
        <ele>-6</ele>
        <time>2021-02-25T11:09:13.000Z</time>
      </trkpt>
      <trkpt lat="47.28249" lon="-2.36081">
        <ele>-5.5999999046326</ele>
        <time>2021-02-25T11:09:14.000Z</time>
      </trkpt>
      <trkpt lat="47.28249" lon="-2.36076">
        <ele>-5.1999998092651</ele>
        <time>2021-02-25T11:09:15.000Z</time>
      </trkpt>
      <trkpt lat="47.28249" lon="-2.3606">
        <ele>-5.1999998092651</ele>
        <time>2021-02-25T11:09:18.000Z</time>
      </trkpt>
      <trkpt lat="47.28251" lon="-2.36047">
        <ele>-5.1999998092651</ele>
        <time>2021-02-25T11:09:20.000Z</time>
      </trkpt>
      <trkpt lat="47.28254" lon="-2.36034">
        <ele>-5.1999998092651</ele>
        <time>2021-02-25T11:09:22.000Z</time>
      </trkpt>
      <trkpt lat="47.28253" lon="-2.3603">
        <ele>-5.5999999046326</ele>
        <time>2021-02-25T11:09:23.000Z</time>
      </trkpt>
      <trkpt lat="47.28251" lon="-2.36028">
        <ele>-6</ele>
        <time>2021-02-25T11:09:24.000Z</time>
      </trkpt>
      <trkpt lat="47.28248" lon="-2.36027">
        <ele>-6.4000000953674</ele>
        <time>2021-02-25T11:09:25.000Z</time>
      </trkpt>
      <trkpt lat="47.28243" lon="-2.36028">
        <ele>-6.8000001907349</ele>
        <time>2021-02-25T11:09:26.000Z</time>
      </trkpt>
      <trkpt lat="47.28238" lon="-2.3603">
        <ele>-7.1999998092651</ele>
        <time>2021-02-25T11:09:27.000Z</time>
      </trkpt>
      <trkpt lat="47.2823" lon="-2.36036">
        <ele>-7.1999998092651</ele>
        <time>2021-02-25T11:09:29.000Z</time>
      </trkpt>
      <trkpt lat="47.28225" lon="-2.36038">
        <ele>-7.1999998092651</ele>
        <time>2021-02-25T11:09:30.000Z</time>
      </trkpt>
      <trkpt lat="47.28221" lon="-2.36037">
        <ele>-7.5999999046326</ele>
        <time>2021-02-25T11:09:31.000Z</time>
      </trkpt>
      <trkpt lat="47.28217" lon="-2.36036">
        <ele>-8.1999998092651</ele>
        <time>2021-02-25T11:09:32.000Z</time>
      </trkpt>
      <trkpt lat="47.28213" lon="-2.36034">
        <ele>-8.6000003814697</ele>
        <time>2021-02-25T11:09:33.000Z</time>
      </trkpt>
      <trkpt lat="47.2821" lon="-2.36033">
        <ele>-9</ele>
        <time>2021-02-25T11:09:34.000Z</time>
      </trkpt>
      <trkpt lat="47.28208" lon="-2.36032">
        <ele>-9.3999996185303</ele>
        <time>2021-02-25T11:09:35.000Z</time>
      </trkpt>
      <trkpt lat="47.28207" lon="-2.3603">
        <ele>-9.3999996185303</ele>
        <time>2021-02-25T11:09:36.000Z</time>
      </trkpt>
      <trkpt lat="47.28199" lon="-2.36014">
        <ele>-9.3999996185303</ele>
        <time>2021-02-25T11:09:40.000Z</time>
      </trkpt>
      <trkpt lat="47.28188" lon="-2.35988">
        <ele>-9.3999996185303</ele>
        <time>2021-02-25T11:09:45.000Z</time>
      </trkpt>
      <trkpt lat="47.28182" lon="-2.35968">
        <ele>-9.3999996185303</ele>
        <time>2021-02-25T11:09:49.000Z</time>
      </trkpt>
      <trkpt lat="47.28178" lon="-2.35939">
        <ele>-9.3999996185303</ele>
        <time>2021-02-25T11:09:54.000Z</time>
      </trkpt>
      <trkpt lat="47.28176" lon="-2.35913">
        <ele>-9.3999996185303</ele>
        <time>2021-02-25T11:09:59.000Z</time>
      </trkpt>
      <trkpt lat="47.28176" lon="-2.35909">
        <ele>-9</ele>
        <time>2021-02-25T11:10:00.000Z</time>
      </trkpt>
      <trkpt lat="47.28175" lon="-2.35904">
        <ele>-8.6000003814697</ele>
        <time>2021-02-25T11:10:01.000Z</time>
      </trkpt>
      <trkpt lat="47.28172" lon="-2.359">
        <ele>-8</ele>
        <time>2021-02-25T11:10:02.000Z</time>
      </trkpt>
      <trkpt lat="47.28169" lon="-2.35898">
        <ele>-7.5999999046326</ele>
        <time>2021-02-25T11:10:03.000Z</time>
      </trkpt>
      <trkpt lat="47.28165" lon="-2.35896">
        <ele>-7.1999998092651</ele>
        <time>2021-02-25T11:10:04.000Z</time>
      </trkpt>
      <trkpt lat="47.28157" lon="-2.35893">
        <ele>-7.1999998092651</ele>
        <time>2021-02-25T11:10:06.000Z</time>
      </trkpt>
      <trkpt lat="47.28149" lon="-2.3589">
        <ele>-7.1999998092651</ele>
        <time>2021-02-25T11:10:08.000Z</time>
      </trkpt>
      <trkpt lat="47.28138" lon="-2.3588">
        <ele>-7.1999998092651</ele>
        <time>2021-02-25T11:10:12.000Z</time>
      </trkpt>
      <trkpt lat="47.28129" lon="-2.35867">
        <ele>-7.1999998092651</ele>
        <time>2021-02-25T11:10:17.000Z</time>
      </trkpt>
      <trkpt lat="47.28128" lon="-2.35861">
        <ele>-7.1999998092651</ele>
        <time>2021-02-25T11:10:19.000Z</time>
      </trkpt>
      <trkpt lat="47.28126" lon="-2.35846">
        <ele>-6.8000001907349</ele>
        <time>2021-02-25T11:10:24.000Z</time>
      </trkpt>
      <trkpt lat="47.28126" lon="-2.35845">
        <ele>-6.4000000953674</ele>
        <time>2021-02-25T11:10:25.000Z</time>
      </trkpt>
      <trkpt lat="47.28127" lon="-2.35843">
        <ele>-6</ele>
        <time>2021-02-25T11:10:26.000Z</time>
      </trkpt>
      <trkpt lat="47.28127" lon="-2.35842">
        <ele>-5.5999999046326</ele>
        <time>2021-02-25T11:10:27.000Z</time>
      </trkpt>
      <trkpt lat="47.28127" lon="-2.35839">
        <ele>-5.1999998092651</ele>
        <time>2021-02-25T11:10:28.000Z</time>
      </trkpt>
      <trkpt lat="47.28124" lon="-2.35827">
        <ele>-5.1999998092651</ele>
        <time>2021-02-25T11:10:32.000Z</time>
      </trkpt>
      <trkpt lat="47.28123" lon="-2.35824">
        <ele>-5.5999999046326</ele>
        <time>2021-02-25T11:10:33.000Z</time>
      </trkpt>
      <trkpt lat="47.28122" lon="-2.35821">
        <ele>-6</ele>
        <time>2021-02-25T11:10:34.000Z</time>
      </trkpt>
      <trkpt lat="47.2812" lon="-2.35819">
        <ele>-6.4000000953674</ele>
        <time>2021-02-25T11:10:35.000Z</time>
      </trkpt>
      <trkpt lat="47.28118" lon="-2.35817">
        <ele>-6.8000001907349</ele>
        <time>2021-02-25T11:10:36.000Z</time>
      </trkpt>
      <trkpt lat="47.28117" lon="-2.35815">
        <ele>-7.1999998092651</ele>
        <time>2021-02-25T11:10:37.000Z</time>
      </trkpt>
      <trkpt lat="47.28116" lon="-2.35814">
        <ele>-7.1999998092651</ele>
        <time>2021-02-25T11:10:38.000Z</time>
      </trkpt>
      <trkpt lat="47.28111" lon="-2.35812">
        <ele>-7.1999998092651</ele>
        <time>2021-02-25T11:10:44.000Z</time>
      </trkpt>
      <trkpt lat="47.28105" lon="-2.3581">
        <ele>-7.1999998092651</ele>
        <time>2021-02-25T11:10:50.000Z</time>
      </trkpt>
      <trkpt lat="47.28098" lon="-2.35811">
        <ele>-7.1999998092651</ele>
        <time>2021-02-25T11:10:55.000Z</time>
      </trkpt>
      <trkpt lat="47.28085" lon="-2.35806">
        <ele>-7.1999998092651</ele>
        <time>2021-02-25T11:11:01.000Z</time>
      </trkpt>
      <trkpt lat="47.28082" lon="-2.35792">
        <ele>-7.1999998092651</ele>
        <time>2021-02-25T11:11:05.000Z</time>
      </trkpt>
      <trkpt lat="47.28082" lon="-2.35786">
        <ele>-7.1999998092651</ele>
        <time>2021-02-25T11:11:07.000Z</time>
      </trkpt>
      <trkpt lat="47.28084" lon="-2.35779">
        <ele>-6.4000000953674</ele>
        <time>2021-02-25T11:11:09.000Z</time>
      </trkpt>
      <trkpt lat="47.28085" lon="-2.35775">
        <ele>-6</ele>
        <time>2021-02-25T11:11:10.000Z</time>
      </trkpt>
      <trkpt lat="47.28086" lon="-2.35771">
        <ele>-5.5999999046326</ele>
        <time>2021-02-25T11:11:11.000Z</time>
      </trkpt>
      <trkpt lat="47.28087" lon="-2.35766">
        <ele>-5.1999998092651</ele>
        <time>2021-02-25T11:11:12.000Z</time>
      </trkpt>
      <trkpt lat="47.28091" lon="-2.35739">
        <ele>-5.1999998092651</ele>
        <time>2021-02-25T11:11:18.000Z</time>
      </trkpt>
      <trkpt lat="47.28093" lon="-2.35731">
        <ele>-4.8000001907349</ele>
        <time>2021-02-25T11:11:20.000Z</time>
      </trkpt>
      <trkpt lat="47.28094" lon="-2.35728">
        <ele>-4.1999998092651</ele>
        <time>2021-02-25T11:11:21.000Z</time>
      </trkpt>
      <trkpt lat="47.28095" lon="-2.35724">
        <ele>-3.7999999523163</ele>
        <time>2021-02-25T11:11:22.000Z</time>
      </trkpt>
      <trkpt lat="47.28095" lon="-2.35721">
        <ele>-3.4000000953674</ele>
        <time>2021-02-25T11:11:23.000Z</time>
      </trkpt>
      <trkpt lat="47.28095" lon="-2.35717">
        <ele>-2.7999999523163</ele>
        <time>2021-02-25T11:11:24.000Z</time>
      </trkpt>
      <trkpt lat="47.2809" lon="-2.35694">
        <ele>-2.7999999523163</ele>
        <time>2021-02-25T11:11:29.000Z</time>
      </trkpt>
      <trkpt lat="47.28084" lon="-2.3567">
        <ele>-2.7999999523163</ele>
        <time>2021-02-25T11:11:32.000Z</time>
      </trkpt>
      <trkpt lat="47.28082" lon="-2.35656">
        <ele>-2.7999999523163</ele>
        <time>2021-02-25T11:11:34.000Z</time>
      </trkpt>
      <trkpt lat="47.2808" lon="-2.35644">
        <ele>-3.4000000953674</ele>
        <time>2021-02-25T11:11:36.000Z</time>
      </trkpt>
      <trkpt lat="47.28078" lon="-2.35637">
        <ele>-3.7999999523163</ele>
        <time>2021-02-25T11:11:37.000Z</time>
      </trkpt>
      <trkpt lat="47.28077" lon="-2.3563">
        <ele>-4.1999998092651</ele>
        <time>2021-02-25T11:11:38.000Z</time>
      </trkpt>
      <trkpt lat="47.28076" lon="-2.35622">
        <ele>-4.5999999046326</ele>
        <time>2021-02-25T11:11:39.000Z</time>
      </trkpt>
      <trkpt lat="47.28075" lon="-2.35613">
        <ele>-5.1999998092651</ele>
        <time>2021-02-25T11:11:40.000Z</time>
      </trkpt>
      <trkpt lat="47.28073" lon="-2.35606">
        <ele>-5.8000001907349</ele>
        <time>2021-02-25T11:11:41.000Z</time>
      </trkpt>
      <trkpt lat="47.28071" lon="-2.35601">
        <ele>-6.4000000953674</ele>
        <time>2021-02-25T11:11:42.000Z</time>
      </trkpt>
      <trkpt lat="47.28068" lon="-2.35596">
        <ele>-7.1999998092651</ele>
        <time>2021-02-25T11:11:43.000Z</time>
      </trkpt>
      <trkpt lat="47.28066" lon="-2.35591">
        <ele>-7.8000001907349</ele>
        <time>2021-02-25T11:11:44.000Z</time>
      </trkpt>
      <trkpt lat="47.28062" lon="-2.35587">
        <ele>-7.8000001907349</ele>
        <time>2021-02-25T11:11:46.000Z</time>
      </trkpt>
      <trkpt lat="47.28061" lon="-2.3558">
        <ele>-7.8000001907349</ele>
        <time>2021-02-25T11:11:49.000Z</time>
      </trkpt>
      <trkpt lat="47.28056" lon="-2.35576">
        <ele>-9.8000001907349</ele>
        <time>2021-02-25T11:16:32.000Z</time>
      </trkpt>
      <trkpt lat="47.28043" lon="-2.35574">
        <ele>-9.8000001907349</ele>
        <time>2021-02-25T11:16:37.000Z</time>
      </trkpt>
      <trkpt lat="47.28028" lon="-2.35568">
        <ele>-9.8000001907349</ele>
        <time>2021-02-25T11:16:41.000Z</time>
      </trkpt>
      <trkpt lat="47.28012" lon="-2.35564">
        <ele>-9.8000001907349</ele>
        <time>2021-02-25T11:16:45.000Z</time>
      </trkpt>
      <trkpt lat="47.28008" lon="-2.35562">
        <ele>-9.8000001907349</ele>
        <time>2021-02-25T11:16:46.000Z</time>
      </trkpt>
      <trkpt lat="47.2799" lon="-2.35567">
        <ele>-9.8000001907349</ele>
        <time>2021-02-25T11:16:50.000Z</time>
      </trkpt>
      <trkpt lat="47.27954" lon="-2.35581">
        <ele>-9.8000001907349</ele>
        <time>2021-02-25T11:16:57.000Z</time>
      </trkpt>
      <trkpt lat="47.27915" lon="-2.35591">
        <ele>-9.8000001907349</ele>
        <time>2021-02-25T11:17:04.000Z</time>
      </trkpt>
      <trkpt lat="47.27873" lon="-2.35598">
        <ele>-9.8000001907349</ele>
        <time>2021-02-25T11:17:11.000Z</time>
      </trkpt>
      <trkpt lat="47.2786" lon="-2.35601">
        <ele>-10.199999809265</ele>
        <time>2021-02-25T11:17:13.000Z</time>
      </trkpt>
      <trkpt lat="47.27853" lon="-2.35603">
        <ele>-10.60000038147</ele>
        <time>2021-02-25T11:17:14.000Z</time>
      </trkpt>
      <trkpt lat="47.27847" lon="-2.35605">
        <ele>-11</ele>
        <time>2021-02-25T11:17:15.000Z</time>
      </trkpt>
      <trkpt lat="47.2784" lon="-2.35607">
        <ele>-11.39999961853</ele>
        <time>2021-02-25T11:17:16.000Z</time>
      </trkpt>
      <trkpt lat="47.27833" lon="-2.35609">
        <ele>-11.800000190735</ele>
        <time>2021-02-25T11:17:17.000Z</time>
      </trkpt>
      <trkpt lat="47.27818" lon="-2.35613">
        <ele>-11.800000190735</ele>
        <time>2021-02-25T11:17:19.000Z</time>
      </trkpt>
      <trkpt lat="47.27782" lon="-2.35628">
        <ele>-11.800000190735</ele>
        <time>2021-02-25T11:17:24.000Z</time>
      </trkpt>
      <trkpt lat="47.27775" lon="-2.35633">
        <ele>-12.39999961853</ele>
        <time>2021-02-25T11:17:25.000Z</time>
      </trkpt>
      <trkpt lat="47.27768" lon="-2.3564">
        <ele>-12.800000190735</ele>
        <time>2021-02-25T11:17:26.000Z</time>
      </trkpt>
      <trkpt lat="47.27762" lon="-2.35647">
        <ele>-13.199999809265</ele>
        <time>2021-02-25T11:17:27.000Z</time>
      </trkpt>
      <trkpt lat="47.27757" lon="-2.35654">
        <ele>-13.800000190735</ele>
        <time>2021-02-25T11:17:28.000Z</time>
      </trkpt>
      <trkpt lat="47.27751" lon="-2.35662">
        <ele>-14.199999809265</ele>
        <time>2021-02-25T11:17:29.000Z</time>
      </trkpt>
      <trkpt lat="47.27719" lon="-2.35708">
        <ele>-14.199999809265</ele>
        <time>2021-02-25T11:17:35.000Z</time>
      </trkpt>
      <trkpt lat="47.277" lon="-2.35726">
        <ele>-14.60000038147</ele>
        <time>2021-02-25T11:17:38.000Z</time>
      </trkpt>
      <trkpt lat="47.27693" lon="-2.35731">
        <ele>-15</ele>
        <time>2021-02-25T11:17:39.000Z</time>
      </trkpt>
      <trkpt lat="47.27688" lon="-2.35738">
        <ele>-15.39999961853</ele>
        <time>2021-02-25T11:17:40.000Z</time>
      </trkpt>
      <trkpt lat="47.27683" lon="-2.35744">
        <ele>-15.800000190735</ele>
        <time>2021-02-25T11:17:41.000Z</time>
      </trkpt>
      <trkpt lat="47.27678" lon="-2.35747">
        <ele>-16.200000762939</ele>
        <time>2021-02-25T11:17:42.000Z</time>
      </trkpt>
      <trkpt lat="47.27673" lon="-2.35747">
        <ele>-16.200000762939</ele>
        <time>2021-02-25T11:17:43.000Z</time>
      </trkpt>
      <trkpt lat="47.2766" lon="-2.35733">
        <ele>-16.200000762939</ele>
        <time>2021-02-25T11:17:46.000Z</time>
      </trkpt>
      <trkpt lat="47.27637" lon="-2.35718">
        <ele>-16.60000038147</ele>
        <time>2021-02-25T11:17:50.000Z</time>
      </trkpt>
      <trkpt lat="47.27631" lon="-2.35716">
        <ele>-17</ele>
        <time>2021-02-25T11:17:51.000Z</time>
      </trkpt>
      <trkpt lat="47.27625" lon="-2.35714">
        <ele>-17.39999961853</ele>
        <time>2021-02-25T11:17:52.000Z</time>
      </trkpt>
      <trkpt lat="47.27619" lon="-2.35712">
        <ele>-18</ele>
        <time>2021-02-25T11:17:53.000Z</time>
      </trkpt>
      <trkpt lat="47.27612" lon="-2.3571">
        <ele>-18.39999961853</ele>
        <time>2021-02-25T11:17:54.000Z</time>
      </trkpt>
      <trkpt lat="47.27591" lon="-2.35705">
        <ele>-18.39999961853</ele>
        <time>2021-02-25T11:17:57.000Z</time>
      </trkpt>
      <trkpt lat="47.27542" lon="-2.35693">
        <ele>-18.799999237061</ele>
        <time>2021-02-25T11:18:04.000Z</time>
      </trkpt>
      <trkpt lat="47.27536" lon="-2.35691">
        <ele>-19.200000762939</ele>
        <time>2021-02-25T11:18:05.000Z</time>
      </trkpt>
      <trkpt lat="47.27529" lon="-2.35689">
        <ele>-19.60000038147</ele>
        <time>2021-02-25T11:18:06.000Z</time>
      </trkpt>
      <trkpt lat="47.27522" lon="-2.35688">
        <ele>-20</ele>
        <time>2021-02-25T11:18:07.000Z</time>
      </trkpt>
      <trkpt lat="47.27515" lon="-2.35686">
        <ele>-20.39999961853</ele>
        <time>2021-02-25T11:18:08.000Z</time>
      </trkpt>
      <trkpt lat="47.27501" lon="-2.35683">
        <ele>-20.39999961853</ele>
        <time>2021-02-25T11:18:10.000Z</time>
      </trkpt>
      <trkpt lat="47.27453" lon="-2.35672">
        <ele>-20.799999237061</ele>
        <time>2021-02-25T11:18:17.000Z</time>
      </trkpt>
      <trkpt lat="47.27447" lon="-2.35671">
        <ele>-21.200000762939</ele>
        <time>2021-02-25T11:18:18.000Z</time>
      </trkpt>
      <trkpt lat="47.2744" lon="-2.35669">
        <ele>-21.60000038147</ele>
        <time>2021-02-25T11:18:19.000Z</time>
      </trkpt>
      <trkpt lat="47.27433" lon="-2.35668">
        <ele>-22</ele>
        <time>2021-02-25T11:18:20.000Z</time>
      </trkpt>
      <trkpt lat="47.27427" lon="-2.35666">
        <ele>-22.60000038147</ele>
        <time>2021-02-25T11:18:21.000Z</time>
      </trkpt>
      <trkpt lat="47.27414" lon="-2.35664">
        <ele>-22.60000038147</ele>
        <time>2021-02-25T11:18:23.000Z</time>
      </trkpt>
      <trkpt lat="47.27408" lon="-2.35665">
        <ele>-22.60000038147</ele>
        <time>2021-02-25T11:18:24.000Z</time>
      </trkpt>
      <trkpt lat="47.27389" lon="-2.35675">
        <ele>-22.60000038147</ele>
        <time>2021-02-25T11:18:27.000Z</time>
      </trkpt>
      <trkpt lat="47.27383" lon="-2.35679">
        <ele>-22.60000038147</ele>
        <time>2021-02-25T11:18:28.000Z</time>
      </trkpt>
      <trkpt lat="47.2734" lon="-2.35712">
        <ele>-22.60000038147</ele>
        <time>2021-02-25T11:18:35.000Z</time>
      </trkpt>
      <trkpt lat="47.27329" lon="-2.35724">
        <ele>-22.60000038147</ele>
        <time>2021-02-25T11:18:37.000Z</time>
      </trkpt>
      <trkpt lat="47.27321" lon="-2.35736">
        <ele>-22.60000038147</ele>
        <time>2021-02-25T11:18:39.000Z</time>
      </trkpt>
      <trkpt lat="47.27317" lon="-2.3574">
        <ele>-22.60000038147</ele>
        <time>2021-02-25T11:18:40.000Z</time>
      </trkpt>
      <trkpt lat="47.27307" lon="-2.35738">
        <ele>-22.60000038147</ele>
        <time>2021-02-25T11:18:42.000Z</time>
      </trkpt>
      <trkpt lat="47.27299" lon="-2.35719">
        <ele>-22.60000038147</ele>
        <time>2021-02-25T11:18:45.000Z</time>
      </trkpt>
      <trkpt lat="47.27286" lon="-2.3569">
        <ele>-22.60000038147</ele>
        <time>2021-02-25T11:18:49.000Z</time>
      </trkpt>
      <trkpt lat="47.27266" lon="-2.35647">
        <ele>-22.60000038147</ele>
        <time>2021-02-25T11:18:55.000Z</time>
      </trkpt>
      <trkpt lat="47.27235" lon="-2.35577">
        <ele>-22.60000038147</ele>
        <time>2021-02-25T11:19:05.000Z</time>
      </trkpt>
      <trkpt lat="47.2721" lon="-2.35523">
        <ele>-22.60000038147</ele>
        <time>2021-02-25T11:19:13.000Z</time>
      </trkpt>
      <trkpt lat="47.27185" lon="-2.3547">
        <ele>-22.60000038147</ele>
        <time>2021-02-25T11:19:21.000Z</time>
      </trkpt>
      <trkpt lat="47.27156" lon="-2.35413">
        <ele>-22.60000038147</ele>
        <time>2021-02-25T11:19:30.000Z</time>
      </trkpt>
      <trkpt lat="47.27127" lon="-2.35358">
        <ele>-22.60000038147</ele>
        <time>2021-02-25T11:19:39.000Z</time>
      </trkpt>
      <trkpt lat="47.27095" lon="-2.35306">
        <ele>-22.60000038147</ele>
        <time>2021-02-25T11:19:48.000Z</time>
      </trkpt>
      <trkpt lat="47.27058" lon="-2.35249">
        <ele>-22.60000038147</ele>
        <time>2021-02-25T11:19:58.000Z</time>
      </trkpt>
      <trkpt lat="47.27024" lon="-2.35197">
        <ele>-22.60000038147</ele>
        <time>2021-02-25T11:20:07.000Z</time>
      </trkpt>
      <trkpt lat="47.2699" lon="-2.35144">
        <ele>-22.60000038147</ele>
        <time>2021-02-25T11:20:16.000Z</time>
      </trkpt>
      <trkpt lat="47.26955" lon="-2.35092">
        <ele>-22.60000038147</ele>
        <time>2021-02-25T11:20:25.000Z</time>
      </trkpt>
      <trkpt lat="47.26918" lon="-2.35036">
        <ele>-22.60000038147</ele>
        <time>2021-02-25T11:20:35.000Z</time>
      </trkpt>
      <trkpt lat="47.2688" lon="-2.34979">
        <ele>-22.60000038147</ele>
        <time>2021-02-25T11:20:45.000Z</time>
      </trkpt>
      <trkpt lat="47.26847" lon="-2.34928">
        <ele>-22.60000038147</ele>
        <time>2021-02-25T11:20:54.000Z</time>
      </trkpt>
      <trkpt lat="47.26812" lon="-2.34875">
        <ele>-22.60000038147</ele>
        <time>2021-02-25T11:21:03.000Z</time>
      </trkpt>
      <trkpt lat="47.26772" lon="-2.34818">
        <ele>-22.60000038147</ele>
        <time>2021-02-25T11:21:13.000Z</time>
      </trkpt>
      <trkpt lat="47.26747" lon="-2.34785">
        <ele>-22.60000038147</ele>
        <time>2021-02-25T11:21:19.000Z</time>
      </trkpt>
      <trkpt lat="47.26706" lon="-2.34735">
        <ele>-22.60000038147</ele>
        <time>2021-02-25T11:21:28.000Z</time>
      </trkpt>
      <trkpt lat="47.26667" lon="-2.34687">
        <ele>-22.60000038147</ele>
        <time>2021-02-25T11:21:37.000Z</time>
      </trkpt>
      <trkpt lat="47.26628" lon="-2.34639">
        <ele>-22.60000038147</ele>
        <time>2021-02-25T11:21:46.000Z</time>
      </trkpt>
      <trkpt lat="47.26591" lon="-2.34593">
        <ele>-22.60000038147</ele>
        <time>2021-02-25T11:21:56.000Z</time>
      </trkpt>
      <trkpt lat="47.26555" lon="-2.34554">
        <ele>-22.60000038147</ele>
        <time>2021-02-25T11:22:04.000Z</time>
      </trkpt>
      <trkpt lat="47.26522" lon="-2.34523">
        <ele>-22.60000038147</ele>
        <time>2021-02-25T11:22:11.000Z</time>
      </trkpt>
      <trkpt lat="47.26478" lon="-2.34491">
        <ele>-22.60000038147</ele>
        <time>2021-02-25T11:22:19.000Z</time>
      </trkpt>
      <trkpt lat="47.2644" lon="-2.34465">
        <ele>-22.60000038147</ele>
        <time>2021-02-25T11:22:26.000Z</time>
      </trkpt>
      <trkpt lat="47.26402" lon="-2.34436">
        <ele>-22.60000038147</ele>
        <time>2021-02-25T11:22:34.000Z</time>
      </trkpt>
      <trkpt lat="47.26369" lon="-2.34406">
        <ele>-22.60000038147</ele>
        <time>2021-02-25T11:22:41.000Z</time>
      </trkpt>
      <trkpt lat="47.26343" lon="-2.34382">
        <ele>-22.60000038147</ele>
        <time>2021-02-25T11:22:47.000Z</time>
      </trkpt>
      <trkpt lat="47.26338" lon="-2.3438">
        <ele>-22.60000038147</ele>
        <time>2021-02-25T11:22:48.000Z</time>
      </trkpt>
      <trkpt lat="47.26326" lon="-2.34376">
        <ele>-22.60000038147</ele>
        <time>2021-02-25T11:22:50.000Z</time>
      </trkpt>
      <trkpt lat="47.26313" lon="-2.34358">
        <ele>-22.60000038147</ele>
        <time>2021-02-25T11:22:53.000Z</time>
      </trkpt>
      <trkpt lat="47.263" lon="-2.34342">
        <ele>-22.60000038147</ele>
        <time>2021-02-25T11:22:56.000Z</time>
      </trkpt>
      <trkpt lat="47.26295" lon="-2.34337">
        <ele>-22.60000038147</ele>
        <time>2021-02-25T11:22:57.000Z</time>
      </trkpt>
      <trkpt lat="47.26269" lon="-2.34311">
        <ele>-22.60000038147</ele>
        <time>2021-02-25T11:23:03.000Z</time>
      </trkpt>
      <trkpt lat="47.26236" lon="-2.34275">
        <ele>-22.60000038147</ele>
        <time>2021-02-25T11:23:11.000Z</time>
      </trkpt>
      <trkpt lat="47.26197" lon="-2.34236">
        <ele>-22.60000038147</ele>
        <time>2021-02-25T11:23:20.000Z</time>
      </trkpt>
      <trkpt lat="47.26169" lon="-2.34207">
        <ele>-22.60000038147</ele>
        <time>2021-02-25T11:23:27.000Z</time>
      </trkpt>
      <trkpt lat="47.26142" lon="-2.34184">
        <ele>-22.60000038147</ele>
        <time>2021-02-25T11:23:34.000Z</time>
      </trkpt>
      <trkpt lat="47.26138" lon="-2.34183">
        <ele>-22.60000038147</ele>
        <time>2021-02-25T11:23:35.000Z</time>
      </trkpt>
      <trkpt lat="47.26122" lon="-2.34168">
        <ele>-22.60000038147</ele>
        <time>2021-02-25T11:23:39.000Z</time>
      </trkpt>
      <trkpt lat="47.26102" lon="-2.34154">
        <ele>-22.60000038147</ele>
        <time>2021-02-25T11:23:43.000Z</time>
      </trkpt>
      <trkpt lat="47.26056" lon="-2.34127">
        <ele>-22.60000038147</ele>
        <time>2021-02-25T11:23:52.000Z</time>
      </trkpt>
      <trkpt lat="47.26022" lon="-2.34111">
        <ele>-22.60000038147</ele>
        <time>2021-02-25T11:23:59.000Z</time>
      </trkpt>
      <trkpt lat="47.25983" lon="-2.34093">
        <ele>-22.60000038147</ele>
        <time>2021-02-25T11:24:07.000Z</time>
      </trkpt>
      <trkpt lat="47.25939" lon="-2.34073">
        <ele>-22.60000038147</ele>
        <time>2021-02-25T11:24:16.000Z</time>
      </trkpt>
      <trkpt lat="47.25922" lon="-2.34068">
        <ele>-22.60000038147</ele>
        <time>2021-02-25T11:24:19.000Z</time>
      </trkpt>
      <trkpt lat="47.25916" lon="-2.34069">
        <ele>-22.60000038147</ele>
        <time>2021-02-25T11:24:20.000Z</time>
      </trkpt>
      <trkpt lat="47.25901" lon="-2.3406">
        <ele>-22.60000038147</ele>
        <time>2021-02-25T11:24:23.000Z</time>
      </trkpt>
      <trkpt lat="47.25898" lon="-2.34053">
        <ele>-23</ele>
        <time>2021-02-25T11:24:24.000Z</time>
      </trkpt>
      <trkpt lat="47.25897" lon="-2.34044">
        <ele>-23.39999961853</ele>
        <time>2021-02-25T11:24:25.000Z</time>
      </trkpt>
      <trkpt lat="47.25897" lon="-2.34035">
        <ele>-23.799999237061</ele>
        <time>2021-02-25T11:24:26.000Z</time>
      </trkpt>
      <trkpt lat="47.25898" lon="-2.34027">
        <ele>-24.39999961853</ele>
        <time>2021-02-25T11:24:27.000Z</time>
      </trkpt>
      <trkpt lat="47.25899" lon="-2.34019">
        <ele>-24.799999237061</ele>
        <time>2021-02-25T11:24:28.000Z</time>
      </trkpt>
      <trkpt lat="47.25904" lon="-2.34006">
        <ele>-24.799999237061</ele>
        <time>2021-02-25T11:24:30.000Z</time>
      </trkpt>
      <trkpt lat="47.25907" lon="-2.33994">
        <ele>-24.799999237061</ele>
        <time>2021-02-25T11:24:32.000Z</time>
      </trkpt>
      <trkpt lat="47.25914" lon="-2.33974">
        <ele>-24.799999237061</ele>
        <time>2021-02-25T11:24:35.000Z</time>
      </trkpt>
      <trkpt lat="47.25932" lon="-2.33936">
        <ele>-24.799999237061</ele>
        <time>2021-02-25T11:24:42.000Z</time>
      </trkpt>
      <trkpt lat="47.25944" lon="-2.33913">
        <ele>-24.799999237061</ele>
        <time>2021-02-25T11:24:47.000Z</time>
      </trkpt>
      <trkpt lat="47.25944" lon="-2.33907">
        <ele>-24.799999237061</ele>
        <time>2021-02-25T11:24:48.000Z</time>
      </trkpt>
      <trkpt lat="47.25953" lon="-2.33882">
        <ele>-24.799999237061</ele>
        <time>2021-02-25T11:24:52.000Z</time>
      </trkpt>
      <trkpt lat="47.25969" lon="-2.33833">
        <ele>-24.799999237061</ele>
        <time>2021-02-25T11:24:59.000Z</time>
      </trkpt>
      <trkpt lat="47.25983" lon="-2.3379">
        <ele>-24.799999237061</ele>
        <time>2021-02-25T11:25:05.000Z</time>
      </trkpt>
      <trkpt lat="47.26006" lon="-2.33722">
        <ele>-24.799999237061</ele>
        <time>2021-02-25T11:25:15.000Z</time>
      </trkpt>
      <trkpt lat="47.26015" lon="-2.33695">
        <ele>-24.799999237061</ele>
        <time>2021-02-25T11:25:19.000Z</time>
      </trkpt>
      <trkpt lat="47.26019" lon="-2.33681">
        <ele>-24.799999237061</ele>
        <time>2021-02-25T11:25:21.000Z</time>
      </trkpt>
      <trkpt lat="47.26024" lon="-2.33652">
        <ele>-24.799999237061</ele>
        <time>2021-02-25T11:25:25.000Z</time>
      </trkpt>
      <trkpt lat="47.26024" lon="-2.33637">
        <ele>-24.799999237061</ele>
        <time>2021-02-25T11:25:27.000Z</time>
      </trkpt>
      <trkpt lat="47.26021" lon="-2.33622">
        <ele>-24.799999237061</ele>
        <time>2021-02-25T11:25:29.000Z</time>
      </trkpt>
      <trkpt lat="47.26016" lon="-2.33599">
        <ele>-24.799999237061</ele>
        <time>2021-02-25T11:25:32.000Z</time>
      </trkpt>
      <trkpt lat="47.26002" lon="-2.33567">
        <ele>-24.799999237061</ele>
        <time>2021-02-25T11:25:37.000Z</time>
      </trkpt>
      <trkpt lat="47.25995" lon="-2.33554">
        <ele>-24.799999237061</ele>
        <time>2021-02-25T11:25:39.000Z</time>
      </trkpt>
      <trkpt lat="47.25984" lon="-2.33536">
        <ele>-25.200000762939</ele>
        <time>2021-02-25T11:25:42.000Z</time>
      </trkpt>
      <trkpt lat="47.25981" lon="-2.3353">
        <ele>-25.60000038147</ele>
        <time>2021-02-25T11:25:43.000Z</time>
      </trkpt>
      <trkpt lat="47.25979" lon="-2.33525">
        <ele>-26</ele>
        <time>2021-02-25T11:25:44.000Z</time>
      </trkpt>
      <trkpt lat="47.25978" lon="-2.33521">
        <ele>-26.39999961853</ele>
        <time>2021-02-25T11:25:45.000Z</time>
      </trkpt>
      <trkpt lat="47.25977" lon="-2.3352">
        <ele>-26.799999237061</ele>
        <time>2021-02-25T11:25:46.000Z</time>
      </trkpt>
      <trkpt lat="47.25976" lon="-2.33517">
        <ele>-26.799999237061</ele>
        <time>2021-02-25T11:25:48.000Z</time>
      </trkpt>
      <trkpt lat="47.25976" lon="-2.33516">
        <ele>-26.799999237061</ele>
        <time>2021-02-25T11:25:50.000Z</time>
      </trkpt>
      <trkpt lat="47.25974" lon="-2.33514">
        <ele>-26.799999237061</ele>
        <time>2021-02-25T11:25:53.000Z</time>
      </trkpt>
      <trkpt lat="47.25971" lon="-2.33509">
        <ele>-26.799999237061</ele>
        <time>2021-02-25T11:25:55.000Z</time>
      </trkpt>
      <trkpt lat="47.25963" lon="-2.33498">
        <ele>-26.799999237061</ele>
        <time>2021-02-25T11:25:58.000Z</time>
      </trkpt>
      <trkpt lat="47.25961" lon="-2.33491">
        <ele>-26.799999237061</ele>
        <time>2021-02-25T11:25:59.000Z</time>
      </trkpt>
      <trkpt lat="47.25952" lon="-2.3347">
        <ele>-26.799999237061</ele>
        <time>2021-02-25T11:26:02.000Z</time>
      </trkpt>
      <trkpt lat="47.25945" lon="-2.33457">
        <ele>-26.799999237061</ele>
        <time>2021-02-25T11:26:04.000Z</time>
      </trkpt>
      <trkpt lat="47.25922" lon="-2.33398">
        <ele>-26.39999961853</ele>
        <time>2021-02-25T11:26:12.000Z</time>
      </trkpt>
      <trkpt lat="47.2592" lon="-2.33391">
        <ele>-26</ele>
        <time>2021-02-25T11:26:13.000Z</time>
      </trkpt>
      <trkpt lat="47.25918" lon="-2.33383">
        <ele>-25.60000038147</ele>
        <time>2021-02-25T11:26:14.000Z</time>
      </trkpt>
      <trkpt lat="47.25916" lon="-2.33375">
        <ele>-25.200000762939</ele>
        <time>2021-02-25T11:26:15.000Z</time>
      </trkpt>
      <trkpt lat="47.25915" lon="-2.33368">
        <ele>-24.799999237061</ele>
        <time>2021-02-25T11:26:16.000Z</time>
      </trkpt>
      <trkpt lat="47.2591" lon="-2.33345">
        <ele>-24.799999237061</ele>
        <time>2021-02-25T11:26:19.000Z</time>
      </trkpt>
      <trkpt lat="47.25904" lon="-2.33295">
        <ele>-24.799999237061</ele>
        <time>2021-02-25T11:26:25.000Z</time>
      </trkpt>
      <trkpt lat="47.25904" lon="-2.33287">
        <ele>-24.799999237061</ele>
        <time>2021-02-25T11:26:26.000Z</time>
      </trkpt>
      <trkpt lat="47.25904" lon="-2.33244">
        <ele>-24.799999237061</ele>
        <time>2021-02-25T11:26:31.000Z</time>
      </trkpt>
      <trkpt lat="47.25902" lon="-2.33184">
        <ele>-24.799999237061</ele>
        <time>2021-02-25T11:26:38.000Z</time>
      </trkpt>
      <trkpt lat="47.25893" lon="-2.33124">
        <ele>-24.799999237061</ele>
        <time>2021-02-25T11:26:46.000Z</time>
      </trkpt>
      <trkpt lat="47.25879" lon="-2.33079">
        <ele>-24.799999237061</ele>
        <time>2021-02-25T11:26:53.000Z</time>
      </trkpt>
      <trkpt lat="47.25863" lon="-2.33026">
        <ele>-24.799999237061</ele>
        <time>2021-02-25T11:27:01.000Z</time>
      </trkpt>
      <trkpt lat="47.25861" lon="-2.3302">
        <ele>-24.39999961853</ele>
        <time>2021-02-25T11:27:02.000Z</time>
      </trkpt>
      <trkpt lat="47.25858" lon="-2.33014">
        <ele>-24</ele>
        <time>2021-02-25T11:27:03.000Z</time>
      </trkpt>
      <trkpt lat="47.25855" lon="-2.33008">
        <ele>-23.39999961853</ele>
        <time>2021-02-25T11:27:04.000Z</time>
      </trkpt>
      <trkpt lat="47.25852" lon="-2.33002">
        <ele>-23</ele>
        <time>2021-02-25T11:27:05.000Z</time>
      </trkpt>
      <trkpt lat="47.25849" lon="-2.32996">
        <ele>-22.60000038147</ele>
        <time>2021-02-25T11:27:06.000Z</time>
      </trkpt>
      <trkpt lat="47.25846" lon="-2.32991">
        <ele>-22.60000038147</ele>
        <time>2021-02-25T11:27:07.000Z</time>
      </trkpt>
      <trkpt lat="47.25821" lon="-2.32957">
        <ele>-22.60000038147</ele>
        <time>2021-02-25T11:27:14.000Z</time>
      </trkpt>
      <trkpt lat="47.25794" lon="-2.32923">
        <ele>-22.60000038147</ele>
        <time>2021-02-25T11:27:21.000Z</time>
      </trkpt>
      <trkpt lat="47.25783" lon="-2.32908">
        <ele>-22.200000762939</ele>
        <time>2021-02-25T11:27:24.000Z</time>
      </trkpt>
      <trkpt lat="47.2578" lon="-2.32903">
        <ele>-21.799999237061</ele>
        <time>2021-02-25T11:27:25.000Z</time>
      </trkpt>
      <trkpt lat="47.25776" lon="-2.32898">
        <ele>-21.39999961853</ele>
        <time>2021-02-25T11:27:26.000Z</time>
      </trkpt>
      <trkpt lat="47.25773" lon="-2.32893">
        <ele>-21</ele>
        <time>2021-02-25T11:27:27.000Z</time>
      </trkpt>
      <trkpt lat="47.2577" lon="-2.32887">
        <ele>-20.60000038147</ele>
        <time>2021-02-25T11:27:28.000Z</time>
      </trkpt>
      <trkpt lat="47.25767" lon="-2.32882">
        <ele>-20.60000038147</ele>
        <time>2021-02-25T11:27:29.000Z</time>
      </trkpt>
      <trkpt lat="47.25748" lon="-2.32841">
        <ele>-20.60000038147</ele>
        <time>2021-02-25T11:27:36.000Z</time>
      </trkpt>
      <trkpt lat="47.25746" lon="-2.32834">
        <ele>-20.200000762939</ele>
        <time>2021-02-25T11:27:37.000Z</time>
      </trkpt>
      <trkpt lat="47.25743" lon="-2.32828">
        <ele>-19.799999237061</ele>
        <time>2021-02-25T11:27:38.000Z</time>
      </trkpt>
      <trkpt lat="47.25741" lon="-2.32821">
        <ele>-19.39999961853</ele>
        <time>2021-02-25T11:27:39.000Z</time>
      </trkpt>
      <trkpt lat="47.25739" lon="-2.32814">
        <ele>-19</ele>
        <time>2021-02-25T11:27:40.000Z</time>
      </trkpt>
      <trkpt lat="47.25737" lon="-2.32807">
        <ele>-18.39999961853</ele>
        <time>2021-02-25T11:27:41.000Z</time>
      </trkpt>
      <trkpt lat="47.25736" lon="-2.32799">
        <ele>-18.39999961853</ele>
        <time>2021-02-25T11:27:42.000Z</time>
      </trkpt>
      <trkpt lat="47.25726" lon="-2.32735">
        <ele>-18.39999961853</ele>
        <time>2021-02-25T11:27:50.000Z</time>
      </trkpt>
      <trkpt lat="47.25721" lon="-2.32673">
        <ele>-18.39999961853</ele>
        <time>2021-02-25T11:27:57.000Z</time>
      </trkpt>
      <trkpt lat="47.25712" lon="-2.32621">
        <ele>-18.39999961853</ele>
        <time>2021-02-25T11:28:03.000Z</time>
      </trkpt>
      <trkpt lat="47.25701" lon="-2.32576">
        <ele>-19</ele>
        <time>2021-02-25T11:28:08.000Z</time>
      </trkpt>
      <trkpt lat="47.25699" lon="-2.32568">
        <ele>-19.39999961853</ele>
        <time>2021-02-25T11:28:09.000Z</time>
      </trkpt>
      <trkpt lat="47.25696" lon="-2.3256">
        <ele>-19.799999237061</ele>
        <time>2021-02-25T11:28:10.000Z</time>
      </trkpt>
      <trkpt lat="47.25693" lon="-2.32551">
        <ele>-20.200000762939</ele>
        <time>2021-02-25T11:28:11.000Z</time>
      </trkpt>
      <trkpt lat="47.2569" lon="-2.32542">
        <ele>-20.799999237061</ele>
        <time>2021-02-25T11:28:12.000Z</time>
      </trkpt>
      <trkpt lat="47.25673" lon="-2.32485">
        <ele>-20.799999237061</ele>
        <time>2021-02-25T11:28:18.000Z</time>
      </trkpt>
      <trkpt lat="47.25662" lon="-2.32445">
        <ele>-21.200000762939</ele>
        <time>2021-02-25T11:28:22.000Z</time>
      </trkpt>
      <trkpt lat="47.2566" lon="-2.32434">
        <ele>-21.60000038147</ele>
        <time>2021-02-25T11:28:23.000Z</time>
      </trkpt>
      <trkpt lat="47.25658" lon="-2.32425">
        <ele>-22</ele>
        <time>2021-02-25T11:28:24.000Z</time>
      </trkpt>
      <trkpt lat="47.25656" lon="-2.32416">
        <ele>-22.39999961853</ele>
        <time>2021-02-25T11:28:25.000Z</time>
      </trkpt>
      <trkpt lat="47.25654" lon="-2.32409">
        <ele>-22.799999237061</ele>
        <time>2021-02-25T11:28:26.000Z</time>
      </trkpt>
      <trkpt lat="47.25656" lon="-2.32402">
        <ele>-22.799999237061</ele>
        <time>2021-02-25T11:28:27.000Z</time>
      </trkpt>
      <trkpt lat="47.25665" lon="-2.32401">
        <ele>-22.799999237061</ele>
        <time>2021-02-25T11:28:30.000Z</time>
      </trkpt>
      <trkpt lat="47.25677" lon="-2.32414">
        <ele>-22.799999237061</ele>
        <time>2021-02-25T11:28:33.000Z</time>
      </trkpt>
      <trkpt lat="47.25702" lon="-2.32418">
        <ele>-22.799999237061</ele>
        <time>2021-02-25T11:28:37.000Z</time>
      </trkpt>
      <trkpt lat="47.25736" lon="-2.32418">
        <ele>-22.799999237061</ele>
        <time>2021-02-25T11:28:43.000Z</time>
      </trkpt>
      <trkpt lat="47.25757" lon="-2.32417">
        <ele>-22.799999237061</ele>
        <time>2021-02-25T11:28:47.000Z</time>
      </trkpt>
      <trkpt lat="47.25762" lon="-2.32415">
        <ele>-23.200000762939</ele>
        <time>2021-02-25T11:28:48.000Z</time>
      </trkpt>
      <trkpt lat="47.25766" lon="-2.32413">
        <ele>-23.60000038147</ele>
        <time>2021-02-25T11:28:49.000Z</time>
      </trkpt>
      <trkpt lat="47.2577" lon="-2.32411">
        <ele>-24.60000038147</ele>
        <time>2021-02-25T11:28:50.000Z</time>
      </trkpt>
      <trkpt lat="47.25774" lon="-2.32409">
        <ele>-25</ele>
        <time>2021-02-25T11:28:51.000Z</time>
      </trkpt>
      <trkpt lat="47.25783" lon="-2.32415">
        <ele>-25</ele>
        <time>2021-02-25T11:28:53.000Z</time>
      </trkpt>
      <trkpt lat="47.25793" lon="-2.32433">
        <ele>-25</ele>
        <time>2021-02-25T11:28:56.000Z</time>
      </trkpt>
      <trkpt lat="47.25796" lon="-2.32439">
        <ele>-25</ele>
        <time>2021-02-25T11:28:57.000Z</time>
      </trkpt>
      <trkpt lat="47.25801" lon="-2.32445">
        <ele>-25</ele>
        <time>2021-02-25T11:28:58.000Z</time>
      </trkpt>
      <trkpt lat="47.25816" lon="-2.32457">
        <ele>-25</ele>
        <time>2021-02-25T11:29:01.000Z</time>
      </trkpt>
      <trkpt lat="47.25851" lon="-2.32473">
        <ele>-25</ele>
        <time>2021-02-25T11:29:07.000Z</time>
      </trkpt>
      <trkpt lat="47.25884" lon="-2.32468">
        <ele>-25</ele>
        <time>2021-02-25T11:29:13.000Z</time>
      </trkpt>
      <trkpt lat="47.25895" lon="-2.32464">
        <ele>-25</ele>
        <time>2021-02-25T11:29:15.000Z</time>
      </trkpt>
      <trkpt lat="47.25905" lon="-2.32454">
        <ele>-25</ele>
        <time>2021-02-25T11:29:17.000Z</time>
      </trkpt>
      <trkpt lat="47.25926" lon="-2.32427">
        <ele>-25</ele>
        <time>2021-02-25T11:29:22.000Z</time>
      </trkpt>
      <trkpt lat="47.25935" lon="-2.32416">
        <ele>-25</ele>
        <time>2021-02-25T11:29:24.000Z</time>
      </trkpt>
      <trkpt lat="47.25972" lon="-2.32366">
        <ele>-25</ele>
        <time>2021-02-25T11:29:33.000Z</time>
      </trkpt>
      <trkpt lat="47.25989" lon="-2.32344">
        <ele>-25</ele>
        <time>2021-02-25T11:29:37.000Z</time>
      </trkpt>
      <trkpt lat="47.25997" lon="-2.32333">
        <ele>-25</ele>
        <time>2021-02-25T11:29:39.000Z</time>
      </trkpt>
      <trkpt lat="47.26026" lon="-2.32297">
        <ele>-25</ele>
        <time>2021-02-25T11:29:46.000Z</time>
      </trkpt>
      <trkpt lat="47.26062" lon="-2.32258">
        <ele>-25</ele>
        <time>2021-02-25T11:29:54.000Z</time>
      </trkpt>
      <trkpt lat="47.26087" lon="-2.32227">
        <ele>-25</ele>
        <time>2021-02-25T11:30:00.000Z</time>
      </trkpt>
      <trkpt lat="47.26102" lon="-2.32202">
        <ele>-25</ele>
        <time>2021-02-25T11:30:04.000Z</time>
      </trkpt>
      <trkpt lat="47.26108" lon="-2.32187">
        <ele>-25</ele>
        <time>2021-02-25T11:30:06.000Z</time>
      </trkpt>
      <trkpt lat="47.26125" lon="-2.32137">
        <ele>-25</ele>
        <time>2021-02-25T11:30:13.000Z</time>
      </trkpt>
      <trkpt lat="47.26142" lon="-2.32076">
        <ele>-25</ele>
        <time>2021-02-25T11:30:21.000Z</time>
      </trkpt>
      <trkpt lat="47.26153" lon="-2.32036">
        <ele>-25</ele>
        <time>2021-02-25T11:30:26.000Z</time>
      </trkpt>
      <trkpt lat="47.26156" lon="-2.32019">
        <ele>-25</ele>
        <time>2021-02-25T11:30:28.000Z</time>
      </trkpt>
      <trkpt lat="47.26158" lon="-2.32004">
        <ele>-25</ele>
        <time>2021-02-25T11:30:30.000Z</time>
      </trkpt>
      <trkpt lat="47.26157" lon="-2.31987">
        <ele>-25</ele>
        <time>2021-02-25T11:30:32.000Z</time>
      </trkpt>
      <trkpt lat="47.26154" lon="-2.31973">
        <ele>-25</ele>
        <time>2021-02-25T11:30:34.000Z</time>
      </trkpt>
      <trkpt lat="47.2615" lon="-2.31933">
        <ele>-25</ele>
        <time>2021-02-25T11:30:39.000Z</time>
      </trkpt>
      <trkpt lat="47.26142" lon="-2.31868">
        <ele>-25</ele>
        <time>2021-02-25T11:30:47.000Z</time>
      </trkpt>
      <trkpt lat="47.26136" lon="-2.3182">
        <ele>-25</ele>
        <time>2021-02-25T11:30:53.000Z</time>
      </trkpt>
      <trkpt lat="47.26129" lon="-2.31747">
        <ele>-25</ele>
        <time>2021-02-25T11:31:02.000Z</time>
      </trkpt>
      <trkpt lat="47.26128" lon="-2.31731">
        <ele>-25</ele>
        <time>2021-02-25T11:31:04.000Z</time>
      </trkpt>
      <trkpt lat="47.26126" lon="-2.31715">
        <ele>-25</ele>
        <time>2021-02-25T11:31:06.000Z</time>
      </trkpt>
      <trkpt lat="47.26125" lon="-2.31708">
        <ele>-25</ele>
        <time>2021-02-25T11:31:07.000Z</time>
      </trkpt>
      <trkpt lat="47.26123" lon="-2.31684">
        <ele>-25</ele>
        <time>2021-02-25T11:31:10.000Z</time>
      </trkpt>
      <trkpt lat="47.2612" lon="-2.31668">
        <ele>-25</ele>
        <time>2021-02-25T11:31:12.000Z</time>
      </trkpt>
      <trkpt lat="47.26115" lon="-2.31631">
        <ele>-25</ele>
        <time>2021-02-25T11:31:17.000Z</time>
      </trkpt>
      <trkpt lat="47.26117" lon="-2.31624">
        <ele>-25</ele>
        <time>2021-02-25T11:31:18.000Z</time>
      </trkpt>
      <trkpt lat="47.26129" lon="-2.31612">
        <ele>-25</ele>
        <time>2021-02-25T11:31:21.000Z</time>
      </trkpt>
      <trkpt lat="47.26145" lon="-2.31609">
        <ele>-25</ele>
        <time>2021-02-25T11:31:24.000Z</time>
      </trkpt>
      <trkpt lat="47.2615" lon="-2.31608">
        <ele>-25</ele>
        <time>2021-02-25T11:31:25.000Z</time>
      </trkpt>
      <trkpt lat="47.26155" lon="-2.31606">
        <ele>-25</ele>
        <time>2021-02-25T11:31:26.000Z</time>
      </trkpt>
      <trkpt lat="47.26181" lon="-2.31596">
        <ele>-25</ele>
        <time>2021-02-25T11:31:31.000Z</time>
      </trkpt>
      <trkpt lat="47.26212" lon="-2.31588">
        <ele>-25</ele>
        <time>2021-02-25T11:31:37.000Z</time>
      </trkpt>
      <trkpt lat="47.26217" lon="-2.31588">
        <ele>-25</ele>
        <time>2021-02-25T11:31:38.000Z</time>
      </trkpt>
      <trkpt lat="47.26229" lon="-2.31595">
        <ele>-25</ele>
        <time>2021-02-25T11:31:41.000Z</time>
      </trkpt>
      <trkpt lat="47.2624" lon="-2.31604">
        <ele>-25</ele>
        <time>2021-02-25T11:31:44.000Z</time>
      </trkpt>
      <trkpt lat="47.26248" lon="-2.31614">
        <ele>-25</ele>
        <time>2021-02-25T11:31:46.000Z</time>
      </trkpt>
      <trkpt lat="47.26254" lon="-2.31625">
        <ele>-25</ele>
        <time>2021-02-25T11:31:48.000Z</time>
      </trkpt>
      <trkpt lat="47.26257" lon="-2.31632">
        <ele>-25</ele>
        <time>2021-02-25T11:31:49.000Z</time>
      </trkpt>
      <trkpt lat="47.2626" lon="-2.31638">
        <ele>-25</ele>
        <time>2021-02-25T11:31:50.000Z</time>
      </trkpt>
      <trkpt lat="47.26277" lon="-2.31673">
        <ele>-25</ele>
        <time>2021-02-25T11:31:55.000Z</time>
      </trkpt>
      <trkpt lat="47.26281" lon="-2.3168">
        <ele>-25</ele>
        <time>2021-02-25T11:31:56.000Z</time>
      </trkpt>
      <trkpt lat="47.26298" lon="-2.31706">
        <ele>-25</ele>
        <time>2021-02-25T11:32:00.000Z</time>
      </trkpt>
      <trkpt lat="47.26301" lon="-2.3171">
        <ele>-25</ele>
        <time>2021-02-25T11:32:01.000Z</time>
      </trkpt>
      <trkpt lat="47.26307" lon="-2.31711">
        <ele>-25</ele>
        <time>2021-02-25T11:32:02.000Z</time>
      </trkpt>
      <trkpt lat="47.26316" lon="-2.31707">
        <ele>-25</ele>
        <time>2021-02-25T11:32:04.000Z</time>
      </trkpt>
      <trkpt lat="47.26325" lon="-2.31703">
        <ele>-25</ele>
        <time>2021-02-25T11:32:06.000Z</time>
      </trkpt>
      <trkpt lat="47.26332" lon="-2.31696">
        <ele>-25</ele>
        <time>2021-02-25T11:32:08.000Z</time>
      </trkpt>
      <trkpt lat="47.26334" lon="-2.31691">
        <ele>-25</ele>
        <time>2021-02-25T11:32:09.000Z</time>
      </trkpt>
      <trkpt lat="47.2634" lon="-2.31684">
        <ele>-25</ele>
        <time>2021-02-25T11:32:11.000Z</time>
      </trkpt>
      <trkpt lat="47.26343" lon="-2.31683">
        <ele>-24.60000038147</ele>
        <time>2021-02-25T11:32:12.000Z</time>
      </trkpt>
      <trkpt lat="47.26346" lon="-2.31681">
        <ele>-24.200000762939</ele>
        <time>2021-02-25T11:32:13.000Z</time>
      </trkpt>
      <trkpt lat="47.2635" lon="-2.31679">
        <ele>-23.799999237061</ele>
        <time>2021-02-25T11:32:14.000Z</time>
      </trkpt>
      <trkpt lat="47.26353" lon="-2.31677">
        <ele>-23.39999961853</ele>
        <time>2021-02-25T11:32:15.000Z</time>
      </trkpt>
      <trkpt lat="47.26357" lon="-2.31676">
        <ele>-23</ele>
        <time>2021-02-25T11:32:16.000Z</time>
      </trkpt>
      <trkpt lat="47.26369" lon="-2.31671">
        <ele>-23</ele>
        <time>2021-02-25T11:32:19.000Z</time>
      </trkpt>
      <trkpt lat="47.26381" lon="-2.31665">
        <ele>-23</ele>
        <time>2021-02-25T11:32:22.000Z</time>
      </trkpt>
      <trkpt lat="47.26389" lon="-2.3166">
        <ele>-23</ele>
        <time>2021-02-25T11:32:24.000Z</time>
      </trkpt>
      <trkpt lat="47.26396" lon="-2.31657">
        <ele>-22.60000038147</ele>
        <time>2021-02-25T11:32:26.000Z</time>
      </trkpt>
      <trkpt lat="47.26399" lon="-2.31655">
        <ele>-22.200000762939</ele>
        <time>2021-02-25T11:32:27.000Z</time>
      </trkpt>
      <trkpt lat="47.26403" lon="-2.31654">
        <ele>-21.799999237061</ele>
        <time>2021-02-25T11:32:28.000Z</time>
      </trkpt>
      <trkpt lat="47.26406" lon="-2.31651">
        <ele>-21.39999961853</ele>
        <time>2021-02-25T11:32:29.000Z</time>
      </trkpt>
      <trkpt lat="47.26407" lon="-2.31647">
        <ele>-21</ele>
        <time>2021-02-25T11:32:30.000Z</time>
      </trkpt>
      <trkpt lat="47.26404" lon="-2.31633">
        <ele>-21</ele>
        <time>2021-02-25T11:32:33.000Z</time>
      </trkpt>
      <trkpt lat="47.26405" lon="-2.31621">
        <ele>-21</ele>
        <time>2021-02-25T11:32:35.000Z</time>
      </trkpt>
      <trkpt lat="47.26405" lon="-2.31615">
        <ele>-21</ele>
        <time>2021-02-25T11:32:36.000Z</time>
      </trkpt>
      <trkpt lat="47.26406" lon="-2.3157">
        <ele>-21</ele>
        <time>2021-02-25T11:32:44.000Z</time>
      </trkpt>
      <trkpt lat="47.2641" lon="-2.31551">
        <ele>-21</ele>
        <time>2021-02-25T11:32:48.000Z</time>
      </trkpt>
      <trkpt lat="47.26414" lon="-2.31551">
        <ele>-21</ele>
        <time>2021-02-25T11:32:49.000Z</time>
      </trkpt>
      <trkpt lat="47.26417" lon="-2.31552">
        <ele>-21</ele>
        <time>2021-02-25T11:32:53.000Z</time>
      </trkpt>
    </trkseg>
  </trk>
</gpx>